<?xml version="1.0" encoding="UTF-8" standalone="no" ?>
<gpx xmlns="http://www.topografix.com/GPX/1/1" xmlns:xsi="http://www.w3.org/2001/XMLSchema-instance" xsi:schemaLocation="http://www.topografix.com/GPX/1/1 http://www.topografix.com/GPX/1/1/gpx.xsd" version="1.1" creator="VisuGPX - https://www.visugpx.com">
  <metadata>
    <name>Bozouls, le long du Dourdou</name>
    <desc><![CDATA[Belle rando le long du Dourdou qui a creusé un magnifique canyon dans les roches calcaire. Bel aménagement par la commune.]]></desc>
  </metadata>
  <trk>
    <name><![CDATA[2015-12-11 12:18]]></name>
    <desc><![CDATA[<h1>OruxMaps</h1><br /><hr align="center" width="480" style="height: 2px; width: 517px"/><h2>Nom: 2015-12-11 12:18</h2><br /><p>Temps de départ: 12/11/2015 12:18</p><p>Temps d'arrivée: 12/11/2015 16:47</p><p>Distance: 18,2km (04:29)</p><p>Temps déplacement: 03:40</p><p>Vitesse moyenne: 4km/h</p><p>Vitesse moyenne: 4,9km/h</p><p>Vitess Max.: 21,9km/h</p><p>Altitude minimale: 350m</p><p>Altitude maximale: 558m</p><p>Vitesse d'élévation: 490,9m/h</p><p>Vitesse de descente: -430,1m/h</p><p>Gain Altitude: 939m</p><p>Perte Altitude: -952m</p><p>Temps d'élévation: 01:54</p><p>Temps de descente: 02:12</p><hr align="center" width="480" style="height: 2px; width: 517px"/>]]></desc>
    <trkseg>
      <trkpt lat="44.47093" lon="2.72257">
        <ele>553.44</ele>
        <time>2015-12-11T11:18:16Z</time>
      </trkpt>
      <trkpt lat="44.47087" lon="2.72256">
        <ele>553.74</ele>
        <time>2015-12-11T11:18:33Z</time>
      </trkpt>
      <trkpt lat="44.47092" lon="2.7225">
        <ele>550.42</ele>
        <time>2015-12-11T11:18:38Z</time>
      </trkpt>
      <trkpt lat="44.47097" lon="2.72249">
        <ele>547.53</ele>
        <time>2015-12-11T11:18:43Z</time>
      </trkpt>
      <trkpt lat="44.47095" lon="2.72255">
        <ele>551.23</ele>
        <time>2015-12-11T11:18:55Z</time>
      </trkpt>
      <trkpt lat="44.47091" lon="2.72253">
        <ele>552.4</ele>
        <time>2015-12-11T11:20:45Z</time>
      </trkpt>
      <trkpt lat="44.47094" lon="2.72248">
        <ele>551.59</ele>
        <time>2015-12-11T11:21:11Z</time>
      </trkpt>
      <trkpt lat="44.47092" lon="2.72242">
        <ele>551.6</ele>
        <time>2015-12-11T11:21:13Z</time>
      </trkpt>
      <trkpt lat="44.47088" lon="2.72236">
        <ele>553.26</ele>
        <time>2015-12-11T11:21:16Z</time>
      </trkpt>
      <trkpt lat="44.47087" lon="2.72229">
        <ele>552.6</ele>
        <time>2015-12-11T11:21:20Z</time>
      </trkpt>
      <trkpt lat="44.47085" lon="2.72223">
        <ele>551.84</ele>
        <time>2015-12-11T11:21:24Z</time>
      </trkpt>
      <trkpt lat="44.47082" lon="2.72217">
        <ele>548.65</ele>
        <time>2015-12-11T11:21:29Z</time>
      </trkpt>
      <trkpt lat="44.47079" lon="2.72211">
        <ele>549.83</ele>
        <time>2015-12-11T11:21:32Z</time>
      </trkpt>
      <trkpt lat="44.47076" lon="2.72205">
        <ele>550.4</ele>
        <time>2015-12-11T11:21:35Z</time>
      </trkpt>
      <trkpt lat="44.47073" lon="2.722">
        <ele>551.61</ele>
        <time>2015-12-11T11:21:42Z</time>
      </trkpt>
      <trkpt lat="44.47075" lon="2.72192">
        <ele>550.86</ele>
        <time>2015-12-11T11:21:48Z</time>
      </trkpt>
      <trkpt lat="44.47076" lon="2.72185">
        <ele>553.99</ele>
        <time>2015-12-11T11:21:52Z</time>
      </trkpt>
      <trkpt lat="44.47075" lon="2.72179">
        <ele>555.27</ele>
        <time>2015-12-11T11:21:55Z</time>
      </trkpt>
      <trkpt lat="44.47072" lon="2.72174">
        <ele>553.71</ele>
        <time>2015-12-11T11:22:00Z</time>
      </trkpt>
      <trkpt lat="44.47067" lon="2.7217">
        <ele>555.43</ele>
        <time>2015-12-11T11:22:03Z</time>
      </trkpt>
      <trkpt lat="44.47062" lon="2.72167">
        <ele>557.45</ele>
        <time>2015-12-11T11:22:05Z</time>
      </trkpt>
      <trkpt lat="44.47061" lon="2.72161">
        <ele>555.92</ele>
        <time>2015-12-11T11:22:09Z</time>
      </trkpt>
      <trkpt lat="44.47059" lon="2.72154">
        <ele>553.83</ele>
        <time>2015-12-11T11:22:12Z</time>
      </trkpt>
      <trkpt lat="44.47055" lon="2.72149">
        <ele>554.96</ele>
        <time>2015-12-11T11:22:16Z</time>
      </trkpt>
      <trkpt lat="44.47054" lon="2.72143">
        <ele>557.76</ele>
        <time>2015-12-11T11:22:19Z</time>
      </trkpt>
      <trkpt lat="44.47051" lon="2.72137">
        <ele>555.28</ele>
        <time>2015-12-11T11:22:25Z</time>
      </trkpt>
      <trkpt lat="44.47046" lon="2.72134">
        <ele>553.93</ele>
        <time>2015-12-11T11:22:28Z</time>
      </trkpt>
      <trkpt lat="44.47041" lon="2.7213">
        <ele>554.88</ele>
        <time>2015-12-11T11:22:32Z</time>
      </trkpt>
      <trkpt lat="44.47038" lon="2.72125">
        <ele>555.73</ele>
        <time>2015-12-11T11:22:38Z</time>
      </trkpt>
      <trkpt lat="44.47033" lon="2.72118">
        <ele>552.17</ele>
        <time>2015-12-11T11:22:42Z</time>
      </trkpt>
      <trkpt lat="44.47031" lon="2.72112">
        <ele>550.75</ele>
        <time>2015-12-11T11:22:46Z</time>
      </trkpt>
      <trkpt lat="44.47028" lon="2.72109">
        <ele>549.06</ele>
        <time>2015-12-11T11:22:52Z</time>
      </trkpt>
      <trkpt lat="44.47023" lon="2.72108">
        <ele>552.5</ele>
        <time>2015-12-11T11:22:56Z</time>
      </trkpt>
      <trkpt lat="44.47019" lon="2.72103">
        <ele>553.12</ele>
        <time>2015-12-11T11:23:00Z</time>
      </trkpt>
      <trkpt lat="44.46979" lon="2.72045">
        <ele>545.05</ele>
        <time>2015-12-11T11:23:36Z</time>
      </trkpt>
      <trkpt lat="44.46975" lon="2.72044">
        <ele>539.94</ele>
        <time>2015-12-11T11:23:39Z</time>
      </trkpt>
      <trkpt lat="44.4697" lon="2.7204">
        <ele>542.18</ele>
        <time>2015-12-11T11:23:43Z</time>
      </trkpt>
      <trkpt lat="44.46966" lon="2.72037">
        <ele>535.46</ele>
        <time>2015-12-11T11:23:49Z</time>
      </trkpt>
      <trkpt lat="44.46958" lon="2.72029">
        <ele>532.6</ele>
        <time>2015-12-11T11:23:56Z</time>
      </trkpt>
      <trkpt lat="44.46958" lon="2.72023">
        <ele>537.66</ele>
        <time>2015-12-11T11:24:01Z</time>
      </trkpt>
      <trkpt lat="44.46955" lon="2.72017">
        <ele>538.85</ele>
        <time>2015-12-11T11:24:06Z</time>
      </trkpt>
      <trkpt lat="44.46955" lon="2.72009">
        <ele>540.97</ele>
        <time>2015-12-11T11:24:09Z</time>
      </trkpt>
      <trkpt lat="44.46955" lon="2.72003">
        <ele>539.52</ele>
        <time>2015-12-11T11:24:16Z</time>
      </trkpt>
      <trkpt lat="44.46953" lon="2.71993">
        <ele>538.64</ele>
        <time>2015-12-11T11:24:21Z</time>
      </trkpt>
      <trkpt lat="44.46949" lon="2.71985">
        <ele>540.77</ele>
        <time>2015-12-11T11:24:27Z</time>
      </trkpt>
      <trkpt lat="44.46947" lon="2.71978">
        <ele>540.83</ele>
        <time>2015-12-11T11:24:31Z</time>
      </trkpt>
      <trkpt lat="44.46946" lon="2.7197">
        <ele>541.93</ele>
        <time>2015-12-11T11:24:34Z</time>
      </trkpt>
      <trkpt lat="44.46941" lon="2.71969">
        <ele>544.85</ele>
        <time>2015-12-11T11:24:39Z</time>
      </trkpt>
      <trkpt lat="44.46944" lon="2.71962">
        <ele>542.5</ele>
        <time>2015-12-11T11:24:44Z</time>
      </trkpt>
      <trkpt lat="44.46947" lon="2.71954">
        <ele>536.48</ele>
        <time>2015-12-11T11:24:49Z</time>
      </trkpt>
      <trkpt lat="44.46951" lon="2.71948">
        <ele>534.81</ele>
        <time>2015-12-11T11:24:54Z</time>
      </trkpt>
      <trkpt lat="44.46955" lon="2.71944">
        <ele>535.11</ele>
        <time>2015-12-11T11:24:56Z</time>
      </trkpt>
      <trkpt lat="44.46962" lon="2.71941">
        <ele>535.74</ele>
        <time>2015-12-11T11:25:03Z</time>
      </trkpt>
      <trkpt lat="44.46966" lon="2.71938">
        <ele>536.48</ele>
        <time>2015-12-11T11:25:07Z</time>
      </trkpt>
      <trkpt lat="44.46968" lon="2.71931">
        <ele>534.7</ele>
        <time>2015-12-11T11:25:10Z</time>
      </trkpt>
      <trkpt lat="44.46972" lon="2.71934">
        <ele>531.41</ele>
        <time>2015-12-11T11:25:14Z</time>
      </trkpt>
      <trkpt lat="44.46971" lon="2.71926">
        <ele>532.76</ele>
        <time>2015-12-11T11:25:17Z</time>
      </trkpt>
      <trkpt lat="44.46968" lon="2.71921">
        <ele>536.78</ele>
        <time>2015-12-11T11:25:22Z</time>
      </trkpt>
      <trkpt lat="44.46965" lon="2.71916">
        <ele>537.93</ele>
        <time>2015-12-11T11:25:25Z</time>
      </trkpt>
      <trkpt lat="44.4696" lon="2.71907">
        <ele>537.83</ele>
        <time>2015-12-11T11:25:30Z</time>
      </trkpt>
      <trkpt lat="44.46958" lon="2.71902">
        <ele>535.57</ele>
        <time>2015-12-11T11:25:35Z</time>
      </trkpt>
      <trkpt lat="44.46955" lon="2.71894">
        <ele>534.69</ele>
        <time>2015-12-11T11:25:38Z</time>
      </trkpt>
      <trkpt lat="44.46951" lon="2.71889">
        <ele>533.81</ele>
        <time>2015-12-11T11:25:45Z</time>
      </trkpt>
      <trkpt lat="44.46949" lon="2.71883">
        <ele>532.49</ele>
        <time>2015-12-11T11:25:47Z</time>
      </trkpt>
      <trkpt lat="44.46945" lon="2.7188">
        <ele>532.01</ele>
        <time>2015-12-11T11:25:53Z</time>
      </trkpt>
      <trkpt lat="44.4694" lon="2.71877">
        <ele>532.2</ele>
        <time>2015-12-11T11:25:55Z</time>
      </trkpt>
      <trkpt lat="44.46941" lon="2.71869">
        <ele>532.21</ele>
        <time>2015-12-11T11:25:58Z</time>
      </trkpt>
      <trkpt lat="44.46938" lon="2.71864">
        <ele>533</ele>
        <time>2015-12-11T11:26:06Z</time>
      </trkpt>
      <trkpt lat="44.46932" lon="2.71861">
        <ele>533.79</ele>
        <time>2015-12-11T11:26:10Z</time>
      </trkpt>
      <trkpt lat="44.46931" lon="2.71853">
        <ele>532.88</ele>
        <time>2015-12-11T11:26:14Z</time>
      </trkpt>
      <trkpt lat="44.46928" lon="2.71847">
        <ele>533.51</ele>
        <time>2015-12-11T11:26:20Z</time>
      </trkpt>
      <trkpt lat="44.46925" lon="2.71841">
        <ele>535.09</ele>
        <time>2015-12-11T11:26:23Z</time>
      </trkpt>
      <trkpt lat="44.46927" lon="2.71835">
        <ele>535.75</ele>
        <time>2015-12-11T11:26:26Z</time>
      </trkpt>
      <trkpt lat="44.46932" lon="2.71834">
        <ele>532.73</ele>
        <time>2015-12-11T11:26:37Z</time>
      </trkpt>
      <trkpt lat="44.46936" lon="2.71837">
        <ele>530.87</ele>
        <time>2015-12-11T11:26:41Z</time>
      </trkpt>
      <trkpt lat="44.46941" lon="2.71839">
        <ele>532.19</ele>
        <time>2015-12-11T11:26:44Z</time>
      </trkpt>
      <trkpt lat="44.46947" lon="2.71839">
        <ele>531.7</ele>
        <time>2015-12-11T11:26:51Z</time>
      </trkpt>
      <trkpt lat="44.46948" lon="2.71846">
        <ele>530.24</ele>
        <time>2015-12-11T11:26:55Z</time>
      </trkpt>
      <trkpt lat="44.46951" lon="2.71849">
        <ele>529.67</ele>
        <time>2015-12-11T11:26:58Z</time>
      </trkpt>
      <trkpt lat="44.46957" lon="2.71851">
        <ele>530.43</ele>
        <time>2015-12-11T11:27:07Z</time>
      </trkpt>
      <trkpt lat="44.46962" lon="2.71848">
        <ele>529.69</ele>
        <time>2015-12-11T11:27:11Z</time>
      </trkpt>
      <trkpt lat="44.46959" lon="2.71841">
        <ele>524.1</ele>
        <time>2015-12-11T11:27:16Z</time>
      </trkpt>
      <trkpt lat="44.46955" lon="2.71835">
        <ele>521.17</ele>
        <time>2015-12-11T11:27:20Z</time>
      </trkpt>
      <trkpt lat="44.4695" lon="2.71833">
        <ele>524.13</ele>
        <time>2015-12-11T11:27:24Z</time>
      </trkpt>
      <trkpt lat="44.46946" lon="2.71831">
        <ele>527.79</ele>
        <time>2015-12-11T11:27:29Z</time>
      </trkpt>
      <trkpt lat="44.46945" lon="2.71823">
        <ele>527.53</ele>
        <time>2015-12-11T11:27:33Z</time>
      </trkpt>
      <trkpt lat="44.46943" lon="2.71817">
        <ele>525.04</ele>
        <time>2015-12-11T11:27:38Z</time>
      </trkpt>
      <trkpt lat="44.46941" lon="2.71811">
        <ele>524.95</ele>
        <time>2015-12-11T11:27:42Z</time>
      </trkpt>
      <trkpt lat="44.46937" lon="2.71807">
        <ele>523.31</ele>
        <time>2015-12-11T11:27:48Z</time>
      </trkpt>
      <trkpt lat="44.46935" lon="2.718">
        <ele>519.21</ele>
        <time>2015-12-11T11:27:52Z</time>
      </trkpt>
      <trkpt lat="44.46932" lon="2.71795">
        <ele>508.94</ele>
        <time>2015-12-11T11:27:59Z</time>
      </trkpt>
      <trkpt lat="44.46927" lon="2.71796">
        <ele>507.28</ele>
        <time>2015-12-11T11:28:03Z</time>
      </trkpt>
      <trkpt lat="44.46901" lon="2.71765">
        <ele>508.23</ele>
        <time>2015-12-11T11:28:37Z</time>
      </trkpt>
      <trkpt lat="44.46905" lon="2.7176">
        <ele>504.93</ele>
        <time>2015-12-11T11:28:38Z</time>
      </trkpt>
      <trkpt lat="44.46905" lon="2.71753">
        <ele>499.07</ele>
        <time>2015-12-11T11:28:41Z</time>
      </trkpt>
      <trkpt lat="44.46902" lon="2.71748">
        <ele>498.94</ele>
        <time>2015-12-11T11:28:44Z</time>
      </trkpt>
      <trkpt lat="44.46901" lon="2.71742">
        <ele>498.87</ele>
        <time>2015-12-11T11:28:46Z</time>
      </trkpt>
      <trkpt lat="44.469" lon="2.71734">
        <ele>504.12</ele>
        <time>2015-12-11T11:28:51Z</time>
      </trkpt>
      <trkpt lat="44.46897" lon="2.71729">
        <ele>509.58</ele>
        <time>2015-12-11T11:28:55Z</time>
      </trkpt>
      <trkpt lat="44.46895" lon="2.71722">
        <ele>515.91</ele>
        <time>2015-12-11T11:29:02Z</time>
      </trkpt>
      <trkpt lat="44.46892" lon="2.71717">
        <ele>515.3</ele>
        <time>2015-12-11T11:29:08Z</time>
      </trkpt>
      <trkpt lat="44.46888" lon="2.71713">
        <ele>514.95</ele>
        <time>2015-12-11T11:29:11Z</time>
      </trkpt>
      <trkpt lat="44.46883" lon="2.71706">
        <ele>515.64</ele>
        <time>2015-12-11T11:29:27Z</time>
      </trkpt>
      <trkpt lat="44.4688" lon="2.71701">
        <ele>511.63</ele>
        <time>2015-12-11T11:29:32Z</time>
      </trkpt>
      <trkpt lat="44.46876" lon="2.71696">
        <ele>508.7</ele>
        <time>2015-12-11T11:29:37Z</time>
      </trkpt>
      <trkpt lat="44.46875" lon="2.71688">
        <ele>505.49</ele>
        <time>2015-12-11T11:29:42Z</time>
      </trkpt>
      <trkpt lat="44.46871" lon="2.71681">
        <ele>500.11</ele>
        <time>2015-12-11T11:30:01Z</time>
      </trkpt>
      <trkpt lat="44.46867" lon="2.71678">
        <ele>498.8</ele>
        <time>2015-12-11T11:30:06Z</time>
      </trkpt>
      <trkpt lat="44.46863" lon="2.71676">
        <ele>498.83</ele>
        <time>2015-12-11T11:30:10Z</time>
      </trkpt>
      <trkpt lat="44.46855" lon="2.71674">
        <ele>502.09</ele>
        <time>2015-12-11T11:30:14Z</time>
      </trkpt>
      <trkpt lat="44.46849" lon="2.71674">
        <ele>505.93</ele>
        <time>2015-12-11T11:30:15Z</time>
      </trkpt>
      <trkpt lat="44.46846" lon="2.71666">
        <ele>505.44</ele>
        <time>2015-12-11T11:30:21Z</time>
      </trkpt>
      <trkpt lat="44.46843" lon="2.71662">
        <ele>507.05</ele>
        <time>2015-12-11T11:30:25Z</time>
      </trkpt>
      <trkpt lat="44.46838" lon="2.71659">
        <ele>507.67</ele>
        <time>2015-12-11T11:30:27Z</time>
      </trkpt>
      <trkpt lat="44.46833" lon="2.71656">
        <ele>505.67</ele>
        <time>2015-12-11T11:30:32Z</time>
      </trkpt>
      <trkpt lat="44.46828" lon="2.71654">
        <ele>506.91</ele>
        <time>2015-12-11T11:30:37Z</time>
      </trkpt>
      <trkpt lat="44.46824" lon="2.71656">
        <ele>508.2</ele>
        <time>2015-12-11T11:30:40Z</time>
      </trkpt>
      <trkpt lat="44.46818" lon="2.71657">
        <ele>508.5</ele>
        <time>2015-12-11T11:30:42Z</time>
      </trkpt>
      <trkpt lat="44.46814" lon="2.71661">
        <ele>508.77</ele>
        <time>2015-12-11T11:30:47Z</time>
      </trkpt>
      <trkpt lat="44.4681" lon="2.71665">
        <ele>507.47</ele>
        <time>2015-12-11T11:30:50Z</time>
      </trkpt>
      <trkpt lat="44.46806" lon="2.71668">
        <ele>508.04</ele>
        <time>2015-12-11T11:30:53Z</time>
      </trkpt>
      <trkpt lat="44.46801" lon="2.71671">
        <ele>508.1</ele>
        <time>2015-12-11T11:30:58Z</time>
      </trkpt>
      <trkpt lat="44.46797" lon="2.71676">
        <ele>504.21</ele>
        <time>2015-12-11T11:31:01Z</time>
      </trkpt>
      <trkpt lat="44.46792" lon="2.71675">
        <ele>502.29</ele>
        <time>2015-12-11T11:31:04Z</time>
      </trkpt>
      <trkpt lat="44.46787" lon="2.71674">
        <ele>498.9</ele>
        <time>2015-12-11T11:31:09Z</time>
      </trkpt>
      <trkpt lat="44.46784" lon="2.71668">
        <ele>498.81</ele>
        <time>2015-12-11T11:31:14Z</time>
      </trkpt>
      <trkpt lat="44.46781" lon="2.71663">
        <ele>498.85</ele>
        <time>2015-12-11T11:31:17Z</time>
      </trkpt>
      <trkpt lat="44.46774" lon="2.71659">
        <ele>499.62</ele>
        <time>2015-12-11T11:31:20Z</time>
      </trkpt>
      <trkpt lat="44.4677" lon="2.71662">
        <ele>504.13</ele>
        <time>2015-12-11T11:31:24Z</time>
      </trkpt>
      <trkpt lat="44.46766" lon="2.7166">
        <ele>501.32</ele>
        <time>2015-12-11T11:31:31Z</time>
      </trkpt>
      <trkpt lat="44.4676" lon="2.7166">
        <ele>503.02</ele>
        <time>2015-12-11T11:31:36Z</time>
      </trkpt>
      <trkpt lat="44.46755" lon="2.71665">
        <ele>502.75</ele>
        <time>2015-12-11T11:31:39Z</time>
      </trkpt>
      <trkpt lat="44.46752" lon="2.7167">
        <ele>500.44</ele>
        <time>2015-12-11T11:31:44Z</time>
      </trkpt>
      <trkpt lat="44.46749" lon="2.71674">
        <ele>499.7</ele>
        <time>2015-12-11T11:31:49Z</time>
      </trkpt>
      <trkpt lat="44.46746" lon="2.7168">
        <ele>500.43</ele>
        <time>2015-12-11T11:31:53Z</time>
      </trkpt>
      <trkpt lat="44.46742" lon="2.71686">
        <ele>500.15</ele>
        <time>2015-12-11T11:31:58Z</time>
      </trkpt>
      <trkpt lat="44.46738" lon="2.71691">
        <ele>499.98</ele>
        <time>2015-12-11T11:32:03Z</time>
      </trkpt>
      <trkpt lat="44.46735" lon="2.71696">
        <ele>500.34</ele>
        <time>2015-12-11T11:32:07Z</time>
      </trkpt>
      <trkpt lat="44.46733" lon="2.71702">
        <ele>501.95</ele>
        <time>2015-12-11T11:32:12Z</time>
      </trkpt>
      <trkpt lat="44.46737" lon="2.71696">
        <ele>504.25</ele>
        <time>2015-12-11T11:32:17Z</time>
      </trkpt>
      <trkpt lat="44.4674" lon="2.71691">
        <ele>504.04</ele>
        <time>2015-12-11T11:32:21Z</time>
      </trkpt>
      <trkpt lat="44.46744" lon="2.71689">
        <ele>503.84</ele>
        <time>2015-12-11T11:32:33Z</time>
      </trkpt>
      <trkpt lat="44.46746" lon="2.7168">
        <ele>504.19</ele>
        <time>2015-12-11T11:32:40Z</time>
      </trkpt>
      <trkpt lat="44.4675" lon="2.71674">
        <ele>505.98</ele>
        <time>2015-12-11T11:32:43Z</time>
      </trkpt>
      <trkpt lat="44.46745" lon="2.71663">
        <ele>508.29</ele>
        <time>2015-12-11T11:33:38Z</time>
      </trkpt>
      <trkpt lat="44.46741" lon="2.71659">
        <ele>518.55</ele>
        <time>2015-12-11T11:33:42Z</time>
      </trkpt>
      <trkpt lat="44.46737" lon="2.71662">
        <ele>517.9</ele>
        <time>2015-12-11T11:33:46Z</time>
      </trkpt>
      <trkpt lat="44.4674" lon="2.71657">
        <ele>518.79</ele>
        <time>2015-12-11T11:34:21Z</time>
      </trkpt>
      <trkpt lat="44.46745" lon="2.71653">
        <ele>522.42</ele>
        <time>2015-12-11T11:34:54Z</time>
      </trkpt>
      <trkpt lat="44.46751" lon="2.71648">
        <ele>522.06</ele>
        <time>2015-12-11T11:34:57Z</time>
      </trkpt>
      <trkpt lat="44.46754" lon="2.71643">
        <ele>522.93</ele>
        <time>2015-12-11T11:35:03Z</time>
      </trkpt>
      <trkpt lat="44.46758" lon="2.71646">
        <ele>524.07</ele>
        <time>2015-12-11T11:35:08Z</time>
      </trkpt>
      <trkpt lat="44.4676" lon="2.71641">
        <ele>524.62</ele>
        <time>2015-12-11T11:35:10Z</time>
      </trkpt>
      <trkpt lat="44.46764" lon="2.71634">
        <ele>526.09</ele>
        <time>2015-12-11T11:35:12Z</time>
      </trkpt>
      <trkpt lat="44.46767" lon="2.71629">
        <ele>525.33</ele>
        <time>2015-12-11T11:35:14Z</time>
      </trkpt>
      <trkpt lat="44.46771" lon="2.71622">
        <ele>524.75</ele>
        <time>2015-12-11T11:35:17Z</time>
      </trkpt>
      <trkpt lat="44.46776" lon="2.71619">
        <ele>523.19</ele>
        <time>2015-12-11T11:35:37Z</time>
      </trkpt>
      <trkpt lat="44.46781" lon="2.71616">
        <ele>525.08</ele>
        <time>2015-12-11T11:35:45Z</time>
      </trkpt>
      <trkpt lat="44.46784" lon="2.71611">
        <ele>527.08</ele>
        <time>2015-12-11T11:35:48Z</time>
      </trkpt>
      <trkpt lat="44.46785" lon="2.71603">
        <ele>527.28</ele>
        <time>2015-12-11T11:35:49Z</time>
      </trkpt>
      <trkpt lat="44.46788" lon="2.71594">
        <ele>529.18</ele>
        <time>2015-12-11T11:35:53Z</time>
      </trkpt>
      <trkpt lat="44.46791" lon="2.71588">
        <ele>527.31</ele>
        <time>2015-12-11T11:35:56Z</time>
      </trkpt>
      <trkpt lat="44.46795" lon="2.71582">
        <ele>525.63</ele>
        <time>2015-12-11T11:35:58Z</time>
      </trkpt>
      <trkpt lat="44.46801" lon="2.71578">
        <ele>525.34</ele>
        <time>2015-12-11T11:36:00Z</time>
      </trkpt>
      <trkpt lat="44.46806" lon="2.71573">
        <ele>527.45</ele>
        <time>2015-12-11T11:36:03Z</time>
      </trkpt>
      <trkpt lat="44.4681" lon="2.71568">
        <ele>527.78</ele>
        <time>2015-12-11T11:36:09Z</time>
      </trkpt>
      <trkpt lat="44.46814" lon="2.71566">
        <ele>528.14</ele>
        <time>2015-12-11T11:36:15Z</time>
      </trkpt>
      <trkpt lat="44.46819" lon="2.71569">
        <ele>527.4</ele>
        <time>2015-12-11T11:36:19Z</time>
      </trkpt>
      <trkpt lat="44.46824" lon="2.71567">
        <ele>527.8</ele>
        <time>2015-12-11T11:36:22Z</time>
      </trkpt>
      <trkpt lat="44.4683" lon="2.71566">
        <ele>528.47</ele>
        <time>2015-12-11T11:36:27Z</time>
      </trkpt>
      <trkpt lat="44.46836" lon="2.7157">
        <ele>529.52</ele>
        <time>2015-12-11T11:36:31Z</time>
      </trkpt>
      <trkpt lat="44.46841" lon="2.71572">
        <ele>531.43</ele>
        <time>2015-12-11T11:36:34Z</time>
      </trkpt>
      <trkpt lat="44.46846" lon="2.71574">
        <ele>532.39</ele>
        <time>2015-12-11T11:36:37Z</time>
      </trkpt>
      <trkpt lat="44.46847" lon="2.71581">
        <ele>533.94</ele>
        <time>2015-12-11T11:36:41Z</time>
      </trkpt>
      <trkpt lat="44.46852" lon="2.71584">
        <ele>534.34</ele>
        <time>2015-12-11T11:36:47Z</time>
      </trkpt>
      <trkpt lat="44.46857" lon="2.71587">
        <ele>535.65</ele>
        <time>2015-12-11T11:36:53Z</time>
      </trkpt>
      <trkpt lat="44.46862" lon="2.71587">
        <ele>541.78</ele>
        <time>2015-12-11T11:36:59Z</time>
      </trkpt>
      <trkpt lat="44.46867" lon="2.7159">
        <ele>544.46</ele>
        <time>2015-12-11T11:37:04Z</time>
      </trkpt>
      <trkpt lat="44.46873" lon="2.71588">
        <ele>545.26</ele>
        <time>2015-12-11T11:37:07Z</time>
      </trkpt>
      <trkpt lat="44.46878" lon="2.71585">
        <ele>545.72</ele>
        <time>2015-12-11T11:37:09Z</time>
      </trkpt>
      <trkpt lat="44.46882" lon="2.71589">
        <ele>548.3</ele>
        <time>2015-12-11T11:37:16Z</time>
      </trkpt>
      <trkpt lat="44.46885" lon="2.71594">
        <ele>548.26</ele>
        <time>2015-12-11T11:37:18Z</time>
      </trkpt>
      <trkpt lat="44.46887" lon="2.71602">
        <ele>545.29</ele>
        <time>2015-12-11T11:37:21Z</time>
      </trkpt>
      <trkpt lat="44.46889" lon="2.71607">
        <ele>543.55</ele>
        <time>2015-12-11T11:37:24Z</time>
      </trkpt>
      <trkpt lat="44.46892" lon="2.71613">
        <ele>542.89</ele>
        <time>2015-12-11T11:37:28Z</time>
      </trkpt>
      <trkpt lat="44.46895" lon="2.7162">
        <ele>543.89</ele>
        <time>2015-12-11T11:37:33Z</time>
      </trkpt>
      <trkpt lat="44.46899" lon="2.71624">
        <ele>541.05</ele>
        <time>2015-12-11T11:37:46Z</time>
      </trkpt>
      <trkpt lat="44.46903" lon="2.71629">
        <ele>541.18</ele>
        <time>2015-12-11T11:37:53Z</time>
      </trkpt>
      <trkpt lat="44.46907" lon="2.71632">
        <ele>541.9</ele>
        <time>2015-12-11T11:37:55Z</time>
      </trkpt>
      <trkpt lat="44.46913" lon="2.71632">
        <ele>540.94</ele>
        <time>2015-12-11T11:38:02Z</time>
      </trkpt>
      <trkpt lat="44.46918" lon="2.71632">
        <ele>539.6</ele>
        <time>2015-12-11T11:38:42Z</time>
      </trkpt>
      <trkpt lat="44.46926" lon="2.71642">
        <ele>539.42</ele>
        <time>2015-12-11T11:38:51Z</time>
      </trkpt>
      <trkpt lat="44.46932" lon="2.71647">
        <ele>536.24</ele>
        <time>2015-12-11T11:38:53Z</time>
      </trkpt>
      <trkpt lat="44.46934" lon="2.71653">
        <ele>529.77</ele>
        <time>2015-12-11T11:38:57Z</time>
      </trkpt>
      <trkpt lat="44.46938" lon="2.71659">
        <ele>529.04</ele>
        <time>2015-12-11T11:39:00Z</time>
      </trkpt>
      <trkpt lat="44.46943" lon="2.7166">
        <ele>528.77</ele>
        <time>2015-12-11T11:39:15Z</time>
      </trkpt>
      <trkpt lat="44.46948" lon="2.71663">
        <ele>531.88</ele>
        <time>2015-12-11T11:39:19Z</time>
      </trkpt>
      <trkpt lat="44.46952" lon="2.71667">
        <ele>534.99</ele>
        <time>2015-12-11T11:39:23Z</time>
      </trkpt>
      <trkpt lat="44.46956" lon="2.71669">
        <ele>537.81</ele>
        <time>2015-12-11T11:39:28Z</time>
      </trkpt>
      <trkpt lat="44.46961" lon="2.71672">
        <ele>538.01</ele>
        <time>2015-12-11T11:39:32Z</time>
      </trkpt>
      <trkpt lat="44.46966" lon="2.7167">
        <ele>535.24</ele>
        <time>2015-12-11T11:39:35Z</time>
      </trkpt>
      <trkpt lat="44.46971" lon="2.71669">
        <ele>530.41</ele>
        <time>2015-12-11T11:40:02Z</time>
      </trkpt>
      <trkpt lat="44.46977" lon="2.71671">
        <ele>531.11</ele>
        <time>2015-12-11T11:40:06Z</time>
      </trkpt>
      <trkpt lat="44.46981" lon="2.71673">
        <ele>530.66</ele>
        <time>2015-12-11T11:40:09Z</time>
      </trkpt>
      <trkpt lat="44.46986" lon="2.71677">
        <ele>530.36</ele>
        <time>2015-12-11T11:40:12Z</time>
      </trkpt>
      <trkpt lat="44.46991" lon="2.71678">
        <ele>532.44</ele>
        <time>2015-12-11T11:40:19Z</time>
      </trkpt>
      <trkpt lat="44.46996" lon="2.71682">
        <ele>532.08</ele>
        <time>2015-12-11T11:40:24Z</time>
      </trkpt>
      <trkpt lat="44.46999" lon="2.71687">
        <ele>531.33</ele>
        <time>2015-12-11T11:40:30Z</time>
      </trkpt>
      <trkpt lat="44.47003" lon="2.71691">
        <ele>532.49</ele>
        <time>2015-12-11T11:40:34Z</time>
      </trkpt>
      <trkpt lat="44.47007" lon="2.71697">
        <ele>533.03</ele>
        <time>2015-12-11T11:40:38Z</time>
      </trkpt>
      <trkpt lat="44.47011" lon="2.71702">
        <ele>532.69</ele>
        <time>2015-12-11T11:40:42Z</time>
      </trkpt>
      <trkpt lat="44.47014" lon="2.71707">
        <ele>532.56</ele>
        <time>2015-12-11T11:40:47Z</time>
      </trkpt>
      <trkpt lat="44.47019" lon="2.71711">
        <ele>532.53</ele>
        <time>2015-12-11T11:40:52Z</time>
      </trkpt>
      <trkpt lat="44.47023" lon="2.71713">
        <ele>532.71</ele>
        <time>2015-12-11T11:40:57Z</time>
      </trkpt>
      <trkpt lat="44.47028" lon="2.71715">
        <ele>529.91</ele>
        <time>2015-12-11T11:41:00Z</time>
      </trkpt>
      <trkpt lat="44.47032" lon="2.71718">
        <ele>530.88</ele>
        <time>2015-12-11T11:41:04Z</time>
      </trkpt>
      <trkpt lat="44.47037" lon="2.71722">
        <ele>530.72</ele>
        <time>2015-12-11T11:41:09Z</time>
      </trkpt>
      <trkpt lat="44.47041" lon="2.71724">
        <ele>529.55</ele>
        <time>2015-12-11T11:41:13Z</time>
      </trkpt>
      <trkpt lat="44.47046" lon="2.71727">
        <ele>528.26</ele>
        <time>2015-12-11T11:41:17Z</time>
      </trkpt>
      <trkpt lat="44.47051" lon="2.7173">
        <ele>526.95</ele>
        <time>2015-12-11T11:41:22Z</time>
      </trkpt>
      <trkpt lat="44.47055" lon="2.71735">
        <ele>527.46</ele>
        <time>2015-12-11T11:41:26Z</time>
      </trkpt>
      <trkpt lat="44.47058" lon="2.7174">
        <ele>530.29</ele>
        <time>2015-12-11T11:41:32Z</time>
      </trkpt>
      <trkpt lat="44.47061" lon="2.71746">
        <ele>532.76</ele>
        <time>2015-12-11T11:41:40Z</time>
      </trkpt>
      <trkpt lat="44.47067" lon="2.71749">
        <ele>533.77</ele>
        <time>2015-12-11T11:42:14Z</time>
      </trkpt>
      <trkpt lat="44.4707" lon="2.71753">
        <ele>532.77</ele>
        <time>2015-12-11T11:42:21Z</time>
      </trkpt>
      <trkpt lat="44.4707" lon="2.7176">
        <ele>531.16</ele>
        <time>2015-12-11T11:42:31Z</time>
      </trkpt>
      <trkpt lat="44.47074" lon="2.7176">
        <ele>532.27</ele>
        <time>2015-12-11T11:42:51Z</time>
      </trkpt>
      <trkpt lat="44.47079" lon="2.71764">
        <ele>534.8</ele>
        <time>2015-12-11T11:42:56Z</time>
      </trkpt>
      <trkpt lat="44.47084" lon="2.71761">
        <ele>533.01</ele>
        <time>2015-12-11T11:43:00Z</time>
      </trkpt>
      <trkpt lat="44.47127" lon="2.71773">
        <ele>518.06</ele>
        <time>2015-12-11T11:43:38Z</time>
      </trkpt>
      <trkpt lat="44.47131" lon="2.71778">
        <ele>515.44</ele>
        <time>2015-12-11T11:43:47Z</time>
      </trkpt>
      <trkpt lat="44.47136" lon="2.71779">
        <ele>516.46</ele>
        <time>2015-12-11T11:43:51Z</time>
      </trkpt>
      <trkpt lat="44.4714" lon="2.71782">
        <ele>516.57</ele>
        <time>2015-12-11T11:43:56Z</time>
      </trkpt>
      <trkpt lat="44.47146" lon="2.71785">
        <ele>516.86</ele>
        <time>2015-12-11T11:44:01Z</time>
      </trkpt>
      <trkpt lat="44.4715" lon="2.7179">
        <ele>515.84</ele>
        <time>2015-12-11T11:44:06Z</time>
      </trkpt>
      <trkpt lat="44.47148" lon="2.71797">
        <ele>515.24</ele>
        <time>2015-12-11T11:44:11Z</time>
      </trkpt>
      <trkpt lat="44.47148" lon="2.71804">
        <ele>514.78</ele>
        <time>2015-12-11T11:44:16Z</time>
      </trkpt>
      <trkpt lat="44.47146" lon="2.7181">
        <ele>513.16</ele>
        <time>2015-12-11T11:44:20Z</time>
      </trkpt>
      <trkpt lat="44.47145" lon="2.71817">
        <ele>513.66</ele>
        <time>2015-12-11T11:44:26Z</time>
      </trkpt>
      <trkpt lat="44.47144" lon="2.71824">
        <ele>511.97</ele>
        <time>2015-12-11T11:44:32Z</time>
      </trkpt>
      <trkpt lat="44.47147" lon="2.71829">
        <ele>508.9</ele>
        <time>2015-12-11T11:44:38Z</time>
      </trkpt>
      <trkpt lat="44.47149" lon="2.71835">
        <ele>506.78</ele>
        <time>2015-12-11T11:44:46Z</time>
      </trkpt>
      <trkpt lat="44.47152" lon="2.7184">
        <ele>508.27</ele>
        <time>2015-12-11T11:44:53Z</time>
      </trkpt>
      <trkpt lat="44.47152" lon="2.71847">
        <ele>511.22</ele>
        <time>2015-12-11T11:45:03Z</time>
      </trkpt>
      <trkpt lat="44.47156" lon="2.7185">
        <ele>507.78</ele>
        <time>2015-12-11T11:45:23Z</time>
      </trkpt>
      <trkpt lat="44.47153" lon="2.71855">
        <ele>509.73</ele>
        <time>2015-12-11T11:45:29Z</time>
      </trkpt>
      <trkpt lat="44.47149" lon="2.71856">
        <ele>510.68</ele>
        <time>2015-12-11T11:45:40Z</time>
      </trkpt>
      <trkpt lat="44.47146" lon="2.71861">
        <ele>510.73</ele>
        <time>2015-12-11T11:45:48Z</time>
      </trkpt>
      <trkpt lat="44.47143" lon="2.71867">
        <ele>507.83</ele>
        <time>2015-12-11T11:46:08Z</time>
      </trkpt>
      <trkpt lat="44.47147" lon="2.7187">
        <ele>506.32</ele>
        <time>2015-12-11T11:46:15Z</time>
      </trkpt>
      <trkpt lat="44.47141" lon="2.71861">
        <ele>498.39</ele>
        <time>2015-12-11T11:48:39Z</time>
      </trkpt>
      <trkpt lat="44.47138" lon="2.71866">
        <ele>496.42</ele>
        <time>2015-12-11T11:48:39Z</time>
      </trkpt>
      <trkpt lat="44.47133" lon="2.71868">
        <ele>495.53</ele>
        <time>2015-12-11T11:48:45Z</time>
      </trkpt>
      <trkpt lat="44.47127" lon="2.71871">
        <ele>495.83</ele>
        <time>2015-12-11T11:48:49Z</time>
      </trkpt>
      <trkpt lat="44.47122" lon="2.71876">
        <ele>492.42</ele>
        <time>2015-12-11T11:48:52Z</time>
      </trkpt>
      <trkpt lat="44.47115" lon="2.71875">
        <ele>490.3</ele>
        <time>2015-12-11T11:48:56Z</time>
      </trkpt>
      <trkpt lat="44.47109" lon="2.71876">
        <ele>490.4</ele>
        <time>2015-12-11T11:49:02Z</time>
      </trkpt>
      <trkpt lat="44.47105" lon="2.71872">
        <ele>489.91</ele>
        <time>2015-12-11T11:49:06Z</time>
      </trkpt>
      <trkpt lat="44.47102" lon="2.71867">
        <ele>490.21</ele>
        <time>2015-12-11T11:49:11Z</time>
      </trkpt>
      <trkpt lat="44.47099" lon="2.71861">
        <ele>488.87</ele>
        <time>2015-12-11T11:49:14Z</time>
      </trkpt>
      <trkpt lat="44.47095" lon="2.71856">
        <ele>487.79</ele>
        <time>2015-12-11T11:49:20Z</time>
      </trkpt>
      <trkpt lat="44.4709" lon="2.71858">
        <ele>489.9</ele>
        <time>2015-12-11T11:49:22Z</time>
      </trkpt>
      <trkpt lat="44.47092" lon="2.71865">
        <ele>488.46</ele>
        <time>2015-12-11T11:49:28Z</time>
      </trkpt>
      <trkpt lat="44.47097" lon="2.71869">
        <ele>486.43</ele>
        <time>2015-12-11T11:49:32Z</time>
      </trkpt>
      <trkpt lat="44.47102" lon="2.71875">
        <ele>484.96</ele>
        <time>2015-12-11T11:49:37Z</time>
      </trkpt>
      <trkpt lat="44.47106" lon="2.71879">
        <ele>483.22</ele>
        <time>2015-12-11T11:49:41Z</time>
      </trkpt>
      <trkpt lat="44.47111" lon="2.71884">
        <ele>484.5</ele>
        <time>2015-12-11T11:49:47Z</time>
      </trkpt>
      <trkpt lat="44.47115" lon="2.71886">
        <ele>484.99</ele>
        <time>2015-12-11T11:49:52Z</time>
      </trkpt>
      <trkpt lat="44.4712" lon="2.71888">
        <ele>485.2</ele>
        <time>2015-12-11T11:49:55Z</time>
      </trkpt>
      <trkpt lat="44.47125" lon="2.71891">
        <ele>484.37</ele>
        <time>2015-12-11T11:50:01Z</time>
      </trkpt>
      <trkpt lat="44.47129" lon="2.71892">
        <ele>484.8</ele>
        <time>2015-12-11T11:50:06Z</time>
      </trkpt>
      <trkpt lat="44.47134" lon="2.71894">
        <ele>484.03</ele>
        <time>2015-12-11T11:50:11Z</time>
      </trkpt>
      <trkpt lat="44.4714" lon="2.71894">
        <ele>482.06</ele>
        <time>2015-12-11T11:50:18Z</time>
      </trkpt>
      <trkpt lat="44.47146" lon="2.71893">
        <ele>482.06</ele>
        <time>2015-12-11T11:50:20Z</time>
      </trkpt>
      <trkpt lat="44.47151" lon="2.71895">
        <ele>483.56</ele>
        <time>2015-12-11T11:50:28Z</time>
      </trkpt>
      <trkpt lat="44.47155" lon="2.71892">
        <ele>482.91</ele>
        <time>2015-12-11T11:50:30Z</time>
      </trkpt>
      <trkpt lat="44.4716" lon="2.71891">
        <ele>482.75</ele>
        <time>2015-12-11T11:50:35Z</time>
      </trkpt>
      <trkpt lat="44.47166" lon="2.71893">
        <ele>483.34</ele>
        <time>2015-12-11T11:50:37Z</time>
      </trkpt>
      <trkpt lat="44.4717" lon="2.71898">
        <ele>482.47</ele>
        <time>2015-12-11T11:50:41Z</time>
      </trkpt>
      <trkpt lat="44.47174" lon="2.71899">
        <ele>483.12</ele>
        <time>2015-12-11T11:50:46Z</time>
      </trkpt>
      <trkpt lat="44.47179" lon="2.71902">
        <ele>485.01</ele>
        <time>2015-12-11T11:50:49Z</time>
      </trkpt>
      <trkpt lat="44.47184" lon="2.71899">
        <ele>487.18</ele>
        <time>2015-12-11T11:50:54Z</time>
      </trkpt>
      <trkpt lat="44.4719" lon="2.71896">
        <ele>488.7</ele>
        <time>2015-12-11T11:50:58Z</time>
      </trkpt>
      <trkpt lat="44.47193" lon="2.71888">
        <ele>490.1</ele>
        <time>2015-12-11T11:51:02Z</time>
      </trkpt>
      <trkpt lat="44.47196" lon="2.71883">
        <ele>495.28</ele>
        <time>2015-12-11T11:51:07Z</time>
      </trkpt>
      <trkpt lat="44.47202" lon="2.71878">
        <ele>497.67</ele>
        <time>2015-12-11T11:51:12Z</time>
      </trkpt>
      <trkpt lat="44.47206" lon="2.71882">
        <ele>499.26</ele>
        <time>2015-12-11T11:51:15Z</time>
      </trkpt>
      <trkpt lat="44.47211" lon="2.7188">
        <ele>500.24</ele>
        <time>2015-12-11T11:51:19Z</time>
      </trkpt>
      <trkpt lat="44.47214" lon="2.71875">
        <ele>502.29</ele>
        <time>2015-12-11T11:51:25Z</time>
      </trkpt>
      <trkpt lat="44.47219" lon="2.71871">
        <ele>505.38</ele>
        <time>2015-12-11T11:51:29Z</time>
      </trkpt>
      <trkpt lat="44.47221" lon="2.71863">
        <ele>508.86</ele>
        <time>2015-12-11T11:51:35Z</time>
      </trkpt>
      <trkpt lat="44.47223" lon="2.71856">
        <ele>509.57</ele>
        <time>2015-12-11T11:51:40Z</time>
      </trkpt>
      <trkpt lat="44.47224" lon="2.71849">
        <ele>509</ele>
        <time>2015-12-11T11:51:42Z</time>
      </trkpt>
      <trkpt lat="44.47224" lon="2.71843">
        <ele>506.88</ele>
        <time>2015-12-11T11:51:43Z</time>
      </trkpt>
      <trkpt lat="44.47225" lon="2.71836">
        <ele>505.31</ele>
        <time>2015-12-11T11:51:45Z</time>
      </trkpt>
      <trkpt lat="44.47227" lon="2.7183">
        <ele>504.65</ele>
        <time>2015-12-11T11:51:48Z</time>
      </trkpt>
      <trkpt lat="44.47226" lon="2.71821">
        <ele>504.1</ele>
        <time>2015-12-11T11:51:51Z</time>
      </trkpt>
      <trkpt lat="44.47228" lon="2.71813">
        <ele>503.01</ele>
        <time>2015-12-11T11:51:54Z</time>
      </trkpt>
      <trkpt lat="44.4723" lon="2.71805">
        <ele>500.89</ele>
        <time>2015-12-11T11:51:57Z</time>
      </trkpt>
      <trkpt lat="44.47234" lon="2.718">
        <ele>497.86</ele>
        <time>2015-12-11T11:52:00Z</time>
      </trkpt>
      <trkpt lat="44.47238" lon="2.71795">
        <ele>495.44</ele>
        <time>2015-12-11T11:52:05Z</time>
      </trkpt>
      <trkpt lat="44.47242" lon="2.7179">
        <ele>493.95</ele>
        <time>2015-12-11T11:52:09Z</time>
      </trkpt>
      <trkpt lat="44.47246" lon="2.71786">
        <ele>493.77</ele>
        <time>2015-12-11T11:52:14Z</time>
      </trkpt>
      <trkpt lat="44.47251" lon="2.71783">
        <ele>492.8</ele>
        <time>2015-12-11T11:52:20Z</time>
      </trkpt>
      <trkpt lat="44.47252" lon="2.71777">
        <ele>492.48</ele>
        <time>2015-12-11T11:52:22Z</time>
      </trkpt>
      <trkpt lat="44.47256" lon="2.71772">
        <ele>492.86</ele>
        <time>2015-12-11T11:52:29Z</time>
      </trkpt>
      <trkpt lat="44.47259" lon="2.71768">
        <ele>492.88</ele>
        <time>2015-12-11T11:52:33Z</time>
      </trkpt>
      <trkpt lat="44.47259" lon="2.71759">
        <ele>495.03</ele>
        <time>2015-12-11T11:52:38Z</time>
      </trkpt>
      <trkpt lat="44.4726" lon="2.71751">
        <ele>495.3</ele>
        <time>2015-12-11T11:52:42Z</time>
      </trkpt>
      <trkpt lat="44.47259" lon="2.71743">
        <ele>492.55</ele>
        <time>2015-12-11T11:52:45Z</time>
      </trkpt>
      <trkpt lat="44.47256" lon="2.71739">
        <ele>489.71</ele>
        <time>2015-12-11T11:52:52Z</time>
      </trkpt>
      <trkpt lat="44.47252" lon="2.71734">
        <ele>485.77</ele>
        <time>2015-12-11T11:52:57Z</time>
      </trkpt>
      <trkpt lat="44.47249" lon="2.71728">
        <ele>480.76</ele>
        <time>2015-12-11T11:53:01Z</time>
      </trkpt>
      <trkpt lat="44.47243" lon="2.71722">
        <ele>478.93</ele>
        <time>2015-12-11T11:53:04Z</time>
      </trkpt>
      <trkpt lat="44.47239" lon="2.71723">
        <ele>475.68</ele>
        <time>2015-12-11T11:53:41Z</time>
      </trkpt>
      <trkpt lat="44.47232" lon="2.7172">
        <ele>474.16</ele>
        <time>2015-12-11T11:53:42Z</time>
      </trkpt>
      <trkpt lat="44.47226" lon="2.71715">
        <ele>474.9</ele>
        <time>2015-12-11T11:53:43Z</time>
      </trkpt>
      <trkpt lat="44.4722" lon="2.71713">
        <ele>478.02</ele>
        <time>2015-12-11T11:53:44Z</time>
      </trkpt>
      <trkpt lat="44.47215" lon="2.71709">
        <ele>481.43</ele>
        <time>2015-12-11T11:53:45Z</time>
      </trkpt>
      <trkpt lat="44.47206" lon="2.71701">
        <ele>486.39</ele>
        <time>2015-12-11T11:53:47Z</time>
      </trkpt>
      <trkpt lat="44.47201" lon="2.71699">
        <ele>482.1</ele>
        <time>2015-12-11T11:53:49Z</time>
      </trkpt>
      <trkpt lat="44.47197" lon="2.71697">
        <ele>474.98</ele>
        <time>2015-12-11T11:53:51Z</time>
      </trkpt>
      <trkpt lat="44.4719" lon="2.71698">
        <ele>467.26</ele>
        <time>2015-12-11T11:53:54Z</time>
      </trkpt>
      <trkpt lat="44.47185" lon="2.71695">
        <ele>465.25</ele>
        <time>2015-12-11T11:53:56Z</time>
      </trkpt>
      <trkpt lat="44.47178" lon="2.71689">
        <ele>467.07</ele>
        <time>2015-12-11T11:53:58Z</time>
      </trkpt>
      <trkpt lat="44.47173" lon="2.71689">
        <ele>476.21</ele>
        <time>2015-12-11T11:54:01Z</time>
      </trkpt>
      <trkpt lat="44.47168" lon="2.71687">
        <ele>479.38</ele>
        <time>2015-12-11T11:54:04Z</time>
      </trkpt>
      <trkpt lat="44.47162" lon="2.71687">
        <ele>478.57</ele>
        <time>2015-12-11T11:54:11Z</time>
      </trkpt>
      <trkpt lat="44.47158" lon="2.71684">
        <ele>481.78</ele>
        <time>2015-12-11T11:54:15Z</time>
      </trkpt>
      <trkpt lat="44.47153" lon="2.71686">
        <ele>480.59</ele>
        <time>2015-12-11T11:54:32Z</time>
      </trkpt>
      <trkpt lat="44.47146" lon="2.71686">
        <ele>473.51</ele>
        <time>2015-12-11T11:54:35Z</time>
      </trkpt>
      <trkpt lat="44.4714" lon="2.71688">
        <ele>468.19</ele>
        <time>2015-12-11T11:54:39Z</time>
      </trkpt>
      <trkpt lat="44.47135" lon="2.71688">
        <ele>466.38</ele>
        <time>2015-12-11T11:54:41Z</time>
      </trkpt>
      <trkpt lat="44.4713" lon="2.71686">
        <ele>467.13</ele>
        <time>2015-12-11T11:54:46Z</time>
      </trkpt>
      <trkpt lat="44.47125" lon="2.71683">
        <ele>467.53</ele>
        <time>2015-12-11T11:54:49Z</time>
      </trkpt>
      <trkpt lat="44.47121" lon="2.71683">
        <ele>467.7</ele>
        <time>2015-12-11T11:54:52Z</time>
      </trkpt>
      <trkpt lat="44.47114" lon="2.71682">
        <ele>468.73</ele>
        <time>2015-12-11T11:54:57Z</time>
      </trkpt>
      <trkpt lat="44.47109" lon="2.71679">
        <ele>469.8</ele>
        <time>2015-12-11T11:55:07Z</time>
      </trkpt>
      <trkpt lat="44.47105" lon="2.71675">
        <ele>470.61</ele>
        <time>2015-12-11T11:55:09Z</time>
      </trkpt>
      <trkpt lat="44.471" lon="2.71673">
        <ele>471.9</ele>
        <time>2015-12-11T11:55:12Z</time>
      </trkpt>
      <trkpt lat="44.47095" lon="2.71671">
        <ele>472.56</ele>
        <time>2015-12-11T11:55:15Z</time>
      </trkpt>
      <trkpt lat="44.4709" lon="2.71672">
        <ele>473.2</ele>
        <time>2015-12-11T11:55:16Z</time>
      </trkpt>
      <trkpt lat="44.47097" lon="2.71671">
        <ele>474.8</ele>
        <time>2015-12-11T11:55:19Z</time>
      </trkpt>
      <trkpt lat="44.47093" lon="2.71667">
        <ele>475.74</ele>
        <time>2015-12-11T11:55:22Z</time>
      </trkpt>
      <trkpt lat="44.47086" lon="2.71659">
        <ele>477.37</ele>
        <time>2015-12-11T11:55:26Z</time>
      </trkpt>
      <trkpt lat="44.4708" lon="2.71663">
        <ele>476.57</ele>
        <time>2015-12-11T11:55:30Z</time>
      </trkpt>
      <trkpt lat="44.47077" lon="2.71656">
        <ele>476.62</ele>
        <time>2015-12-11T11:55:32Z</time>
      </trkpt>
      <trkpt lat="44.47073" lon="2.71652">
        <ele>477.6</ele>
        <time>2015-12-11T11:55:48Z</time>
      </trkpt>
      <trkpt lat="44.47077" lon="2.71647">
        <ele>478.09</ele>
        <time>2015-12-11T11:56:02Z</time>
      </trkpt>
      <trkpt lat="44.47079" lon="2.71639">
        <ele>477.78</ele>
        <time>2015-12-11T11:56:04Z</time>
      </trkpt>
      <trkpt lat="44.47081" lon="2.71632">
        <ele>478.22</ele>
        <time>2015-12-11T11:56:07Z</time>
      </trkpt>
      <trkpt lat="44.47085" lon="2.71628">
        <ele>483.12</ele>
        <time>2015-12-11T11:56:15Z</time>
      </trkpt>
      <trkpt lat="44.47082" lon="2.71617">
        <ele>485.17</ele>
        <time>2015-12-11T11:56:23Z</time>
      </trkpt>
      <trkpt lat="44.47076" lon="2.71612">
        <ele>483.97</ele>
        <time>2015-12-11T11:56:25Z</time>
      </trkpt>
      <trkpt lat="44.47071" lon="2.7161">
        <ele>481.96</ele>
        <time>2015-12-11T11:56:26Z</time>
      </trkpt>
      <trkpt lat="44.47067" lon="2.71603">
        <ele>479.36</ele>
        <time>2015-12-11T11:56:29Z</time>
      </trkpt>
      <trkpt lat="44.47065" lon="2.71596">
        <ele>474.95</ele>
        <time>2015-12-11T11:56:48Z</time>
      </trkpt>
      <trkpt lat="44.47063" lon="2.71587">
        <ele>469.48</ele>
        <time>2015-12-11T11:56:52Z</time>
      </trkpt>
      <trkpt lat="44.47061" lon="2.7158">
        <ele>467.8</ele>
        <time>2015-12-11T11:56:58Z</time>
      </trkpt>
      <trkpt lat="44.4706" lon="2.71572">
        <ele>469.89</ele>
        <time>2015-12-11T11:57:34Z</time>
      </trkpt>
      <trkpt lat="44.4706" lon="2.71565">
        <ele>468.49</ele>
        <time>2015-12-11T11:57:38Z</time>
      </trkpt>
      <trkpt lat="44.47061" lon="2.71558">
        <ele>469.36</ele>
        <time>2015-12-11T11:57:44Z</time>
      </trkpt>
      <trkpt lat="44.4706" lon="2.71552">
        <ele>469.31</ele>
        <time>2015-12-11T11:57:47Z</time>
      </trkpt>
      <trkpt lat="44.4706" lon="2.71546">
        <ele>470.72</ele>
        <time>2015-12-11T11:58:00Z</time>
      </trkpt>
      <trkpt lat="44.47059" lon="2.71485">
        <ele>470.84</ele>
        <time>2015-12-11T11:58:40Z</time>
      </trkpt>
      <trkpt lat="44.47056" lon="2.71479">
        <ele>470.59</ele>
        <time>2015-12-11T11:58:43Z</time>
      </trkpt>
      <trkpt lat="44.47056" lon="2.71472">
        <ele>467.69</ele>
        <time>2015-12-11T11:58:47Z</time>
      </trkpt>
      <trkpt lat="44.47059" lon="2.71463">
        <ele>463.18</ele>
        <time>2015-12-11T11:58:55Z</time>
      </trkpt>
      <trkpt lat="44.47063" lon="2.7146">
        <ele>461.71</ele>
        <time>2015-12-11T11:58:56Z</time>
      </trkpt>
      <trkpt lat="44.47059" lon="2.71453">
        <ele>459.81</ele>
        <time>2015-12-11T11:58:59Z</time>
      </trkpt>
      <trkpt lat="44.47062" lon="2.71448">
        <ele>457.45</ele>
        <time>2015-12-11T11:59:02Z</time>
      </trkpt>
      <trkpt lat="44.47065" lon="2.71442">
        <ele>456.99</ele>
        <time>2015-12-11T11:59:08Z</time>
      </trkpt>
      <trkpt lat="44.47068" lon="2.71437">
        <ele>457.55</ele>
        <time>2015-12-11T11:59:10Z</time>
      </trkpt>
      <trkpt lat="44.47068" lon="2.7143">
        <ele>458.68</ele>
        <time>2015-12-11T11:59:15Z</time>
      </trkpt>
      <trkpt lat="44.4707" lon="2.71423">
        <ele>460.59</ele>
        <time>2015-12-11T11:59:21Z</time>
      </trkpt>
      <trkpt lat="44.47068" lon="2.71417">
        <ele>460.84</ele>
        <time>2015-12-11T11:59:26Z</time>
      </trkpt>
      <trkpt lat="44.47071" lon="2.71411">
        <ele>457.74</ele>
        <time>2015-12-11T11:59:29Z</time>
      </trkpt>
      <trkpt lat="44.47074" lon="2.71404">
        <ele>454.66</ele>
        <time>2015-12-11T11:59:35Z</time>
      </trkpt>
      <trkpt lat="44.47075" lon="2.71397">
        <ele>453.97</ele>
        <time>2015-12-11T11:59:38Z</time>
      </trkpt>
      <trkpt lat="44.47076" lon="2.7139">
        <ele>453.61</ele>
        <time>2015-12-11T11:59:41Z</time>
      </trkpt>
      <trkpt lat="44.4708" lon="2.71381">
        <ele>453.91</ele>
        <time>2015-12-11T11:59:44Z</time>
      </trkpt>
      <trkpt lat="44.47075" lon="2.71376">
        <ele>453.86</ele>
        <time>2015-12-11T11:59:47Z</time>
      </trkpt>
      <trkpt lat="44.47082" lon="2.71374">
        <ele>455.99</ele>
        <time>2015-12-11T11:59:50Z</time>
      </trkpt>
      <trkpt lat="44.47082" lon="2.71367">
        <ele>455.51</ele>
        <time>2015-12-11T11:59:57Z</time>
      </trkpt>
      <trkpt lat="44.47085" lon="2.71362">
        <ele>455.04</ele>
        <time>2015-12-11T12:00:00Z</time>
      </trkpt>
      <trkpt lat="44.47086" lon="2.71355">
        <ele>459.54</ele>
        <time>2015-12-11T12:00:05Z</time>
      </trkpt>
      <trkpt lat="44.47089" lon="2.71349">
        <ele>462.78</ele>
        <time>2015-12-11T12:00:08Z</time>
      </trkpt>
      <trkpt lat="44.47091" lon="2.71342">
        <ele>467.2</ele>
        <time>2015-12-11T12:00:16Z</time>
      </trkpt>
      <trkpt lat="44.47091" lon="2.71335">
        <ele>469.22</ele>
        <time>2015-12-11T12:00:20Z</time>
      </trkpt>
      <trkpt lat="44.4709" lon="2.71328">
        <ele>470.64</ele>
        <time>2015-12-11T12:00:23Z</time>
      </trkpt>
      <trkpt lat="44.47089" lon="2.7132">
        <ele>470.79</ele>
        <time>2015-12-11T12:00:26Z</time>
      </trkpt>
      <trkpt lat="44.47084" lon="2.71312">
        <ele>468.11</ele>
        <time>2015-12-11T12:00:29Z</time>
      </trkpt>
      <trkpt lat="44.47082" lon="2.71305">
        <ele>468.11</ele>
        <time>2015-12-11T12:00:32Z</time>
      </trkpt>
      <trkpt lat="44.47082" lon="2.71298">
        <ele>469.79</ele>
        <time>2015-12-11T12:00:35Z</time>
      </trkpt>
      <trkpt lat="44.4708" lon="2.71293">
        <ele>470.2</ele>
        <time>2015-12-11T12:00:37Z</time>
      </trkpt>
      <trkpt lat="44.4708" lon="2.71286">
        <ele>471.08</ele>
        <time>2015-12-11T12:00:38Z</time>
      </trkpt>
      <trkpt lat="44.47082" lon="2.71279">
        <ele>473.72</ele>
        <time>2015-12-11T12:00:56Z</time>
      </trkpt>
      <trkpt lat="44.47081" lon="2.7127">
        <ele>473.03</ele>
        <time>2015-12-11T12:00:58Z</time>
      </trkpt>
      <trkpt lat="44.47081" lon="2.71261">
        <ele>473.54</ele>
        <time>2015-12-11T12:01:01Z</time>
      </trkpt>
      <trkpt lat="44.47079" lon="2.71254">
        <ele>471.99</ele>
        <time>2015-12-11T12:01:04Z</time>
      </trkpt>
      <trkpt lat="44.47081" lon="2.71246">
        <ele>471.86</ele>
        <time>2015-12-11T12:01:07Z</time>
      </trkpt>
      <trkpt lat="44.47078" lon="2.71239">
        <ele>470.25</ele>
        <time>2015-12-11T12:01:09Z</time>
      </trkpt>
      <trkpt lat="44.47075" lon="2.71234">
        <ele>470.5</ele>
        <time>2015-12-11T12:01:12Z</time>
      </trkpt>
      <trkpt lat="44.47073" lon="2.71228">
        <ele>469.79</ele>
        <time>2015-12-11T12:01:15Z</time>
      </trkpt>
      <trkpt lat="44.47072" lon="2.71222">
        <ele>468.82</ele>
        <time>2015-12-11T12:01:19Z</time>
      </trkpt>
      <trkpt lat="44.47072" lon="2.71215">
        <ele>467.38</ele>
        <time>2015-12-11T12:01:22Z</time>
      </trkpt>
      <trkpt lat="44.47068" lon="2.71211">
        <ele>463.56</ele>
        <time>2015-12-11T12:01:25Z</time>
      </trkpt>
      <trkpt lat="44.47064" lon="2.7121">
        <ele>461.68</ele>
        <time>2015-12-11T12:01:28Z</time>
      </trkpt>
      <trkpt lat="44.47057" lon="2.71208">
        <ele>462.11</ele>
        <time>2015-12-11T12:01:36Z</time>
      </trkpt>
      <trkpt lat="44.47051" lon="2.71207">
        <ele>461.61</ele>
        <time>2015-12-11T12:01:38Z</time>
      </trkpt>
      <trkpt lat="44.47046" lon="2.71203">
        <ele>462.22</ele>
        <time>2015-12-11T12:01:41Z</time>
      </trkpt>
      <trkpt lat="44.47041" lon="2.71202">
        <ele>462.28</ele>
        <time>2015-12-11T12:01:42Z</time>
      </trkpt>
      <trkpt lat="44.47036" lon="2.71203">
        <ele>456.61</ele>
        <time>2015-12-11T12:01:47Z</time>
      </trkpt>
      <trkpt lat="44.47032" lon="2.71198">
        <ele>453.99</ele>
        <time>2015-12-11T12:01:50Z</time>
      </trkpt>
      <trkpt lat="44.47026" lon="2.71197">
        <ele>453.16</ele>
        <time>2015-12-11T12:01:54Z</time>
      </trkpt>
      <trkpt lat="44.47019" lon="2.71199">
        <ele>453.44</ele>
        <time>2015-12-11T12:01:58Z</time>
      </trkpt>
      <trkpt lat="44.47014" lon="2.71195">
        <ele>449.68</ele>
        <time>2015-12-11T12:02:05Z</time>
      </trkpt>
      <trkpt lat="44.47009" lon="2.71194">
        <ele>448.68</ele>
        <time>2015-12-11T12:02:14Z</time>
      </trkpt>
      <trkpt lat="44.47002" lon="2.71192">
        <ele>449.05</ele>
        <time>2015-12-11T12:02:17Z</time>
      </trkpt>
      <trkpt lat="44.46998" lon="2.71188">
        <ele>450.27</ele>
        <time>2015-12-11T12:02:24Z</time>
      </trkpt>
      <trkpt lat="44.46993" lon="2.71185">
        <ele>453.8</ele>
        <time>2015-12-11T12:02:40Z</time>
      </trkpt>
      <trkpt lat="44.4699" lon="2.7118">
        <ele>454.35</ele>
        <time>2015-12-11T12:02:43Z</time>
      </trkpt>
      <trkpt lat="44.46983" lon="2.71175">
        <ele>452.26</ele>
        <time>2015-12-11T12:02:48Z</time>
      </trkpt>
      <trkpt lat="44.46978" lon="2.71171">
        <ele>452.22</ele>
        <time>2015-12-11T12:02:50Z</time>
      </trkpt>
      <trkpt lat="44.46974" lon="2.71167">
        <ele>453.24</ele>
        <time>2015-12-11T12:02:52Z</time>
      </trkpt>
      <trkpt lat="44.4697" lon="2.71163">
        <ele>453.88</ele>
        <time>2015-12-11T12:02:55Z</time>
      </trkpt>
      <trkpt lat="44.46967" lon="2.71157">
        <ele>452.78</ele>
        <time>2015-12-11T12:02:59Z</time>
      </trkpt>
      <trkpt lat="44.46964" lon="2.71151">
        <ele>452.4</ele>
        <time>2015-12-11T12:03:02Z</time>
      </trkpt>
      <trkpt lat="44.46942" lon="2.71124">
        <ele>454.34</ele>
        <time>2015-12-11T12:03:38Z</time>
      </trkpt>
      <trkpt lat="44.46947" lon="2.71125">
        <ele>455.34</ele>
        <time>2015-12-11T12:03:39Z</time>
      </trkpt>
      <trkpt lat="44.46945" lon="2.7112">
        <ele>454.14</ele>
        <time>2015-12-11T12:04:11Z</time>
      </trkpt>
      <trkpt lat="44.46948" lon="2.71115">
        <ele>449.28</ele>
        <time>2015-12-11T12:04:34Z</time>
      </trkpt>
      <trkpt lat="44.46951" lon="2.71109">
        <ele>451.25</ele>
        <time>2015-12-11T12:04:38Z</time>
      </trkpt>
      <trkpt lat="44.46953" lon="2.71102">
        <ele>450.61</ele>
        <time>2015-12-11T12:04:42Z</time>
      </trkpt>
      <trkpt lat="44.46956" lon="2.71097">
        <ele>450.02</ele>
        <time>2015-12-11T12:04:49Z</time>
      </trkpt>
      <trkpt lat="44.46959" lon="2.7109">
        <ele>450.65</ele>
        <time>2015-12-11T12:04:53Z</time>
      </trkpt>
      <trkpt lat="44.46963" lon="2.71087">
        <ele>452.22</ele>
        <time>2015-12-11T12:04:56Z</time>
      </trkpt>
      <trkpt lat="44.46968" lon="2.71083">
        <ele>452.18</ele>
        <time>2015-12-11T12:05:00Z</time>
      </trkpt>
      <trkpt lat="44.46973" lon="2.7108">
        <ele>453.42</ele>
        <time>2015-12-11T12:05:04Z</time>
      </trkpt>
      <trkpt lat="44.46978" lon="2.71078">
        <ele>454.45</ele>
        <time>2015-12-11T12:05:07Z</time>
      </trkpt>
      <trkpt lat="44.46983" lon="2.71077">
        <ele>453.57</ele>
        <time>2015-12-11T12:05:10Z</time>
      </trkpt>
      <trkpt lat="44.46987" lon="2.71076">
        <ele>452.98</ele>
        <time>2015-12-11T12:05:14Z</time>
      </trkpt>
      <trkpt lat="44.46992" lon="2.71074">
        <ele>452.63</ele>
        <time>2015-12-11T12:05:17Z</time>
      </trkpt>
      <trkpt lat="44.46996" lon="2.7107">
        <ele>452.2</ele>
        <time>2015-12-11T12:05:21Z</time>
      </trkpt>
      <trkpt lat="44.47" lon="2.71066">
        <ele>450.96</ele>
        <time>2015-12-11T12:05:26Z</time>
      </trkpt>
      <trkpt lat="44.47005" lon="2.71064">
        <ele>448.7</ele>
        <time>2015-12-11T12:05:32Z</time>
      </trkpt>
      <trkpt lat="44.47009" lon="2.71061">
        <ele>448.79</ele>
        <time>2015-12-11T12:05:36Z</time>
      </trkpt>
      <trkpt lat="44.47013" lon="2.71059">
        <ele>450.78</ele>
        <time>2015-12-11T12:05:41Z</time>
      </trkpt>
      <trkpt lat="44.47017" lon="2.71055">
        <ele>450.47</ele>
        <time>2015-12-11T12:05:53Z</time>
      </trkpt>
      <trkpt lat="44.4702" lon="2.71051">
        <ele>449.62</ele>
        <time>2015-12-11T12:06:49Z</time>
      </trkpt>
      <trkpt lat="44.47026" lon="2.71049">
        <ele>450.3</ele>
        <time>2015-12-11T12:06:52Z</time>
      </trkpt>
      <trkpt lat="44.4703" lon="2.71046">
        <ele>448.86</ele>
        <time>2015-12-11T12:06:55Z</time>
      </trkpt>
      <trkpt lat="44.47033" lon="2.7104">
        <ele>448.5</ele>
        <time>2015-12-11T12:06:59Z</time>
      </trkpt>
      <trkpt lat="44.47037" lon="2.71035">
        <ele>448.51</ele>
        <time>2015-12-11T12:07:04Z</time>
      </trkpt>
      <trkpt lat="44.47041" lon="2.7103">
        <ele>449.32</ele>
        <time>2015-12-11T12:07:08Z</time>
      </trkpt>
      <trkpt lat="44.47042" lon="2.71023">
        <ele>448.05</ele>
        <time>2015-12-11T12:07:14Z</time>
      </trkpt>
      <trkpt lat="44.47043" lon="2.71016">
        <ele>448.08</ele>
        <time>2015-12-11T12:07:17Z</time>
      </trkpt>
      <trkpt lat="44.47044" lon="2.7101">
        <ele>448.67</ele>
        <time>2015-12-11T12:07:21Z</time>
      </trkpt>
      <trkpt lat="44.47046" lon="2.71004">
        <ele>449.78</ele>
        <time>2015-12-11T12:07:24Z</time>
      </trkpt>
      <trkpt lat="44.47049" lon="2.70997">
        <ele>447.58</ele>
        <time>2015-12-11T12:07:31Z</time>
      </trkpt>
      <trkpt lat="44.47051" lon="2.70991">
        <ele>444.63</ele>
        <time>2015-12-11T12:07:34Z</time>
      </trkpt>
      <trkpt lat="44.47051" lon="2.70985">
        <ele>446.25</ele>
        <time>2015-12-11T12:07:39Z</time>
      </trkpt>
      <trkpt lat="44.47056" lon="2.70984">
        <ele>441.98</ele>
        <time>2015-12-11T12:07:47Z</time>
      </trkpt>
      <trkpt lat="44.47058" lon="2.70978">
        <ele>441.9</ele>
        <time>2015-12-11T12:07:53Z</time>
      </trkpt>
      <trkpt lat="44.47059" lon="2.70971">
        <ele>443.93</ele>
        <time>2015-12-11T12:07:55Z</time>
      </trkpt>
      <trkpt lat="44.4706" lon="2.70963">
        <ele>446.7</ele>
        <time>2015-12-11T12:08:00Z</time>
      </trkpt>
      <trkpt lat="44.47061" lon="2.70956">
        <ele>447.85</ele>
        <time>2015-12-11T12:08:02Z</time>
      </trkpt>
      <trkpt lat="44.471" lon="2.70872">
        <ele>451.1</ele>
        <time>2015-12-11T12:08:41Z</time>
      </trkpt>
      <trkpt lat="44.47102" lon="2.70864">
        <ele>453.61</ele>
        <time>2015-12-11T12:08:44Z</time>
      </trkpt>
      <trkpt lat="44.47097" lon="2.70865">
        <ele>451.86</ele>
        <time>2015-12-11T12:08:46Z</time>
      </trkpt>
      <trkpt lat="44.47098" lon="2.70858">
        <ele>452.55</ele>
        <time>2015-12-11T12:08:48Z</time>
      </trkpt>
      <trkpt lat="44.47089" lon="2.70857">
        <ele>449.25</ele>
        <time>2015-12-11T12:08:53Z</time>
      </trkpt>
      <trkpt lat="44.47079" lon="2.70854">
        <ele>449.32</ele>
        <time>2015-12-11T12:08:55Z</time>
      </trkpt>
      <trkpt lat="44.47075" lon="2.70857">
        <ele>448.1</ele>
        <time>2015-12-11T12:08:59Z</time>
      </trkpt>
      <trkpt lat="44.47074" lon="2.7085">
        <ele>447.63</ele>
        <time>2015-12-11T12:09:01Z</time>
      </trkpt>
      <trkpt lat="44.47075" lon="2.70841">
        <ele>442.22</ele>
        <time>2015-12-11T12:09:06Z</time>
      </trkpt>
      <trkpt lat="44.47068" lon="2.70843">
        <ele>444.19</ele>
        <time>2015-12-11T12:09:08Z</time>
      </trkpt>
      <trkpt lat="44.47063" lon="2.70839">
        <ele>445.32</ele>
        <time>2015-12-11T12:09:11Z</time>
      </trkpt>
      <trkpt lat="44.47061" lon="2.70833">
        <ele>445.25</ele>
        <time>2015-12-11T12:09:14Z</time>
      </trkpt>
      <trkpt lat="44.47054" lon="2.70835">
        <ele>444.64</ele>
        <time>2015-12-11T12:09:16Z</time>
      </trkpt>
      <trkpt lat="44.47049" lon="2.70832">
        <ele>445.12</ele>
        <time>2015-12-11T12:09:20Z</time>
      </trkpt>
      <trkpt lat="44.47046" lon="2.70824">
        <ele>447.65</ele>
        <time>2015-12-11T12:09:24Z</time>
      </trkpt>
      <trkpt lat="44.47042" lon="2.70821">
        <ele>448.48</ele>
        <time>2015-12-11T12:09:27Z</time>
      </trkpt>
      <trkpt lat="44.4704" lon="2.70814">
        <ele>447.76</ele>
        <time>2015-12-11T12:09:30Z</time>
      </trkpt>
      <trkpt lat="44.47037" lon="2.70806">
        <ele>448.04</ele>
        <time>2015-12-11T12:09:34Z</time>
      </trkpt>
      <trkpt lat="44.47038" lon="2.70797">
        <ele>447.79</ele>
        <time>2015-12-11T12:09:36Z</time>
      </trkpt>
      <trkpt lat="44.47034" lon="2.70793">
        <ele>448.79</ele>
        <time>2015-12-11T12:09:40Z</time>
      </trkpt>
      <trkpt lat="44.47031" lon="2.70787">
        <ele>450.11</ele>
        <time>2015-12-11T12:09:44Z</time>
      </trkpt>
      <trkpt lat="44.47025" lon="2.70786">
        <ele>448.48</ele>
        <time>2015-12-11T12:09:46Z</time>
      </trkpt>
      <trkpt lat="44.47021" lon="2.70783">
        <ele>449.19</ele>
        <time>2015-12-11T12:09:50Z</time>
      </trkpt>
      <trkpt lat="44.47016" lon="2.70785">
        <ele>450.36</ele>
        <time>2015-12-11T12:09:53Z</time>
      </trkpt>
      <trkpt lat="44.47011" lon="2.70782">
        <ele>448.97</ele>
        <time>2015-12-11T12:09:57Z</time>
      </trkpt>
      <trkpt lat="44.47006" lon="2.70779">
        <ele>448.68</ele>
        <time>2015-12-11T12:10:00Z</time>
      </trkpt>
      <trkpt lat="44.47001" lon="2.70775">
        <ele>445.65</ele>
        <time>2015-12-11T12:10:05Z</time>
      </trkpt>
      <trkpt lat="44.47" lon="2.70769">
        <ele>444.59</ele>
        <time>2015-12-11T12:10:10Z</time>
      </trkpt>
      <trkpt lat="44.46997" lon="2.70763">
        <ele>446.22</ele>
        <time>2015-12-11T12:10:15Z</time>
      </trkpt>
      <trkpt lat="44.46992" lon="2.7076">
        <ele>446.56</ele>
        <time>2015-12-11T12:10:24Z</time>
      </trkpt>
      <trkpt lat="44.46989" lon="2.70756">
        <ele>448.03</ele>
        <time>2015-12-11T12:10:31Z</time>
      </trkpt>
      <trkpt lat="44.46984" lon="2.7075">
        <ele>447.15</ele>
        <time>2015-12-11T12:10:40Z</time>
      </trkpt>
      <trkpt lat="44.46978" lon="2.70742">
        <ele>448.65</ele>
        <time>2015-12-11T12:10:44Z</time>
      </trkpt>
      <trkpt lat="44.46973" lon="2.70742">
        <ele>449.06</ele>
        <time>2015-12-11T12:10:47Z</time>
      </trkpt>
      <trkpt lat="44.46968" lon="2.70741">
        <ele>448.09</ele>
        <time>2015-12-11T12:10:55Z</time>
      </trkpt>
      <trkpt lat="44.46965" lon="2.70734">
        <ele>448.27</ele>
        <time>2015-12-11T12:11:01Z</time>
      </trkpt>
      <trkpt lat="44.46959" lon="2.70732">
        <ele>447.17</ele>
        <time>2015-12-11T12:11:03Z</time>
      </trkpt>
      <trkpt lat="44.46952" lon="2.70728">
        <ele>446.72</ele>
        <time>2015-12-11T12:11:05Z</time>
      </trkpt>
      <trkpt lat="44.46946" lon="2.70728">
        <ele>447.26</ele>
        <time>2015-12-11T12:11:07Z</time>
      </trkpt>
      <trkpt lat="44.46939" lon="2.70726">
        <ele>446.32</ele>
        <time>2015-12-11T12:11:10Z</time>
      </trkpt>
      <trkpt lat="44.46934" lon="2.70723">
        <ele>445.6</ele>
        <time>2015-12-11T12:11:13Z</time>
      </trkpt>
      <trkpt lat="44.46929" lon="2.70723">
        <ele>442.41</ele>
        <time>2015-12-11T12:11:15Z</time>
      </trkpt>
      <trkpt lat="44.46924" lon="2.70723">
        <ele>437.81</ele>
        <time>2015-12-11T12:11:18Z</time>
      </trkpt>
      <trkpt lat="44.46921" lon="2.70719">
        <ele>438.98</ele>
        <time>2015-12-11T12:11:20Z</time>
      </trkpt>
      <trkpt lat="44.46915" lon="2.70719">
        <ele>439.21</ele>
        <time>2015-12-11T12:11:26Z</time>
      </trkpt>
      <trkpt lat="44.4691" lon="2.70718">
        <ele>439.76</ele>
        <time>2015-12-11T12:11:28Z</time>
      </trkpt>
      <trkpt lat="44.46904" lon="2.7072">
        <ele>438.39</ele>
        <time>2015-12-11T12:11:32Z</time>
      </trkpt>
      <trkpt lat="44.469" lon="2.70718">
        <ele>429</ele>
        <time>2015-12-11T12:11:37Z</time>
      </trkpt>
      <trkpt lat="44.46896" lon="2.70713">
        <ele>425.07</ele>
        <time>2015-12-11T12:11:41Z</time>
      </trkpt>
      <trkpt lat="44.46891" lon="2.70711">
        <ele>425.36</ele>
        <time>2015-12-11T12:11:44Z</time>
      </trkpt>
      <trkpt lat="44.46888" lon="2.70706">
        <ele>426.48</ele>
        <time>2015-12-11T12:11:49Z</time>
      </trkpt>
      <trkpt lat="44.46883" lon="2.70707">
        <ele>421.77</ele>
        <time>2015-12-11T12:11:55Z</time>
      </trkpt>
      <trkpt lat="44.46877" lon="2.70707">
        <ele>419.76</ele>
        <time>2015-12-11T12:11:59Z</time>
      </trkpt>
      <trkpt lat="44.46875" lon="2.70701">
        <ele>419.78</ele>
        <time>2015-12-11T12:12:02Z</time>
      </trkpt>
      <trkpt lat="44.46875" lon="2.70693">
        <ele>421.77</ele>
        <time>2015-12-11T12:12:06Z</time>
      </trkpt>
      <trkpt lat="44.4687" lon="2.7069">
        <ele>421.03</ele>
        <time>2015-12-11T12:12:09Z</time>
      </trkpt>
      <trkpt lat="44.46867" lon="2.70684">
        <ele>423.81</ele>
        <time>2015-12-11T12:12:12Z</time>
      </trkpt>
      <trkpt lat="44.46863" lon="2.7068">
        <ele>425.43</ele>
        <time>2015-12-11T12:12:15Z</time>
      </trkpt>
      <trkpt lat="44.46862" lon="2.70672">
        <ele>426.96</ele>
        <time>2015-12-11T12:12:18Z</time>
      </trkpt>
      <trkpt lat="44.46857" lon="2.70671">
        <ele>428.33</ele>
        <time>2015-12-11T12:12:21Z</time>
      </trkpt>
      <trkpt lat="44.46856" lon="2.70661">
        <ele>428.47</ele>
        <time>2015-12-11T12:12:27Z</time>
      </trkpt>
      <trkpt lat="44.46858" lon="2.70654">
        <ele>431.37</ele>
        <time>2015-12-11T12:12:29Z</time>
      </trkpt>
      <trkpt lat="44.46857" lon="2.70647">
        <ele>434.21</ele>
        <time>2015-12-11T12:12:32Z</time>
      </trkpt>
      <trkpt lat="44.46854" lon="2.70641">
        <ele>436.69</ele>
        <time>2015-12-11T12:12:38Z</time>
      </trkpt>
      <trkpt lat="44.46849" lon="2.70632">
        <ele>438.38</ele>
        <time>2015-12-11T12:12:42Z</time>
      </trkpt>
      <trkpt lat="44.46843" lon="2.70633">
        <ele>435.38</ele>
        <time>2015-12-11T12:12:48Z</time>
      </trkpt>
      <trkpt lat="44.46838" lon="2.70633">
        <ele>438.36</ele>
        <time>2015-12-11T12:12:51Z</time>
      </trkpt>
      <trkpt lat="44.46834" lon="2.70625">
        <ele>437.94</ele>
        <time>2015-12-11T12:12:55Z</time>
      </trkpt>
      <trkpt lat="44.46831" lon="2.70621">
        <ele>433.15</ele>
        <time>2015-12-11T12:13:00Z</time>
      </trkpt>
      <trkpt lat="44.46828" lon="2.70615">
        <ele>431.55</ele>
        <time>2015-12-11T12:13:04Z</time>
      </trkpt>
      <trkpt lat="44.46822" lon="2.70615">
        <ele>432.48</ele>
        <time>2015-12-11T12:13:07Z</time>
      </trkpt>
      <trkpt lat="44.46802" lon="2.70559">
        <ele>428.51</ele>
        <time>2015-12-11T12:13:41Z</time>
      </trkpt>
      <trkpt lat="44.46797" lon="2.70556">
        <ele>424.32</ele>
        <time>2015-12-11T12:13:44Z</time>
      </trkpt>
      <trkpt lat="44.46793" lon="2.7055">
        <ele>426.28</ele>
        <time>2015-12-11T12:13:48Z</time>
      </trkpt>
      <trkpt lat="44.46787" lon="2.7055">
        <ele>435.3</ele>
        <time>2015-12-11T12:13:50Z</time>
      </trkpt>
      <trkpt lat="44.46782" lon="2.70551">
        <ele>439.19</ele>
        <time>2015-12-11T12:13:54Z</time>
      </trkpt>
      <trkpt lat="44.46777" lon="2.70553">
        <ele>436.65</ele>
        <time>2015-12-11T12:13:56Z</time>
      </trkpt>
      <trkpt lat="44.46772" lon="2.70553">
        <ele>432.88</ele>
        <time>2015-12-11T12:14:02Z</time>
      </trkpt>
      <trkpt lat="44.46767" lon="2.70557">
        <ele>436.36</ele>
        <time>2015-12-11T12:14:07Z</time>
      </trkpt>
      <trkpt lat="44.46762" lon="2.7056">
        <ele>441.07</ele>
        <time>2015-12-11T12:14:14Z</time>
      </trkpt>
      <trkpt lat="44.46757" lon="2.70561">
        <ele>439.35</ele>
        <time>2015-12-11T12:14:18Z</time>
      </trkpt>
      <trkpt lat="44.4675" lon="2.70562">
        <ele>437.89</ele>
        <time>2015-12-11T12:14:22Z</time>
      </trkpt>
      <trkpt lat="44.46746" lon="2.70563">
        <ele>439.75</ele>
        <time>2015-12-11T12:14:26Z</time>
      </trkpt>
      <trkpt lat="44.46741" lon="2.7056">
        <ele>439.88</ele>
        <time>2015-12-11T12:14:29Z</time>
      </trkpt>
      <trkpt lat="44.46736" lon="2.70558">
        <ele>437.08</ele>
        <time>2015-12-11T12:14:32Z</time>
      </trkpt>
      <trkpt lat="44.46731" lon="2.70556">
        <ele>435.71</ele>
        <time>2015-12-11T12:14:36Z</time>
      </trkpt>
      <trkpt lat="44.46726" lon="2.70556">
        <ele>437.16</ele>
        <time>2015-12-11T12:14:40Z</time>
      </trkpt>
      <trkpt lat="44.46721" lon="2.70553">
        <ele>437.92</ele>
        <time>2015-12-11T12:14:44Z</time>
      </trkpt>
      <trkpt lat="44.46716" lon="2.7055">
        <ele>438.11</ele>
        <time>2015-12-11T12:14:49Z</time>
      </trkpt>
      <trkpt lat="44.46712" lon="2.70544">
        <ele>441.22</ele>
        <time>2015-12-11T12:15:46Z</time>
      </trkpt>
      <trkpt lat="44.46706" lon="2.70546">
        <ele>440</ele>
        <time>2015-12-11T12:15:50Z</time>
      </trkpt>
      <trkpt lat="44.46701" lon="2.70549">
        <ele>437.93</ele>
        <time>2015-12-11T12:15:52Z</time>
      </trkpt>
      <trkpt lat="44.46696" lon="2.70549">
        <ele>435.65</ele>
        <time>2015-12-11T12:15:55Z</time>
      </trkpt>
      <trkpt lat="44.46692" lon="2.70552">
        <ele>432.53</ele>
        <time>2015-12-11T12:15:59Z</time>
      </trkpt>
      <trkpt lat="44.46686" lon="2.7055">
        <ele>433.48</ele>
        <time>2015-12-11T12:16:03Z</time>
      </trkpt>
      <trkpt lat="44.46681" lon="2.70548">
        <ele>434.06</ele>
        <time>2015-12-11T12:16:07Z</time>
      </trkpt>
      <trkpt lat="44.46675" lon="2.70548">
        <ele>431.72</ele>
        <time>2015-12-11T12:16:10Z</time>
      </trkpt>
      <trkpt lat="44.46671" lon="2.70552">
        <ele>430.11</ele>
        <time>2015-12-11T12:16:15Z</time>
      </trkpt>
      <trkpt lat="44.46666" lon="2.70553">
        <ele>426.61</ele>
        <time>2015-12-11T12:16:18Z</time>
      </trkpt>
      <trkpt lat="44.46663" lon="2.70558">
        <ele>426.5</ele>
        <time>2015-12-11T12:16:24Z</time>
      </trkpt>
      <trkpt lat="44.4666" lon="2.70553">
        <ele>426.88</ele>
        <time>2015-12-11T12:16:27Z</time>
      </trkpt>
      <trkpt lat="44.46654" lon="2.70552">
        <ele>426.93</ele>
        <time>2015-12-11T12:16:31Z</time>
      </trkpt>
      <trkpt lat="44.4665" lon="2.70548">
        <ele>425.47</ele>
        <time>2015-12-11T12:16:35Z</time>
      </trkpt>
      <trkpt lat="44.46647" lon="2.70541">
        <ele>426.23</ele>
        <time>2015-12-11T12:16:39Z</time>
      </trkpt>
      <trkpt lat="44.46643" lon="2.70537">
        <ele>425.43</ele>
        <time>2015-12-11T12:16:42Z</time>
      </trkpt>
      <trkpt lat="44.46639" lon="2.70533">
        <ele>427.85</ele>
        <time>2015-12-11T12:16:45Z</time>
      </trkpt>
      <trkpt lat="44.46634" lon="2.70528">
        <ele>432.28</ele>
        <time>2015-12-11T12:16:48Z</time>
      </trkpt>
      <trkpt lat="44.4663" lon="2.7053">
        <ele>434.5</ele>
        <time>2015-12-11T12:16:53Z</time>
      </trkpt>
      <trkpt lat="44.46626" lon="2.70522">
        <ele>435.13</ele>
        <time>2015-12-11T12:16:58Z</time>
      </trkpt>
      <trkpt lat="44.46622" lon="2.70516">
        <ele>437.2</ele>
        <time>2015-12-11T12:17:02Z</time>
      </trkpt>
      <trkpt lat="44.46622" lon="2.7051">
        <ele>437.43</ele>
        <time>2015-12-11T12:17:06Z</time>
      </trkpt>
      <trkpt lat="44.4662" lon="2.70504">
        <ele>439.25</ele>
        <time>2015-12-11T12:17:10Z</time>
      </trkpt>
      <trkpt lat="44.46618" lon="2.70497">
        <ele>439.2</ele>
        <time>2015-12-11T12:17:17Z</time>
      </trkpt>
      <trkpt lat="44.46613" lon="2.70496">
        <ele>437.51</ele>
        <time>2015-12-11T12:17:19Z</time>
      </trkpt>
      <trkpt lat="44.46616" lon="2.7049">
        <ele>437.66</ele>
        <time>2015-12-11T12:17:21Z</time>
      </trkpt>
      <trkpt lat="44.46616" lon="2.70484">
        <ele>438.16</ele>
        <time>2015-12-11T12:17:25Z</time>
      </trkpt>
      <trkpt lat="44.46615" lon="2.70477">
        <ele>437.25</ele>
        <time>2015-12-11T12:17:29Z</time>
      </trkpt>
      <trkpt lat="44.46617" lon="2.70471">
        <ele>436.87</ele>
        <time>2015-12-11T12:17:31Z</time>
      </trkpt>
      <trkpt lat="44.46611" lon="2.70469">
        <ele>436.41</ele>
        <time>2015-12-11T12:17:39Z</time>
      </trkpt>
      <trkpt lat="44.46608" lon="2.70463">
        <ele>437</ele>
        <time>2015-12-11T12:17:42Z</time>
      </trkpt>
      <trkpt lat="44.46604" lon="2.70458">
        <ele>442.63</ele>
        <time>2015-12-11T12:17:46Z</time>
      </trkpt>
      <trkpt lat="44.46604" lon="2.70448">
        <ele>442.78</ele>
        <time>2015-12-11T12:17:51Z</time>
      </trkpt>
      <trkpt lat="44.46601" lon="2.70438">
        <ele>444.35</ele>
        <time>2015-12-11T12:17:54Z</time>
      </trkpt>
      <trkpt lat="44.46605" lon="2.70432">
        <ele>444.92</ele>
        <time>2015-12-11T12:17:55Z</time>
      </trkpt>
      <trkpt lat="44.46603" lon="2.70426">
        <ele>448.25</ele>
        <time>2015-12-11T12:17:59Z</time>
      </trkpt>
      <trkpt lat="44.46603" lon="2.70419">
        <ele>450.16</ele>
        <time>2015-12-11T12:18:03Z</time>
      </trkpt>
      <trkpt lat="44.46602" lon="2.70413">
        <ele>451.92</ele>
        <time>2015-12-11T12:18:05Z</time>
      </trkpt>
      <trkpt lat="44.46608" lon="2.70386">
        <ele>447.22</ele>
        <time>2015-12-11T12:18:42Z</time>
      </trkpt>
      <trkpt lat="44.46602" lon="2.70387">
        <ele>437.05</ele>
        <time>2015-12-11T12:18:45Z</time>
      </trkpt>
      <trkpt lat="44.46605" lon="2.70382">
        <ele>429.42</ele>
        <time>2015-12-11T12:18:50Z</time>
      </trkpt>
      <trkpt lat="44.46607" lon="2.70375">
        <ele>423.82</ele>
        <time>2015-12-11T12:18:56Z</time>
      </trkpt>
      <trkpt lat="44.4661" lon="2.70369">
        <ele>422.45</ele>
        <time>2015-12-11T12:18:59Z</time>
      </trkpt>
      <trkpt lat="44.46613" lon="2.70361">
        <ele>424.84</ele>
        <time>2015-12-11T12:19:04Z</time>
      </trkpt>
      <trkpt lat="44.46616" lon="2.70357">
        <ele>423.99</ele>
        <time>2015-12-11T12:19:07Z</time>
      </trkpt>
      <trkpt lat="44.46619" lon="2.70351">
        <ele>423.07</ele>
        <time>2015-12-11T12:19:12Z</time>
      </trkpt>
      <trkpt lat="44.46622" lon="2.70346">
        <ele>423.47</ele>
        <time>2015-12-11T12:19:18Z</time>
      </trkpt>
      <trkpt lat="44.46626" lon="2.70341">
        <ele>421.73</ele>
        <time>2015-12-11T12:19:23Z</time>
      </trkpt>
      <trkpt lat="44.46627" lon="2.70334">
        <ele>425.15</ele>
        <time>2015-12-11T12:19:29Z</time>
      </trkpt>
      <trkpt lat="44.46631" lon="2.70329">
        <ele>426.61</ele>
        <time>2015-12-11T12:19:37Z</time>
      </trkpt>
      <trkpt lat="44.46636" lon="2.70333">
        <ele>426.36</ele>
        <time>2015-12-11T12:19:51Z</time>
      </trkpt>
      <trkpt lat="44.4664" lon="2.70336">
        <ele>427.73</ele>
        <time>2015-12-11T12:19:59Z</time>
      </trkpt>
      <trkpt lat="44.46644" lon="2.70332">
        <ele>427.37</ele>
        <time>2015-12-11T12:20:13Z</time>
      </trkpt>
      <trkpt lat="44.46644" lon="2.70324">
        <ele>424.01</ele>
        <time>2015-12-11T12:20:19Z</time>
      </trkpt>
      <trkpt lat="44.46645" lon="2.70316">
        <ele>423.6</ele>
        <time>2015-12-11T12:20:22Z</time>
      </trkpt>
      <trkpt lat="44.46646" lon="2.70309">
        <ele>423.18</ele>
        <time>2015-12-11T12:20:28Z</time>
      </trkpt>
      <trkpt lat="44.46646" lon="2.70303">
        <ele>422.75</ele>
        <time>2015-12-11T12:20:31Z</time>
      </trkpt>
      <trkpt lat="44.46648" lon="2.70295">
        <ele>425.51</ele>
        <time>2015-12-11T12:20:37Z</time>
      </trkpt>
      <trkpt lat="44.4665" lon="2.70289">
        <ele>427.48</ele>
        <time>2015-12-11T12:20:42Z</time>
      </trkpt>
      <trkpt lat="44.46653" lon="2.70284">
        <ele>430.44</ele>
        <time>2015-12-11T12:20:46Z</time>
      </trkpt>
      <trkpt lat="44.46657" lon="2.7028">
        <ele>430.79</ele>
        <time>2015-12-11T12:20:49Z</time>
      </trkpt>
      <trkpt lat="44.46659" lon="2.70275">
        <ele>430.95</ele>
        <time>2015-12-11T12:20:51Z</time>
      </trkpt>
      <trkpt lat="44.46663" lon="2.70268">
        <ele>431.84</ele>
        <time>2015-12-11T12:20:55Z</time>
      </trkpt>
      <trkpt lat="44.46669" lon="2.70267">
        <ele>432.64</ele>
        <time>2015-12-11T12:20:57Z</time>
      </trkpt>
      <trkpt lat="44.46673" lon="2.70259">
        <ele>431.75</ele>
        <time>2015-12-11T12:21:01Z</time>
      </trkpt>
      <trkpt lat="44.46676" lon="2.70254">
        <ele>431.14</ele>
        <time>2015-12-11T12:21:07Z</time>
      </trkpt>
      <trkpt lat="44.46679" lon="2.70243">
        <ele>432.6</ele>
        <time>2015-12-11T12:21:12Z</time>
      </trkpt>
      <trkpt lat="44.46681" lon="2.70235">
        <ele>429.67</ele>
        <time>2015-12-11T12:21:17Z</time>
      </trkpt>
      <trkpt lat="44.46684" lon="2.70231">
        <ele>428.57</ele>
        <time>2015-12-11T12:21:20Z</time>
      </trkpt>
      <trkpt lat="44.46688" lon="2.70226">
        <ele>423.67</ele>
        <time>2015-12-11T12:21:26Z</time>
      </trkpt>
      <trkpt lat="44.46691" lon="2.7022">
        <ele>427.4</ele>
        <time>2015-12-11T12:21:32Z</time>
      </trkpt>
      <trkpt lat="44.46693" lon="2.70212">
        <ele>428.81</ele>
        <time>2015-12-11T12:21:35Z</time>
      </trkpt>
      <trkpt lat="44.46695" lon="2.70206">
        <ele>429.9</ele>
        <time>2015-12-11T12:21:38Z</time>
      </trkpt>
      <trkpt lat="44.46698" lon="2.70198">
        <ele>429</ele>
        <time>2015-12-11T12:21:43Z</time>
      </trkpt>
      <trkpt lat="44.46702" lon="2.70188">
        <ele>426.85</ele>
        <time>2015-12-11T12:21:48Z</time>
      </trkpt>
      <trkpt lat="44.46705" lon="2.70179">
        <ele>426.43</ele>
        <time>2015-12-11T12:21:51Z</time>
      </trkpt>
      <trkpt lat="44.46709" lon="2.70174">
        <ele>427.95</ele>
        <time>2015-12-11T12:21:56Z</time>
      </trkpt>
      <trkpt lat="44.46704" lon="2.70175">
        <ele>427.57</ele>
        <time>2015-12-11T12:21:57Z</time>
      </trkpt>
      <trkpt lat="44.46706" lon="2.70169">
        <ele>427.85</ele>
        <time>2015-12-11T12:21:59Z</time>
      </trkpt>
      <trkpt lat="44.46708" lon="2.70162">
        <ele>429.96</ele>
        <time>2015-12-11T12:22:03Z</time>
      </trkpt>
      <trkpt lat="44.46712" lon="2.70151">
        <ele>422.98</ele>
        <time>2015-12-11T12:22:18Z</time>
      </trkpt>
      <trkpt lat="44.46716" lon="2.70144">
        <ele>423.3</ele>
        <time>2015-12-11T12:22:21Z</time>
      </trkpt>
      <trkpt lat="44.46718" lon="2.70137">
        <ele>422.05</ele>
        <time>2015-12-11T12:22:24Z</time>
      </trkpt>
      <trkpt lat="44.46717" lon="2.70125">
        <ele>421.79</ele>
        <time>2015-12-11T12:22:26Z</time>
      </trkpt>
      <trkpt lat="44.46725" lon="2.70121">
        <ele>422.22</ele>
        <time>2015-12-11T12:22:29Z</time>
      </trkpt>
      <trkpt lat="44.46728" lon="2.70113">
        <ele>419.46</ele>
        <time>2015-12-11T12:22:35Z</time>
      </trkpt>
      <trkpt lat="44.4673" lon="2.70106">
        <ele>416.63</ele>
        <time>2015-12-11T12:22:41Z</time>
      </trkpt>
      <trkpt lat="44.46734" lon="2.70108">
        <ele>416.28</ele>
        <time>2015-12-11T12:22:42Z</time>
      </trkpt>
      <trkpt lat="44.4673" lon="2.70103">
        <ele>414.92</ele>
        <time>2015-12-11T12:22:46Z</time>
      </trkpt>
      <trkpt lat="44.46727" lon="2.70098">
        <ele>414.53</ele>
        <time>2015-12-11T12:22:49Z</time>
      </trkpt>
      <trkpt lat="44.46729" lon="2.70092">
        <ele>411.38</ele>
        <time>2015-12-11T12:22:50Z</time>
      </trkpt>
      <trkpt lat="44.4673" lon="2.70085">
        <ele>410</ele>
        <time>2015-12-11T12:22:53Z</time>
      </trkpt>
      <trkpt lat="44.46737" lon="2.70084">
        <ele>409.03</ele>
        <time>2015-12-11T12:22:57Z</time>
      </trkpt>
      <trkpt lat="44.46741" lon="2.70082">
        <ele>408.81</ele>
        <time>2015-12-11T12:23:00Z</time>
      </trkpt>
      <trkpt lat="44.46777" lon="2.70055">
        <ele>411.5</ele>
        <time>2015-12-11T12:23:42Z</time>
      </trkpt>
      <trkpt lat="44.46782" lon="2.70054">
        <ele>411.86</ele>
        <time>2015-12-11T12:23:46Z</time>
      </trkpt>
      <trkpt lat="44.46785" lon="2.70049">
        <ele>412.17</ele>
        <time>2015-12-11T12:23:50Z</time>
      </trkpt>
      <trkpt lat="44.4679" lon="2.7005">
        <ele>412.44</ele>
        <time>2015-12-11T12:23:54Z</time>
      </trkpt>
      <trkpt lat="44.46789" lon="2.70042">
        <ele>413.79</ele>
        <time>2015-12-11T12:23:59Z</time>
      </trkpt>
      <trkpt lat="44.46795" lon="2.70014">
        <ele>422.24</ele>
        <time>2015-12-11T12:24:26Z</time>
      </trkpt>
      <trkpt lat="44.46802" lon="2.70006">
        <ele>421</ele>
        <time>2015-12-11T12:25:00Z</time>
      </trkpt>
      <trkpt lat="44.46807" lon="2.70004">
        <ele>422.96</ele>
        <time>2015-12-11T12:25:02Z</time>
      </trkpt>
      <trkpt lat="44.46812" lon="2.70003">
        <ele>422.29</ele>
        <time>2015-12-11T12:25:05Z</time>
      </trkpt>
      <trkpt lat="44.46817" lon="2.70002">
        <ele>422.85</ele>
        <time>2015-12-11T12:25:08Z</time>
      </trkpt>
      <trkpt lat="44.46822" lon="2.70003">
        <ele>421.04</ele>
        <time>2015-12-11T12:25:10Z</time>
      </trkpt>
      <trkpt lat="44.46827" lon="2.70005">
        <ele>420.93</ele>
        <time>2015-12-11T12:25:14Z</time>
      </trkpt>
      <trkpt lat="44.46832" lon="2.70003">
        <ele>419.72</ele>
        <time>2015-12-11T12:25:18Z</time>
      </trkpt>
      <trkpt lat="44.46837" lon="2.70002">
        <ele>418.42</ele>
        <time>2015-12-11T12:25:23Z</time>
      </trkpt>
      <trkpt lat="44.4684" lon="2.69997">
        <ele>419.49</ele>
        <time>2015-12-11T12:25:27Z</time>
      </trkpt>
      <trkpt lat="44.46845" lon="2.69995">
        <ele>420.01</ele>
        <time>2015-12-11T12:25:31Z</time>
      </trkpt>
      <trkpt lat="44.46849" lon="2.6999">
        <ele>420.72</ele>
        <time>2015-12-11T12:25:36Z</time>
      </trkpt>
      <trkpt lat="44.46851" lon="2.69983">
        <ele>421.84</ele>
        <time>2015-12-11T12:25:40Z</time>
      </trkpt>
      <trkpt lat="44.46854" lon="2.69976">
        <ele>426.37</ele>
        <time>2015-12-11T12:25:47Z</time>
      </trkpt>
      <trkpt lat="44.46853" lon="2.69969">
        <ele>431.8</ele>
        <time>2015-12-11T12:25:52Z</time>
      </trkpt>
      <trkpt lat="44.46856" lon="2.69963">
        <ele>431.57</ele>
        <time>2015-12-11T12:25:56Z</time>
      </trkpt>
      <trkpt lat="44.4686" lon="2.69961">
        <ele>430.56</ele>
        <time>2015-12-11T12:25:58Z</time>
      </trkpt>
      <trkpt lat="44.46865" lon="2.69957">
        <ele>430.95</ele>
        <time>2015-12-11T12:26:03Z</time>
      </trkpt>
      <trkpt lat="44.46871" lon="2.69955">
        <ele>431.91</ele>
        <time>2015-12-11T12:26:08Z</time>
      </trkpt>
      <trkpt lat="44.46877" lon="2.69956">
        <ele>432.56</ele>
        <time>2015-12-11T12:26:12Z</time>
      </trkpt>
      <trkpt lat="44.46882" lon="2.69956">
        <ele>431.19</ele>
        <time>2015-12-11T12:26:21Z</time>
      </trkpt>
      <trkpt lat="44.46887" lon="2.69958">
        <ele>428.7</ele>
        <time>2015-12-11T12:26:23Z</time>
      </trkpt>
      <trkpt lat="44.46894" lon="2.69957">
        <ele>429.2</ele>
        <time>2015-12-11T12:26:28Z</time>
      </trkpt>
      <trkpt lat="44.46899" lon="2.69955">
        <ele>430.78</ele>
        <time>2015-12-11T12:26:33Z</time>
      </trkpt>
      <trkpt lat="44.46903" lon="2.69952">
        <ele>437.31</ele>
        <time>2015-12-11T12:26:38Z</time>
      </trkpt>
      <trkpt lat="44.46907" lon="2.69949">
        <ele>436.41</ele>
        <time>2015-12-11T12:26:41Z</time>
      </trkpt>
      <trkpt lat="44.46912" lon="2.69948">
        <ele>434.41</ele>
        <time>2015-12-11T12:26:43Z</time>
      </trkpt>
      <trkpt lat="44.46915" lon="2.69943">
        <ele>433.01</ele>
        <time>2015-12-11T12:26:48Z</time>
      </trkpt>
      <trkpt lat="44.4692" lon="2.69943">
        <ele>436.43</ele>
        <time>2015-12-11T12:26:55Z</time>
      </trkpt>
      <trkpt lat="44.46927" lon="2.6994">
        <ele>445.69</ele>
        <time>2015-12-11T12:27:06Z</time>
      </trkpt>
      <trkpt lat="44.46932" lon="2.69941">
        <ele>445.35</ele>
        <time>2015-12-11T12:27:09Z</time>
      </trkpt>
      <trkpt lat="44.46938" lon="2.6994">
        <ele>446.59</ele>
        <time>2015-12-11T12:27:15Z</time>
      </trkpt>
      <trkpt lat="44.46944" lon="2.69939">
        <ele>444.75</ele>
        <time>2015-12-11T12:27:18Z</time>
      </trkpt>
      <trkpt lat="44.46948" lon="2.69938">
        <ele>446.28</ele>
        <time>2015-12-11T12:27:27Z</time>
      </trkpt>
      <trkpt lat="44.46953" lon="2.69937">
        <ele>446.35</ele>
        <time>2015-12-11T12:27:31Z</time>
      </trkpt>
      <trkpt lat="44.46957" lon="2.69935">
        <ele>442.94</ele>
        <time>2015-12-11T12:27:34Z</time>
      </trkpt>
      <trkpt lat="44.46963" lon="2.69935">
        <ele>440.23</ele>
        <time>2015-12-11T12:27:37Z</time>
      </trkpt>
      <trkpt lat="44.46967" lon="2.69936">
        <ele>437.74</ele>
        <time>2015-12-11T12:27:40Z</time>
      </trkpt>
      <trkpt lat="44.46973" lon="2.69936">
        <ele>435.82</ele>
        <time>2015-12-11T12:27:45Z</time>
      </trkpt>
      <trkpt lat="44.46978" lon="2.69935">
        <ele>436.66</ele>
        <time>2015-12-11T12:27:49Z</time>
      </trkpt>
      <trkpt lat="44.46983" lon="2.69934">
        <ele>436.73</ele>
        <time>2015-12-11T12:27:52Z</time>
      </trkpt>
      <trkpt lat="44.46988" lon="2.69935">
        <ele>437.2</ele>
        <time>2015-12-11T12:27:56Z</time>
      </trkpt>
      <trkpt lat="44.46992" lon="2.69932">
        <ele>438.87</ele>
        <time>2015-12-11T12:28:03Z</time>
      </trkpt>
      <trkpt lat="44.46997" lon="2.69931">
        <ele>441.06</ele>
        <time>2015-12-11T12:28:07Z</time>
      </trkpt>
      <trkpt lat="44.4702" lon="2.69883">
        <ele>443.18</ele>
        <time>2015-12-11T12:28:42Z</time>
      </trkpt>
      <trkpt lat="44.47025" lon="2.69881">
        <ele>439.35</ele>
        <time>2015-12-11T12:28:50Z</time>
      </trkpt>
      <trkpt lat="44.4703" lon="2.69879">
        <ele>434.93</ele>
        <time>2015-12-11T12:28:53Z</time>
      </trkpt>
      <trkpt lat="44.47036" lon="2.69876">
        <ele>431.23</ele>
        <time>2015-12-11T12:28:58Z</time>
      </trkpt>
      <trkpt lat="44.4704" lon="2.69874">
        <ele>433.28</ele>
        <time>2015-12-11T12:29:03Z</time>
      </trkpt>
      <trkpt lat="44.47044" lon="2.6987">
        <ele>432.19</ele>
        <time>2015-12-11T12:29:09Z</time>
      </trkpt>
      <trkpt lat="44.47049" lon="2.69869">
        <ele>430.34</ele>
        <time>2015-12-11T12:29:12Z</time>
      </trkpt>
      <trkpt lat="44.47054" lon="2.69867">
        <ele>430.07</ele>
        <time>2015-12-11T12:29:18Z</time>
      </trkpt>
      <trkpt lat="44.47059" lon="2.69865">
        <ele>429.7</ele>
        <time>2015-12-11T12:29:20Z</time>
      </trkpt>
      <trkpt lat="44.47063" lon="2.69863">
        <ele>433.2</ele>
        <time>2015-12-11T12:29:25Z</time>
      </trkpt>
      <trkpt lat="44.47064" lon="2.69857">
        <ele>435.24</ele>
        <time>2015-12-11T12:29:31Z</time>
      </trkpt>
      <trkpt lat="44.47069" lon="2.69855">
        <ele>436.55</ele>
        <time>2015-12-11T12:29:34Z</time>
      </trkpt>
      <trkpt lat="44.47074" lon="2.69854">
        <ele>437.47</ele>
        <time>2015-12-11T12:29:36Z</time>
      </trkpt>
      <trkpt lat="44.47081" lon="2.69851">
        <ele>438.55</ele>
        <time>2015-12-11T12:29:40Z</time>
      </trkpt>
      <trkpt lat="44.47086" lon="2.69849">
        <ele>439.95</ele>
        <time>2015-12-11T12:29:45Z</time>
      </trkpt>
      <trkpt lat="44.4709" lon="2.69842">
        <ele>437.64</ele>
        <time>2015-12-11T12:29:49Z</time>
      </trkpt>
      <trkpt lat="44.47093" lon="2.69836">
        <ele>436.79</ele>
        <time>2015-12-11T12:29:56Z</time>
      </trkpt>
      <trkpt lat="44.47096" lon="2.6983">
        <ele>438.25</ele>
        <time>2015-12-11T12:29:59Z</time>
      </trkpt>
      <trkpt lat="44.47097" lon="2.69824">
        <ele>436.89</ele>
        <time>2015-12-11T12:30:04Z</time>
      </trkpt>
      <trkpt lat="44.47099" lon="2.69817">
        <ele>438.95</ele>
        <time>2015-12-11T12:30:08Z</time>
      </trkpt>
      <trkpt lat="44.47099" lon="2.6981">
        <ele>441.07</ele>
        <time>2015-12-11T12:30:13Z</time>
      </trkpt>
      <trkpt lat="44.47099" lon="2.69803">
        <ele>443.39</ele>
        <time>2015-12-11T12:30:19Z</time>
      </trkpt>
      <trkpt lat="44.47096" lon="2.69798">
        <ele>443.4</ele>
        <time>2015-12-11T12:30:21Z</time>
      </trkpt>
      <trkpt lat="44.471" lon="2.69794">
        <ele>444.61</ele>
        <time>2015-12-11T12:30:23Z</time>
      </trkpt>
      <trkpt lat="44.47102" lon="2.69787">
        <ele>446.76</ele>
        <time>2015-12-11T12:30:27Z</time>
      </trkpt>
      <trkpt lat="44.47104" lon="2.69781">
        <ele>446.94</ele>
        <time>2015-12-11T12:30:32Z</time>
      </trkpt>
      <trkpt lat="44.47106" lon="2.69774">
        <ele>447.17</ele>
        <time>2015-12-11T12:30:36Z</time>
      </trkpt>
      <trkpt lat="44.47103" lon="2.69766">
        <ele>449.51</ele>
        <time>2015-12-11T12:30:42Z</time>
      </trkpt>
      <trkpt lat="44.47105" lon="2.69759">
        <ele>450.7</ele>
        <time>2015-12-11T12:30:45Z</time>
      </trkpt>
      <trkpt lat="44.47104" lon="2.69753">
        <ele>450.26</ele>
        <time>2015-12-11T12:30:48Z</time>
      </trkpt>
      <trkpt lat="44.471" lon="2.69743">
        <ele>452.92</ele>
        <time>2015-12-11T12:30:53Z</time>
      </trkpt>
      <trkpt lat="44.47104" lon="2.69736">
        <ele>454.03</ele>
        <time>2015-12-11T12:30:56Z</time>
      </trkpt>
      <trkpt lat="44.47104" lon="2.69729">
        <ele>454.72</ele>
        <time>2015-12-11T12:30:59Z</time>
      </trkpt>
      <trkpt lat="44.47109" lon="2.69724">
        <ele>453.7</ele>
        <time>2015-12-11T12:31:09Z</time>
      </trkpt>
      <trkpt lat="44.47109" lon="2.69717">
        <ele>455.45</ele>
        <time>2015-12-11T12:31:16Z</time>
      </trkpt>
      <trkpt lat="44.47108" lon="2.6971">
        <ele>459.87</ele>
        <time>2015-12-11T12:31:21Z</time>
      </trkpt>
      <trkpt lat="44.47108" lon="2.69704">
        <ele>462.62</ele>
        <time>2015-12-11T12:31:23Z</time>
      </trkpt>
      <trkpt lat="44.47112" lon="2.69702">
        <ele>462.51</ele>
        <time>2015-12-11T12:31:28Z</time>
      </trkpt>
      <trkpt lat="44.47113" lon="2.69695">
        <ele>466.19</ele>
        <time>2015-12-11T12:31:47Z</time>
      </trkpt>
      <trkpt lat="44.47117" lon="2.69691">
        <ele>468.05</ele>
        <time>2015-12-11T12:31:55Z</time>
      </trkpt>
      <trkpt lat="44.47123" lon="2.69688">
        <ele>465.95</ele>
        <time>2015-12-11T12:32:00Z</time>
      </trkpt>
      <trkpt lat="44.47128" lon="2.69685">
        <ele>469.11</ele>
        <time>2015-12-11T12:32:09Z</time>
      </trkpt>
      <trkpt lat="44.47132" lon="2.69682">
        <ele>468.56</ele>
        <time>2015-12-11T12:32:13Z</time>
      </trkpt>
      <trkpt lat="44.47138" lon="2.69679">
        <ele>464.04</ele>
        <time>2015-12-11T12:32:28Z</time>
      </trkpt>
      <trkpt lat="44.47139" lon="2.69673">
        <ele>462.24</ele>
        <time>2015-12-11T12:32:31Z</time>
      </trkpt>
      <trkpt lat="44.47142" lon="2.69666">
        <ele>461.13</ele>
        <time>2015-12-11T12:32:34Z</time>
      </trkpt>
      <trkpt lat="44.47147" lon="2.69666">
        <ele>459.01</ele>
        <time>2015-12-11T12:32:36Z</time>
      </trkpt>
      <trkpt lat="44.4715" lon="2.69661">
        <ele>455.95</ele>
        <time>2015-12-11T12:32:40Z</time>
      </trkpt>
      <trkpt lat="44.47151" lon="2.69655">
        <ele>452.08</ele>
        <time>2015-12-11T12:32:47Z</time>
      </trkpt>
      <trkpt lat="44.47154" lon="2.6965">
        <ele>451.64</ele>
        <time>2015-12-11T12:32:54Z</time>
      </trkpt>
      <trkpt lat="44.47158" lon="2.69647">
        <ele>449.16</ele>
        <time>2015-12-11T12:32:58Z</time>
      </trkpt>
      <trkpt lat="44.47162" lon="2.69642">
        <ele>446.24</ele>
        <time>2015-12-11T12:33:02Z</time>
      </trkpt>
      <trkpt lat="44.47191" lon="2.69596">
        <ele>445.55</ele>
        <time>2015-12-11T12:33:44Z</time>
      </trkpt>
      <trkpt lat="44.47192" lon="2.6959">
        <ele>443.47</ele>
        <time>2015-12-11T12:33:46Z</time>
      </trkpt>
      <trkpt lat="44.47194" lon="2.69582">
        <ele>452.82</ele>
        <time>2015-12-11T12:33:48Z</time>
      </trkpt>
      <trkpt lat="44.47194" lon="2.69574">
        <ele>455.23</ele>
        <time>2015-12-11T12:33:54Z</time>
      </trkpt>
      <trkpt lat="44.47196" lon="2.69581">
        <ele>446.25</ele>
        <time>2015-12-11T12:33:57Z</time>
      </trkpt>
      <trkpt lat="44.47196" lon="2.69574">
        <ele>445.96</ele>
        <time>2015-12-11T12:34:05Z</time>
      </trkpt>
      <trkpt lat="44.47199" lon="2.69568">
        <ele>440.32</ele>
        <time>2015-12-11T12:34:12Z</time>
      </trkpt>
      <trkpt lat="44.47203" lon="2.69564">
        <ele>443.13</ele>
        <time>2015-12-11T12:34:20Z</time>
      </trkpt>
      <trkpt lat="44.47209" lon="2.69565">
        <ele>439.95</ele>
        <time>2015-12-11T12:34:24Z</time>
      </trkpt>
      <trkpt lat="44.47213" lon="2.69561">
        <ele>436.86</ele>
        <time>2015-12-11T12:34:29Z</time>
      </trkpt>
      <trkpt lat="44.47218" lon="2.6956">
        <ele>435</ele>
        <time>2015-12-11T12:34:36Z</time>
      </trkpt>
      <trkpt lat="44.47223" lon="2.69559">
        <ele>432.68</ele>
        <time>2015-12-11T12:34:46Z</time>
      </trkpt>
      <trkpt lat="44.47224" lon="2.69552">
        <ele>437.33</ele>
        <time>2015-12-11T12:34:51Z</time>
      </trkpt>
      <trkpt lat="44.47229" lon="2.69547">
        <ele>437.58</ele>
        <time>2015-12-11T12:35:03Z</time>
      </trkpt>
      <trkpt lat="44.47235" lon="2.69547">
        <ele>433.32</ele>
        <time>2015-12-11T12:35:07Z</time>
      </trkpt>
      <trkpt lat="44.47239" lon="2.69543">
        <ele>435.54</ele>
        <time>2015-12-11T12:35:10Z</time>
      </trkpt>
      <trkpt lat="44.47246" lon="2.69542">
        <ele>434.87</ele>
        <time>2015-12-11T12:35:23Z</time>
      </trkpt>
      <trkpt lat="44.47249" lon="2.69539">
        <ele>434.34</ele>
        <time>2015-12-11T12:35:28Z</time>
      </trkpt>
      <trkpt lat="44.47245" lon="2.69535">
        <ele>434.21</ele>
        <time>2015-12-11T12:35:41Z</time>
      </trkpt>
      <trkpt lat="44.47239" lon="2.69536">
        <ele>435.61</ele>
        <time>2015-12-11T12:35:45Z</time>
      </trkpt>
      <trkpt lat="44.47233" lon="2.69533">
        <ele>437.26</ele>
        <time>2015-12-11T12:35:47Z</time>
      </trkpt>
      <trkpt lat="44.47248" lon="2.69527">
        <ele>438.56</ele>
        <time>2015-12-11T12:35:52Z</time>
      </trkpt>
      <trkpt lat="44.47252" lon="2.69527">
        <ele>438.66</ele>
        <time>2015-12-11T12:36:24Z</time>
      </trkpt>
      <trkpt lat="44.47251" lon="2.69533">
        <ele>435.62</ele>
        <time>2015-12-11T12:36:28Z</time>
      </trkpt>
      <trkpt lat="44.47247" lon="2.69537">
        <ele>435.91</ele>
        <time>2015-12-11T12:36:47Z</time>
      </trkpt>
      <trkpt lat="44.47243" lon="2.69539">
        <ele>435.78</ele>
        <time>2015-12-11T12:36:59Z</time>
      </trkpt>
      <trkpt lat="44.47239" lon="2.69536">
        <ele>438.85</ele>
        <time>2015-12-11T12:37:01Z</time>
      </trkpt>
      <trkpt lat="44.47234" lon="2.69536">
        <ele>444.25</ele>
        <time>2015-12-11T12:37:09Z</time>
      </trkpt>
      <trkpt lat="44.47229" lon="2.69537">
        <ele>445.52</ele>
        <time>2015-12-11T12:37:15Z</time>
      </trkpt>
      <trkpt lat="44.47225" lon="2.69536">
        <ele>450.15</ele>
        <time>2015-12-11T12:37:22Z</time>
      </trkpt>
      <trkpt lat="44.47223" lon="2.69544">
        <ele>450.1</ele>
        <time>2015-12-11T12:37:25Z</time>
      </trkpt>
      <trkpt lat="44.47219" lon="2.69549">
        <ele>446.55</ele>
        <time>2015-12-11T12:37:31Z</time>
      </trkpt>
      <trkpt lat="44.47214" lon="2.69551">
        <ele>449.08</ele>
        <time>2015-12-11T12:37:34Z</time>
      </trkpt>
      <trkpt lat="44.47212" lon="2.69557">
        <ele>446.7</ele>
        <time>2015-12-11T12:37:38Z</time>
      </trkpt>
      <trkpt lat="44.47207" lon="2.69561">
        <ele>445.46</ele>
        <time>2015-12-11T12:37:42Z</time>
      </trkpt>
      <trkpt lat="44.47207" lon="2.69568">
        <ele>446.91</ele>
        <time>2015-12-11T12:37:50Z</time>
      </trkpt>
      <trkpt lat="44.47207" lon="2.69574">
        <ele>439.68</ele>
        <time>2015-12-11T12:37:56Z</time>
      </trkpt>
      <trkpt lat="44.47205" lon="2.69581">
        <ele>437.57</ele>
        <time>2015-12-11T12:38:02Z</time>
      </trkpt>
      <trkpt lat="44.47193" lon="2.696">
        <ele>437</ele>
        <time>2015-12-11T12:38:44Z</time>
      </trkpt>
      <trkpt lat="44.47188" lon="2.69606">
        <ele>436.52</ele>
        <time>2015-12-11T12:38:45Z</time>
      </trkpt>
      <trkpt lat="44.47181" lon="2.69614">
        <ele>443.35</ele>
        <time>2015-12-11T12:38:48Z</time>
      </trkpt>
      <trkpt lat="44.47179" lon="2.69624">
        <ele>446.29</ele>
        <time>2015-12-11T12:38:53Z</time>
      </trkpt>
      <trkpt lat="44.47175" lon="2.69629">
        <ele>448.55</ele>
        <time>2015-12-11T12:38:55Z</time>
      </trkpt>
      <trkpt lat="44.47173" lon="2.69636">
        <ele>450.29</ele>
        <time>2015-12-11T12:38:58Z</time>
      </trkpt>
      <trkpt lat="44.47168" lon="2.69637">
        <ele>455.59</ele>
        <time>2015-12-11T12:39:05Z</time>
      </trkpt>
      <trkpt lat="44.47164" lon="2.69643">
        <ele>459.8</ele>
        <time>2015-12-11T12:39:10Z</time>
      </trkpt>
      <trkpt lat="44.47158" lon="2.69648">
        <ele>459.64</ele>
        <time>2015-12-11T12:39:16Z</time>
      </trkpt>
      <trkpt lat="44.47156" lon="2.69654">
        <ele>461.22</ele>
        <time>2015-12-11T12:39:19Z</time>
      </trkpt>
      <trkpt lat="44.47155" lon="2.69661">
        <ele>454.01</ele>
        <time>2015-12-11T12:39:25Z</time>
      </trkpt>
      <trkpt lat="44.4715" lon="2.69663">
        <ele>455.95</ele>
        <time>2015-12-11T12:39:30Z</time>
      </trkpt>
      <trkpt lat="44.47154" lon="2.69657">
        <ele>459.02</ele>
        <time>2015-12-11T12:40:13Z</time>
      </trkpt>
      <trkpt lat="44.47159" lon="2.69655">
        <ele>465.9</ele>
        <time>2015-12-11T12:40:27Z</time>
      </trkpt>
      <trkpt lat="44.47165" lon="2.69653">
        <ele>466.74</ele>
        <time>2015-12-11T12:40:32Z</time>
      </trkpt>
      <trkpt lat="44.47169" lon="2.69649">
        <ele>466.23</ele>
        <time>2015-12-11T12:40:36Z</time>
      </trkpt>
      <trkpt lat="44.47173" lon="2.69646">
        <ele>466.67</ele>
        <time>2015-12-11T12:40:40Z</time>
      </trkpt>
      <trkpt lat="44.47174" lon="2.69638">
        <ele>474.43</ele>
        <time>2015-12-11T12:40:50Z</time>
      </trkpt>
      <trkpt lat="44.47179" lon="2.69639">
        <ele>471.96</ele>
        <time>2015-12-11T12:40:53Z</time>
      </trkpt>
      <trkpt lat="44.47183" lon="2.69635">
        <ele>470.7</ele>
        <time>2015-12-11T12:40:57Z</time>
      </trkpt>
      <trkpt lat="44.47188" lon="2.69635">
        <ele>464.73</ele>
        <time>2015-12-11T12:41:03Z</time>
      </trkpt>
      <trkpt lat="44.47193" lon="2.69629">
        <ele>463.15</ele>
        <time>2015-12-11T12:41:06Z</time>
      </trkpt>
      <trkpt lat="44.47198" lon="2.69628">
        <ele>462.04</ele>
        <time>2015-12-11T12:41:17Z</time>
      </trkpt>
      <trkpt lat="44.47203" lon="2.69623">
        <ele>462.61</ele>
        <time>2015-12-11T12:41:22Z</time>
      </trkpt>
      <trkpt lat="44.47208" lon="2.6962">
        <ele>463.23</ele>
        <time>2015-12-11T12:41:27Z</time>
      </trkpt>
      <trkpt lat="44.47212" lon="2.69616">
        <ele>460.49</ele>
        <time>2015-12-11T12:41:30Z</time>
      </trkpt>
      <trkpt lat="44.47219" lon="2.69614">
        <ele>456.89</ele>
        <time>2015-12-11T12:41:37Z</time>
      </trkpt>
      <trkpt lat="44.47222" lon="2.6961">
        <ele>457.15</ele>
        <time>2015-12-11T12:41:40Z</time>
      </trkpt>
      <trkpt lat="44.47227" lon="2.69612">
        <ele>453.61</ele>
        <time>2015-12-11T12:41:46Z</time>
      </trkpt>
      <trkpt lat="44.47231" lon="2.69608">
        <ele>455.11</ele>
        <time>2015-12-11T12:41:50Z</time>
      </trkpt>
      <trkpt lat="44.47236" lon="2.69607">
        <ele>457.64</ele>
        <time>2015-12-11T12:41:55Z</time>
      </trkpt>
      <trkpt lat="44.47241" lon="2.69605">
        <ele>460.02</ele>
        <time>2015-12-11T12:42:03Z</time>
      </trkpt>
      <trkpt lat="44.47246" lon="2.69602">
        <ele>460.54</ele>
        <time>2015-12-11T12:42:13Z</time>
      </trkpt>
      <trkpt lat="44.47251" lon="2.69603">
        <ele>467.02</ele>
        <time>2015-12-11T12:42:18Z</time>
      </trkpt>
      <trkpt lat="44.47252" lon="2.69596">
        <ele>468.65</ele>
        <time>2015-12-11T12:42:24Z</time>
      </trkpt>
      <trkpt lat="44.47259" lon="2.69599">
        <ele>470.25</ele>
        <time>2015-12-11T12:42:29Z</time>
      </trkpt>
      <trkpt lat="44.47263" lon="2.69598">
        <ele>471.79</ele>
        <time>2015-12-11T12:42:33Z</time>
      </trkpt>
      <trkpt lat="44.47268" lon="2.69601">
        <ele>471.64</ele>
        <time>2015-12-11T12:42:37Z</time>
      </trkpt>
      <trkpt lat="44.4727" lon="2.69593">
        <ele>469.67</ele>
        <time>2015-12-11T12:42:42Z</time>
      </trkpt>
      <trkpt lat="44.47274" lon="2.69597">
        <ele>471.05</ele>
        <time>2015-12-11T12:42:48Z</time>
      </trkpt>
      <trkpt lat="44.47278" lon="2.69601">
        <ele>470.3</ele>
        <time>2015-12-11T12:42:51Z</time>
      </trkpt>
      <trkpt lat="44.47284" lon="2.69599">
        <ele>471.03</ele>
        <time>2015-12-11T12:43:04Z</time>
      </trkpt>
      <trkpt lat="44.4729" lon="2.6959">
        <ele>471.54</ele>
        <time>2015-12-11T12:43:47Z</time>
      </trkpt>
      <trkpt lat="44.47301" lon="2.6959">
        <ele>471.09</ele>
        <time>2015-12-11T12:44:02Z</time>
      </trkpt>
      <trkpt lat="44.47305" lon="2.69583">
        <ele>472.03</ele>
        <time>2015-12-11T12:44:04Z</time>
      </trkpt>
      <trkpt lat="44.4731" lon="2.69579">
        <ele>474.84</ele>
        <time>2015-12-11T12:44:10Z</time>
      </trkpt>
      <trkpt lat="44.47316" lon="2.69575">
        <ele>479.97</ele>
        <time>2015-12-11T12:44:19Z</time>
      </trkpt>
      <trkpt lat="44.47321" lon="2.69572">
        <ele>482.46</ele>
        <time>2015-12-11T12:44:31Z</time>
      </trkpt>
      <trkpt lat="44.47325" lon="2.69565">
        <ele>484.06</ele>
        <time>2015-12-11T12:44:34Z</time>
      </trkpt>
      <trkpt lat="44.47327" lon="2.69558">
        <ele>484.31</ele>
        <time>2015-12-11T12:44:41Z</time>
      </trkpt>
      <trkpt lat="44.4733" lon="2.69553">
        <ele>484.8</ele>
        <time>2015-12-11T12:44:47Z</time>
      </trkpt>
      <trkpt lat="44.47334" lon="2.69549">
        <ele>486.98</ele>
        <time>2015-12-11T12:44:54Z</time>
      </trkpt>
      <trkpt lat="44.47337" lon="2.69537">
        <ele>488.88</ele>
        <time>2015-12-11T12:45:00Z</time>
      </trkpt>
      <trkpt lat="44.47341" lon="2.6953">
        <ele>498.31</ele>
        <time>2015-12-11T12:45:11Z</time>
      </trkpt>
      <trkpt lat="44.47345" lon="2.69526">
        <ele>491.86</ele>
        <time>2015-12-11T12:45:21Z</time>
      </trkpt>
      <trkpt lat="44.47347" lon="2.69521">
        <ele>491.1</ele>
        <time>2015-12-11T12:45:25Z</time>
      </trkpt>
      <trkpt lat="44.47349" lon="2.69514">
        <ele>488.35</ele>
        <time>2015-12-11T12:45:32Z</time>
      </trkpt>
      <trkpt lat="44.47353" lon="2.69505">
        <ele>486.96</ele>
        <time>2015-12-11T12:47:04Z</time>
      </trkpt>
      <trkpt lat="44.47357" lon="2.69497">
        <ele>482.99</ele>
        <time>2015-12-11T12:47:07Z</time>
      </trkpt>
      <trkpt lat="44.47361" lon="2.6949">
        <ele>478.87</ele>
        <time>2015-12-11T12:47:09Z</time>
      </trkpt>
      <trkpt lat="44.47364" lon="2.69483">
        <ele>477.67</ele>
        <time>2015-12-11T12:47:12Z</time>
      </trkpt>
      <trkpt lat="44.47367" lon="2.69478">
        <ele>476.65</ele>
        <time>2015-12-11T12:47:15Z</time>
      </trkpt>
      <trkpt lat="44.47367" lon="2.69471">
        <ele>478.39</ele>
        <time>2015-12-11T12:47:21Z</time>
      </trkpt>
      <trkpt lat="44.4737" lon="2.69465">
        <ele>477.98</ele>
        <time>2015-12-11T12:47:23Z</time>
      </trkpt>
      <trkpt lat="44.47369" lon="2.69457">
        <ele>481.5</ele>
        <time>2015-12-11T12:47:30Z</time>
      </trkpt>
      <trkpt lat="44.4737" lon="2.6945">
        <ele>483.37</ele>
        <time>2015-12-11T12:47:35Z</time>
      </trkpt>
      <trkpt lat="44.47373" lon="2.69445">
        <ele>483.29</ele>
        <time>2015-12-11T12:47:39Z</time>
      </trkpt>
      <trkpt lat="44.47374" lon="2.69439">
        <ele>486.46</ele>
        <time>2015-12-11T12:47:44Z</time>
      </trkpt>
      <trkpt lat="44.47373" lon="2.69432">
        <ele>488.85</ele>
        <time>2015-12-11T12:47:51Z</time>
      </trkpt>
      <trkpt lat="44.4737" lon="2.69427">
        <ele>492.45</ele>
        <time>2015-12-11T12:47:55Z</time>
      </trkpt>
      <trkpt lat="44.4737" lon="2.6942">
        <ele>495.86</ele>
        <time>2015-12-11T12:48:00Z</time>
      </trkpt>
      <trkpt lat="44.47373" lon="2.69415">
        <ele>496.27</ele>
        <time>2015-12-11T12:48:03Z</time>
      </trkpt>
      <trkpt lat="44.47371" lon="2.69408">
        <ele>499.28</ele>
        <time>2015-12-11T12:48:07Z</time>
      </trkpt>
      <trkpt lat="44.47376" lon="2.69405">
        <ele>497.03</ele>
        <time>2015-12-11T12:48:11Z</time>
      </trkpt>
      <trkpt lat="44.474" lon="2.69368">
        <ele>496.94</ele>
        <time>2015-12-11T12:48:44Z</time>
      </trkpt>
      <trkpt lat="44.47406" lon="2.69374">
        <ele>490.74</ele>
        <time>2015-12-11T12:48:46Z</time>
      </trkpt>
      <trkpt lat="44.4741" lon="2.69367">
        <ele>483.66</ele>
        <time>2015-12-11T12:48:51Z</time>
      </trkpt>
      <trkpt lat="44.47413" lon="2.69363">
        <ele>485.22</ele>
        <time>2015-12-11T12:48:57Z</time>
      </trkpt>
      <trkpt lat="44.47415" lon="2.69355">
        <ele>488.85</ele>
        <time>2015-12-11T12:49:02Z</time>
      </trkpt>
      <trkpt lat="44.47421" lon="2.69354">
        <ele>492.15</ele>
        <time>2015-12-11T12:49:11Z</time>
      </trkpt>
      <trkpt lat="44.47425" lon="2.69352">
        <ele>492.8</ele>
        <time>2015-12-11T12:49:15Z</time>
      </trkpt>
      <trkpt lat="44.47433" lon="2.69352">
        <ele>488.83</ele>
        <time>2015-12-11T12:49:22Z</time>
      </trkpt>
      <trkpt lat="44.47436" lon="2.69347">
        <ele>486.51</ele>
        <time>2015-12-11T12:49:33Z</time>
      </trkpt>
      <trkpt lat="44.47441" lon="2.69342">
        <ele>487.36</ele>
        <time>2015-12-11T12:49:39Z</time>
      </trkpt>
      <trkpt lat="44.47446" lon="2.6934">
        <ele>488.45</ele>
        <time>2015-12-11T12:49:46Z</time>
      </trkpt>
      <trkpt lat="44.47451" lon="2.69342">
        <ele>486.82</ele>
        <time>2015-12-11T12:49:49Z</time>
      </trkpt>
      <trkpt lat="44.47455" lon="2.69338">
        <ele>489.5</ele>
        <time>2015-12-11T12:49:53Z</time>
      </trkpt>
      <trkpt lat="44.4746" lon="2.69339">
        <ele>489.41</ele>
        <time>2015-12-11T12:49:58Z</time>
      </trkpt>
      <trkpt lat="44.47465" lon="2.69338">
        <ele>488.62</ele>
        <time>2015-12-11T12:50:05Z</time>
      </trkpt>
      <trkpt lat="44.4747" lon="2.69336">
        <ele>489.92</ele>
        <time>2015-12-11T12:50:31Z</time>
      </trkpt>
      <trkpt lat="44.47479" lon="2.69339">
        <ele>492.07</ele>
        <time>2015-12-11T12:50:48Z</time>
      </trkpt>
      <trkpt lat="44.47487" lon="2.6934">
        <ele>490.72</ele>
        <time>2015-12-11T12:50:50Z</time>
      </trkpt>
      <trkpt lat="44.47491" lon="2.69337">
        <ele>490.09</ele>
        <time>2015-12-11T12:50:52Z</time>
      </trkpt>
      <trkpt lat="44.47496" lon="2.69337">
        <ele>488.94</ele>
        <time>2015-12-11T12:50:57Z</time>
      </trkpt>
      <trkpt lat="44.47505" lon="2.69332">
        <ele>491.66</ele>
        <time>2015-12-11T12:51:07Z</time>
      </trkpt>
      <trkpt lat="44.47511" lon="2.6933">
        <ele>492.53</ele>
        <time>2015-12-11T12:51:10Z</time>
      </trkpt>
      <trkpt lat="44.47516" lon="2.69327">
        <ele>494.23</ele>
        <time>2015-12-11T12:51:13Z</time>
      </trkpt>
      <trkpt lat="44.47519" lon="2.69321">
        <ele>494.33</ele>
        <time>2015-12-11T12:51:16Z</time>
      </trkpt>
      <trkpt lat="44.47524" lon="2.69319">
        <ele>494.71</ele>
        <time>2015-12-11T12:51:19Z</time>
      </trkpt>
      <trkpt lat="44.4753" lon="2.69318">
        <ele>495.59</ele>
        <time>2015-12-11T12:51:25Z</time>
      </trkpt>
      <trkpt lat="44.47534" lon="2.69317">
        <ele>497.51</ele>
        <time>2015-12-11T12:51:35Z</time>
      </trkpt>
      <trkpt lat="44.47538" lon="2.69312">
        <ele>497.36</ele>
        <time>2015-12-11T12:51:38Z</time>
      </trkpt>
      <trkpt lat="44.47544" lon="2.69312">
        <ele>497.55</ele>
        <time>2015-12-11T12:51:42Z</time>
      </trkpt>
      <trkpt lat="44.47549" lon="2.69315">
        <ele>497.52</ele>
        <time>2015-12-11T12:51:45Z</time>
      </trkpt>
      <trkpt lat="44.47547" lon="2.6931">
        <ele>496.76</ele>
        <time>2015-12-11T12:51:52Z</time>
      </trkpt>
      <trkpt lat="44.4755" lon="2.69316">
        <ele>496.75</ele>
        <time>2015-12-11T12:51:53Z</time>
      </trkpt>
      <trkpt lat="44.47555" lon="2.69319">
        <ele>498.2</ele>
        <time>2015-12-11T12:51:59Z</time>
      </trkpt>
      <trkpt lat="44.4756" lon="2.69322">
        <ele>500.41</ele>
        <time>2015-12-11T12:52:03Z</time>
      </trkpt>
      <trkpt lat="44.47565" lon="2.69321">
        <ele>505.22</ele>
        <time>2015-12-11T12:52:15Z</time>
      </trkpt>
      <trkpt lat="44.47571" lon="2.69323">
        <ele>505.82</ele>
        <time>2015-12-11T12:52:19Z</time>
      </trkpt>
      <trkpt lat="44.47577" lon="2.69323">
        <ele>510.96</ele>
        <time>2015-12-11T12:52:32Z</time>
      </trkpt>
      <trkpt lat="44.47582" lon="2.69322">
        <ele>510.27</ele>
        <time>2015-12-11T12:52:37Z</time>
      </trkpt>
      <trkpt lat="44.47587" lon="2.69322">
        <ele>510.72</ele>
        <time>2015-12-11T12:52:44Z</time>
      </trkpt>
      <trkpt lat="44.47591" lon="2.69325">
        <ele>509.94</ele>
        <time>2015-12-11T12:52:50Z</time>
      </trkpt>
      <trkpt lat="44.47596" lon="2.69326">
        <ele>511.09</ele>
        <time>2015-12-11T12:52:55Z</time>
      </trkpt>
      <trkpt lat="44.47601" lon="2.69322">
        <ele>511.7</ele>
        <time>2015-12-11T12:53:00Z</time>
      </trkpt>
      <trkpt lat="44.47606" lon="2.6932">
        <ele>512.26</ele>
        <time>2015-12-11T12:53:04Z</time>
      </trkpt>
      <trkpt lat="44.4761" lon="2.69318">
        <ele>514.15</ele>
        <time>2015-12-11T12:53:11Z</time>
      </trkpt>
      <trkpt lat="44.47614" lon="2.6932">
        <ele>517.59</ele>
        <time>2015-12-11T12:53:51Z</time>
      </trkpt>
      <trkpt lat="44.47619" lon="2.69319">
        <ele>528.91</ele>
        <time>2015-12-11T12:54:30Z</time>
      </trkpt>
      <trkpt lat="44.4762" lon="2.69326">
        <ele>531.22</ele>
        <time>2015-12-11T12:54:47Z</time>
      </trkpt>
      <trkpt lat="44.4762" lon="2.69334">
        <ele>533.05</ele>
        <time>2015-12-11T12:55:34Z</time>
      </trkpt>
      <trkpt lat="44.4762" lon="2.69341">
        <ele>531.54</ele>
        <time>2015-12-11T12:55:39Z</time>
      </trkpt>
      <trkpt lat="44.47621" lon="2.69334">
        <ele>535.09</ele>
        <time>2015-12-11T12:56:11Z</time>
      </trkpt>
      <trkpt lat="44.47625" lon="2.6933">
        <ele>534.12</ele>
        <time>2015-12-11T12:56:35Z</time>
      </trkpt>
      <trkpt lat="44.47627" lon="2.69324">
        <ele>531.21</ele>
        <time>2015-12-11T12:56:41Z</time>
      </trkpt>
      <trkpt lat="44.47631" lon="2.69321">
        <ele>530.7</ele>
        <time>2015-12-11T12:56:52Z</time>
      </trkpt>
      <trkpt lat="44.47636" lon="2.69318">
        <ele>529.85</ele>
        <time>2015-12-11T12:56:56Z</time>
      </trkpt>
      <trkpt lat="44.47639" lon="2.69313">
        <ele>529.85</ele>
        <time>2015-12-11T12:57:01Z</time>
      </trkpt>
      <trkpt lat="44.47644" lon="2.69309">
        <ele>529.78</ele>
        <time>2015-12-11T12:57:05Z</time>
      </trkpt>
      <trkpt lat="44.47648" lon="2.69309">
        <ele>525.85</ele>
        <time>2015-12-11T12:57:08Z</time>
      </trkpt>
      <trkpt lat="44.47652" lon="2.69305">
        <ele>523.83</ele>
        <time>2015-12-11T12:57:11Z</time>
      </trkpt>
      <trkpt lat="44.47656" lon="2.693">
        <ele>523.18</ele>
        <time>2015-12-11T12:57:15Z</time>
      </trkpt>
      <trkpt lat="44.4766" lon="2.69297">
        <ele>521.31</ele>
        <time>2015-12-11T12:57:18Z</time>
      </trkpt>
      <trkpt lat="44.47665" lon="2.69292">
        <ele>521.75</ele>
        <time>2015-12-11T12:57:22Z</time>
      </trkpt>
      <trkpt lat="44.47668" lon="2.69287">
        <ele>523.41</ele>
        <time>2015-12-11T12:57:26Z</time>
      </trkpt>
      <trkpt lat="44.47672" lon="2.69282">
        <ele>525.27</ele>
        <time>2015-12-11T12:57:31Z</time>
      </trkpt>
      <trkpt lat="44.47677" lon="2.6928">
        <ele>526.54</ele>
        <time>2015-12-11T12:57:36Z</time>
      </trkpt>
      <trkpt lat="44.4768" lon="2.69275">
        <ele>530.63</ele>
        <time>2015-12-11T12:57:55Z</time>
      </trkpt>
      <trkpt lat="44.47684" lon="2.69269">
        <ele>531.18</ele>
        <time>2015-12-11T12:57:58Z</time>
      </trkpt>
      <trkpt lat="44.47687" lon="2.69264">
        <ele>531.55</ele>
        <time>2015-12-11T12:58:02Z</time>
      </trkpt>
      <trkpt lat="44.47691" lon="2.69258">
        <ele>533.65</ele>
        <time>2015-12-11T12:58:06Z</time>
      </trkpt>
      <trkpt lat="44.47725" lon="2.69273">
        <ele>534.97</ele>
        <time>2015-12-11T12:58:42Z</time>
      </trkpt>
      <trkpt lat="44.4772" lon="2.6927">
        <ele>535.42</ele>
        <time>2015-12-11T12:58:47Z</time>
      </trkpt>
      <trkpt lat="44.47719" lon="2.69264">
        <ele>536.6</ele>
        <time>2015-12-11T12:58:53Z</time>
      </trkpt>
      <trkpt lat="44.47719" lon="2.69257">
        <ele>536.04</ele>
        <time>2015-12-11T12:59:06Z</time>
      </trkpt>
      <trkpt lat="44.4772" lon="2.6925">
        <ele>535.83</ele>
        <time>2015-12-11T12:59:11Z</time>
      </trkpt>
      <trkpt lat="44.47722" lon="2.69241">
        <ele>534.74</ele>
        <time>2015-12-11T12:59:15Z</time>
      </trkpt>
      <trkpt lat="44.47723" lon="2.69234">
        <ele>534.61</ele>
        <time>2015-12-11T12:59:21Z</time>
      </trkpt>
      <trkpt lat="44.47725" lon="2.69228">
        <ele>534.68</ele>
        <time>2015-12-11T12:59:25Z</time>
      </trkpt>
      <trkpt lat="44.47726" lon="2.69219">
        <ele>534.36</ele>
        <time>2015-12-11T12:59:29Z</time>
      </trkpt>
      <trkpt lat="44.47725" lon="2.69213">
        <ele>535.52</ele>
        <time>2015-12-11T12:59:33Z</time>
      </trkpt>
      <trkpt lat="44.47727" lon="2.69207">
        <ele>535.35</ele>
        <time>2015-12-11T12:59:36Z</time>
      </trkpt>
      <trkpt lat="44.47727" lon="2.69199">
        <ele>534.45</ele>
        <time>2015-12-11T12:59:42Z</time>
      </trkpt>
      <trkpt lat="44.47729" lon="2.69192">
        <ele>534.14</ele>
        <time>2015-12-11T12:59:45Z</time>
      </trkpt>
      <trkpt lat="44.47729" lon="2.69186">
        <ele>534.14</ele>
        <time>2015-12-11T12:59:50Z</time>
      </trkpt>
      <trkpt lat="44.47728" lon="2.69179">
        <ele>533.29</ele>
        <time>2015-12-11T12:59:54Z</time>
      </trkpt>
      <trkpt lat="44.47727" lon="2.69173">
        <ele>533.09</ele>
        <time>2015-12-11T12:59:59Z</time>
      </trkpt>
      <trkpt lat="44.47726" lon="2.69167">
        <ele>533.38</ele>
        <time>2015-12-11T13:00:09Z</time>
      </trkpt>
      <trkpt lat="44.47724" lon="2.69162">
        <ele>532.52</ele>
        <time>2015-12-11T13:00:20Z</time>
      </trkpt>
      <trkpt lat="44.47721" lon="2.69155">
        <ele>532.2</ele>
        <time>2015-12-11T13:00:25Z</time>
      </trkpt>
      <trkpt lat="44.47716" lon="2.6915">
        <ele>534.49</ele>
        <time>2015-12-11T13:00:29Z</time>
      </trkpt>
      <trkpt lat="44.47714" lon="2.69144">
        <ele>533.53</ele>
        <time>2015-12-11T13:00:34Z</time>
      </trkpt>
      <trkpt lat="44.4771" lon="2.69141">
        <ele>533.63</ele>
        <time>2015-12-11T13:00:37Z</time>
      </trkpt>
      <trkpt lat="44.47705" lon="2.69136">
        <ele>534.1</ele>
        <time>2015-12-11T13:00:40Z</time>
      </trkpt>
      <trkpt lat="44.47701" lon="2.69132">
        <ele>532.55</ele>
        <time>2015-12-11T13:00:46Z</time>
      </trkpt>
      <trkpt lat="44.47698" lon="2.69127">
        <ele>532.84</ele>
        <time>2015-12-11T13:00:49Z</time>
      </trkpt>
      <trkpt lat="44.47693" lon="2.69123">
        <ele>532.48</ele>
        <time>2015-12-11T13:00:54Z</time>
      </trkpt>
      <trkpt lat="44.47689" lon="2.69118">
        <ele>531.71</ele>
        <time>2015-12-11T13:00:57Z</time>
      </trkpt>
      <trkpt lat="44.47686" lon="2.69115">
        <ele>531.7</ele>
        <time>2015-12-11T13:01:00Z</time>
      </trkpt>
      <trkpt lat="44.47681" lon="2.6911">
        <ele>531.37</ele>
        <time>2015-12-11T13:01:04Z</time>
      </trkpt>
      <trkpt lat="44.47678" lon="2.69105">
        <ele>530.71</ele>
        <time>2015-12-11T13:01:08Z</time>
      </trkpt>
      <trkpt lat="44.47676" lon="2.69099">
        <ele>530.71</ele>
        <time>2015-12-11T13:02:18Z</time>
      </trkpt>
      <trkpt lat="44.47674" lon="2.69093">
        <ele>529.17</ele>
        <time>2015-12-11T13:02:20Z</time>
      </trkpt>
      <trkpt lat="44.47671" lon="2.69088">
        <ele>525.65</ele>
        <time>2015-12-11T13:02:27Z</time>
      </trkpt>
      <trkpt lat="44.47669" lon="2.69081">
        <ele>524.2</ele>
        <time>2015-12-11T13:02:33Z</time>
      </trkpt>
      <trkpt lat="44.47667" lon="2.69075">
        <ele>523.39</ele>
        <time>2015-12-11T13:02:44Z</time>
      </trkpt>
      <trkpt lat="44.47666" lon="2.69067">
        <ele>523.9</ele>
        <time>2015-12-11T13:02:47Z</time>
      </trkpt>
      <trkpt lat="44.47665" lon="2.69061">
        <ele>525.16</ele>
        <time>2015-12-11T13:02:51Z</time>
      </trkpt>
      <trkpt lat="44.47662" lon="2.69054">
        <ele>527.15</ele>
        <time>2015-12-11T13:02:55Z</time>
      </trkpt>
      <trkpt lat="44.4766" lon="2.69048">
        <ele>527.16</ele>
        <time>2015-12-11T13:02:58Z</time>
      </trkpt>
      <trkpt lat="44.47657" lon="2.69042">
        <ele>524.66</ele>
        <time>2015-12-11T13:03:04Z</time>
      </trkpt>
      <trkpt lat="44.47656" lon="2.69035">
        <ele>522.35</ele>
        <time>2015-12-11T13:03:07Z</time>
      </trkpt>
      <trkpt lat="44.47642" lon="2.68974">
        <ele>518.51</ele>
        <time>2015-12-11T13:03:46Z</time>
      </trkpt>
      <trkpt lat="44.47645" lon="2.68969">
        <ele>517.88</ele>
        <time>2015-12-11T13:03:47Z</time>
      </trkpt>
      <trkpt lat="44.47648" lon="2.68963">
        <ele>513.8</ele>
        <time>2015-12-11T13:03:50Z</time>
      </trkpt>
      <trkpt lat="44.47647" lon="2.68957">
        <ele>512.65</ele>
        <time>2015-12-11T13:03:52Z</time>
      </trkpt>
      <trkpt lat="44.47645" lon="2.68951">
        <ele>514.3</ele>
        <time>2015-12-11T13:03:57Z</time>
      </trkpt>
      <trkpt lat="44.47642" lon="2.68946">
        <ele>516.92</ele>
        <time>2015-12-11T13:04:00Z</time>
      </trkpt>
      <trkpt lat="44.47639" lon="2.68939">
        <ele>517.44</ele>
        <time>2015-12-11T13:04:05Z</time>
      </trkpt>
      <trkpt lat="44.47637" lon="2.68934">
        <ele>516.99</ele>
        <time>2015-12-11T13:04:08Z</time>
      </trkpt>
      <trkpt lat="44.47634" lon="2.68929">
        <ele>516.7</ele>
        <time>2015-12-11T13:04:34Z</time>
      </trkpt>
      <trkpt lat="44.4763" lon="2.68926">
        <ele>514.5</ele>
        <time>2015-12-11T13:04:59Z</time>
      </trkpt>
      <trkpt lat="44.47625" lon="2.68925">
        <ele>509.93</ele>
        <time>2015-12-11T13:05:10Z</time>
      </trkpt>
      <trkpt lat="44.47621" lon="2.68924">
        <ele>508.68</ele>
        <time>2015-12-11T13:05:19Z</time>
      </trkpt>
      <trkpt lat="44.47619" lon="2.68918">
        <ele>508.21</ele>
        <time>2015-12-11T13:05:25Z</time>
      </trkpt>
      <trkpt lat="44.47618" lon="2.68911">
        <ele>507.41</ele>
        <time>2015-12-11T13:05:36Z</time>
      </trkpt>
      <trkpt lat="44.47622" lon="2.68906">
        <ele>506.46</ele>
        <time>2015-12-11T13:05:42Z</time>
      </trkpt>
      <trkpt lat="44.47626" lon="2.689">
        <ele>504.28</ele>
        <time>2015-12-11T13:05:48Z</time>
      </trkpt>
      <trkpt lat="44.4763" lon="2.68897">
        <ele>504.12</ele>
        <time>2015-12-11T13:05:53Z</time>
      </trkpt>
      <trkpt lat="44.47634" lon="2.68892">
        <ele>504.99</ele>
        <time>2015-12-11T13:06:01Z</time>
      </trkpt>
      <trkpt lat="44.47639" lon="2.6889">
        <ele>504.34</ele>
        <time>2015-12-11T13:06:06Z</time>
      </trkpt>
      <trkpt lat="44.47644" lon="2.6889">
        <ele>503.25</ele>
        <time>2015-12-11T13:06:12Z</time>
      </trkpt>
      <trkpt lat="44.47648" lon="2.68888">
        <ele>504.16</ele>
        <time>2015-12-11T13:06:20Z</time>
      </trkpt>
      <trkpt lat="44.47652" lon="2.68885">
        <ele>501.62</ele>
        <time>2015-12-11T13:06:23Z</time>
      </trkpt>
      <trkpt lat="44.47655" lon="2.6888">
        <ele>500.37</ele>
        <time>2015-12-11T13:06:27Z</time>
      </trkpt>
      <trkpt lat="44.4766" lon="2.68877">
        <ele>501.32</ele>
        <time>2015-12-11T13:06:31Z</time>
      </trkpt>
      <trkpt lat="44.47664" lon="2.68873">
        <ele>498.55</ele>
        <time>2015-12-11T13:06:36Z</time>
      </trkpt>
      <trkpt lat="44.47669" lon="2.68871">
        <ele>497.86</ele>
        <time>2015-12-11T13:06:40Z</time>
      </trkpt>
      <trkpt lat="44.47674" lon="2.68868">
        <ele>495.28</ele>
        <time>2015-12-11T13:06:44Z</time>
      </trkpt>
      <trkpt lat="44.47677" lon="2.68864">
        <ele>495.05</ele>
        <time>2015-12-11T13:06:47Z</time>
      </trkpt>
      <trkpt lat="44.47681" lon="2.68854">
        <ele>495.66</ele>
        <time>2015-12-11T13:06:52Z</time>
      </trkpt>
      <trkpt lat="44.47675" lon="2.68853">
        <ele>491.67</ele>
        <time>2015-12-11T13:07:08Z</time>
      </trkpt>
      <trkpt lat="44.47671" lon="2.68856">
        <ele>491.16</ele>
        <time>2015-12-11T13:07:12Z</time>
      </trkpt>
      <trkpt lat="44.47666" lon="2.68856">
        <ele>491.24</ele>
        <time>2015-12-11T13:07:15Z</time>
      </trkpt>
      <trkpt lat="44.47661" lon="2.68858">
        <ele>486.63</ele>
        <time>2015-12-11T13:07:20Z</time>
      </trkpt>
      <trkpt lat="44.47657" lon="2.68861">
        <ele>485.86</ele>
        <time>2015-12-11T13:07:25Z</time>
      </trkpt>
      <trkpt lat="44.47652" lon="2.68859">
        <ele>486.89</ele>
        <time>2015-12-11T13:07:30Z</time>
      </trkpt>
      <trkpt lat="44.47647" lon="2.68856">
        <ele>487.62</ele>
        <time>2015-12-11T13:07:34Z</time>
      </trkpt>
      <trkpt lat="44.47642" lon="2.68858">
        <ele>487.43</ele>
        <time>2015-12-11T13:07:38Z</time>
      </trkpt>
      <trkpt lat="44.47638" lon="2.68855">
        <ele>487.87</ele>
        <time>2015-12-11T13:07:43Z</time>
      </trkpt>
      <trkpt lat="44.47633" lon="2.68858">
        <ele>487.2</ele>
        <time>2015-12-11T13:07:48Z</time>
      </trkpt>
      <trkpt lat="44.47627" lon="2.6886">
        <ele>486.64</ele>
        <time>2015-12-11T13:07:52Z</time>
      </trkpt>
      <trkpt lat="44.47623" lon="2.68858">
        <ele>487.04</ele>
        <time>2015-12-11T13:07:54Z</time>
      </trkpt>
      <trkpt lat="44.47619" lon="2.68862">
        <ele>482.33</ele>
        <time>2015-12-11T13:07:59Z</time>
      </trkpt>
      <trkpt lat="44.47614" lon="2.68864">
        <ele>476.47</ele>
        <time>2015-12-11T13:08:07Z</time>
      </trkpt>
      <trkpt lat="44.47579" lon="2.68867">
        <ele>475.95</ele>
        <time>2015-12-11T13:08:47Z</time>
      </trkpt>
      <trkpt lat="44.47575" lon="2.68863">
        <ele>476.54</ele>
        <time>2015-12-11T13:08:50Z</time>
      </trkpt>
      <trkpt lat="44.47571" lon="2.68857">
        <ele>472.21</ele>
        <time>2015-12-11T13:09:03Z</time>
      </trkpt>
      <trkpt lat="44.47568" lon="2.68853">
        <ele>472.05</ele>
        <time>2015-12-11T13:09:08Z</time>
      </trkpt>
      <trkpt lat="44.47564" lon="2.6885">
        <ele>472.3</ele>
        <time>2015-12-11T13:09:12Z</time>
      </trkpt>
      <trkpt lat="44.4756" lon="2.68855">
        <ele>470.62</ele>
        <time>2015-12-11T13:09:17Z</time>
      </trkpt>
      <trkpt lat="44.47555" lon="2.68852">
        <ele>468.4</ele>
        <time>2015-12-11T13:09:26Z</time>
      </trkpt>
      <trkpt lat="44.47549" lon="2.68848">
        <ele>467.81</ele>
        <time>2015-12-11T13:09:30Z</time>
      </trkpt>
      <trkpt lat="44.47547" lon="2.68843">
        <ele>466.58</ele>
        <time>2015-12-11T13:09:37Z</time>
      </trkpt>
      <trkpt lat="44.47543" lon="2.68839">
        <ele>466.61</ele>
        <time>2015-12-11T13:09:43Z</time>
      </trkpt>
      <trkpt lat="44.47539" lon="2.68836">
        <ele>466.05</ele>
        <time>2015-12-11T13:09:46Z</time>
      </trkpt>
      <trkpt lat="44.47536" lon="2.68831">
        <ele>467.24</ele>
        <time>2015-12-11T13:09:54Z</time>
      </trkpt>
      <trkpt lat="44.47531" lon="2.68829">
        <ele>465.61</ele>
        <time>2015-12-11T13:09:59Z</time>
      </trkpt>
      <trkpt lat="44.47527" lon="2.68822">
        <ele>465.07</ele>
        <time>2015-12-11T13:10:04Z</time>
      </trkpt>
      <trkpt lat="44.47522" lon="2.6882">
        <ele>463.1</ele>
        <time>2015-12-11T13:10:09Z</time>
      </trkpt>
      <trkpt lat="44.47518" lon="2.68817">
        <ele>464.71</ele>
        <time>2015-12-11T13:10:13Z</time>
      </trkpt>
      <trkpt lat="44.47513" lon="2.68814">
        <ele>465.26</ele>
        <time>2015-12-11T13:10:16Z</time>
      </trkpt>
      <trkpt lat="44.4751" lon="2.68808">
        <ele>460.55</ele>
        <time>2015-12-11T13:10:23Z</time>
      </trkpt>
      <trkpt lat="44.47505" lon="2.68803">
        <ele>458.79</ele>
        <time>2015-12-11T13:10:26Z</time>
      </trkpt>
      <trkpt lat="44.47499" lon="2.68798">
        <ele>457.38</ele>
        <time>2015-12-11T13:10:38Z</time>
      </trkpt>
      <trkpt lat="44.47494" lon="2.68794">
        <ele>458.37</ele>
        <time>2015-12-11T13:10:40Z</time>
      </trkpt>
      <trkpt lat="44.4749" lon="2.68792">
        <ele>456.53</ele>
        <time>2015-12-11T13:10:47Z</time>
      </trkpt>
      <trkpt lat="44.47485" lon="2.68788">
        <ele>457.88</ele>
        <time>2015-12-11T13:10:57Z</time>
      </trkpt>
      <trkpt lat="44.4748" lon="2.68787">
        <ele>457.1</ele>
        <time>2015-12-11T13:11:03Z</time>
      </trkpt>
      <trkpt lat="44.47478" lon="2.68781">
        <ele>451.93</ele>
        <time>2015-12-11T13:11:11Z</time>
      </trkpt>
      <trkpt lat="44.47473" lon="2.68775">
        <ele>450.09</ele>
        <time>2015-12-11T13:11:14Z</time>
      </trkpt>
      <trkpt lat="44.4747" lon="2.68769">
        <ele>450.28</ele>
        <time>2015-12-11T13:11:20Z</time>
      </trkpt>
      <trkpt lat="44.47466" lon="2.68767">
        <ele>452.87</ele>
        <time>2015-12-11T13:11:26Z</time>
      </trkpt>
      <trkpt lat="44.47462" lon="2.68765">
        <ele>452.51</ele>
        <time>2015-12-11T13:11:31Z</time>
      </trkpt>
      <trkpt lat="44.47458" lon="2.6876">
        <ele>450.99</ele>
        <time>2015-12-11T13:11:34Z</time>
      </trkpt>
      <trkpt lat="44.47454" lon="2.68756">
        <ele>448.89</ele>
        <time>2015-12-11T13:11:39Z</time>
      </trkpt>
      <trkpt lat="44.47448" lon="2.68754">
        <ele>444.85</ele>
        <time>2015-12-11T13:11:45Z</time>
      </trkpt>
      <trkpt lat="44.47445" lon="2.68748">
        <ele>437.56</ele>
        <time>2015-12-11T13:12:16Z</time>
      </trkpt>
      <trkpt lat="44.4744" lon="2.68748">
        <ele>436.3</ele>
        <time>2015-12-11T13:12:36Z</time>
      </trkpt>
      <trkpt lat="44.47435" lon="2.68747">
        <ele>435.69</ele>
        <time>2015-12-11T13:12:39Z</time>
      </trkpt>
      <trkpt lat="44.47431" lon="2.68739">
        <ele>434.34</ele>
        <time>2015-12-11T13:12:48Z</time>
      </trkpt>
      <trkpt lat="44.47434" lon="2.68734">
        <ele>432.33</ele>
        <time>2015-12-11T13:12:52Z</time>
      </trkpt>
      <trkpt lat="44.47471" lon="2.68718">
        <ele>428.44</ele>
        <time>2015-12-11T13:13:49Z</time>
      </trkpt>
      <trkpt lat="44.47475" lon="2.68722">
        <ele>426.23</ele>
        <time>2015-12-11T13:13:54Z</time>
      </trkpt>
      <trkpt lat="44.4748" lon="2.68719">
        <ele>428.32</ele>
        <time>2015-12-11T13:13:58Z</time>
      </trkpt>
      <trkpt lat="44.47485" lon="2.68722">
        <ele>423.71</ele>
        <time>2015-12-11T13:14:08Z</time>
      </trkpt>
      <trkpt lat="44.47492" lon="2.68721">
        <ele>423.46</ele>
        <time>2015-12-11T13:14:10Z</time>
      </trkpt>
      <trkpt lat="44.47496" lon="2.68717">
        <ele>425.81</ele>
        <time>2015-12-11T13:14:16Z</time>
      </trkpt>
      <trkpt lat="44.475" lon="2.68721">
        <ele>422.61</ele>
        <time>2015-12-11T13:14:18Z</time>
      </trkpt>
      <trkpt lat="44.47504" lon="2.68723">
        <ele>423.31</ele>
        <time>2015-12-11T13:14:23Z</time>
      </trkpt>
      <trkpt lat="44.47509" lon="2.68722">
        <ele>425.67</ele>
        <time>2015-12-11T13:14:31Z</time>
      </trkpt>
      <trkpt lat="44.47514" lon="2.68723">
        <ele>425.89</ele>
        <time>2015-12-11T13:14:34Z</time>
      </trkpt>
      <trkpt lat="44.4752" lon="2.68723">
        <ele>428.48</ele>
        <time>2015-12-11T13:14:36Z</time>
      </trkpt>
      <trkpt lat="44.47528" lon="2.68727">
        <ele>433.71</ele>
        <time>2015-12-11T13:14:39Z</time>
      </trkpt>
      <trkpt lat="44.47534" lon="2.68727">
        <ele>436.48</ele>
        <time>2015-12-11T13:14:41Z</time>
      </trkpt>
      <trkpt lat="44.47538" lon="2.68725">
        <ele>436.81</ele>
        <time>2015-12-11T13:14:44Z</time>
      </trkpt>
      <trkpt lat="44.47541" lon="2.68731">
        <ele>431.57</ele>
        <time>2015-12-11T13:14:53Z</time>
      </trkpt>
      <trkpt lat="44.47544" lon="2.68735">
        <ele>432.23</ele>
        <time>2015-12-11T13:14:56Z</time>
      </trkpt>
      <trkpt lat="44.47549" lon="2.68735">
        <ele>431.26</ele>
        <time>2015-12-11T13:15:03Z</time>
      </trkpt>
      <trkpt lat="44.47554" lon="2.68733">
        <ele>434.61</ele>
        <time>2015-12-11T13:15:08Z</time>
      </trkpt>
      <trkpt lat="44.47559" lon="2.68731">
        <ele>435.55</ele>
        <time>2015-12-11T13:15:11Z</time>
      </trkpt>
      <trkpt lat="44.47566" lon="2.68732">
        <ele>435.48</ele>
        <time>2015-12-11T13:15:14Z</time>
      </trkpt>
      <trkpt lat="44.47571" lon="2.68731">
        <ele>434.26</ele>
        <time>2015-12-11T13:15:18Z</time>
      </trkpt>
      <trkpt lat="44.47575" lon="2.68729">
        <ele>432.69</ele>
        <time>2015-12-11T13:15:23Z</time>
      </trkpt>
      <trkpt lat="44.47577" lon="2.68721">
        <ele>433.38</ele>
        <time>2015-12-11T13:15:25Z</time>
      </trkpt>
      <trkpt lat="44.47582" lon="2.68718">
        <ele>433.53</ele>
        <time>2015-12-11T13:15:27Z</time>
      </trkpt>
      <trkpt lat="44.47585" lon="2.68713">
        <ele>430.7</ele>
        <time>2015-12-11T13:15:30Z</time>
      </trkpt>
      <trkpt lat="44.47587" lon="2.68721">
        <ele>429.53</ele>
        <time>2015-12-11T13:15:33Z</time>
      </trkpt>
      <trkpt lat="44.47592" lon="2.68715">
        <ele>428.13</ele>
        <time>2015-12-11T13:15:36Z</time>
      </trkpt>
      <trkpt lat="44.47598" lon="2.68717">
        <ele>423.87</ele>
        <time>2015-12-11T13:15:41Z</time>
      </trkpt>
      <trkpt lat="44.47602" lon="2.68721">
        <ele>420.03</ele>
        <time>2015-12-11T13:15:45Z</time>
      </trkpt>
      <trkpt lat="44.47607" lon="2.68721">
        <ele>416.89</ele>
        <time>2015-12-11T13:15:50Z</time>
      </trkpt>
      <trkpt lat="44.4761" lon="2.68716">
        <ele>417.44</ele>
        <time>2015-12-11T13:16:00Z</time>
      </trkpt>
      <trkpt lat="44.47616" lon="2.6871">
        <ele>416.34</ele>
        <time>2015-12-11T13:16:05Z</time>
      </trkpt>
      <trkpt lat="44.47622" lon="2.68707">
        <ele>415.74</ele>
        <time>2015-12-11T13:16:07Z</time>
      </trkpt>
      <trkpt lat="44.47626" lon="2.68708">
        <ele>411.18</ele>
        <time>2015-12-11T13:16:13Z</time>
      </trkpt>
      <trkpt lat="44.47631" lon="2.68705">
        <ele>410.27</ele>
        <time>2015-12-11T13:16:16Z</time>
      </trkpt>
      <trkpt lat="44.47636" lon="2.68701">
        <ele>410.67</ele>
        <time>2015-12-11T13:16:22Z</time>
      </trkpt>
      <trkpt lat="44.4764" lon="2.68695">
        <ele>410.73</ele>
        <time>2015-12-11T13:16:25Z</time>
      </trkpt>
      <trkpt lat="44.47642" lon="2.68689">
        <ele>408.71</ele>
        <time>2015-12-11T13:16:33Z</time>
      </trkpt>
      <trkpt lat="44.47644" lon="2.68682">
        <ele>409.93</ele>
        <time>2015-12-11T13:16:38Z</time>
      </trkpt>
      <trkpt lat="44.47644" lon="2.68675">
        <ele>405.65</ele>
        <time>2015-12-11T13:16:44Z</time>
      </trkpt>
      <trkpt lat="44.47645" lon="2.68667">
        <ele>405.98</ele>
        <time>2015-12-11T13:16:46Z</time>
      </trkpt>
      <trkpt lat="44.47645" lon="2.6866">
        <ele>406.06</ele>
        <time>2015-12-11T13:16:50Z</time>
      </trkpt>
      <trkpt lat="44.47649" lon="2.68654">
        <ele>405.89</ele>
        <time>2015-12-11T13:16:53Z</time>
      </trkpt>
      <trkpt lat="44.4765" lon="2.68645">
        <ele>402.71</ele>
        <time>2015-12-11T13:16:56Z</time>
      </trkpt>
      <trkpt lat="44.47649" lon="2.68639">
        <ele>400.66</ele>
        <time>2015-12-11T13:16:59Z</time>
      </trkpt>
      <trkpt lat="44.47652" lon="2.68629">
        <ele>400.49</ele>
        <time>2015-12-11T13:17:06Z</time>
      </trkpt>
      <trkpt lat="44.47656" lon="2.68624">
        <ele>400.5</ele>
        <time>2015-12-11T13:17:09Z</time>
      </trkpt>
      <trkpt lat="44.4766" lon="2.68621">
        <ele>401.07</ele>
        <time>2015-12-11T13:17:10Z</time>
      </trkpt>
      <trkpt lat="44.4766" lon="2.68614">
        <ele>401.74</ele>
        <time>2015-12-11T13:17:13Z</time>
      </trkpt>
      <trkpt lat="44.47657" lon="2.68607">
        <ele>401.47</ele>
        <time>2015-12-11T13:17:16Z</time>
      </trkpt>
      <trkpt lat="44.47664" lon="2.68608">
        <ele>402.15</ele>
        <time>2015-12-11T13:17:17Z</time>
      </trkpt>
      <trkpt lat="44.4766" lon="2.68599">
        <ele>399.08</ele>
        <time>2015-12-11T13:17:20Z</time>
      </trkpt>
      <trkpt lat="44.47665" lon="2.68594">
        <ele>398.17</ele>
        <time>2015-12-11T13:17:25Z</time>
      </trkpt>
      <trkpt lat="44.47669" lon="2.68589">
        <ele>399.75</ele>
        <time>2015-12-11T13:17:27Z</time>
      </trkpt>
      <trkpt lat="44.47672" lon="2.68584">
        <ele>401.97</ele>
        <time>2015-12-11T13:17:30Z</time>
      </trkpt>
      <trkpt lat="44.47674" lon="2.68578">
        <ele>403.15</ele>
        <time>2015-12-11T13:17:31Z</time>
      </trkpt>
      <trkpt lat="44.47677" lon="2.68573">
        <ele>406.42</ele>
        <time>2015-12-11T13:17:34Z</time>
      </trkpt>
      <trkpt lat="44.47667" lon="2.68566">
        <ele>407.19</ele>
        <time>2015-12-11T13:17:37Z</time>
      </trkpt>
      <trkpt lat="44.47663" lon="2.68563">
        <ele>407.25</ele>
        <time>2015-12-11T13:17:39Z</time>
      </trkpt>
      <trkpt lat="44.47658" lon="2.68559">
        <ele>411.88</ele>
        <time>2015-12-11T13:17:47Z</time>
      </trkpt>
      <trkpt lat="44.47658" lon="2.68549">
        <ele>416.21</ele>
        <time>2015-12-11T13:17:54Z</time>
      </trkpt>
      <trkpt lat="44.47657" lon="2.68538">
        <ele>417.45</ele>
        <time>2015-12-11T13:17:57Z</time>
      </trkpt>
      <trkpt lat="44.47657" lon="2.68531">
        <ele>420.74</ele>
        <time>2015-12-11T13:18:00Z</time>
      </trkpt>
      <trkpt lat="44.47651" lon="2.68529">
        <ele>420.93</ele>
        <time>2015-12-11T13:18:50Z</time>
      </trkpt>
      <trkpt lat="44.47647" lon="2.68524">
        <ele>417.28</ele>
        <time>2015-12-11T13:18:51Z</time>
      </trkpt>
      <trkpt lat="44.47642" lon="2.68522">
        <ele>414.38</ele>
        <time>2015-12-11T13:18:53Z</time>
      </trkpt>
      <trkpt lat="44.47648" lon="2.68524">
        <ele>413.87</ele>
        <time>2015-12-11T13:18:56Z</time>
      </trkpt>
      <trkpt lat="44.47644" lon="2.68515">
        <ele>417.52</ele>
        <time>2015-12-11T13:19:35Z</time>
      </trkpt>
      <trkpt lat="44.4764" lon="2.6851">
        <ele>414.73</ele>
        <time>2015-12-11T13:19:36Z</time>
      </trkpt>
      <trkpt lat="44.47637" lon="2.68503">
        <ele>411.84</ele>
        <time>2015-12-11T13:19:39Z</time>
      </trkpt>
      <trkpt lat="44.47634" lon="2.68497">
        <ele>410.98</ele>
        <time>2015-12-11T13:19:42Z</time>
      </trkpt>
      <trkpt lat="44.47632" lon="2.68491">
        <ele>409.62</ele>
        <time>2015-12-11T13:19:47Z</time>
      </trkpt>
      <trkpt lat="44.47636" lon="2.68489">
        <ele>410.12</ele>
        <time>2015-12-11T13:20:04Z</time>
      </trkpt>
      <trkpt lat="44.4764" lon="2.68484">
        <ele>409.93</ele>
        <time>2015-12-11T13:20:11Z</time>
      </trkpt>
      <trkpt lat="44.47634" lon="2.68481">
        <ele>410.06</ele>
        <time>2015-12-11T13:20:14Z</time>
      </trkpt>
      <trkpt lat="44.47636" lon="2.68474">
        <ele>410.47</ele>
        <time>2015-12-11T13:20:25Z</time>
      </trkpt>
      <trkpt lat="44.47635" lon="2.6848">
        <ele>408.06</ele>
        <time>2015-12-11T13:20:31Z</time>
      </trkpt>
      <trkpt lat="44.47629" lon="2.68478">
        <ele>407.39</ele>
        <time>2015-12-11T13:20:35Z</time>
      </trkpt>
      <trkpt lat="44.47636" lon="2.68488">
        <ele>407.76</ele>
        <time>2015-12-11T13:20:39Z</time>
      </trkpt>
      <trkpt lat="44.47637" lon="2.68482">
        <ele>405.88</ele>
        <time>2015-12-11T13:20:44Z</time>
      </trkpt>
      <trkpt lat="44.47637" lon="2.6847">
        <ele>402.28</ele>
        <time>2015-12-11T13:21:17Z</time>
      </trkpt>
      <trkpt lat="44.4764" lon="2.68464">
        <ele>401.48</ele>
        <time>2015-12-11T13:21:19Z</time>
      </trkpt>
      <trkpt lat="44.47635" lon="2.68457">
        <ele>401.12</ele>
        <time>2015-12-11T13:21:21Z</time>
      </trkpt>
      <trkpt lat="44.47631" lon="2.68449">
        <ele>400.24</ele>
        <time>2015-12-11T13:21:23Z</time>
      </trkpt>
      <trkpt lat="44.47631" lon="2.68443">
        <ele>402.59</ele>
        <time>2015-12-11T13:21:36Z</time>
      </trkpt>
      <trkpt lat="44.47635" lon="2.68437">
        <ele>400.2</ele>
        <time>2015-12-11T13:21:45Z</time>
      </trkpt>
      <trkpt lat="44.47638" lon="2.68429">
        <ele>397.51</ele>
        <time>2015-12-11T13:21:47Z</time>
      </trkpt>
      <trkpt lat="44.47642" lon="2.68421">
        <ele>389.55</ele>
        <time>2015-12-11T13:21:50Z</time>
      </trkpt>
      <trkpt lat="44.47645" lon="2.68415">
        <ele>387.74</ele>
        <time>2015-12-11T13:21:52Z</time>
      </trkpt>
      <trkpt lat="44.47649" lon="2.68409">
        <ele>389.4</ele>
        <time>2015-12-11T13:21:55Z</time>
      </trkpt>
      <trkpt lat="44.47646" lon="2.68403">
        <ele>388.66</ele>
        <time>2015-12-11T13:21:57Z</time>
      </trkpt>
      <trkpt lat="44.47645" lon="2.68394">
        <ele>386.55</ele>
        <time>2015-12-11T13:22:01Z</time>
      </trkpt>
      <trkpt lat="44.4765" lon="2.6839">
        <ele>387.39</ele>
        <time>2015-12-11T13:22:04Z</time>
      </trkpt>
      <trkpt lat="44.47654" lon="2.68385">
        <ele>389.73</ele>
        <time>2015-12-11T13:22:06Z</time>
      </trkpt>
      <trkpt lat="44.47658" lon="2.68379">
        <ele>390.89</ele>
        <time>2015-12-11T13:22:12Z</time>
      </trkpt>
      <trkpt lat="44.47663" lon="2.68376">
        <ele>393.5</ele>
        <time>2015-12-11T13:22:14Z</time>
      </trkpt>
      <trkpt lat="44.47666" lon="2.68372">
        <ele>395.08</ele>
        <time>2015-12-11T13:22:18Z</time>
      </trkpt>
      <trkpt lat="44.47664" lon="2.68364">
        <ele>394.93</ele>
        <time>2015-12-11T13:22:23Z</time>
      </trkpt>
      <trkpt lat="44.47669" lon="2.6836">
        <ele>392.9</ele>
        <time>2015-12-11T13:22:27Z</time>
      </trkpt>
      <trkpt lat="44.47671" lon="2.68351">
        <ele>391.3</ele>
        <time>2015-12-11T13:22:30Z</time>
      </trkpt>
      <trkpt lat="44.47673" lon="2.68344">
        <ele>391.45</ele>
        <time>2015-12-11T13:22:34Z</time>
      </trkpt>
      <trkpt lat="44.47672" lon="2.68337">
        <ele>394.03</ele>
        <time>2015-12-11T13:22:39Z</time>
      </trkpt>
      <trkpt lat="44.47671" lon="2.68331">
        <ele>391.79</ele>
        <time>2015-12-11T13:22:47Z</time>
      </trkpt>
      <trkpt lat="44.47674" lon="2.68321">
        <ele>394.47</ele>
        <time>2015-12-11T13:22:51Z</time>
      </trkpt>
      <trkpt lat="44.4767" lon="2.68318">
        <ele>392.42</ele>
        <time>2015-12-11T13:22:53Z</time>
      </trkpt>
      <trkpt lat="44.47674" lon="2.68316">
        <ele>392.44</ele>
        <time>2015-12-11T13:22:55Z</time>
      </trkpt>
      <trkpt lat="44.4767" lon="2.6831">
        <ele>394.63</ele>
        <time>2015-12-11T13:22:59Z</time>
      </trkpt>
      <trkpt lat="44.47666" lon="2.68304">
        <ele>393.05</ele>
        <time>2015-12-11T13:23:03Z</time>
      </trkpt>
      <trkpt lat="44.47668" lon="2.68298">
        <ele>396.22</ele>
        <time>2015-12-11T13:23:08Z</time>
      </trkpt>
      <trkpt lat="44.47672" lon="2.6829">
        <ele>396.46</ele>
        <time>2015-12-11T13:23:10Z</time>
      </trkpt>
      <trkpt lat="44.47675" lon="2.68284">
        <ele>395.4</ele>
        <time>2015-12-11T13:23:12Z</time>
      </trkpt>
      <trkpt lat="44.47676" lon="2.68278">
        <ele>394.72</ele>
        <time>2015-12-11T13:23:15Z</time>
      </trkpt>
      <trkpt lat="44.47713" lon="2.68225">
        <ele>369.31</ele>
        <time>2015-12-11T13:23:58Z</time>
      </trkpt>
      <trkpt lat="44.47718" lon="2.68231">
        <ele>351.44</ele>
        <time>2015-12-11T13:24:02Z</time>
      </trkpt>
      <trkpt lat="44.47724" lon="2.68227">
        <ele>350.19</ele>
        <time>2015-12-11T13:24:07Z</time>
      </trkpt>
      <trkpt lat="44.47728" lon="2.68228">
        <ele>359.26</ele>
        <time>2015-12-11T13:24:10Z</time>
      </trkpt>
      <trkpt lat="44.47734" lon="2.68226">
        <ele>362.2</ele>
        <time>2015-12-11T13:24:12Z</time>
      </trkpt>
      <trkpt lat="44.47746" lon="2.68225">
        <ele>370.15</ele>
        <time>2015-12-11T13:24:23Z</time>
      </trkpt>
      <trkpt lat="44.47749" lon="2.68219">
        <ele>370.6</ele>
        <time>2015-12-11T13:24:27Z</time>
      </trkpt>
      <trkpt lat="44.47755" lon="2.6822">
        <ele>370.98</ele>
        <time>2015-12-11T13:24:29Z</time>
      </trkpt>
      <trkpt lat="44.47765" lon="2.68212">
        <ele>373.33</ele>
        <time>2015-12-11T13:24:34Z</time>
      </trkpt>
      <trkpt lat="44.47771" lon="2.68209">
        <ele>373</ele>
        <time>2015-12-11T13:24:38Z</time>
      </trkpt>
      <trkpt lat="44.47778" lon="2.68206">
        <ele>378.88</ele>
        <time>2015-12-11T13:24:44Z</time>
      </trkpt>
      <trkpt lat="44.47782" lon="2.68204">
        <ele>382.2</ele>
        <time>2015-12-11T13:24:46Z</time>
      </trkpt>
      <trkpt lat="44.47798" lon="2.68195">
        <ele>385.82</ele>
        <time>2015-12-11T13:25:06Z</time>
      </trkpt>
      <trkpt lat="44.47803" lon="2.68193">
        <ele>389.01</ele>
        <time>2015-12-11T13:25:11Z</time>
      </trkpt>
      <trkpt lat="44.47799" lon="2.68182">
        <ele>391.01</ele>
        <time>2015-12-11T13:25:17Z</time>
      </trkpt>
      <trkpt lat="44.47805" lon="2.6818">
        <ele>390.88</ele>
        <time>2015-12-11T13:25:23Z</time>
      </trkpt>
      <trkpt lat="44.47811" lon="2.6818">
        <ele>390.65</ele>
        <time>2015-12-11T13:25:28Z</time>
      </trkpt>
      <trkpt lat="44.47822" lon="2.68168">
        <ele>390.5</ele>
        <time>2015-12-11T13:25:55Z</time>
      </trkpt>
      <trkpt lat="44.47831" lon="2.6817">
        <ele>390.27</ele>
        <time>2015-12-11T13:25:56Z</time>
      </trkpt>
      <trkpt lat="44.47837" lon="2.68171">
        <ele>390.86</ele>
        <time>2015-12-11T13:25:57Z</time>
      </trkpt>
      <trkpt lat="44.47842" lon="2.68171">
        <ele>391.3</ele>
        <time>2015-12-11T13:25:58Z</time>
      </trkpt>
      <trkpt lat="44.47848" lon="2.68169">
        <ele>390.93</ele>
        <time>2015-12-11T13:26:00Z</time>
      </trkpt>
      <trkpt lat="44.47853" lon="2.68166">
        <ele>391.21</ele>
        <time>2015-12-11T13:26:02Z</time>
      </trkpt>
      <trkpt lat="44.4786" lon="2.68166">
        <ele>391.51</ele>
        <time>2015-12-11T13:26:05Z</time>
      </trkpt>
      <trkpt lat="44.47865" lon="2.68169">
        <ele>392.26</ele>
        <time>2015-12-11T13:26:09Z</time>
      </trkpt>
      <trkpt lat="44.47868" lon="2.68163">
        <ele>393.38</ele>
        <time>2015-12-11T13:26:12Z</time>
      </trkpt>
      <trkpt lat="44.47872" lon="2.68161">
        <ele>392.83</ele>
        <time>2015-12-11T13:26:17Z</time>
      </trkpt>
      <trkpt lat="44.47872" lon="2.68148">
        <ele>393.55</ele>
        <time>2015-12-11T13:26:20Z</time>
      </trkpt>
      <trkpt lat="44.47876" lon="2.68142">
        <ele>395.72</ele>
        <time>2015-12-11T13:26:22Z</time>
      </trkpt>
      <trkpt lat="44.47882" lon="2.68146">
        <ele>395.93</ele>
        <time>2015-12-11T13:26:25Z</time>
      </trkpt>
      <trkpt lat="44.47887" lon="2.68141">
        <ele>396.05</ele>
        <time>2015-12-11T13:26:33Z</time>
      </trkpt>
      <trkpt lat="44.47892" lon="2.6814">
        <ele>395.02</ele>
        <time>2015-12-11T13:26:34Z</time>
      </trkpt>
      <trkpt lat="44.47896" lon="2.68135">
        <ele>390.94</ele>
        <time>2015-12-11T13:26:40Z</time>
      </trkpt>
      <trkpt lat="44.47896" lon="2.68126">
        <ele>391.67</ele>
        <time>2015-12-11T13:26:45Z</time>
      </trkpt>
      <trkpt lat="44.47896" lon="2.68118">
        <ele>391.78</ele>
        <time>2015-12-11T13:26:53Z</time>
      </trkpt>
      <trkpt lat="44.47899" lon="2.68113">
        <ele>391.47</ele>
        <time>2015-12-11T13:26:55Z</time>
      </trkpt>
      <trkpt lat="44.47904" lon="2.68109">
        <ele>389.82</ele>
        <time>2015-12-11T13:26:58Z</time>
      </trkpt>
      <trkpt lat="44.47907" lon="2.68104">
        <ele>387.06</ele>
        <time>2015-12-11T13:27:01Z</time>
      </trkpt>
      <trkpt lat="44.47912" lon="2.68103">
        <ele>389.1</ele>
        <time>2015-12-11T13:27:02Z</time>
      </trkpt>
      <trkpt lat="44.47912" lon="2.68097">
        <ele>390.02</ele>
        <time>2015-12-11T13:27:05Z</time>
      </trkpt>
      <trkpt lat="44.47917" lon="2.681">
        <ele>389.25</ele>
        <time>2015-12-11T13:27:09Z</time>
      </trkpt>
      <trkpt lat="44.47919" lon="2.68094">
        <ele>389.41</ele>
        <time>2015-12-11T13:27:13Z</time>
      </trkpt>
      <trkpt lat="44.47922" lon="2.68088">
        <ele>388.84</ele>
        <time>2015-12-11T13:27:18Z</time>
      </trkpt>
      <trkpt lat="44.47926" lon="2.68082">
        <ele>389.34</ele>
        <time>2015-12-11T13:27:21Z</time>
      </trkpt>
      <trkpt lat="44.47925" lon="2.68075">
        <ele>389.55</ele>
        <time>2015-12-11T13:27:25Z</time>
      </trkpt>
      <trkpt lat="44.47931" lon="2.6807">
        <ele>389.92</ele>
        <time>2015-12-11T13:27:29Z</time>
      </trkpt>
      <trkpt lat="44.47933" lon="2.68064">
        <ele>390.71</ele>
        <time>2015-12-11T13:27:31Z</time>
      </trkpt>
      <trkpt lat="44.47937" lon="2.68062">
        <ele>391.2</ele>
        <time>2015-12-11T13:27:34Z</time>
      </trkpt>
      <trkpt lat="44.47942" lon="2.68064">
        <ele>391.82</ele>
        <time>2015-12-11T13:27:35Z</time>
      </trkpt>
      <trkpt lat="44.47948" lon="2.6806">
        <ele>391.91</ele>
        <time>2015-12-11T13:27:37Z</time>
      </trkpt>
      <trkpt lat="44.47953" lon="2.68059">
        <ele>392.38</ele>
        <time>2015-12-11T13:27:38Z</time>
      </trkpt>
      <trkpt lat="44.47958" lon="2.68059">
        <ele>393.65</ele>
        <time>2015-12-11T13:27:40Z</time>
      </trkpt>
      <trkpt lat="44.47961" lon="2.68055">
        <ele>396.17</ele>
        <time>2015-12-11T13:27:44Z</time>
      </trkpt>
      <trkpt lat="44.47959" lon="2.68049">
        <ele>397.13</ele>
        <time>2015-12-11T13:27:47Z</time>
      </trkpt>
      <trkpt lat="44.47955" lon="2.68043">
        <ele>396.66</ele>
        <time>2015-12-11T13:27:50Z</time>
      </trkpt>
      <trkpt lat="44.4795" lon="2.68038">
        <ele>395.75</ele>
        <time>2015-12-11T13:27:55Z</time>
      </trkpt>
      <trkpt lat="44.47951" lon="2.68027">
        <ele>396.02</ele>
        <time>2015-12-11T13:27:58Z</time>
      </trkpt>
      <trkpt lat="44.47947" lon="2.68019">
        <ele>397.01</ele>
        <time>2015-12-11T13:28:01Z</time>
      </trkpt>
      <trkpt lat="44.47949" lon="2.68014">
        <ele>397.73</ele>
        <time>2015-12-11T13:28:06Z</time>
      </trkpt>
      <trkpt lat="44.4795" lon="2.68007">
        <ele>396.75</ele>
        <time>2015-12-11T13:28:12Z</time>
      </trkpt>
      <trkpt lat="44.47955" lon="2.68004">
        <ele>396.65</ele>
        <time>2015-12-11T13:28:13Z</time>
      </trkpt>
      <trkpt lat="44.47951" lon="2.67995">
        <ele>397.76</ele>
        <time>2015-12-11T13:28:17Z</time>
      </trkpt>
      <trkpt lat="44.47945" lon="2.67926">
        <ele>390.05</ele>
        <time>2015-12-11T13:28:54Z</time>
      </trkpt>
      <trkpt lat="44.4794" lon="2.67923">
        <ele>381.24</ele>
        <time>2015-12-11T13:28:58Z</time>
      </trkpt>
      <trkpt lat="44.47945" lon="2.67926">
        <ele>377.47</ele>
        <time>2015-12-11T13:29:01Z</time>
      </trkpt>
      <trkpt lat="44.47947" lon="2.67917">
        <ele>377.29</ele>
        <time>2015-12-11T13:29:08Z</time>
      </trkpt>
      <trkpt lat="44.47941" lon="2.67912">
        <ele>372.43</ele>
        <time>2015-12-11T13:29:18Z</time>
      </trkpt>
      <trkpt lat="44.47938" lon="2.67902">
        <ele>374.19</ele>
        <time>2015-12-11T13:29:22Z</time>
      </trkpt>
      <trkpt lat="44.47931" lon="2.67897">
        <ele>374.77</ele>
        <time>2015-12-11T13:29:23Z</time>
      </trkpt>
      <trkpt lat="44.47929" lon="2.67891">
        <ele>373.6</ele>
        <time>2015-12-11T13:29:25Z</time>
      </trkpt>
      <trkpt lat="44.47934" lon="2.67891">
        <ele>373.21</ele>
        <time>2015-12-11T13:29:29Z</time>
      </trkpt>
      <trkpt lat="44.4794" lon="2.67889">
        <ele>375.55</ele>
        <time>2015-12-11T13:29:32Z</time>
      </trkpt>
      <trkpt lat="44.47936" lon="2.67887">
        <ele>374.85</ele>
        <time>2015-12-11T13:29:33Z</time>
      </trkpt>
      <trkpt lat="44.47931" lon="2.67884">
        <ele>376.58</ele>
        <time>2015-12-11T13:29:44Z</time>
      </trkpt>
      <trkpt lat="44.47932" lon="2.67871">
        <ele>377.5</ele>
        <time>2015-12-11T13:31:06Z</time>
      </trkpt>
      <trkpt lat="44.47923" lon="2.67858">
        <ele>376.77</ele>
        <time>2015-12-11T13:31:08Z</time>
      </trkpt>
      <trkpt lat="44.47923" lon="2.6785">
        <ele>375.66</ele>
        <time>2015-12-11T13:31:09Z</time>
      </trkpt>
      <trkpt lat="44.4792" lon="2.67842">
        <ele>374.14</ele>
        <time>2015-12-11T13:31:10Z</time>
      </trkpt>
      <trkpt lat="44.47917" lon="2.67832">
        <ele>374.09</ele>
        <time>2015-12-11T13:31:12Z</time>
      </trkpt>
      <trkpt lat="44.47916" lon="2.67822">
        <ele>375.27</ele>
        <time>2015-12-11T13:31:13Z</time>
      </trkpt>
      <trkpt lat="44.47913" lon="2.67814">
        <ele>376.75</ele>
        <time>2015-12-11T13:31:14Z</time>
      </trkpt>
      <trkpt lat="44.47912" lon="2.67807">
        <ele>378.95</ele>
        <time>2015-12-11T13:31:15Z</time>
      </trkpt>
      <trkpt lat="44.4791" lon="2.67798">
        <ele>380.84</ele>
        <time>2015-12-11T13:31:16Z</time>
      </trkpt>
      <trkpt lat="44.47906" lon="2.67789">
        <ele>384.25</ele>
        <time>2015-12-11T13:31:19Z</time>
      </trkpt>
      <trkpt lat="44.47912" lon="2.67782">
        <ele>387.44</ele>
        <time>2015-12-11T13:31:22Z</time>
      </trkpt>
      <trkpt lat="44.47922" lon="2.67779">
        <ele>391.44</ele>
        <time>2015-12-11T13:31:25Z</time>
      </trkpt>
      <trkpt lat="44.47925" lon="2.6777">
        <ele>390.8</ele>
        <time>2015-12-11T13:31:33Z</time>
      </trkpt>
      <trkpt lat="44.4793" lon="2.67771">
        <ele>391.82</ele>
        <time>2015-12-11T13:31:34Z</time>
      </trkpt>
      <trkpt lat="44.47927" lon="2.67765">
        <ele>391.79</ele>
        <time>2015-12-11T13:31:36Z</time>
      </trkpt>
      <trkpt lat="44.47922" lon="2.67761">
        <ele>391.2</ele>
        <time>2015-12-11T13:31:38Z</time>
      </trkpt>
      <trkpt lat="44.47918" lon="2.67757">
        <ele>390.82</ele>
        <time>2015-12-11T13:31:39Z</time>
      </trkpt>
      <trkpt lat="44.47924" lon="2.67751">
        <ele>389.64</ele>
        <time>2015-12-11T13:31:44Z</time>
      </trkpt>
      <trkpt lat="44.47925" lon="2.67741">
        <ele>391.63</ele>
        <time>2015-12-11T13:31:50Z</time>
      </trkpt>
      <trkpt lat="44.47929" lon="2.67739">
        <ele>392.79</ele>
        <time>2015-12-11T13:31:52Z</time>
      </trkpt>
      <trkpt lat="44.47929" lon="2.67732">
        <ele>394.73</ele>
        <time>2015-12-11T13:31:56Z</time>
      </trkpt>
      <trkpt lat="44.47933" lon="2.6773">
        <ele>396.94</ele>
        <time>2015-12-11T13:32:04Z</time>
      </trkpt>
      <trkpt lat="44.47935" lon="2.67721">
        <ele>397.88</ele>
        <time>2015-12-11T13:32:11Z</time>
      </trkpt>
      <trkpt lat="44.47933" lon="2.67714">
        <ele>397.81</ele>
        <time>2015-12-11T13:32:14Z</time>
      </trkpt>
      <trkpt lat="44.47936" lon="2.67706">
        <ele>397.72</ele>
        <time>2015-12-11T13:32:16Z</time>
      </trkpt>
      <trkpt lat="44.47943" lon="2.67704">
        <ele>397.93</ele>
        <time>2015-12-11T13:32:22Z</time>
      </trkpt>
      <trkpt lat="44.47937" lon="2.67699">
        <ele>398.48</ele>
        <time>2015-12-11T13:32:26Z</time>
      </trkpt>
      <trkpt lat="44.47928" lon="2.67697">
        <ele>398.04</ele>
        <time>2015-12-11T13:32:33Z</time>
      </trkpt>
      <trkpt lat="44.47963" lon="2.67624">
        <ele>411.62</ele>
        <time>2015-12-11T13:33:57Z</time>
      </trkpt>
      <trkpt lat="44.47969" lon="2.67624">
        <ele>419.99</ele>
        <time>2015-12-11T13:33:59Z</time>
      </trkpt>
      <trkpt lat="44.47968" lon="2.67615">
        <ele>422.58</ele>
        <time>2015-12-11T13:34:04Z</time>
      </trkpt>
      <trkpt lat="44.47968" lon="2.67608">
        <ele>427.52</ele>
        <time>2015-12-11T13:34:12Z</time>
      </trkpt>
      <trkpt lat="44.47968" lon="2.676">
        <ele>430.32</ele>
        <time>2015-12-11T13:34:21Z</time>
      </trkpt>
      <trkpt lat="44.47971" lon="2.67595">
        <ele>431.55</ele>
        <time>2015-12-11T13:34:25Z</time>
      </trkpt>
      <trkpt lat="44.47977" lon="2.6759">
        <ele>432.82</ele>
        <time>2015-12-11T13:34:27Z</time>
      </trkpt>
      <trkpt lat="44.47975" lon="2.67584">
        <ele>433.01</ele>
        <time>2015-12-11T13:34:28Z</time>
      </trkpt>
      <trkpt lat="44.47982" lon="2.67584">
        <ele>433.58</ele>
        <time>2015-12-11T13:34:34Z</time>
      </trkpt>
      <trkpt lat="44.4799" lon="2.67584">
        <ele>434.01</ele>
        <time>2015-12-11T13:34:35Z</time>
      </trkpt>
      <trkpt lat="44.47995" lon="2.6758">
        <ele>433.81</ele>
        <time>2015-12-11T13:34:41Z</time>
      </trkpt>
      <trkpt lat="44.47992" lon="2.67571">
        <ele>434.91</ele>
        <time>2015-12-11T13:34:45Z</time>
      </trkpt>
      <trkpt lat="44.47984" lon="2.67564">
        <ele>435.86</ele>
        <time>2015-12-11T13:34:48Z</time>
      </trkpt>
      <trkpt lat="44.47987" lon="2.67559">
        <ele>434.7</ele>
        <time>2015-12-11T13:34:49Z</time>
      </trkpt>
      <trkpt lat="44.4798" lon="2.67557">
        <ele>433.98</ele>
        <time>2015-12-11T13:34:52Z</time>
      </trkpt>
      <trkpt lat="44.47984" lon="2.67557">
        <ele>434.01</ele>
        <time>2015-12-11T13:34:53Z</time>
      </trkpt>
      <trkpt lat="44.47979" lon="2.67559">
        <ele>433.55</ele>
        <time>2015-12-11T13:34:56Z</time>
      </trkpt>
      <trkpt lat="44.47986" lon="2.67554">
        <ele>434.44</ele>
        <time>2015-12-11T13:35:01Z</time>
      </trkpt>
      <trkpt lat="44.47991" lon="2.67551">
        <ele>435.85</ele>
        <time>2015-12-11T13:35:07Z</time>
      </trkpt>
      <trkpt lat="44.47997" lon="2.67549">
        <ele>435.29</ele>
        <time>2015-12-11T13:35:08Z</time>
      </trkpt>
      <trkpt lat="44.48009" lon="2.67542">
        <ele>432.67</ele>
        <time>2015-12-11T13:35:52Z</time>
      </trkpt>
      <trkpt lat="44.48015" lon="2.67525">
        <ele>432.69</ele>
        <time>2015-12-11T13:35:55Z</time>
      </trkpt>
      <trkpt lat="44.48007" lon="2.67515">
        <ele>434.93</ele>
        <time>2015-12-11T13:35:56Z</time>
      </trkpt>
      <trkpt lat="44.4801" lon="2.67509">
        <ele>435.19</ele>
        <time>2015-12-11T13:35:59Z</time>
      </trkpt>
      <trkpt lat="44.48017" lon="2.67501">
        <ele>432.85</ele>
        <time>2015-12-11T13:36:01Z</time>
      </trkpt>
      <trkpt lat="44.48015" lon="2.67496">
        <ele>431.6</ele>
        <time>2015-12-11T13:36:02Z</time>
      </trkpt>
      <trkpt lat="44.48022" lon="2.67486">
        <ele>432.8</ele>
        <time>2015-12-11T13:36:05Z</time>
      </trkpt>
      <trkpt lat="44.48024" lon="2.67479">
        <ele>434.63</ele>
        <time>2015-12-11T13:36:06Z</time>
      </trkpt>
      <trkpt lat="44.4803" lon="2.6748">
        <ele>436.09</ele>
        <time>2015-12-11T13:36:08Z</time>
      </trkpt>
      <trkpt lat="44.48036" lon="2.6748">
        <ele>436.69</ele>
        <time>2015-12-11T13:36:12Z</time>
      </trkpt>
      <trkpt lat="44.48045" lon="2.6748">
        <ele>436.79</ele>
        <time>2015-12-11T13:36:16Z</time>
      </trkpt>
      <trkpt lat="44.48041" lon="2.67474">
        <ele>438.88</ele>
        <time>2015-12-11T13:36:19Z</time>
      </trkpt>
      <trkpt lat="44.48037" lon="2.67465">
        <ele>437.6</ele>
        <time>2015-12-11T13:36:22Z</time>
      </trkpt>
      <trkpt lat="44.48039" lon="2.67459">
        <ele>436.78</ele>
        <time>2015-12-11T13:36:30Z</time>
      </trkpt>
      <trkpt lat="44.48042" lon="2.67454">
        <ele>435.85</ele>
        <time>2015-12-11T13:36:32Z</time>
      </trkpt>
      <trkpt lat="44.48044" lon="2.67446">
        <ele>440.28</ele>
        <time>2015-12-11T13:36:40Z</time>
      </trkpt>
      <trkpt lat="44.48046" lon="2.67441">
        <ele>441.88</ele>
        <time>2015-12-11T13:36:45Z</time>
      </trkpt>
      <trkpt lat="44.48044" lon="2.67432">
        <ele>443.86</ele>
        <time>2015-12-11T13:36:49Z</time>
      </trkpt>
      <trkpt lat="44.48048" lon="2.67426">
        <ele>446.8</ele>
        <time>2015-12-11T13:36:53Z</time>
      </trkpt>
      <trkpt lat="44.48046" lon="2.6742">
        <ele>447.2</ele>
        <time>2015-12-11T13:37:05Z</time>
      </trkpt>
      <trkpt lat="44.48042" lon="2.67415">
        <ele>446.45</ele>
        <time>2015-12-11T13:37:07Z</time>
      </trkpt>
      <trkpt lat="44.48045" lon="2.6741">
        <ele>445.67</ele>
        <time>2015-12-11T13:37:20Z</time>
      </trkpt>
      <trkpt lat="44.48036" lon="2.67407">
        <ele>446.69</ele>
        <time>2015-12-11T13:38:02Z</time>
      </trkpt>
      <trkpt lat="44.48026" lon="2.67406">
        <ele>448.8</ele>
        <time>2015-12-11T13:38:05Z</time>
      </trkpt>
      <trkpt lat="44.4802" lon="2.67397">
        <ele>451.88</ele>
        <time>2015-12-11T13:38:10Z</time>
      </trkpt>
      <trkpt lat="44.4802" lon="2.67387">
        <ele>456.11</ele>
        <time>2015-12-11T13:38:11Z</time>
      </trkpt>
      <trkpt lat="44.48013" lon="2.67374">
        <ele>463.87</ele>
        <time>2015-12-11T13:38:14Z</time>
      </trkpt>
      <trkpt lat="44.48008" lon="2.67366">
        <ele>466.8</ele>
        <time>2015-12-11T13:38:16Z</time>
      </trkpt>
      <trkpt lat="44.48003" lon="2.67365">
        <ele>468.53</ele>
        <time>2015-12-11T13:38:18Z</time>
      </trkpt>
      <trkpt lat="44.47976" lon="2.67326">
        <ele>472.33</ele>
        <time>2015-12-11T13:38:56Z</time>
      </trkpt>
      <trkpt lat="44.47977" lon="2.67319">
        <ele>475.9</ele>
        <time>2015-12-11T13:38:59Z</time>
      </trkpt>
      <trkpt lat="44.47973" lon="2.67314">
        <ele>475.49</ele>
        <time>2015-12-11T13:39:03Z</time>
      </trkpt>
      <trkpt lat="44.47969" lon="2.67318">
        <ele>477.63</ele>
        <time>2015-12-11T13:39:05Z</time>
      </trkpt>
      <trkpt lat="44.47967" lon="2.67312">
        <ele>478.63</ele>
        <time>2015-12-11T13:39:10Z</time>
      </trkpt>
      <trkpt lat="44.47963" lon="2.67312">
        <ele>478.02</ele>
        <time>2015-12-11T13:39:15Z</time>
      </trkpt>
      <trkpt lat="44.47958" lon="2.67309">
        <ele>481.33</ele>
        <time>2015-12-11T13:39:20Z</time>
      </trkpt>
      <trkpt lat="44.47954" lon="2.6731">
        <ele>481.56</ele>
        <time>2015-12-11T13:39:25Z</time>
      </trkpt>
      <trkpt lat="44.47949" lon="2.67308">
        <ele>484.76</ele>
        <time>2015-12-11T13:39:31Z</time>
      </trkpt>
      <trkpt lat="44.47944" lon="2.67306">
        <ele>486.39</ele>
        <time>2015-12-11T13:39:37Z</time>
      </trkpt>
      <trkpt lat="44.47938" lon="2.67306">
        <ele>486.19</ele>
        <time>2015-12-11T13:39:43Z</time>
      </trkpt>
      <trkpt lat="44.47932" lon="2.67305">
        <ele>485.45</ele>
        <time>2015-12-11T13:39:45Z</time>
      </trkpt>
      <trkpt lat="44.47928" lon="2.673">
        <ele>484.84</ele>
        <time>2015-12-11T13:39:51Z</time>
      </trkpt>
      <trkpt lat="44.47926" lon="2.67307">
        <ele>482.39</ele>
        <time>2015-12-11T13:39:55Z</time>
      </trkpt>
      <trkpt lat="44.47921" lon="2.67306">
        <ele>482.8</ele>
        <time>2015-12-11T13:39:59Z</time>
      </trkpt>
      <trkpt lat="44.47916" lon="2.67309">
        <ele>482.79</ele>
        <time>2015-12-11T13:40:02Z</time>
      </trkpt>
      <trkpt lat="44.47911" lon="2.67305">
        <ele>483.88</ele>
        <time>2015-12-11T13:40:05Z</time>
      </trkpt>
      <trkpt lat="44.47915" lon="2.67311">
        <ele>484.6</ele>
        <time>2015-12-11T13:40:07Z</time>
      </trkpt>
      <trkpt lat="44.4791" lon="2.67313">
        <ele>485.17</ele>
        <time>2015-12-11T13:40:12Z</time>
      </trkpt>
      <trkpt lat="44.47906" lon="2.67309">
        <ele>485.4</ele>
        <time>2015-12-11T13:40:17Z</time>
      </trkpt>
      <trkpt lat="44.47901" lon="2.6731">
        <ele>488.19</ele>
        <time>2015-12-11T13:40:21Z</time>
      </trkpt>
      <trkpt lat="44.47895" lon="2.67312">
        <ele>486.8</ele>
        <time>2015-12-11T13:40:26Z</time>
      </trkpt>
      <trkpt lat="44.47892" lon="2.67308">
        <ele>489.08</ele>
        <time>2015-12-11T13:40:30Z</time>
      </trkpt>
      <trkpt lat="44.47888" lon="2.67311">
        <ele>488.42</ele>
        <time>2015-12-11T13:40:33Z</time>
      </trkpt>
      <trkpt lat="44.47883" lon="2.67313">
        <ele>485.9</ele>
        <time>2015-12-11T13:40:36Z</time>
      </trkpt>
      <trkpt lat="44.47879" lon="2.67314">
        <ele>485.69</ele>
        <time>2015-12-11T13:40:42Z</time>
      </trkpt>
      <trkpt lat="44.47876" lon="2.6732">
        <ele>484.62</ele>
        <time>2015-12-11T13:40:47Z</time>
      </trkpt>
      <trkpt lat="44.47872" lon="2.67319">
        <ele>485.73</ele>
        <time>2015-12-11T13:40:54Z</time>
      </trkpt>
      <trkpt lat="44.47869" lon="2.67326">
        <ele>486.01</ele>
        <time>2015-12-11T13:41:01Z</time>
      </trkpt>
      <trkpt lat="44.47865" lon="2.67329">
        <ele>489.23</ele>
        <time>2015-12-11T13:41:07Z</time>
      </trkpt>
      <trkpt lat="44.47861" lon="2.67332">
        <ele>491.25</ele>
        <time>2015-12-11T13:41:16Z</time>
      </trkpt>
      <trkpt lat="44.47856" lon="2.6733">
        <ele>492.35</ele>
        <time>2015-12-11T13:41:23Z</time>
      </trkpt>
      <trkpt lat="44.47856" lon="2.6732">
        <ele>493.44</ele>
        <time>2015-12-11T13:41:53Z</time>
      </trkpt>
      <trkpt lat="44.47857" lon="2.67312">
        <ele>495.25</ele>
        <time>2015-12-11T13:41:56Z</time>
      </trkpt>
      <trkpt lat="44.47859" lon="2.67306">
        <ele>500.17</ele>
        <time>2015-12-11T13:42:00Z</time>
      </trkpt>
      <trkpt lat="44.47863" lon="2.67302">
        <ele>501.31</ele>
        <time>2015-12-11T13:42:03Z</time>
      </trkpt>
      <trkpt lat="44.47866" lon="2.67293">
        <ele>501.33</ele>
        <time>2015-12-11T13:42:09Z</time>
      </trkpt>
      <trkpt lat="44.47871" lon="2.67287">
        <ele>499.1</ele>
        <time>2015-12-11T13:42:12Z</time>
      </trkpt>
      <trkpt lat="44.47872" lon="2.6728">
        <ele>497.42</ele>
        <time>2015-12-11T13:42:15Z</time>
      </trkpt>
      <trkpt lat="44.47872" lon="2.67273">
        <ele>497.18</ele>
        <time>2015-12-11T13:42:20Z</time>
      </trkpt>
      <trkpt lat="44.47872" lon="2.67266">
        <ele>497.84</ele>
        <time>2015-12-11T13:42:26Z</time>
      </trkpt>
      <trkpt lat="44.47869" lon="2.67262">
        <ele>497.69</ele>
        <time>2015-12-11T13:42:29Z</time>
      </trkpt>
      <trkpt lat="44.47865" lon="2.67257">
        <ele>496.48</ele>
        <time>2015-12-11T13:42:32Z</time>
      </trkpt>
      <trkpt lat="44.4786" lon="2.67252">
        <ele>494.49</ele>
        <time>2015-12-11T13:42:36Z</time>
      </trkpt>
      <trkpt lat="44.47855" lon="2.67249">
        <ele>493.16</ele>
        <time>2015-12-11T13:42:40Z</time>
      </trkpt>
      <trkpt lat="44.47851" lon="2.67245">
        <ele>490.91</ele>
        <time>2015-12-11T13:42:44Z</time>
      </trkpt>
      <trkpt lat="44.47844" lon="2.67244">
        <ele>492.85</ele>
        <time>2015-12-11T13:42:54Z</time>
      </trkpt>
      <trkpt lat="44.47839" lon="2.67241">
        <ele>498.76</ele>
        <time>2015-12-11T13:43:00Z</time>
      </trkpt>
      <trkpt lat="44.47835" lon="2.67243">
        <ele>499.52</ele>
        <time>2015-12-11T13:43:05Z</time>
      </trkpt>
      <trkpt lat="44.47828" lon="2.67239">
        <ele>500.24</ele>
        <time>2015-12-11T13:43:08Z</time>
      </trkpt>
      <trkpt lat="44.47823" lon="2.67239">
        <ele>500.57</ele>
        <time>2015-12-11T13:43:13Z</time>
      </trkpt>
      <trkpt lat="44.47819" lon="2.67242">
        <ele>500.87</ele>
        <time>2015-12-11T13:43:20Z</time>
      </trkpt>
      <trkpt lat="44.47775" lon="2.67249">
        <ele>499.76</ele>
        <time>2015-12-11T13:43:55Z</time>
      </trkpt>
      <trkpt lat="44.47773" lon="2.67255">
        <ele>502.86</ele>
        <time>2015-12-11T13:44:01Z</time>
      </trkpt>
      <trkpt lat="44.47769" lon="2.67254">
        <ele>506.58</ele>
        <time>2015-12-11T13:44:07Z</time>
      </trkpt>
      <trkpt lat="44.47763" lon="2.67255">
        <ele>507.32</ele>
        <time>2015-12-11T13:44:12Z</time>
      </trkpt>
      <trkpt lat="44.47758" lon="2.67251">
        <ele>509.66</ele>
        <time>2015-12-11T13:44:15Z</time>
      </trkpt>
      <trkpt lat="44.47752" lon="2.67251">
        <ele>512.71</ele>
        <time>2015-12-11T13:44:21Z</time>
      </trkpt>
      <trkpt lat="44.47748" lon="2.67255">
        <ele>510.59</ele>
        <time>2015-12-11T13:44:26Z</time>
      </trkpt>
      <trkpt lat="44.47743" lon="2.6726">
        <ele>511.37</ele>
        <time>2015-12-11T13:44:33Z</time>
      </trkpt>
      <trkpt lat="44.47739" lon="2.67258">
        <ele>512.3</ele>
        <time>2015-12-11T13:44:38Z</time>
      </trkpt>
      <trkpt lat="44.47734" lon="2.67255">
        <ele>513.76</ele>
        <time>2015-12-11T13:44:44Z</time>
      </trkpt>
      <trkpt lat="44.47731" lon="2.67251">
        <ele>514.92</ele>
        <time>2015-12-11T13:44:48Z</time>
      </trkpt>
      <trkpt lat="44.47725" lon="2.67249">
        <ele>515.33</ele>
        <time>2015-12-11T13:44:53Z</time>
      </trkpt>
      <trkpt lat="44.47721" lon="2.67244">
        <ele>517.18</ele>
        <time>2015-12-11T13:44:57Z</time>
      </trkpt>
      <trkpt lat="44.47717" lon="2.6724">
        <ele>518.1</ele>
        <time>2015-12-11T13:45:02Z</time>
      </trkpt>
      <trkpt lat="44.47712" lon="2.67236">
        <ele>515.93</ele>
        <time>2015-12-11T13:45:07Z</time>
      </trkpt>
      <trkpt lat="44.47707" lon="2.67232">
        <ele>515.39</ele>
        <time>2015-12-11T13:45:12Z</time>
      </trkpt>
      <trkpt lat="44.47703" lon="2.67227">
        <ele>512.14</ele>
        <time>2015-12-11T13:45:17Z</time>
      </trkpt>
      <trkpt lat="44.47699" lon="2.67223">
        <ele>513.21</ele>
        <time>2015-12-11T13:45:23Z</time>
      </trkpt>
      <trkpt lat="44.47695" lon="2.67221">
        <ele>508.57</ele>
        <time>2015-12-11T13:45:29Z</time>
      </trkpt>
      <trkpt lat="44.4769" lon="2.67221">
        <ele>506.12</ele>
        <time>2015-12-11T13:45:34Z</time>
      </trkpt>
      <trkpt lat="44.47685" lon="2.67223">
        <ele>507.03</ele>
        <time>2015-12-11T13:45:39Z</time>
      </trkpt>
      <trkpt lat="44.47681" lon="2.67226">
        <ele>509.69</ele>
        <time>2015-12-11T13:45:44Z</time>
      </trkpt>
      <trkpt lat="44.47676" lon="2.67227">
        <ele>511.86</ele>
        <time>2015-12-11T13:45:48Z</time>
      </trkpt>
      <trkpt lat="44.47672" lon="2.67229">
        <ele>513.17</ele>
        <time>2015-12-11T13:45:51Z</time>
      </trkpt>
      <trkpt lat="44.47666" lon="2.6723">
        <ele>515.57</ele>
        <time>2015-12-11T13:45:57Z</time>
      </trkpt>
      <trkpt lat="44.47662" lon="2.67226">
        <ele>517.19</ele>
        <time>2015-12-11T13:46:02Z</time>
      </trkpt>
      <trkpt lat="44.47659" lon="2.6722">
        <ele>518.03</ele>
        <time>2015-12-11T13:46:06Z</time>
      </trkpt>
      <trkpt lat="44.47657" lon="2.67214">
        <ele>519.17</ele>
        <time>2015-12-11T13:46:10Z</time>
      </trkpt>
      <trkpt lat="44.47655" lon="2.67208">
        <ele>520.76</ele>
        <time>2015-12-11T13:46:15Z</time>
      </trkpt>
      <trkpt lat="44.47654" lon="2.67201">
        <ele>521.61</ele>
        <time>2015-12-11T13:46:20Z</time>
      </trkpt>
      <trkpt lat="44.47653" lon="2.67194">
        <ele>522.02</ele>
        <time>2015-12-11T13:46:25Z</time>
      </trkpt>
      <trkpt lat="44.47654" lon="2.67186">
        <ele>523.2</ele>
        <time>2015-12-11T13:46:30Z</time>
      </trkpt>
      <trkpt lat="44.47655" lon="2.6718">
        <ele>524.12</ele>
        <time>2015-12-11T13:46:34Z</time>
      </trkpt>
      <trkpt lat="44.47653" lon="2.67173">
        <ele>526.65</ele>
        <time>2015-12-11T13:46:42Z</time>
      </trkpt>
      <trkpt lat="44.47652" lon="2.67165">
        <ele>529.42</ele>
        <time>2015-12-11T13:46:47Z</time>
      </trkpt>
      <trkpt lat="44.47651" lon="2.67157">
        <ele>529.27</ele>
        <time>2015-12-11T13:46:52Z</time>
      </trkpt>
      <trkpt lat="44.47652" lon="2.67149">
        <ele>525.7</ele>
        <time>2015-12-11T13:46:57Z</time>
      </trkpt>
      <trkpt lat="44.47651" lon="2.67141">
        <ele>525.47</ele>
        <time>2015-12-11T13:47:02Z</time>
      </trkpt>
      <trkpt lat="44.47647" lon="2.67136">
        <ele>525.84</ele>
        <time>2015-12-11T13:47:05Z</time>
      </trkpt>
      <trkpt lat="44.47646" lon="2.67129">
        <ele>528.39</ele>
        <time>2015-12-11T13:47:10Z</time>
      </trkpt>
      <trkpt lat="44.47643" lon="2.67123">
        <ele>535.76</ele>
        <time>2015-12-11T13:47:16Z</time>
      </trkpt>
      <trkpt lat="44.47642" lon="2.67117">
        <ele>537.1</ele>
        <time>2015-12-11T13:47:20Z</time>
      </trkpt>
      <trkpt lat="44.47639" lon="2.67112">
        <ele>538.8</ele>
        <time>2015-12-11T13:47:23Z</time>
      </trkpt>
      <trkpt lat="44.47639" lon="2.67105">
        <ele>540.74</ele>
        <time>2015-12-11T13:47:28Z</time>
      </trkpt>
      <trkpt lat="44.47641" lon="2.67097">
        <ele>544.13</ele>
        <time>2015-12-11T13:47:36Z</time>
      </trkpt>
      <trkpt lat="44.47635" lon="2.67097">
        <ele>544.27</ele>
        <time>2015-12-11T13:47:43Z</time>
      </trkpt>
      <trkpt lat="44.47635" lon="2.67104">
        <ele>541.42</ele>
        <time>2015-12-11T13:48:10Z</time>
      </trkpt>
      <trkpt lat="44.47633" lon="2.6711">
        <ele>540.66</ele>
        <time>2015-12-11T13:48:14Z</time>
      </trkpt>
      <trkpt lat="44.4763" lon="2.67116">
        <ele>541.98</ele>
        <time>2015-12-11T13:48:19Z</time>
      </trkpt>
      <trkpt lat="44.47628" lon="2.67123">
        <ele>541.77</ele>
        <time>2015-12-11T13:48:23Z</time>
      </trkpt>
      <trkpt lat="44.47621" lon="2.67133">
        <ele>540.06</ele>
        <time>2015-12-11T13:48:58Z</time>
      </trkpt>
      <trkpt lat="44.47617" lon="2.67138">
        <ele>541.25</ele>
        <time>2015-12-11T13:49:41Z</time>
      </trkpt>
      <trkpt lat="44.47617" lon="2.67145">
        <ele>542.14</ele>
        <time>2015-12-11T13:49:45Z</time>
      </trkpt>
      <trkpt lat="44.47617" lon="2.67152">
        <ele>539.39</ele>
        <time>2015-12-11T13:49:50Z</time>
      </trkpt>
      <trkpt lat="44.47615" lon="2.67159">
        <ele>536.7</ele>
        <time>2015-12-11T13:49:53Z</time>
      </trkpt>
      <trkpt lat="44.47611" lon="2.67165">
        <ele>537.97</ele>
        <time>2015-12-11T13:49:59Z</time>
      </trkpt>
      <trkpt lat="44.47609" lon="2.67172">
        <ele>537.74</ele>
        <time>2015-12-11T13:50:02Z</time>
      </trkpt>
      <trkpt lat="44.47607" lon="2.6718">
        <ele>538.54</ele>
        <time>2015-12-11T13:50:07Z</time>
      </trkpt>
      <trkpt lat="44.47606" lon="2.67186">
        <ele>538.78</ele>
        <time>2015-12-11T13:50:10Z</time>
      </trkpt>
      <trkpt lat="44.47601" lon="2.67191">
        <ele>540.65</ele>
        <time>2015-12-11T13:50:14Z</time>
      </trkpt>
      <trkpt lat="44.47599" lon="2.67198">
        <ele>542.45</ele>
        <time>2015-12-11T13:50:18Z</time>
      </trkpt>
      <trkpt lat="44.47597" lon="2.67205">
        <ele>542.8</ele>
        <time>2015-12-11T13:50:22Z</time>
      </trkpt>
      <trkpt lat="44.47594" lon="2.67211">
        <ele>543.91</ele>
        <time>2015-12-11T13:50:25Z</time>
      </trkpt>
      <trkpt lat="44.4759" lon="2.67217">
        <ele>546.56</ele>
        <time>2015-12-11T13:50:29Z</time>
      </trkpt>
      <trkpt lat="44.47587" lon="2.67222">
        <ele>546.61</ele>
        <time>2015-12-11T13:50:35Z</time>
      </trkpt>
      <trkpt lat="44.47583" lon="2.67226">
        <ele>547.82</ele>
        <time>2015-12-11T13:50:39Z</time>
      </trkpt>
      <trkpt lat="44.47581" lon="2.67232">
        <ele>543.8</ele>
        <time>2015-12-11T13:50:44Z</time>
      </trkpt>
      <trkpt lat="44.47576" lon="2.67236">
        <ele>544.75</ele>
        <time>2015-12-11T13:50:48Z</time>
      </trkpt>
      <trkpt lat="44.47572" lon="2.67242">
        <ele>545.47</ele>
        <time>2015-12-11T13:50:51Z</time>
      </trkpt>
      <trkpt lat="44.47569" lon="2.67248">
        <ele>545.19</ele>
        <time>2015-12-11T13:50:55Z</time>
      </trkpt>
      <trkpt lat="44.47565" lon="2.67255">
        <ele>544.2</ele>
        <time>2015-12-11T13:50:58Z</time>
      </trkpt>
      <trkpt lat="44.4756" lon="2.6726">
        <ele>543.19</ele>
        <time>2015-12-11T13:51:04Z</time>
      </trkpt>
      <trkpt lat="44.47556" lon="2.67264">
        <ele>543.13</ele>
        <time>2015-12-11T13:51:08Z</time>
      </trkpt>
      <trkpt lat="44.47553" lon="2.67269">
        <ele>541.68</ele>
        <time>2015-12-11T13:51:11Z</time>
      </trkpt>
      <trkpt lat="44.47549" lon="2.67274">
        <ele>542.54</ele>
        <time>2015-12-11T13:51:16Z</time>
      </trkpt>
      <trkpt lat="44.47546" lon="2.67278">
        <ele>542.34</ele>
        <time>2015-12-11T13:51:18Z</time>
      </trkpt>
      <trkpt lat="44.47543" lon="2.67283">
        <ele>543.75</ele>
        <time>2015-12-11T13:51:22Z</time>
      </trkpt>
      <trkpt lat="44.47541" lon="2.6729">
        <ele>543.85</ele>
        <time>2015-12-11T13:51:27Z</time>
      </trkpt>
      <trkpt lat="44.47536" lon="2.67296">
        <ele>543.21</ele>
        <time>2015-12-11T13:51:31Z</time>
      </trkpt>
      <trkpt lat="44.47534" lon="2.67302">
        <ele>542.59</ele>
        <time>2015-12-11T13:51:35Z</time>
      </trkpt>
      <trkpt lat="44.47531" lon="2.67309">
        <ele>542.23</ele>
        <time>2015-12-11T13:51:38Z</time>
      </trkpt>
      <trkpt lat="44.47529" lon="2.67315">
        <ele>544.15</ele>
        <time>2015-12-11T13:51:43Z</time>
      </trkpt>
      <trkpt lat="44.47526" lon="2.67321">
        <ele>545.78</ele>
        <time>2015-12-11T13:51:49Z</time>
      </trkpt>
      <trkpt lat="44.47523" lon="2.67325">
        <ele>544.19</ele>
        <time>2015-12-11T13:51:57Z</time>
      </trkpt>
      <trkpt lat="44.47523" lon="2.67332">
        <ele>544.39</ele>
        <time>2015-12-11T13:52:23Z</time>
      </trkpt>
      <trkpt lat="44.47523" lon="2.6734">
        <ele>544.4</ele>
        <time>2015-12-11T13:52:26Z</time>
      </trkpt>
      <trkpt lat="44.47522" lon="2.67346">
        <ele>544.6</ele>
        <time>2015-12-11T13:52:29Z</time>
      </trkpt>
      <trkpt lat="44.47522" lon="2.67354">
        <ele>544.79</ele>
        <time>2015-12-11T13:52:32Z</time>
      </trkpt>
      <trkpt lat="44.47521" lon="2.6736">
        <ele>543.29</ele>
        <time>2015-12-11T13:52:37Z</time>
      </trkpt>
      <trkpt lat="44.47522" lon="2.67366">
        <ele>542.72</ele>
        <time>2015-12-11T13:52:40Z</time>
      </trkpt>
      <trkpt lat="44.47521" lon="2.67373">
        <ele>543.95</ele>
        <time>2015-12-11T13:52:44Z</time>
      </trkpt>
      <trkpt lat="44.4752" lon="2.6738">
        <ele>543.75</ele>
        <time>2015-12-11T13:52:47Z</time>
      </trkpt>
      <trkpt lat="44.47519" lon="2.67386">
        <ele>544</ele>
        <time>2015-12-11T13:52:51Z</time>
      </trkpt>
      <trkpt lat="44.47518" lon="2.67394">
        <ele>544.02</ele>
        <time>2015-12-11T13:52:56Z</time>
      </trkpt>
      <trkpt lat="44.47517" lon="2.674">
        <ele>544.4</ele>
        <time>2015-12-11T13:53:00Z</time>
      </trkpt>
      <trkpt lat="44.47514" lon="2.67407">
        <ele>544.22</ele>
        <time>2015-12-11T13:53:03Z</time>
      </trkpt>
      <trkpt lat="44.47514" lon="2.67414">
        <ele>543.78</ele>
        <time>2015-12-11T13:53:07Z</time>
      </trkpt>
      <trkpt lat="44.47512" lon="2.67421">
        <ele>544.52</ele>
        <time>2015-12-11T13:53:10Z</time>
      </trkpt>
      <trkpt lat="44.47508" lon="2.67429">
        <ele>545.6</ele>
        <time>2015-12-11T13:53:15Z</time>
      </trkpt>
      <trkpt lat="44.47506" lon="2.67437">
        <ele>545.51</ele>
        <time>2015-12-11T13:53:18Z</time>
      </trkpt>
      <trkpt lat="44.47506" lon="2.67444">
        <ele>544.31</ele>
        <time>2015-12-11T13:53:23Z</time>
      </trkpt>
      <trkpt lat="44.47485" lon="2.6751">
        <ele>549.38</ele>
        <time>2015-12-11T13:53:57Z</time>
      </trkpt>
      <trkpt lat="44.47488" lon="2.67515">
        <ele>552.44</ele>
        <time>2015-12-11T13:54:02Z</time>
      </trkpt>
      <trkpt lat="44.47489" lon="2.67522">
        <ele>550.65</ele>
        <time>2015-12-11T13:54:05Z</time>
      </trkpt>
      <trkpt lat="44.47491" lon="2.67531">
        <ele>544.84</ele>
        <time>2015-12-11T13:54:10Z</time>
      </trkpt>
      <trkpt lat="44.4749" lon="2.67537">
        <ele>545.87</ele>
        <time>2015-12-11T13:54:14Z</time>
      </trkpt>
      <trkpt lat="44.47488" lon="2.67543">
        <ele>547.05</ele>
        <time>2015-12-11T13:54:18Z</time>
      </trkpt>
      <trkpt lat="44.47488" lon="2.67552">
        <ele>545.63</ele>
        <time>2015-12-11T13:54:23Z</time>
      </trkpt>
      <trkpt lat="44.47487" lon="2.67558">
        <ele>541.92</ele>
        <time>2015-12-11T13:54:28Z</time>
      </trkpt>
      <trkpt lat="44.47485" lon="2.67564">
        <ele>541.48</ele>
        <time>2015-12-11T13:54:31Z</time>
      </trkpt>
      <trkpt lat="44.47483" lon="2.67571">
        <ele>542.59</ele>
        <time>2015-12-11T13:54:37Z</time>
      </trkpt>
      <trkpt lat="44.47481" lon="2.67579">
        <ele>540.54</ele>
        <time>2015-12-11T13:54:43Z</time>
      </trkpt>
      <trkpt lat="44.47478" lon="2.67584">
        <ele>539.05</ele>
        <time>2015-12-11T13:54:47Z</time>
      </trkpt>
      <trkpt lat="44.47476" lon="2.6759">
        <ele>538.3</ele>
        <time>2015-12-11T13:54:51Z</time>
      </trkpt>
      <trkpt lat="44.47473" lon="2.67595">
        <ele>538.19</ele>
        <time>2015-12-11T13:54:55Z</time>
      </trkpt>
      <trkpt lat="44.47469" lon="2.67602">
        <ele>539.39</ele>
        <time>2015-12-11T13:54:59Z</time>
      </trkpt>
      <trkpt lat="44.47468" lon="2.67609">
        <ele>540.71</ele>
        <time>2015-12-11T13:55:03Z</time>
      </trkpt>
      <trkpt lat="44.47465" lon="2.67615">
        <ele>540.85</ele>
        <time>2015-12-11T13:55:07Z</time>
      </trkpt>
      <trkpt lat="44.4746" lon="2.6762">
        <ele>542.1</ele>
        <time>2015-12-11T13:55:10Z</time>
      </trkpt>
      <trkpt lat="44.47457" lon="2.67625">
        <ele>542.28</ele>
        <time>2015-12-11T13:55:14Z</time>
      </trkpt>
      <trkpt lat="44.47452" lon="2.6763">
        <ele>543.64</ele>
        <time>2015-12-11T13:55:18Z</time>
      </trkpt>
      <trkpt lat="44.47448" lon="2.67634">
        <ele>543.28</ele>
        <time>2015-12-11T13:55:22Z</time>
      </trkpt>
      <trkpt lat="44.47443" lon="2.67637">
        <ele>542.42</ele>
        <time>2015-12-11T13:55:26Z</time>
      </trkpt>
      <trkpt lat="44.47439" lon="2.6764">
        <ele>542.12</ele>
        <time>2015-12-11T13:55:31Z</time>
      </trkpt>
      <trkpt lat="44.47434" lon="2.67644">
        <ele>542.4</ele>
        <time>2015-12-11T13:55:35Z</time>
      </trkpt>
      <trkpt lat="44.4743" lon="2.67648">
        <ele>542.14</ele>
        <time>2015-12-11T13:55:38Z</time>
      </trkpt>
      <trkpt lat="44.47425" lon="2.67653">
        <ele>541.12</ele>
        <time>2015-12-11T13:55:41Z</time>
      </trkpt>
      <trkpt lat="44.47421" lon="2.67658">
        <ele>541.01</ele>
        <time>2015-12-11T13:55:44Z</time>
      </trkpt>
      <trkpt lat="44.47417" lon="2.6766">
        <ele>540.05</ele>
        <time>2015-12-11T13:55:48Z</time>
      </trkpt>
      <trkpt lat="44.47412" lon="2.67664">
        <ele>539.4</ele>
        <time>2015-12-11T13:55:52Z</time>
      </trkpt>
      <trkpt lat="44.47407" lon="2.67666">
        <ele>540.85</ele>
        <time>2015-12-11T13:55:57Z</time>
      </trkpt>
      <trkpt lat="44.47402" lon="2.67666">
        <ele>542.47</ele>
        <time>2015-12-11T13:56:01Z</time>
      </trkpt>
      <trkpt lat="44.47397" lon="2.67664">
        <ele>544.59</ele>
        <time>2015-12-11T13:56:04Z</time>
      </trkpt>
      <trkpt lat="44.47394" lon="2.67657">
        <ele>544.07</ele>
        <time>2015-12-11T13:56:09Z</time>
      </trkpt>
      <trkpt lat="44.47388" lon="2.67656">
        <ele>542.14</ele>
        <time>2015-12-11T13:56:13Z</time>
      </trkpt>
      <trkpt lat="44.47383" lon="2.67655">
        <ele>539.43</ele>
        <time>2015-12-11T13:56:16Z</time>
      </trkpt>
      <trkpt lat="44.47378" lon="2.67655">
        <ele>537.14</ele>
        <time>2015-12-11T13:56:21Z</time>
      </trkpt>
      <trkpt lat="44.47374" lon="2.67657">
        <ele>535.58</ele>
        <time>2015-12-11T13:56:24Z</time>
      </trkpt>
      <trkpt lat="44.47369" lon="2.67662">
        <ele>536.93</ele>
        <time>2015-12-11T13:56:27Z</time>
      </trkpt>
      <trkpt lat="44.47364" lon="2.67665">
        <ele>538.9</ele>
        <time>2015-12-11T13:56:31Z</time>
      </trkpt>
      <trkpt lat="44.47358" lon="2.67664">
        <ele>540.98</ele>
        <time>2015-12-11T13:56:35Z</time>
      </trkpt>
      <trkpt lat="44.47353" lon="2.67665">
        <ele>541.07</ele>
        <time>2015-12-11T13:56:39Z</time>
      </trkpt>
      <trkpt lat="44.47349" lon="2.67663">
        <ele>538.33</ele>
        <time>2015-12-11T13:56:46Z</time>
      </trkpt>
      <trkpt lat="44.47344" lon="2.67662">
        <ele>535.53</ele>
        <time>2015-12-11T13:56:53Z</time>
      </trkpt>
      <trkpt lat="44.47339" lon="2.67659">
        <ele>536.75</ele>
        <time>2015-12-11T13:57:07Z</time>
      </trkpt>
      <trkpt lat="44.47335" lon="2.67657">
        <ele>537.5</ele>
        <time>2015-12-11T13:57:10Z</time>
      </trkpt>
      <trkpt lat="44.4733" lon="2.67655">
        <ele>537.53</ele>
        <time>2015-12-11T13:57:14Z</time>
      </trkpt>
      <trkpt lat="44.47328" lon="2.67661">
        <ele>537.89</ele>
        <time>2015-12-11T13:57:25Z</time>
      </trkpt>
      <trkpt lat="44.47324" lon="2.67664">
        <ele>538.48</ele>
        <time>2015-12-11T13:57:28Z</time>
      </trkpt>
      <trkpt lat="44.4732" lon="2.67669">
        <ele>538.37</ele>
        <time>2015-12-11T13:57:31Z</time>
      </trkpt>
      <trkpt lat="44.47316" lon="2.67677">
        <ele>537</ele>
        <time>2015-12-11T13:57:37Z</time>
      </trkpt>
      <trkpt lat="44.47313" lon="2.67684">
        <ele>534.42</ele>
        <time>2015-12-11T13:57:43Z</time>
      </trkpt>
      <trkpt lat="44.47309" lon="2.67691">
        <ele>534.38</ele>
        <time>2015-12-11T13:57:46Z</time>
      </trkpt>
      <trkpt lat="44.47308" lon="2.67701">
        <ele>532.63</ele>
        <time>2015-12-11T13:57:53Z</time>
      </trkpt>
      <trkpt lat="44.47308" lon="2.67708">
        <ele>530.86</ele>
        <time>2015-12-11T13:57:58Z</time>
      </trkpt>
      <trkpt lat="44.47307" lon="2.67715">
        <ele>524.58</ele>
        <time>2015-12-11T13:58:04Z</time>
      </trkpt>
      <trkpt lat="44.47304" lon="2.67721">
        <ele>524</ele>
        <time>2015-12-11T13:58:06Z</time>
      </trkpt>
      <trkpt lat="44.47305" lon="2.67727">
        <ele>521.67</ele>
        <time>2015-12-11T13:58:12Z</time>
      </trkpt>
      <trkpt lat="44.47304" lon="2.67734">
        <ele>522.72</ele>
        <time>2015-12-11T13:58:14Z</time>
      </trkpt>
      <trkpt lat="44.47304" lon="2.6774">
        <ele>521.72</ele>
        <time>2015-12-11T13:58:19Z</time>
      </trkpt>
      <trkpt lat="44.47304" lon="2.67747">
        <ele>521.46</ele>
        <time>2015-12-11T13:58:22Z</time>
      </trkpt>
      <trkpt lat="44.47286" lon="2.67801">
        <ele>523.71</ele>
        <time>2015-12-11T13:58:54Z</time>
      </trkpt>
      <trkpt lat="44.47283" lon="2.67807">
        <ele>519.16</ele>
        <time>2015-12-11T13:58:58Z</time>
      </trkpt>
      <trkpt lat="44.47279" lon="2.67812">
        <ele>516.17</ele>
        <time>2015-12-11T13:59:05Z</time>
      </trkpt>
      <trkpt lat="44.47277" lon="2.67818">
        <ele>519.68</ele>
        <time>2015-12-11T13:59:09Z</time>
      </trkpt>
      <trkpt lat="44.47274" lon="2.67824">
        <ele>518.75</ele>
        <time>2015-12-11T13:59:14Z</time>
      </trkpt>
      <trkpt lat="44.47269" lon="2.67824">
        <ele>516.48</ele>
        <time>2015-12-11T13:59:20Z</time>
      </trkpt>
      <trkpt lat="44.47264" lon="2.67824">
        <ele>515.83</ele>
        <time>2015-12-11T13:59:22Z</time>
      </trkpt>
      <trkpt lat="44.47259" lon="2.67827">
        <ele>515.47</ele>
        <time>2015-12-11T13:59:27Z</time>
      </trkpt>
      <trkpt lat="44.47254" lon="2.67825">
        <ele>516.92</ele>
        <time>2015-12-11T13:59:29Z</time>
      </trkpt>
      <trkpt lat="44.47248" lon="2.67822">
        <ele>517.31</ele>
        <time>2015-12-11T13:59:31Z</time>
      </trkpt>
      <trkpt lat="44.47243" lon="2.67821">
        <ele>518.2</ele>
        <time>2015-12-11T13:59:37Z</time>
      </trkpt>
      <trkpt lat="44.47239" lon="2.67823">
        <ele>520.86</ele>
        <time>2015-12-11T13:59:42Z</time>
      </trkpt>
      <trkpt lat="44.47234" lon="2.67821">
        <ele>521.89</ele>
        <time>2015-12-11T13:59:45Z</time>
      </trkpt>
      <trkpt lat="44.47228" lon="2.67821">
        <ele>523.62</ele>
        <time>2015-12-11T13:59:51Z</time>
      </trkpt>
      <trkpt lat="44.47223" lon="2.67817">
        <ele>523.33</ele>
        <time>2015-12-11T13:59:54Z</time>
      </trkpt>
      <trkpt lat="44.47216" lon="2.67818">
        <ele>522.57</ele>
        <time>2015-12-11T14:00:00Z</time>
      </trkpt>
      <trkpt lat="44.4721" lon="2.67818">
        <ele>522.36</ele>
        <time>2015-12-11T14:00:06Z</time>
      </trkpt>
      <trkpt lat="44.47206" lon="2.67814">
        <ele>523.4</ele>
        <time>2015-12-11T14:00:08Z</time>
      </trkpt>
      <trkpt lat="44.472" lon="2.67814">
        <ele>521.85</ele>
        <time>2015-12-11T14:00:15Z</time>
      </trkpt>
      <trkpt lat="44.47196" lon="2.6781">
        <ele>520.6</ele>
        <time>2015-12-11T14:00:35Z</time>
      </trkpt>
      <trkpt lat="44.47189" lon="2.67809">
        <ele>519.95</ele>
        <time>2015-12-11T14:00:39Z</time>
      </trkpt>
      <trkpt lat="44.47184" lon="2.67808">
        <ele>520.44</ele>
        <time>2015-12-11T14:00:41Z</time>
      </trkpt>
      <trkpt lat="44.47178" lon="2.67807">
        <ele>522.06</ele>
        <time>2015-12-11T14:00:46Z</time>
      </trkpt>
      <trkpt lat="44.47173" lon="2.67806">
        <ele>524.26</ele>
        <time>2015-12-11T14:00:52Z</time>
      </trkpt>
      <trkpt lat="44.47169" lon="2.67804">
        <ele>526.29</ele>
        <time>2015-12-11T14:00:54Z</time>
      </trkpt>
      <trkpt lat="44.47164" lon="2.67803">
        <ele>527.53</ele>
        <time>2015-12-11T14:01:01Z</time>
      </trkpt>
      <trkpt lat="44.47161" lon="2.67797">
        <ele>525.65</ele>
        <time>2015-12-11T14:01:20Z</time>
      </trkpt>
      <trkpt lat="44.47156" lon="2.67799">
        <ele>524.29</ele>
        <time>2015-12-11T14:01:22Z</time>
      </trkpt>
      <trkpt lat="44.47152" lon="2.67796">
        <ele>526.04</ele>
        <time>2015-12-11T14:01:27Z</time>
      </trkpt>
      <trkpt lat="44.47148" lon="2.67794">
        <ele>526.75</ele>
        <time>2015-12-11T14:01:32Z</time>
      </trkpt>
      <trkpt lat="44.47142" lon="2.67789">
        <ele>524.67</ele>
        <time>2015-12-11T14:01:34Z</time>
      </trkpt>
      <trkpt lat="44.47138" lon="2.67786">
        <ele>526.31</ele>
        <time>2015-12-11T14:01:38Z</time>
      </trkpt>
      <trkpt lat="44.47132" lon="2.67781">
        <ele>523.09</ele>
        <time>2015-12-11T14:01:44Z</time>
      </trkpt>
      <trkpt lat="44.47129" lon="2.67775">
        <ele>520.9</ele>
        <time>2015-12-11T14:01:46Z</time>
      </trkpt>
      <trkpt lat="44.47124" lon="2.67773">
        <ele>515.81</ele>
        <time>2015-12-11T14:01:54Z</time>
      </trkpt>
      <trkpt lat="44.47119" lon="2.6777">
        <ele>515.88</ele>
        <time>2015-12-11T14:02:00Z</time>
      </trkpt>
      <trkpt lat="44.47115" lon="2.67764">
        <ele>514.58</ele>
        <time>2015-12-11T14:02:05Z</time>
      </trkpt>
      <trkpt lat="44.47114" lon="2.67757">
        <ele>512.97</ele>
        <time>2015-12-11T14:02:09Z</time>
      </trkpt>
      <trkpt lat="44.4711" lon="2.67754">
        <ele>512.11</ele>
        <time>2015-12-11T14:02:16Z</time>
      </trkpt>
      <trkpt lat="44.47106" lon="2.67748">
        <ele>513.01</ele>
        <time>2015-12-11T14:02:20Z</time>
      </trkpt>
      <trkpt lat="44.47101" lon="2.67745">
        <ele>514.7</ele>
        <time>2015-12-11T14:02:23Z</time>
      </trkpt>
      <trkpt lat="44.47097" lon="2.6774">
        <ele>516.12</ele>
        <time>2015-12-11T14:02:27Z</time>
      </trkpt>
      <trkpt lat="44.47093" lon="2.67738">
        <ele>514.1</ele>
        <time>2015-12-11T14:02:31Z</time>
      </trkpt>
      <trkpt lat="44.47088" lon="2.67736">
        <ele>514.66</ele>
        <time>2015-12-11T14:02:35Z</time>
      </trkpt>
      <trkpt lat="44.47084" lon="2.67729">
        <ele>515.34</ele>
        <time>2015-12-11T14:02:39Z</time>
      </trkpt>
      <trkpt lat="44.4708" lon="2.67725">
        <ele>512.25</ele>
        <time>2015-12-11T14:02:46Z</time>
      </trkpt>
      <trkpt lat="44.47075" lon="2.67723">
        <ele>510.99</ele>
        <time>2015-12-11T14:02:49Z</time>
      </trkpt>
      <trkpt lat="44.4707" lon="2.67721">
        <ele>510.36</ele>
        <time>2015-12-11T14:02:54Z</time>
      </trkpt>
      <trkpt lat="44.47066" lon="2.67718">
        <ele>509.08</ele>
        <time>2015-12-11T14:02:59Z</time>
      </trkpt>
      <trkpt lat="44.4706" lon="2.67713">
        <ele>508.57</ele>
        <time>2015-12-11T14:03:03Z</time>
      </trkpt>
      <trkpt lat="44.47056" lon="2.67709">
        <ele>506.56</ele>
        <time>2015-12-11T14:03:07Z</time>
      </trkpt>
      <trkpt lat="44.4705" lon="2.67705">
        <ele>509.75</ele>
        <time>2015-12-11T14:03:11Z</time>
      </trkpt>
      <trkpt lat="44.47044" lon="2.677">
        <ele>511.11</ele>
        <time>2015-12-11T14:03:15Z</time>
      </trkpt>
      <trkpt lat="44.47038" lon="2.67699">
        <ele>511.98</ele>
        <time>2015-12-11T14:03:20Z</time>
      </trkpt>
      <trkpt lat="44.47041" lon="2.67709">
        <ele>508.66</ele>
        <time>2015-12-11T14:03:24Z</time>
      </trkpt>
      <trkpt lat="44.46989" lon="2.67665">
        <ele>513</ele>
        <time>2015-12-11T14:03:59Z</time>
      </trkpt>
      <trkpt lat="44.46987" lon="2.67659">
        <ele>516.37</ele>
        <time>2015-12-11T14:04:08Z</time>
      </trkpt>
      <trkpt lat="44.4698" lon="2.67656">
        <ele>513.56</ele>
        <time>2015-12-11T14:04:16Z</time>
      </trkpt>
      <trkpt lat="44.46975" lon="2.67653">
        <ele>511.93</ele>
        <time>2015-12-11T14:04:19Z</time>
      </trkpt>
      <trkpt lat="44.46971" lon="2.67646">
        <ele>516.36</ele>
        <time>2015-12-11T14:04:21Z</time>
      </trkpt>
      <trkpt lat="44.46966" lon="2.67645">
        <ele>520.13</ele>
        <time>2015-12-11T14:04:26Z</time>
      </trkpt>
      <trkpt lat="44.46962" lon="2.67642">
        <ele>519.87</ele>
        <time>2015-12-11T14:04:31Z</time>
      </trkpt>
      <trkpt lat="44.46955" lon="2.67635">
        <ele>520.44</ele>
        <time>2015-12-11T14:04:35Z</time>
      </trkpt>
      <trkpt lat="44.46951" lon="2.67632">
        <ele>521.01</ele>
        <time>2015-12-11T14:04:37Z</time>
      </trkpt>
      <trkpt lat="44.46945" lon="2.67633">
        <ele>521.81</ele>
        <time>2015-12-11T14:04:40Z</time>
      </trkpt>
      <trkpt lat="44.46941" lon="2.6763">
        <ele>522.13</ele>
        <time>2015-12-11T14:04:42Z</time>
      </trkpt>
      <trkpt lat="44.46935" lon="2.6763">
        <ele>523.1</ele>
        <time>2015-12-11T14:04:45Z</time>
      </trkpt>
      <trkpt lat="44.4693" lon="2.67629">
        <ele>523.56</ele>
        <time>2015-12-11T14:04:48Z</time>
      </trkpt>
      <trkpt lat="44.46925" lon="2.67632">
        <ele>527.13</ele>
        <time>2015-12-11T14:04:58Z</time>
      </trkpt>
      <trkpt lat="44.4692" lon="2.67627">
        <ele>529.05</ele>
        <time>2015-12-11T14:05:01Z</time>
      </trkpt>
      <trkpt lat="44.46916" lon="2.67625">
        <ele>529.15</ele>
        <time>2015-12-11T14:05:05Z</time>
      </trkpt>
      <trkpt lat="44.46911" lon="2.67627">
        <ele>527.55</ele>
        <time>2015-12-11T14:05:12Z</time>
      </trkpt>
      <trkpt lat="44.46905" lon="2.67626">
        <ele>528.64</ele>
        <time>2015-12-11T14:05:17Z</time>
      </trkpt>
      <trkpt lat="44.46898" lon="2.67623">
        <ele>527.04</ele>
        <time>2015-12-11T14:05:21Z</time>
      </trkpt>
      <trkpt lat="44.46893" lon="2.67624">
        <ele>528.88</ele>
        <time>2015-12-11T14:05:28Z</time>
      </trkpt>
      <trkpt lat="44.46891" lon="2.67618">
        <ele>529.3</ele>
        <time>2015-12-11T14:05:31Z</time>
      </trkpt>
      <trkpt lat="44.46885" lon="2.67614">
        <ele>529.73</ele>
        <time>2015-12-11T14:05:35Z</time>
      </trkpt>
      <trkpt lat="44.4688" lon="2.67613">
        <ele>529.58</ele>
        <time>2015-12-11T14:05:36Z</time>
      </trkpt>
      <trkpt lat="44.46874" lon="2.67609">
        <ele>527.14</ele>
        <time>2015-12-11T14:05:41Z</time>
      </trkpt>
      <trkpt lat="44.4687" lon="2.67606">
        <ele>524.42</ele>
        <time>2015-12-11T14:05:47Z</time>
      </trkpt>
      <trkpt lat="44.46865" lon="2.67604">
        <ele>525.39</ele>
        <time>2015-12-11T14:05:53Z</time>
      </trkpt>
      <trkpt lat="44.4686" lon="2.67601">
        <ele>526.74</ele>
        <time>2015-12-11T14:05:57Z</time>
      </trkpt>
      <trkpt lat="44.46855" lon="2.67599">
        <ele>528.07</ele>
        <time>2015-12-11T14:05:58Z</time>
      </trkpt>
      <trkpt lat="44.4685" lon="2.67595">
        <ele>528.26</ele>
        <time>2015-12-11T14:06:04Z</time>
      </trkpt>
      <trkpt lat="44.46847" lon="2.67588">
        <ele>525.4</ele>
        <time>2015-12-11T14:06:08Z</time>
      </trkpt>
      <trkpt lat="44.4684" lon="2.67582">
        <ele>527.58</ele>
        <time>2015-12-11T14:06:14Z</time>
      </trkpt>
      <trkpt lat="44.46837" lon="2.67577">
        <ele>527.55</ele>
        <time>2015-12-11T14:06:16Z</time>
      </trkpt>
      <trkpt lat="44.46832" lon="2.67574">
        <ele>526.51</ele>
        <time>2015-12-11T14:06:23Z</time>
      </trkpt>
      <trkpt lat="44.46826" lon="2.67569">
        <ele>522.27</ele>
        <time>2015-12-11T14:06:30Z</time>
      </trkpt>
      <trkpt lat="44.46821" lon="2.67568">
        <ele>525.16</ele>
        <time>2015-12-11T14:06:35Z</time>
      </trkpt>
      <trkpt lat="44.46817" lon="2.67564">
        <ele>524.83</ele>
        <time>2015-12-11T14:06:42Z</time>
      </trkpt>
      <trkpt lat="44.46813" lon="2.67559">
        <ele>525.34</ele>
        <time>2015-12-11T14:07:10Z</time>
      </trkpt>
      <trkpt lat="44.46811" lon="2.67553">
        <ele>526.74</ele>
        <time>2015-12-11T14:07:11Z</time>
      </trkpt>
      <trkpt lat="44.46808" lon="2.67546">
        <ele>528.42</ele>
        <time>2015-12-11T14:07:13Z</time>
      </trkpt>
      <trkpt lat="44.46804" lon="2.67543">
        <ele>527.46</ele>
        <time>2015-12-11T14:07:15Z</time>
      </trkpt>
      <trkpt lat="44.46804" lon="2.67533">
        <ele>530.25</ele>
        <time>2015-12-11T14:07:24Z</time>
      </trkpt>
      <trkpt lat="44.468" lon="2.67531">
        <ele>530.88</ele>
        <time>2015-12-11T14:08:00Z</time>
      </trkpt>
      <trkpt lat="44.46794" lon="2.67528">
        <ele>530.96</ele>
        <time>2015-12-11T14:08:03Z</time>
      </trkpt>
      <trkpt lat="44.4679" lon="2.67524">
        <ele>531.53</ele>
        <time>2015-12-11T14:08:06Z</time>
      </trkpt>
      <trkpt lat="44.46787" lon="2.67518">
        <ele>533.25</ele>
        <time>2015-12-11T14:08:08Z</time>
      </trkpt>
      <trkpt lat="44.46782" lon="2.67513">
        <ele>532.77</ele>
        <time>2015-12-11T14:08:11Z</time>
      </trkpt>
      <trkpt lat="44.46776" lon="2.67508">
        <ele>533.22</ele>
        <time>2015-12-11T14:08:15Z</time>
      </trkpt>
      <trkpt lat="44.4677" lon="2.67499">
        <ele>533.29</ele>
        <time>2015-12-11T14:08:17Z</time>
      </trkpt>
      <trkpt lat="44.46765" lon="2.675">
        <ele>531.39</ele>
        <time>2015-12-11T14:08:23Z</time>
      </trkpt>
      <trkpt lat="44.46762" lon="2.67495">
        <ele>531.18</ele>
        <time>2015-12-11T14:08:26Z</time>
      </trkpt>
      <trkpt lat="44.46727" lon="2.67461">
        <ele>528.71</ele>
        <time>2015-12-11T14:09:00Z</time>
      </trkpt>
      <trkpt lat="44.46722" lon="2.67458">
        <ele>531.9</ele>
        <time>2015-12-11T14:09:05Z</time>
      </trkpt>
      <trkpt lat="44.46716" lon="2.6745">
        <ele>526.29</ele>
        <time>2015-12-11T14:09:12Z</time>
      </trkpt>
      <trkpt lat="44.46711" lon="2.67446">
        <ele>531.11</ele>
        <time>2015-12-11T14:09:18Z</time>
      </trkpt>
      <trkpt lat="44.46707" lon="2.67443">
        <ele>529.54</ele>
        <time>2015-12-11T14:09:24Z</time>
      </trkpt>
      <trkpt lat="44.46702" lon="2.6744">
        <ele>529.14</ele>
        <time>2015-12-11T14:09:27Z</time>
      </trkpt>
      <trkpt lat="44.46698" lon="2.67436">
        <ele>529.02</ele>
        <time>2015-12-11T14:09:31Z</time>
      </trkpt>
      <trkpt lat="44.46695" lon="2.67429">
        <ele>527.46</ele>
        <time>2015-12-11T14:09:34Z</time>
      </trkpt>
      <trkpt lat="44.46691" lon="2.67428">
        <ele>527.55</ele>
        <time>2015-12-11T14:09:37Z</time>
      </trkpt>
      <trkpt lat="44.46686" lon="2.67423">
        <ele>529.84</ele>
        <time>2015-12-11T14:09:41Z</time>
      </trkpt>
      <trkpt lat="44.46682" lon="2.67419">
        <ele>529.87</ele>
        <time>2015-12-11T14:09:46Z</time>
      </trkpt>
      <trkpt lat="44.46677" lon="2.67415">
        <ele>529.27</ele>
        <time>2015-12-11T14:09:49Z</time>
      </trkpt>
      <trkpt lat="44.46672" lon="2.67411">
        <ele>531.04</ele>
        <time>2015-12-11T14:09:53Z</time>
      </trkpt>
      <trkpt lat="44.46669" lon="2.67405">
        <ele>535.44</ele>
        <time>2015-12-11T14:09:55Z</time>
      </trkpt>
      <trkpt lat="44.46668" lon="2.67398">
        <ele>540.78</ele>
        <time>2015-12-11T14:10:00Z</time>
      </trkpt>
      <trkpt lat="44.46666" lon="2.67393">
        <ele>542.67</ele>
        <time>2015-12-11T14:10:02Z</time>
      </trkpt>
      <trkpt lat="44.46664" lon="2.67386">
        <ele>545.3</ele>
        <time>2015-12-11T14:10:08Z</time>
      </trkpt>
      <trkpt lat="44.46661" lon="2.6738">
        <ele>546.56</ele>
        <time>2015-12-11T14:10:12Z</time>
      </trkpt>
      <trkpt lat="44.46658" lon="2.67373">
        <ele>547.45</ele>
        <time>2015-12-11T14:10:16Z</time>
      </trkpt>
      <trkpt lat="44.46656" lon="2.67366">
        <ele>549.38</ele>
        <time>2015-12-11T14:10:20Z</time>
      </trkpt>
      <trkpt lat="44.46653" lon="2.6736">
        <ele>548.07</ele>
        <time>2015-12-11T14:10:27Z</time>
      </trkpt>
      <trkpt lat="44.46649" lon="2.67355">
        <ele>548.21</ele>
        <time>2015-12-11T14:10:30Z</time>
      </trkpt>
      <trkpt lat="44.46646" lon="2.67352">
        <ele>545.65</ele>
        <time>2015-12-11T14:10:34Z</time>
      </trkpt>
      <trkpt lat="44.46639" lon="2.6735">
        <ele>544.59</ele>
        <time>2015-12-11T14:10:36Z</time>
      </trkpt>
      <trkpt lat="44.46633" lon="2.67348">
        <ele>543.66</ele>
        <time>2015-12-11T14:10:39Z</time>
      </trkpt>
      <trkpt lat="44.46628" lon="2.67347">
        <ele>543.89</ele>
        <time>2015-12-11T14:10:42Z</time>
      </trkpt>
      <trkpt lat="44.46621" lon="2.67338">
        <ele>544.45</ele>
        <time>2015-12-11T14:10:45Z</time>
      </trkpt>
      <trkpt lat="44.46615" lon="2.67339">
        <ele>543.44</ele>
        <time>2015-12-11T14:10:49Z</time>
      </trkpt>
      <trkpt lat="44.4661" lon="2.67338">
        <ele>541.07</ele>
        <time>2015-12-11T14:10:53Z</time>
      </trkpt>
      <trkpt lat="44.46605" lon="2.67338">
        <ele>542.51</ele>
        <time>2015-12-11T14:10:57Z</time>
      </trkpt>
      <trkpt lat="44.46601" lon="2.67333">
        <ele>543.23</ele>
        <time>2015-12-11T14:10:59Z</time>
      </trkpt>
      <trkpt lat="44.46596" lon="2.67332">
        <ele>547.16</ele>
        <time>2015-12-11T14:11:07Z</time>
      </trkpt>
      <trkpt lat="44.46592" lon="2.67339">
        <ele>548.17</ele>
        <time>2015-12-11T14:11:09Z</time>
      </trkpt>
      <trkpt lat="44.46588" lon="2.67344">
        <ele>549.12</ele>
        <time>2015-12-11T14:11:11Z</time>
      </trkpt>
      <trkpt lat="44.46594" lon="2.67344">
        <ele>550.08</ele>
        <time>2015-12-11T14:11:18Z</time>
      </trkpt>
      <trkpt lat="44.46594" lon="2.67351">
        <ele>549.49</ele>
        <time>2015-12-11T14:11:32Z</time>
      </trkpt>
      <trkpt lat="44.4659" lon="2.67357">
        <ele>549.56</ele>
        <time>2015-12-11T14:11:35Z</time>
      </trkpt>
      <trkpt lat="44.46592" lon="2.67364">
        <ele>549.7</ele>
        <time>2015-12-11T14:11:37Z</time>
      </trkpt>
      <trkpt lat="44.46596" lon="2.67359">
        <ele>548.42</ele>
        <time>2015-12-11T14:11:40Z</time>
      </trkpt>
      <trkpt lat="44.46603" lon="2.67353">
        <ele>547.23</ele>
        <time>2015-12-11T14:11:40Z</time>
      </trkpt>
      <trkpt lat="44.46601" lon="2.67347">
        <ele>542.29</ele>
        <time>2015-12-11T14:11:48Z</time>
      </trkpt>
      <trkpt lat="44.46595" lon="2.67346">
        <ele>538.97</ele>
        <time>2015-12-11T14:12:27Z</time>
      </trkpt>
      <trkpt lat="44.46591" lon="2.67345">
        <ele>538.5</ele>
        <time>2015-12-11T14:12:29Z</time>
      </trkpt>
      <trkpt lat="44.46586" lon="2.67345">
        <ele>537.11</ele>
        <time>2015-12-11T14:12:34Z</time>
      </trkpt>
      <trkpt lat="44.4658" lon="2.67346">
        <ele>534.29</ele>
        <time>2015-12-11T14:12:38Z</time>
      </trkpt>
      <trkpt lat="44.46576" lon="2.67349">
        <ele>531.68</ele>
        <time>2015-12-11T14:12:42Z</time>
      </trkpt>
      <trkpt lat="44.4657" lon="2.67349">
        <ele>532.27</ele>
        <time>2015-12-11T14:12:45Z</time>
      </trkpt>
      <trkpt lat="44.46565" lon="2.67351">
        <ele>530.73</ele>
        <time>2015-12-11T14:12:48Z</time>
      </trkpt>
      <trkpt lat="44.46561" lon="2.67355">
        <ele>534.02</ele>
        <time>2015-12-11T14:12:53Z</time>
      </trkpt>
      <trkpt lat="44.46557" lon="2.67359">
        <ele>533.65</ele>
        <time>2015-12-11T14:12:57Z</time>
      </trkpt>
      <trkpt lat="44.46553" lon="2.67362">
        <ele>533.79</ele>
        <time>2015-12-11T14:13:01Z</time>
      </trkpt>
      <trkpt lat="44.46548" lon="2.67363">
        <ele>534.31</ele>
        <time>2015-12-11T14:13:07Z</time>
      </trkpt>
      <trkpt lat="44.46544" lon="2.67367">
        <ele>533.5</ele>
        <time>2015-12-11T14:13:10Z</time>
      </trkpt>
      <trkpt lat="44.46537" lon="2.6737">
        <ele>533.63</ele>
        <time>2015-12-11T14:13:14Z</time>
      </trkpt>
      <trkpt lat="44.46532" lon="2.6737">
        <ele>533.88</ele>
        <time>2015-12-11T14:13:17Z</time>
      </trkpt>
      <trkpt lat="44.46528" lon="2.67375">
        <ele>537.38</ele>
        <time>2015-12-11T14:13:21Z</time>
      </trkpt>
      <trkpt lat="44.46522" lon="2.67378">
        <ele>539.55</ele>
        <time>2015-12-11T14:13:23Z</time>
      </trkpt>
      <trkpt lat="44.46519" lon="2.67384">
        <ele>539.74</ele>
        <time>2015-12-11T14:13:27Z</time>
      </trkpt>
      <trkpt lat="44.46477" lon="2.67398">
        <ele>540.09</ele>
        <time>2015-12-11T14:14:01Z</time>
      </trkpt>
      <trkpt lat="44.46472" lon="2.67396">
        <ele>541.15</ele>
        <time>2015-12-11T14:14:03Z</time>
      </trkpt>
      <trkpt lat="44.46467" lon="2.67394">
        <ele>539.13</ele>
        <time>2015-12-11T14:14:06Z</time>
      </trkpt>
      <trkpt lat="44.46463" lon="2.67394">
        <ele>537.57</ele>
        <time>2015-12-11T14:14:10Z</time>
      </trkpt>
      <trkpt lat="44.46457" lon="2.67395">
        <ele>535.53</ele>
        <time>2015-12-11T14:14:14Z</time>
      </trkpt>
      <trkpt lat="44.46452" lon="2.67396">
        <ele>537.11</ele>
        <time>2015-12-11T14:14:18Z</time>
      </trkpt>
      <trkpt lat="44.46447" lon="2.67399">
        <ele>537.44</ele>
        <time>2015-12-11T14:14:21Z</time>
      </trkpt>
      <trkpt lat="44.46442" lon="2.67401">
        <ele>536.18</ele>
        <time>2015-12-11T14:14:25Z</time>
      </trkpt>
      <trkpt lat="44.46438" lon="2.67404">
        <ele>537.36</ele>
        <time>2015-12-11T14:14:29Z</time>
      </trkpt>
      <trkpt lat="44.46432" lon="2.67407">
        <ele>537.49</ele>
        <time>2015-12-11T14:14:32Z</time>
      </trkpt>
      <trkpt lat="44.46427" lon="2.67407">
        <ele>542.73</ele>
        <time>2015-12-11T14:14:40Z</time>
      </trkpt>
      <trkpt lat="44.46423" lon="2.67411">
        <ele>542.79</ele>
        <time>2015-12-11T14:14:44Z</time>
      </trkpt>
      <trkpt lat="44.46418" lon="2.67412">
        <ele>545.08</ele>
        <time>2015-12-11T14:14:49Z</time>
      </trkpt>
      <trkpt lat="44.46413" lon="2.67413">
        <ele>546.33</ele>
        <time>2015-12-11T14:14:53Z</time>
      </trkpt>
      <trkpt lat="44.46408" lon="2.67418">
        <ele>546.25</ele>
        <time>2015-12-11T14:14:59Z</time>
      </trkpt>
      <trkpt lat="44.46405" lon="2.67414">
        <ele>547.87</ele>
        <time>2015-12-11T14:15:00Z</time>
      </trkpt>
      <trkpt lat="44.464" lon="2.67414">
        <ele>550.06</ele>
        <time>2015-12-11T14:15:05Z</time>
      </trkpt>
      <trkpt lat="44.46396" lon="2.67418">
        <ele>551.16</ele>
        <time>2015-12-11T14:15:14Z</time>
      </trkpt>
      <trkpt lat="44.46391" lon="2.67421">
        <ele>551.5</ele>
        <time>2015-12-11T14:15:15Z</time>
      </trkpt>
      <trkpt lat="44.46387" lon="2.67424">
        <ele>550.57</ele>
        <time>2015-12-11T14:15:17Z</time>
      </trkpt>
      <trkpt lat="44.46381" lon="2.67424">
        <ele>549.57</ele>
        <time>2015-12-11T14:15:20Z</time>
      </trkpt>
      <trkpt lat="44.46376" lon="2.67429">
        <ele>549.11</ele>
        <time>2015-12-11T14:15:24Z</time>
      </trkpt>
      <trkpt lat="44.46371" lon="2.67427">
        <ele>549.71</ele>
        <time>2015-12-11T14:15:29Z</time>
      </trkpt>
      <trkpt lat="44.46366" lon="2.67428">
        <ele>548.45</ele>
        <time>2015-12-11T14:15:32Z</time>
      </trkpt>
      <trkpt lat="44.46362" lon="2.67427">
        <ele>547.3</ele>
        <time>2015-12-11T14:15:35Z</time>
      </trkpt>
      <trkpt lat="44.46357" lon="2.67429">
        <ele>545.3</ele>
        <time>2015-12-11T14:15:39Z</time>
      </trkpt>
      <trkpt lat="44.46351" lon="2.67426">
        <ele>542.09</ele>
        <time>2015-12-11T14:15:44Z</time>
      </trkpt>
      <trkpt lat="44.46346" lon="2.67423">
        <ele>539.51</ele>
        <time>2015-12-11T14:15:49Z</time>
      </trkpt>
      <trkpt lat="44.46342" lon="2.67419">
        <ele>539.78</ele>
        <time>2015-12-11T14:15:50Z</time>
      </trkpt>
      <trkpt lat="44.46338" lon="2.67415">
        <ele>540.85</ele>
        <time>2015-12-11T14:15:52Z</time>
      </trkpt>
      <trkpt lat="44.46334" lon="2.67416">
        <ele>541.56</ele>
        <time>2015-12-11T14:15:56Z</time>
      </trkpt>
      <trkpt lat="44.46328" lon="2.67415">
        <ele>542.51</ele>
        <time>2015-12-11T14:15:59Z</time>
      </trkpt>
      <trkpt lat="44.46324" lon="2.67414">
        <ele>541.81</ele>
        <time>2015-12-11T14:16:03Z</time>
      </trkpt>
      <trkpt lat="44.46318" lon="2.67414">
        <ele>540.23</ele>
        <time>2015-12-11T14:16:06Z</time>
      </trkpt>
      <trkpt lat="44.46313" lon="2.6741">
        <ele>542.77</ele>
        <time>2015-12-11T14:16:11Z</time>
      </trkpt>
      <trkpt lat="44.46308" lon="2.67406">
        <ele>543.17</ele>
        <time>2015-12-11T14:16:15Z</time>
      </trkpt>
      <trkpt lat="44.46301" lon="2.67403">
        <ele>542.42</ele>
        <time>2015-12-11T14:16:21Z</time>
      </trkpt>
      <trkpt lat="44.46296" lon="2.67402">
        <ele>542.75</ele>
        <time>2015-12-11T14:16:24Z</time>
      </trkpt>
      <trkpt lat="44.46291" lon="2.674">
        <ele>539.35</ele>
        <time>2015-12-11T14:16:28Z</time>
      </trkpt>
      <trkpt lat="44.46286" lon="2.67397">
        <ele>541.66</ele>
        <time>2015-12-11T14:16:34Z</time>
      </trkpt>
      <trkpt lat="44.46281" lon="2.67397">
        <ele>541.74</ele>
        <time>2015-12-11T14:16:38Z</time>
      </trkpt>
      <trkpt lat="44.46277" lon="2.67394">
        <ele>541.48</ele>
        <time>2015-12-11T14:16:41Z</time>
      </trkpt>
      <trkpt lat="44.46272" lon="2.67391">
        <ele>541.45</ele>
        <time>2015-12-11T14:16:52Z</time>
      </trkpt>
      <trkpt lat="44.46267" lon="2.67387">
        <ele>545.15</ele>
        <time>2015-12-11T14:17:42Z</time>
      </trkpt>
      <trkpt lat="44.46262" lon="2.67386">
        <ele>545.84</ele>
        <time>2015-12-11T14:17:45Z</time>
      </trkpt>
      <trkpt lat="44.46258" lon="2.6739">
        <ele>543.99</ele>
        <time>2015-12-11T14:17:48Z</time>
      </trkpt>
      <trkpt lat="44.46253" lon="2.67389">
        <ele>543.28</ele>
        <time>2015-12-11T14:17:51Z</time>
      </trkpt>
      <trkpt lat="44.46248" lon="2.67391">
        <ele>542.08</ele>
        <time>2015-12-11T14:17:55Z</time>
      </trkpt>
      <trkpt lat="44.46242" lon="2.67394">
        <ele>541.1</ele>
        <time>2015-12-11T14:17:59Z</time>
      </trkpt>
      <trkpt lat="44.46237" lon="2.67399">
        <ele>548.46</ele>
        <time>2015-12-11T14:18:05Z</time>
      </trkpt>
      <trkpt lat="44.46231" lon="2.67397">
        <ele>550.43</ele>
        <time>2015-12-11T14:18:09Z</time>
      </trkpt>
      <trkpt lat="44.46228" lon="2.67403">
        <ele>549.47</ele>
        <time>2015-12-11T14:18:13Z</time>
      </trkpt>
      <trkpt lat="44.46224" lon="2.67407">
        <ele>548.48</ele>
        <time>2015-12-11T14:18:16Z</time>
      </trkpt>
      <trkpt lat="44.46219" lon="2.6741">
        <ele>546.33</ele>
        <time>2015-12-11T14:18:20Z</time>
      </trkpt>
      <trkpt lat="44.46215" lon="2.67414">
        <ele>542.15</ele>
        <time>2015-12-11T14:18:25Z</time>
      </trkpt>
      <trkpt lat="44.46171" lon="2.67441">
        <ele>535.03</ele>
        <time>2015-12-11T14:18:59Z</time>
      </trkpt>
      <trkpt lat="44.46172" lon="2.6745">
        <ele>534.46</ele>
        <time>2015-12-11T14:19:03Z</time>
      </trkpt>
      <trkpt lat="44.46166" lon="2.67453">
        <ele>529.04</ele>
        <time>2015-12-11T14:19:07Z</time>
      </trkpt>
      <trkpt lat="44.46162" lon="2.67453">
        <ele>530.59</ele>
        <time>2015-12-11T14:19:10Z</time>
      </trkpt>
      <trkpt lat="44.46157" lon="2.67453">
        <ele>530.93</ele>
        <time>2015-12-11T14:19:14Z</time>
      </trkpt>
      <trkpt lat="44.46151" lon="2.67454">
        <ele>528.53</ele>
        <time>2015-12-11T14:19:18Z</time>
      </trkpt>
      <trkpt lat="44.46146" lon="2.67454">
        <ele>531.67</ele>
        <time>2015-12-11T14:19:23Z</time>
      </trkpt>
      <trkpt lat="44.46141" lon="2.67459">
        <ele>532.09</ele>
        <time>2015-12-11T14:19:27Z</time>
      </trkpt>
      <trkpt lat="44.46137" lon="2.67465">
        <ele>535.57</ele>
        <time>2015-12-11T14:19:32Z</time>
      </trkpt>
      <trkpt lat="44.46134" lon="2.67469">
        <ele>536.12</ele>
        <time>2015-12-11T14:19:35Z</time>
      </trkpt>
      <trkpt lat="44.46131" lon="2.67476">
        <ele>535.9</ele>
        <time>2015-12-11T14:19:39Z</time>
      </trkpt>
      <trkpt lat="44.46127" lon="2.67481">
        <ele>536</ele>
        <time>2015-12-11T14:19:42Z</time>
      </trkpt>
      <trkpt lat="44.46123" lon="2.67485">
        <ele>535.98</ele>
        <time>2015-12-11T14:19:47Z</time>
      </trkpt>
      <trkpt lat="44.4612" lon="2.67491">
        <ele>536.13</ele>
        <time>2015-12-11T14:19:51Z</time>
      </trkpt>
      <trkpt lat="44.46116" lon="2.67496">
        <ele>534.82</ele>
        <time>2015-12-11T14:19:55Z</time>
      </trkpt>
      <trkpt lat="44.46112" lon="2.675">
        <ele>532.33</ele>
        <time>2015-12-11T14:20:00Z</time>
      </trkpt>
      <trkpt lat="44.46107" lon="2.67504">
        <ele>532.32</ele>
        <time>2015-12-11T14:20:04Z</time>
      </trkpt>
      <trkpt lat="44.46103" lon="2.67508">
        <ele>532.21</ele>
        <time>2015-12-11T14:20:07Z</time>
      </trkpt>
      <trkpt lat="44.461" lon="2.67513">
        <ele>532.26</ele>
        <time>2015-12-11T14:20:11Z</time>
      </trkpt>
      <trkpt lat="44.46096" lon="2.67518">
        <ele>534.39</ele>
        <time>2015-12-11T14:20:15Z</time>
      </trkpt>
      <trkpt lat="44.46092" lon="2.67523">
        <ele>535.79</ele>
        <time>2015-12-11T14:20:20Z</time>
      </trkpt>
      <trkpt lat="44.46087" lon="2.67527">
        <ele>537.52</ele>
        <time>2015-12-11T14:20:24Z</time>
      </trkpt>
      <trkpt lat="44.46083" lon="2.6753">
        <ele>535.07</ele>
        <time>2015-12-11T14:20:28Z</time>
      </trkpt>
      <trkpt lat="44.46079" lon="2.67535">
        <ele>533.74</ele>
        <time>2015-12-11T14:20:32Z</time>
      </trkpt>
      <trkpt lat="44.46074" lon="2.67538">
        <ele>534.06</ele>
        <time>2015-12-11T14:20:38Z</time>
      </trkpt>
      <trkpt lat="44.4607" lon="2.67538">
        <ele>537.35</ele>
        <time>2015-12-11T14:20:42Z</time>
      </trkpt>
      <trkpt lat="44.46067" lon="2.67543">
        <ele>538.3</ele>
        <time>2015-12-11T14:20:45Z</time>
      </trkpt>
      <trkpt lat="44.46062" lon="2.67548">
        <ele>538.48</ele>
        <time>2015-12-11T14:20:49Z</time>
      </trkpt>
      <trkpt lat="44.46056" lon="2.67551">
        <ele>538.21</ele>
        <time>2015-12-11T14:20:52Z</time>
      </trkpt>
      <trkpt lat="44.46051" lon="2.67558">
        <ele>538.67</ele>
        <time>2015-12-11T14:20:57Z</time>
      </trkpt>
      <trkpt lat="44.46046" lon="2.67561">
        <ele>537.29</ele>
        <time>2015-12-11T14:21:01Z</time>
      </trkpt>
      <trkpt lat="44.46042" lon="2.67565">
        <ele>537.74</ele>
        <time>2015-12-11T14:21:06Z</time>
      </trkpt>
      <trkpt lat="44.46038" lon="2.6757">
        <ele>536.9</ele>
        <time>2015-12-11T14:21:10Z</time>
      </trkpt>
      <trkpt lat="44.46034" lon="2.67574">
        <ele>535.76</ele>
        <time>2015-12-11T14:21:14Z</time>
      </trkpt>
      <trkpt lat="44.4603" lon="2.67577">
        <ele>537.62</ele>
        <time>2015-12-11T14:21:17Z</time>
      </trkpt>
      <trkpt lat="44.46027" lon="2.67583">
        <ele>540.44</ele>
        <time>2015-12-11T14:21:22Z</time>
      </trkpt>
      <trkpt lat="44.46024" lon="2.6759">
        <ele>540.2</ele>
        <time>2015-12-11T14:21:25Z</time>
      </trkpt>
      <trkpt lat="44.46021" lon="2.67597">
        <ele>538.5</ele>
        <time>2015-12-11T14:21:29Z</time>
      </trkpt>
      <trkpt lat="44.46018" lon="2.67605">
        <ele>537.15</ele>
        <time>2015-12-11T14:21:35Z</time>
      </trkpt>
      <trkpt lat="44.46016" lon="2.6761">
        <ele>537.37</ele>
        <time>2015-12-11T14:21:40Z</time>
      </trkpt>
      <trkpt lat="44.46015" lon="2.67617">
        <ele>534.04</ele>
        <time>2015-12-11T14:21:45Z</time>
      </trkpt>
      <trkpt lat="44.46012" lon="2.67623">
        <ele>534.59</ele>
        <time>2015-12-11T14:21:50Z</time>
      </trkpt>
      <trkpt lat="44.46008" lon="2.67629">
        <ele>536.7</ele>
        <time>2015-12-11T14:21:54Z</time>
      </trkpt>
      <trkpt lat="44.46009" lon="2.67635">
        <ele>534.06</ele>
        <time>2015-12-11T14:21:58Z</time>
      </trkpt>
      <trkpt lat="44.46007" lon="2.67642">
        <ele>533.14</ele>
        <time>2015-12-11T14:22:01Z</time>
      </trkpt>
      <trkpt lat="44.46003" lon="2.67646">
        <ele>532.64</ele>
        <time>2015-12-11T14:22:03Z</time>
      </trkpt>
      <trkpt lat="44.46" lon="2.67651">
        <ele>530.54</ele>
        <time>2015-12-11T14:22:08Z</time>
      </trkpt>
      <trkpt lat="44.45997" lon="2.67657">
        <ele>530.24</ele>
        <time>2015-12-11T14:22:11Z</time>
      </trkpt>
      <trkpt lat="44.45995" lon="2.67665">
        <ele>530.03</ele>
        <time>2015-12-11T14:22:14Z</time>
      </trkpt>
      <trkpt lat="44.45991" lon="2.67668">
        <ele>529.28</ele>
        <time>2015-12-11T14:22:18Z</time>
      </trkpt>
      <trkpt lat="44.45986" lon="2.67669">
        <ele>528.57</ele>
        <time>2015-12-11T14:22:21Z</time>
      </trkpt>
      <trkpt lat="44.45981" lon="2.6767">
        <ele>527.79</ele>
        <time>2015-12-11T14:22:26Z</time>
      </trkpt>
      <trkpt lat="44.45976" lon="2.67673">
        <ele>526.97</ele>
        <time>2015-12-11T14:22:29Z</time>
      </trkpt>
      <trkpt lat="44.45973" lon="2.67676">
        <ele>528.11</ele>
        <time>2015-12-11T14:22:33Z</time>
      </trkpt>
      <trkpt lat="44.45974" lon="2.67683">
        <ele>529.15</ele>
        <time>2015-12-11T14:22:37Z</time>
      </trkpt>
      <trkpt lat="44.45976" lon="2.67689">
        <ele>529.74</ele>
        <time>2015-12-11T14:22:40Z</time>
      </trkpt>
      <trkpt lat="44.45978" lon="2.67696">
        <ele>531.19</ele>
        <time>2015-12-11T14:22:43Z</time>
      </trkpt>
      <trkpt lat="44.45977" lon="2.67702">
        <ele>532.43</ele>
        <time>2015-12-11T14:22:46Z</time>
      </trkpt>
      <trkpt lat="44.4598" lon="2.67709">
        <ele>530.87</ele>
        <time>2015-12-11T14:22:52Z</time>
      </trkpt>
      <trkpt lat="44.45982" lon="2.67716">
        <ele>529.34</ele>
        <time>2015-12-11T14:22:55Z</time>
      </trkpt>
      <trkpt lat="44.45981" lon="2.67723">
        <ele>528.87</ele>
        <time>2015-12-11T14:22:58Z</time>
      </trkpt>
      <trkpt lat="44.45981" lon="2.67732">
        <ele>526.41</ele>
        <time>2015-12-11T14:23:03Z</time>
      </trkpt>
      <trkpt lat="44.45982" lon="2.6774">
        <ele>525.1</ele>
        <time>2015-12-11T14:23:06Z</time>
      </trkpt>
      <trkpt lat="44.45979" lon="2.67745">
        <ele>529.26</ele>
        <time>2015-12-11T14:23:11Z</time>
      </trkpt>
      <trkpt lat="44.45981" lon="2.67752">
        <ele>528.95</ele>
        <time>2015-12-11T14:23:13Z</time>
      </trkpt>
      <trkpt lat="44.45981" lon="2.6776">
        <ele>529.23</ele>
        <time>2015-12-11T14:23:16Z</time>
      </trkpt>
      <trkpt lat="44.45981" lon="2.67768">
        <ele>530.6</ele>
        <time>2015-12-11T14:23:19Z</time>
      </trkpt>
      <trkpt lat="44.45983" lon="2.67775">
        <ele>531</ele>
        <time>2015-12-11T14:23:26Z</time>
      </trkpt>
      <trkpt lat="44.4597" lon="2.67815">
        <ele>531.14</ele>
        <time>2015-12-11T14:24:03Z</time>
      </trkpt>
      <trkpt lat="44.45969" lon="2.67827">
        <ele>529.49</ele>
        <time>2015-12-11T14:24:05Z</time>
      </trkpt>
      <trkpt lat="44.45973" lon="2.67836">
        <ele>529.52</ele>
        <time>2015-12-11T14:24:06Z</time>
      </trkpt>
      <trkpt lat="44.45974" lon="2.67845">
        <ele>521.43</ele>
        <time>2015-12-11T14:24:08Z</time>
      </trkpt>
      <trkpt lat="44.45969" lon="2.67852">
        <ele>521.6</ele>
        <time>2015-12-11T14:24:12Z</time>
      </trkpt>
      <trkpt lat="44.45966" lon="2.67858">
        <ele>523.91</ele>
        <time>2015-12-11T14:24:17Z</time>
      </trkpt>
      <trkpt lat="44.45963" lon="2.67865">
        <ele>526.08</ele>
        <time>2015-12-11T14:24:21Z</time>
      </trkpt>
      <trkpt lat="44.45961" lon="2.67872">
        <ele>529.61</ele>
        <time>2015-12-11T14:24:26Z</time>
      </trkpt>
      <trkpt lat="44.45958" lon="2.67878">
        <ele>532.03</ele>
        <time>2015-12-11T14:24:30Z</time>
      </trkpt>
      <trkpt lat="44.45956" lon="2.67884">
        <ele>535.24</ele>
        <time>2015-12-11T14:24:38Z</time>
      </trkpt>
      <trkpt lat="44.45953" lon="2.6789">
        <ele>537.68</ele>
        <time>2015-12-11T14:24:40Z</time>
      </trkpt>
      <trkpt lat="44.45953" lon="2.67897">
        <ele>535.77</ele>
        <time>2015-12-11T14:24:47Z</time>
      </trkpt>
      <trkpt lat="44.45949" lon="2.67902">
        <ele>528.83</ele>
        <time>2015-12-11T14:24:51Z</time>
      </trkpt>
      <trkpt lat="44.45948" lon="2.67909">
        <ele>525.45</ele>
        <time>2015-12-11T14:24:54Z</time>
      </trkpt>
      <trkpt lat="44.45948" lon="2.67916">
        <ele>525.15</ele>
        <time>2015-12-11T14:24:58Z</time>
      </trkpt>
      <trkpt lat="44.45948" lon="2.67923">
        <ele>526.64</ele>
        <time>2015-12-11T14:25:01Z</time>
      </trkpt>
      <trkpt lat="44.45945" lon="2.67929">
        <ele>527.19</ele>
        <time>2015-12-11T14:25:05Z</time>
      </trkpt>
      <trkpt lat="44.45946" lon="2.67936">
        <ele>532.03</ele>
        <time>2015-12-11T14:25:09Z</time>
      </trkpt>
      <trkpt lat="44.45947" lon="2.67943">
        <ele>535.41</ele>
        <time>2015-12-11T14:25:12Z</time>
      </trkpt>
      <trkpt lat="44.45946" lon="2.67951">
        <ele>534.65</ele>
        <time>2015-12-11T14:25:15Z</time>
      </trkpt>
      <trkpt lat="44.45948" lon="2.67958">
        <ele>535.64</ele>
        <time>2015-12-11T14:25:20Z</time>
      </trkpt>
      <trkpt lat="44.45946" lon="2.67963">
        <ele>536.87</ele>
        <time>2015-12-11T14:25:29Z</time>
      </trkpt>
      <trkpt lat="44.45943" lon="2.67969">
        <ele>536.17</ele>
        <time>2015-12-11T14:25:31Z</time>
      </trkpt>
      <trkpt lat="44.45939" lon="2.67976">
        <ele>533.62</ele>
        <time>2015-12-11T14:25:35Z</time>
      </trkpt>
      <trkpt lat="44.45937" lon="2.67982">
        <ele>531.39</ele>
        <time>2015-12-11T14:25:38Z</time>
      </trkpt>
      <trkpt lat="44.45935" lon="2.67989">
        <ele>529.18</ele>
        <time>2015-12-11T14:25:42Z</time>
      </trkpt>
      <trkpt lat="44.45934" lon="2.67995">
        <ele>526.09</ele>
        <time>2015-12-11T14:25:46Z</time>
      </trkpt>
      <trkpt lat="44.45933" lon="2.68002">
        <ele>527.51</ele>
        <time>2015-12-11T14:25:49Z</time>
      </trkpt>
      <trkpt lat="44.45932" lon="2.68008">
        <ele>529.71</ele>
        <time>2015-12-11T14:25:54Z</time>
      </trkpt>
      <trkpt lat="44.4593" lon="2.68014">
        <ele>529.83</ele>
        <time>2015-12-11T14:25:56Z</time>
      </trkpt>
      <trkpt lat="44.45928" lon="2.68023">
        <ele>531.07</ele>
        <time>2015-12-11T14:26:06Z</time>
      </trkpt>
      <trkpt lat="44.45928" lon="2.68033">
        <ele>533.89</ele>
        <time>2015-12-11T14:26:09Z</time>
      </trkpt>
      <trkpt lat="44.45929" lon="2.6804">
        <ele>532.73</ele>
        <time>2015-12-11T14:26:13Z</time>
      </trkpt>
      <trkpt lat="44.45929" lon="2.68047">
        <ele>531.1</ele>
        <time>2015-12-11T14:26:17Z</time>
      </trkpt>
      <trkpt lat="44.45927" lon="2.68056">
        <ele>530.05</ele>
        <time>2015-12-11T14:26:21Z</time>
      </trkpt>
      <trkpt lat="44.45928" lon="2.68065">
        <ele>530.88</ele>
        <time>2015-12-11T14:26:25Z</time>
      </trkpt>
      <trkpt lat="44.45927" lon="2.68072">
        <ele>531.18</ele>
        <time>2015-12-11T14:26:29Z</time>
      </trkpt>
      <trkpt lat="44.45926" lon="2.68079">
        <ele>531.96</ele>
        <time>2015-12-11T14:26:32Z</time>
      </trkpt>
      <trkpt lat="44.45924" lon="2.68087">
        <ele>530.62</ele>
        <time>2015-12-11T14:26:36Z</time>
      </trkpt>
      <trkpt lat="44.45922" lon="2.68094">
        <ele>529.38</ele>
        <time>2015-12-11T14:26:39Z</time>
      </trkpt>
      <trkpt lat="44.45919" lon="2.681">
        <ele>528.8</ele>
        <time>2015-12-11T14:26:43Z</time>
      </trkpt>
      <trkpt lat="44.45916" lon="2.68106">
        <ele>528.25</ele>
        <time>2015-12-11T14:26:45Z</time>
      </trkpt>
      <trkpt lat="44.45919" lon="2.68112">
        <ele>531</ele>
        <time>2015-12-11T14:26:50Z</time>
      </trkpt>
      <trkpt lat="44.45919" lon="2.68119">
        <ele>534.05</ele>
        <time>2015-12-11T14:26:57Z</time>
      </trkpt>
      <trkpt lat="44.4592" lon="2.68127">
        <ele>534.27</ele>
        <time>2015-12-11T14:27:01Z</time>
      </trkpt>
      <trkpt lat="44.4592" lon="2.68134">
        <ele>535.01</ele>
        <time>2015-12-11T14:27:05Z</time>
      </trkpt>
      <trkpt lat="44.4592" lon="2.68141">
        <ele>534.76</ele>
        <time>2015-12-11T14:27:10Z</time>
      </trkpt>
      <trkpt lat="44.45921" lon="2.68148">
        <ele>533.42</ele>
        <time>2015-12-11T14:27:14Z</time>
      </trkpt>
      <trkpt lat="44.45919" lon="2.68154">
        <ele>533.86</ele>
        <time>2015-12-11T14:27:19Z</time>
      </trkpt>
      <trkpt lat="44.45917" lon="2.6816">
        <ele>534.9</ele>
        <time>2015-12-11T14:27:29Z</time>
      </trkpt>
      <trkpt lat="44.45916" lon="2.68167">
        <ele>533.56</ele>
        <time>2015-12-11T14:27:33Z</time>
      </trkpt>
      <trkpt lat="44.45918" lon="2.68175">
        <ele>533.3</ele>
        <time>2015-12-11T14:27:37Z</time>
      </trkpt>
      <trkpt lat="44.45917" lon="2.68182">
        <ele>532.53</ele>
        <time>2015-12-11T14:27:41Z</time>
      </trkpt>
      <trkpt lat="44.45917" lon="2.68189">
        <ele>532.02</ele>
        <time>2015-12-11T14:27:45Z</time>
      </trkpt>
      <trkpt lat="44.45916" lon="2.68197">
        <ele>533.24</ele>
        <time>2015-12-11T14:27:48Z</time>
      </trkpt>
      <trkpt lat="44.45914" lon="2.68202">
        <ele>531.29</ele>
        <time>2015-12-11T14:27:54Z</time>
      </trkpt>
      <trkpt lat="44.45912" lon="2.68209">
        <ele>530.51</ele>
        <time>2015-12-11T14:27:58Z</time>
      </trkpt>
      <trkpt lat="44.4591" lon="2.68218">
        <ele>531.45</ele>
        <time>2015-12-11T14:28:01Z</time>
      </trkpt>
      <trkpt lat="44.45911" lon="2.68226">
        <ele>531.62</ele>
        <time>2015-12-11T14:28:05Z</time>
      </trkpt>
      <trkpt lat="44.4591" lon="2.68234">
        <ele>532.55</ele>
        <time>2015-12-11T14:28:08Z</time>
      </trkpt>
      <trkpt lat="44.45909" lon="2.68241">
        <ele>532.75</ele>
        <time>2015-12-11T14:28:11Z</time>
      </trkpt>
      <trkpt lat="44.45906" lon="2.68248">
        <ele>533.54</ele>
        <time>2015-12-11T14:28:16Z</time>
      </trkpt>
      <trkpt lat="44.45905" lon="2.68254">
        <ele>532.8</ele>
        <time>2015-12-11T14:28:20Z</time>
      </trkpt>
      <trkpt lat="44.45904" lon="2.68262">
        <ele>533.92</ele>
        <time>2015-12-11T14:28:24Z</time>
      </trkpt>
      <trkpt lat="44.45904" lon="2.68269">
        <ele>532.58</ele>
        <time>2015-12-11T14:28:27Z</time>
      </trkpt>
      <trkpt lat="44.45892" lon="2.68334">
        <ele>535.85</ele>
        <time>2015-12-11T14:29:01Z</time>
      </trkpt>
      <trkpt lat="44.4589" lon="2.68342">
        <ele>534.63</ele>
        <time>2015-12-11T14:29:04Z</time>
      </trkpt>
      <trkpt lat="44.45892" lon="2.68348">
        <ele>532.27</ele>
        <time>2015-12-11T14:29:09Z</time>
      </trkpt>
      <trkpt lat="44.45892" lon="2.68357">
        <ele>528.71</ele>
        <time>2015-12-11T14:29:15Z</time>
      </trkpt>
      <trkpt lat="44.45889" lon="2.68363">
        <ele>530.14</ele>
        <time>2015-12-11T14:29:18Z</time>
      </trkpt>
      <trkpt lat="44.45888" lon="2.68371">
        <ele>531.53</ele>
        <time>2015-12-11T14:29:22Z</time>
      </trkpt>
      <trkpt lat="44.45889" lon="2.68377">
        <ele>531.68</ele>
        <time>2015-12-11T14:29:27Z</time>
      </trkpt>
      <trkpt lat="44.45887" lon="2.68384">
        <ele>533.03</ele>
        <time>2015-12-11T14:29:30Z</time>
      </trkpt>
      <trkpt lat="44.45885" lon="2.68389">
        <ele>533.84</ele>
        <time>2015-12-11T14:29:35Z</time>
      </trkpt>
      <trkpt lat="44.45885" lon="2.68396">
        <ele>533.76</ele>
        <time>2015-12-11T14:29:39Z</time>
      </trkpt>
      <trkpt lat="44.45884" lon="2.68404">
        <ele>535.19</ele>
        <time>2015-12-11T14:29:43Z</time>
      </trkpt>
      <trkpt lat="44.45885" lon="2.68412">
        <ele>532.63</ele>
        <time>2015-12-11T14:29:56Z</time>
      </trkpt>
      <trkpt lat="44.45884" lon="2.6842">
        <ele>532.01</ele>
        <time>2015-12-11T14:29:57Z</time>
      </trkpt>
      <trkpt lat="44.45882" lon="2.68427">
        <ele>532.42</ele>
        <time>2015-12-11T14:30:03Z</time>
      </trkpt>
      <trkpt lat="44.45881" lon="2.68434">
        <ele>532.96</ele>
        <time>2015-12-11T14:30:07Z</time>
      </trkpt>
      <trkpt lat="44.45881" lon="2.68441">
        <ele>533.67</ele>
        <time>2015-12-11T14:30:10Z</time>
      </trkpt>
      <trkpt lat="44.45881" lon="2.68449">
        <ele>534.24</ele>
        <time>2015-12-11T14:30:13Z</time>
      </trkpt>
      <trkpt lat="44.45882" lon="2.68457">
        <ele>532.7</ele>
        <time>2015-12-11T14:30:18Z</time>
      </trkpt>
      <trkpt lat="44.4588" lon="2.68464">
        <ele>531.03</ele>
        <time>2015-12-11T14:30:22Z</time>
      </trkpt>
      <trkpt lat="44.4588" lon="2.68473">
        <ele>528.29</ele>
        <time>2015-12-11T14:30:27Z</time>
      </trkpt>
      <trkpt lat="44.45879" lon="2.6848">
        <ele>526.89</ele>
        <time>2015-12-11T14:30:31Z</time>
      </trkpt>
      <trkpt lat="44.45879" lon="2.68487">
        <ele>525.11</ele>
        <time>2015-12-11T14:30:36Z</time>
      </trkpt>
      <trkpt lat="44.45879" lon="2.68496">
        <ele>524.85</ele>
        <time>2015-12-11T14:30:40Z</time>
      </trkpt>
      <trkpt lat="44.45879" lon="2.68503">
        <ele>521.53</ele>
        <time>2015-12-11T14:30:44Z</time>
      </trkpt>
      <trkpt lat="44.4588" lon="2.68511">
        <ele>522.18</ele>
        <time>2015-12-11T14:30:48Z</time>
      </trkpt>
      <trkpt lat="44.45881" lon="2.68518">
        <ele>521.82</ele>
        <time>2015-12-11T14:30:51Z</time>
      </trkpt>
      <trkpt lat="44.4588" lon="2.68525">
        <ele>524.17</ele>
        <time>2015-12-11T14:30:56Z</time>
      </trkpt>
      <trkpt lat="44.45879" lon="2.68532">
        <ele>525.27</ele>
        <time>2015-12-11T14:31:01Z</time>
      </trkpt>
      <trkpt lat="44.45879" lon="2.68539">
        <ele>525.87</ele>
        <time>2015-12-11T14:31:04Z</time>
      </trkpt>
      <trkpt lat="44.4588" lon="2.68547">
        <ele>526.8</ele>
        <time>2015-12-11T14:31:09Z</time>
      </trkpt>
      <trkpt lat="44.45881" lon="2.68553">
        <ele>527.44</ele>
        <time>2015-12-11T14:31:12Z</time>
      </trkpt>
      <trkpt lat="44.45882" lon="2.68562">
        <ele>529.61</ele>
        <time>2015-12-11T14:31:16Z</time>
      </trkpt>
      <trkpt lat="44.45881" lon="2.68569">
        <ele>531.95</ele>
        <time>2015-12-11T14:31:19Z</time>
      </trkpt>
      <trkpt lat="44.4588" lon="2.68575">
        <ele>534.59</ele>
        <time>2015-12-11T14:31:22Z</time>
      </trkpt>
      <trkpt lat="44.4588" lon="2.68581">
        <ele>535.25</ele>
        <time>2015-12-11T14:31:25Z</time>
      </trkpt>
      <trkpt lat="44.4588" lon="2.68589">
        <ele>536.55</ele>
        <time>2015-12-11T14:31:29Z</time>
      </trkpt>
      <trkpt lat="44.4588" lon="2.68596">
        <ele>538.23</ele>
        <time>2015-12-11T14:31:31Z</time>
      </trkpt>
      <trkpt lat="44.45882" lon="2.68602">
        <ele>537.26</ele>
        <time>2015-12-11T14:31:38Z</time>
      </trkpt>
      <trkpt lat="44.45882" lon="2.68609">
        <ele>537.65</ele>
        <time>2015-12-11T14:31:42Z</time>
      </trkpt>
      <trkpt lat="44.45884" lon="2.68616">
        <ele>540.02</ele>
        <time>2015-12-11T14:31:45Z</time>
      </trkpt>
      <trkpt lat="44.45889" lon="2.6862">
        <ele>542.98</ele>
        <time>2015-12-11T14:31:50Z</time>
      </trkpt>
      <trkpt lat="44.45894" lon="2.68618">
        <ele>543.47</ele>
        <time>2015-12-11T14:31:53Z</time>
      </trkpt>
      <trkpt lat="44.45898" lon="2.68616">
        <ele>543.37</ele>
        <time>2015-12-11T14:31:57Z</time>
      </trkpt>
      <trkpt lat="44.45904" lon="2.68615">
        <ele>542.43</ele>
        <time>2015-12-11T14:32:00Z</time>
      </trkpt>
      <trkpt lat="44.45909" lon="2.68612">
        <ele>540.59</ele>
        <time>2015-12-11T14:32:03Z</time>
      </trkpt>
      <trkpt lat="44.45912" lon="2.68608">
        <ele>537.79</ele>
        <time>2015-12-11T14:32:09Z</time>
      </trkpt>
      <trkpt lat="44.45917" lon="2.68608">
        <ele>537.08</ele>
        <time>2015-12-11T14:32:13Z</time>
      </trkpt>
      <trkpt lat="44.45923" lon="2.68608">
        <ele>538.36</ele>
        <time>2015-12-11T14:32:18Z</time>
      </trkpt>
      <trkpt lat="44.45928" lon="2.68606">
        <ele>535.96</ele>
        <time>2015-12-11T14:32:21Z</time>
      </trkpt>
      <trkpt lat="44.45933" lon="2.68606">
        <ele>532.76</ele>
        <time>2015-12-11T14:32:25Z</time>
      </trkpt>
      <trkpt lat="44.45938" lon="2.68606">
        <ele>532.12</ele>
        <time>2015-12-11T14:32:30Z</time>
      </trkpt>
      <trkpt lat="44.45943" lon="2.68607">
        <ele>532.31</ele>
        <time>2015-12-11T14:32:35Z</time>
      </trkpt>
      <trkpt lat="44.4595" lon="2.68608">
        <ele>532.21</ele>
        <time>2015-12-11T14:32:38Z</time>
      </trkpt>
      <trkpt lat="44.45956" lon="2.68605">
        <ele>530.2</ele>
        <time>2015-12-11T14:32:41Z</time>
      </trkpt>
      <trkpt lat="44.4596" lon="2.68601">
        <ele>528.46</ele>
        <time>2015-12-11T14:32:43Z</time>
      </trkpt>
      <trkpt lat="44.45965" lon="2.68601">
        <ele>528.45</ele>
        <time>2015-12-11T14:32:48Z</time>
      </trkpt>
      <trkpt lat="44.45971" lon="2.68604">
        <ele>526.58</ele>
        <time>2015-12-11T14:32:55Z</time>
      </trkpt>
      <trkpt lat="44.45976" lon="2.68604">
        <ele>527.43</ele>
        <time>2015-12-11T14:32:59Z</time>
      </trkpt>
      <trkpt lat="44.45981" lon="2.68604">
        <ele>528.28</ele>
        <time>2015-12-11T14:33:03Z</time>
      </trkpt>
      <trkpt lat="44.45986" lon="2.68601">
        <ele>529.07</ele>
        <time>2015-12-11T14:33:07Z</time>
      </trkpt>
      <trkpt lat="44.45991" lon="2.68603">
        <ele>528.8</ele>
        <time>2015-12-11T14:33:09Z</time>
      </trkpt>
      <trkpt lat="44.45995" lon="2.68606">
        <ele>528.16</ele>
        <time>2015-12-11T14:33:13Z</time>
      </trkpt>
      <trkpt lat="44.46001" lon="2.68602">
        <ele>529.58</ele>
        <time>2015-12-11T14:33:18Z</time>
      </trkpt>
      <trkpt lat="44.46006" lon="2.68602">
        <ele>532.48</ele>
        <time>2015-12-11T14:33:22Z</time>
      </trkpt>
      <trkpt lat="44.46053" lon="2.68608">
        <ele>526.28</ele>
        <time>2015-12-11T14:34:01Z</time>
      </trkpt>
      <trkpt lat="44.46057" lon="2.68614">
        <ele>526.87</ele>
        <time>2015-12-11T14:34:04Z</time>
      </trkpt>
      <trkpt lat="44.46062" lon="2.68617">
        <ele>526.59</ele>
        <time>2015-12-11T14:34:07Z</time>
      </trkpt>
      <trkpt lat="44.46067" lon="2.68618">
        <ele>527.44</ele>
        <time>2015-12-11T14:34:14Z</time>
      </trkpt>
      <trkpt lat="44.46073" lon="2.68617">
        <ele>528.02</ele>
        <time>2015-12-11T14:34:17Z</time>
      </trkpt>
      <trkpt lat="44.46078" lon="2.68619">
        <ele>529.71</ele>
        <time>2015-12-11T14:34:21Z</time>
      </trkpt>
      <trkpt lat="44.4608" lon="2.68625">
        <ele>532.18</ele>
        <time>2015-12-11T14:34:22Z</time>
      </trkpt>
      <trkpt lat="44.46082" lon="2.6863">
        <ele>532.45</ele>
        <time>2015-12-11T14:34:26Z</time>
      </trkpt>
      <trkpt lat="44.46085" lon="2.68635">
        <ele>533.78</ele>
        <time>2015-12-11T14:34:29Z</time>
      </trkpt>
      <trkpt lat="44.4609" lon="2.68637">
        <ele>535.61</ele>
        <time>2015-12-11T14:34:33Z</time>
      </trkpt>
      <trkpt lat="44.46095" lon="2.6864">
        <ele>536.08</ele>
        <time>2015-12-11T14:34:39Z</time>
      </trkpt>
      <trkpt lat="44.46099" lon="2.68641">
        <ele>534.99</ele>
        <time>2015-12-11T14:34:43Z</time>
      </trkpt>
      <trkpt lat="44.46105" lon="2.68644">
        <ele>537.1</ele>
        <time>2015-12-11T14:34:48Z</time>
      </trkpt>
      <trkpt lat="44.4611" lon="2.6865">
        <ele>534.77</ele>
        <time>2015-12-11T14:34:54Z</time>
      </trkpt>
      <trkpt lat="44.46115" lon="2.68654">
        <ele>530.33</ele>
        <time>2015-12-11T14:34:56Z</time>
      </trkpt>
      <trkpt lat="44.46119" lon="2.68658">
        <ele>529.46</ele>
        <time>2015-12-11T14:35:00Z</time>
      </trkpt>
      <trkpt lat="44.46123" lon="2.68664">
        <ele>530.44</ele>
        <time>2015-12-11T14:35:06Z</time>
      </trkpt>
      <trkpt lat="44.46128" lon="2.68668">
        <ele>529.98</ele>
        <time>2015-12-11T14:35:09Z</time>
      </trkpt>
      <trkpt lat="44.4613" lon="2.68673">
        <ele>530.1</ele>
        <time>2015-12-11T14:35:12Z</time>
      </trkpt>
      <trkpt lat="44.46135" lon="2.68676">
        <ele>531.73</ele>
        <time>2015-12-11T14:35:16Z</time>
      </trkpt>
      <trkpt lat="44.46141" lon="2.68678">
        <ele>531.39</ele>
        <time>2015-12-11T14:35:19Z</time>
      </trkpt>
      <trkpt lat="44.46146" lon="2.6868">
        <ele>531.34</ele>
        <time>2015-12-11T14:35:23Z</time>
      </trkpt>
      <trkpt lat="44.46149" lon="2.68685">
        <ele>530.67</ele>
        <time>2015-12-11T14:35:26Z</time>
      </trkpt>
      <trkpt lat="44.46151" lon="2.68691">
        <ele>530.49</ele>
        <time>2015-12-11T14:35:30Z</time>
      </trkpt>
      <trkpt lat="44.46156" lon="2.68694">
        <ele>532.3</ele>
        <time>2015-12-11T14:35:33Z</time>
      </trkpt>
      <trkpt lat="44.4616" lon="2.68696">
        <ele>533.83</ele>
        <time>2015-12-11T14:35:37Z</time>
      </trkpt>
      <trkpt lat="44.46164" lon="2.68699">
        <ele>532.89</ele>
        <time>2015-12-11T14:35:40Z</time>
      </trkpt>
      <trkpt lat="44.46168" lon="2.68706">
        <ele>533.2</ele>
        <time>2015-12-11T14:35:45Z</time>
      </trkpt>
      <trkpt lat="44.46174" lon="2.68708">
        <ele>533.09</ele>
        <time>2015-12-11T14:35:53Z</time>
      </trkpt>
      <trkpt lat="44.46178" lon="2.68712">
        <ele>532.86</ele>
        <time>2015-12-11T14:35:58Z</time>
      </trkpt>
      <trkpt lat="44.46183" lon="2.68715">
        <ele>533.79</ele>
        <time>2015-12-11T14:36:02Z</time>
      </trkpt>
      <trkpt lat="44.46187" lon="2.68719">
        <ele>533.19</ele>
        <time>2015-12-11T14:36:06Z</time>
      </trkpt>
      <trkpt lat="44.46192" lon="2.68721">
        <ele>532.22</ele>
        <time>2015-12-11T14:36:11Z</time>
      </trkpt>
      <trkpt lat="44.46197" lon="2.68722">
        <ele>531.88</ele>
        <time>2015-12-11T14:36:15Z</time>
      </trkpt>
      <trkpt lat="44.46203" lon="2.68722">
        <ele>531.06</ele>
        <time>2015-12-11T14:36:20Z</time>
      </trkpt>
      <trkpt lat="44.46208" lon="2.68723">
        <ele>531.2</ele>
        <time>2015-12-11T14:36:24Z</time>
      </trkpt>
      <trkpt lat="44.46213" lon="2.68723">
        <ele>532.17</ele>
        <time>2015-12-11T14:36:27Z</time>
      </trkpt>
      <trkpt lat="44.46217" lon="2.68722">
        <ele>533.11</ele>
        <time>2015-12-11T14:36:31Z</time>
      </trkpt>
      <trkpt lat="44.46222" lon="2.68719">
        <ele>532.06</ele>
        <time>2015-12-11T14:36:34Z</time>
      </trkpt>
      <trkpt lat="44.46227" lon="2.68719">
        <ele>533.36</ele>
        <time>2015-12-11T14:36:37Z</time>
      </trkpt>
      <trkpt lat="44.46232" lon="2.68717">
        <ele>531.88</ele>
        <time>2015-12-11T14:36:41Z</time>
      </trkpt>
      <trkpt lat="44.46237" lon="2.68723">
        <ele>531.64</ele>
        <time>2015-12-11T14:36:45Z</time>
      </trkpt>
      <trkpt lat="44.46241" lon="2.68721">
        <ele>532.75</ele>
        <time>2015-12-11T14:36:50Z</time>
      </trkpt>
      <trkpt lat="44.46248" lon="2.68722">
        <ele>534.09</ele>
        <time>2015-12-11T14:36:54Z</time>
      </trkpt>
      <trkpt lat="44.46253" lon="2.68721">
        <ele>536.41</ele>
        <time>2015-12-11T14:36:58Z</time>
      </trkpt>
      <trkpt lat="44.46258" lon="2.6872">
        <ele>538.92</ele>
        <time>2015-12-11T14:37:03Z</time>
      </trkpt>
      <trkpt lat="44.46262" lon="2.68719">
        <ele>540.23</ele>
        <time>2015-12-11T14:37:07Z</time>
      </trkpt>
      <trkpt lat="44.46267" lon="2.68719">
        <ele>541.43</ele>
        <time>2015-12-11T14:37:10Z</time>
      </trkpt>
      <trkpt lat="44.46272" lon="2.68721">
        <ele>538.8</ele>
        <time>2015-12-11T14:37:15Z</time>
      </trkpt>
      <trkpt lat="44.46278" lon="2.6872">
        <ele>535.53</ele>
        <time>2015-12-11T14:37:20Z</time>
      </trkpt>
      <trkpt lat="44.46283" lon="2.68721">
        <ele>535.2</ele>
        <time>2015-12-11T14:37:24Z</time>
      </trkpt>
      <trkpt lat="44.46289" lon="2.68722">
        <ele>535.55</ele>
        <time>2015-12-11T14:37:29Z</time>
      </trkpt>
      <trkpt lat="44.46294" lon="2.68723">
        <ele>534.19</ele>
        <time>2015-12-11T14:37:33Z</time>
      </trkpt>
      <trkpt lat="44.46298" lon="2.68724">
        <ele>533.07</ele>
        <time>2015-12-11T14:37:36Z</time>
      </trkpt>
      <trkpt lat="44.46303" lon="2.68726">
        <ele>536.16</ele>
        <time>2015-12-11T14:37:42Z</time>
      </trkpt>
      <trkpt lat="44.46308" lon="2.68728">
        <ele>534.84</ele>
        <time>2015-12-11T14:37:46Z</time>
      </trkpt>
      <trkpt lat="44.46313" lon="2.68725">
        <ele>536.07</ele>
        <time>2015-12-11T14:37:49Z</time>
      </trkpt>
      <trkpt lat="44.46318" lon="2.68726">
        <ele>541.15</ele>
        <time>2015-12-11T14:37:54Z</time>
      </trkpt>
      <trkpt lat="44.46324" lon="2.68723">
        <ele>541.62</ele>
        <time>2015-12-11T14:37:59Z</time>
      </trkpt>
      <trkpt lat="44.46328" lon="2.68719">
        <ele>541.91</ele>
        <time>2015-12-11T14:38:02Z</time>
      </trkpt>
      <trkpt lat="44.46334" lon="2.68719">
        <ele>542.95</ele>
        <time>2015-12-11T14:38:05Z</time>
      </trkpt>
      <trkpt lat="44.4634" lon="2.68716">
        <ele>543.3</ele>
        <time>2015-12-11T14:38:10Z</time>
      </trkpt>
      <trkpt lat="44.46345" lon="2.68712">
        <ele>543.06</ele>
        <time>2015-12-11T14:38:14Z</time>
      </trkpt>
      <trkpt lat="44.46351" lon="2.68711">
        <ele>543.29</ele>
        <time>2015-12-11T14:38:18Z</time>
      </trkpt>
      <trkpt lat="44.46356" lon="2.68709">
        <ele>541.63</ele>
        <time>2015-12-11T14:38:23Z</time>
      </trkpt>
      <trkpt lat="44.4636" lon="2.68707">
        <ele>541.14</ele>
        <time>2015-12-11T14:38:28Z</time>
      </trkpt>
      <trkpt lat="44.46401" lon="2.68696">
        <ele>539.29</ele>
        <time>2015-12-11T14:39:01Z</time>
      </trkpt>
      <trkpt lat="44.46407" lon="2.6869">
        <ele>536.86</ele>
        <time>2015-12-11T14:39:05Z</time>
      </trkpt>
      <trkpt lat="44.46412" lon="2.68689">
        <ele>536.32</ele>
        <time>2015-12-11T14:39:09Z</time>
      </trkpt>
      <trkpt lat="44.46418" lon="2.68686">
        <ele>540.08</ele>
        <time>2015-12-11T14:39:14Z</time>
      </trkpt>
      <trkpt lat="44.46422" lon="2.68683">
        <ele>541.41</ele>
        <time>2015-12-11T14:39:17Z</time>
      </trkpt>
      <trkpt lat="44.46427" lon="2.68685">
        <ele>542.85</ele>
        <time>2015-12-11T14:39:22Z</time>
      </trkpt>
      <trkpt lat="44.46432" lon="2.68683">
        <ele>542.65</ele>
        <time>2015-12-11T14:39:28Z</time>
      </trkpt>
      <trkpt lat="44.46437" lon="2.68684">
        <ele>544.47</ele>
        <time>2015-12-11T14:39:32Z</time>
      </trkpt>
      <trkpt lat="44.46442" lon="2.68686">
        <ele>544.56</ele>
        <time>2015-12-11T14:39:36Z</time>
      </trkpt>
      <trkpt lat="44.46447" lon="2.68691">
        <ele>544.55</ele>
        <time>2015-12-11T14:39:45Z</time>
      </trkpt>
      <trkpt lat="44.4645" lon="2.68696">
        <ele>544.44</ele>
        <time>2015-12-11T14:39:53Z</time>
      </trkpt>
      <trkpt lat="44.46455" lon="2.687">
        <ele>544.05</ele>
        <time>2015-12-11T14:39:57Z</time>
      </trkpt>
      <trkpt lat="44.46459" lon="2.68704">
        <ele>544.37</ele>
        <time>2015-12-11T14:40:01Z</time>
      </trkpt>
      <trkpt lat="44.46463" lon="2.68707">
        <ele>545.74</ele>
        <time>2015-12-11T14:40:05Z</time>
      </trkpt>
      <trkpt lat="44.46467" lon="2.68711">
        <ele>547.14</ele>
        <time>2015-12-11T14:40:18Z</time>
      </trkpt>
      <trkpt lat="44.46468" lon="2.68717">
        <ele>546.42</ele>
        <time>2015-12-11T14:40:32Z</time>
      </trkpt>
      <trkpt lat="44.46471" lon="2.68723">
        <ele>547.94</ele>
        <time>2015-12-11T14:40:36Z</time>
      </trkpt>
      <trkpt lat="44.46472" lon="2.6873">
        <ele>549.66</ele>
        <time>2015-12-11T14:40:40Z</time>
      </trkpt>
      <trkpt lat="44.46473" lon="2.68736">
        <ele>551.08</ele>
        <time>2015-12-11T14:40:43Z</time>
      </trkpt>
      <trkpt lat="44.46474" lon="2.68743">
        <ele>550.94</ele>
        <time>2015-12-11T14:40:47Z</time>
      </trkpt>
      <trkpt lat="44.46477" lon="2.6875">
        <ele>551.58</ele>
        <time>2015-12-11T14:40:51Z</time>
      </trkpt>
      <trkpt lat="44.46478" lon="2.68758">
        <ele>552.06</ele>
        <time>2015-12-11T14:40:55Z</time>
      </trkpt>
      <trkpt lat="44.46482" lon="2.68764">
        <ele>552.64</ele>
        <time>2015-12-11T14:40:59Z</time>
      </trkpt>
      <trkpt lat="44.46482" lon="2.68771">
        <ele>552.27</ele>
        <time>2015-12-11T14:41:04Z</time>
      </trkpt>
      <trkpt lat="44.46485" lon="2.68777">
        <ele>553.62</ele>
        <time>2015-12-11T14:41:08Z</time>
      </trkpt>
      <trkpt lat="44.46487" lon="2.68783">
        <ele>554.43</ele>
        <time>2015-12-11T14:41:12Z</time>
      </trkpt>
      <trkpt lat="44.4649" lon="2.6879">
        <ele>554.51</ele>
        <time>2015-12-11T14:41:17Z</time>
      </trkpt>
      <trkpt lat="44.46494" lon="2.68794">
        <ele>554.36</ele>
        <time>2015-12-11T14:41:21Z</time>
      </trkpt>
      <trkpt lat="44.46497" lon="2.68798">
        <ele>554.82</ele>
        <time>2015-12-11T14:41:24Z</time>
      </trkpt>
      <trkpt lat="44.46502" lon="2.68802">
        <ele>555.34</ele>
        <time>2015-12-11T14:41:28Z</time>
      </trkpt>
      <trkpt lat="44.46507" lon="2.68807">
        <ele>557.17</ele>
        <time>2015-12-11T14:41:32Z</time>
      </trkpt>
      <trkpt lat="44.46511" lon="2.6881">
        <ele>557.67</ele>
        <time>2015-12-11T14:41:35Z</time>
      </trkpt>
      <trkpt lat="44.46514" lon="2.68814">
        <ele>557.11</ele>
        <time>2015-12-11T14:41:39Z</time>
      </trkpt>
      <trkpt lat="44.46516" lon="2.68821">
        <ele>558.7</ele>
        <time>2015-12-11T14:41:47Z</time>
      </trkpt>
      <trkpt lat="44.4652" lon="2.68827">
        <ele>558.77</ele>
        <time>2015-12-11T14:41:52Z</time>
      </trkpt>
      <trkpt lat="44.46524" lon="2.6883">
        <ele>557.86</ele>
        <time>2015-12-11T14:41:56Z</time>
      </trkpt>
      <trkpt lat="44.46529" lon="2.68829">
        <ele>557.58</ele>
        <time>2015-12-11T14:42:00Z</time>
      </trkpt>
      <trkpt lat="44.46533" lon="2.68827">
        <ele>556.43</ele>
        <time>2015-12-11T14:42:04Z</time>
      </trkpt>
      <trkpt lat="44.46538" lon="2.68823">
        <ele>553.69</ele>
        <time>2015-12-11T14:42:09Z</time>
      </trkpt>
      <trkpt lat="44.46542" lon="2.68819">
        <ele>552.68</ele>
        <time>2015-12-11T14:42:14Z</time>
      </trkpt>
      <trkpt lat="44.46545" lon="2.68812">
        <ele>551.97</ele>
        <time>2015-12-11T14:42:18Z</time>
      </trkpt>
      <trkpt lat="44.46547" lon="2.68806">
        <ele>551.07</ele>
        <time>2015-12-11T14:42:21Z</time>
      </trkpt>
      <trkpt lat="44.4655" lon="2.688">
        <ele>549.92</ele>
        <time>2015-12-11T14:42:26Z</time>
      </trkpt>
      <trkpt lat="44.46551" lon="2.68794">
        <ele>549.71</ele>
        <time>2015-12-11T14:42:29Z</time>
      </trkpt>
      <trkpt lat="44.46555" lon="2.68788">
        <ele>551.23</ele>
        <time>2015-12-11T14:42:34Z</time>
      </trkpt>
      <trkpt lat="44.46559" lon="2.68784">
        <ele>550.71</ele>
        <time>2015-12-11T14:42:39Z</time>
      </trkpt>
      <trkpt lat="44.46563" lon="2.68778">
        <ele>549.66</ele>
        <time>2015-12-11T14:42:45Z</time>
      </trkpt>
      <trkpt lat="44.46564" lon="2.68772">
        <ele>548.15</ele>
        <time>2015-12-11T14:42:49Z</time>
      </trkpt>
      <trkpt lat="44.46565" lon="2.68764">
        <ele>546.6</ele>
        <time>2015-12-11T14:42:54Z</time>
      </trkpt>
      <trkpt lat="44.46567" lon="2.68756">
        <ele>545.69</ele>
        <time>2015-12-11T14:42:59Z</time>
      </trkpt>
      <trkpt lat="44.46569" lon="2.6875">
        <ele>545.18</ele>
        <time>2015-12-11T14:43:04Z</time>
      </trkpt>
      <trkpt lat="44.46571" lon="2.68744">
        <ele>544.74</ele>
        <time>2015-12-11T14:43:08Z</time>
      </trkpt>
      <trkpt lat="44.46575" lon="2.6874">
        <ele>543.51</ele>
        <time>2015-12-11T14:43:13Z</time>
      </trkpt>
      <trkpt lat="44.4658" lon="2.68739">
        <ele>542.5</ele>
        <time>2015-12-11T14:43:18Z</time>
      </trkpt>
      <trkpt lat="44.46585" lon="2.6874">
        <ele>541.3</ele>
        <time>2015-12-11T14:43:26Z</time>
      </trkpt>
      <trkpt lat="44.46588" lon="2.68736">
        <ele>540.13</ele>
        <time>2015-12-11T14:44:05Z</time>
      </trkpt>
      <trkpt lat="44.46593" lon="2.68738">
        <ele>540.19</ele>
        <time>2015-12-11T14:44:26Z</time>
      </trkpt>
      <trkpt lat="44.46598" lon="2.68742">
        <ele>539.52</ele>
        <time>2015-12-11T14:44:32Z</time>
      </trkpt>
      <trkpt lat="44.46602" lon="2.68745">
        <ele>538.76</ele>
        <time>2015-12-11T14:44:36Z</time>
      </trkpt>
      <trkpt lat="44.46605" lon="2.68751">
        <ele>534.58</ele>
        <time>2015-12-11T14:44:41Z</time>
      </trkpt>
      <trkpt lat="44.46609" lon="2.68754">
        <ele>535.41</ele>
        <time>2015-12-11T14:44:44Z</time>
      </trkpt>
      <trkpt lat="44.46613" lon="2.6876">
        <ele>537.05</ele>
        <time>2015-12-11T14:44:48Z</time>
      </trkpt>
      <trkpt lat="44.46617" lon="2.68764">
        <ele>534.94</ele>
        <time>2015-12-11T14:44:55Z</time>
      </trkpt>
      <trkpt lat="44.4662" lon="2.68769">
        <ele>535.38</ele>
        <time>2015-12-11T14:44:59Z</time>
      </trkpt>
      <trkpt lat="44.46624" lon="2.68774">
        <ele>535.31</ele>
        <time>2015-12-11T14:45:00Z</time>
      </trkpt>
      <trkpt lat="44.46627" lon="2.68778">
        <ele>537.71</ele>
        <time>2015-12-11T14:45:09Z</time>
      </trkpt>
      <trkpt lat="44.46632" lon="2.68783">
        <ele>536.86</ele>
        <time>2015-12-11T14:45:11Z</time>
      </trkpt>
      <trkpt lat="44.46631" lon="2.68791">
        <ele>536.75</ele>
        <time>2015-12-11T14:45:16Z</time>
      </trkpt>
      <trkpt lat="44.46635" lon="2.68798">
        <ele>529.7</ele>
        <time>2015-12-11T14:45:18Z</time>
      </trkpt>
      <trkpt lat="44.46639" lon="2.68801">
        <ele>528.04</ele>
        <time>2015-12-11T14:45:22Z</time>
      </trkpt>
      <trkpt lat="44.46641" lon="2.68808">
        <ele>527.74</ele>
        <time>2015-12-11T14:45:28Z</time>
      </trkpt>
      <trkpt lat="44.46643" lon="2.68815">
        <ele>529.14</ele>
        <time>2015-12-11T14:45:34Z</time>
      </trkpt>
      <trkpt lat="44.46647" lon="2.68821">
        <ele>528.72</ele>
        <time>2015-12-11T14:45:38Z</time>
      </trkpt>
      <trkpt lat="44.46653" lon="2.68822">
        <ele>528.88</ele>
        <time>2015-12-11T14:45:42Z</time>
      </trkpt>
      <trkpt lat="44.46656" lon="2.68829">
        <ele>525.72</ele>
        <time>2015-12-11T14:45:46Z</time>
      </trkpt>
      <trkpt lat="44.4666" lon="2.68835">
        <ele>523.49</ele>
        <time>2015-12-11T14:45:50Z</time>
      </trkpt>
      <trkpt lat="44.46666" lon="2.68842">
        <ele>522.36</ele>
        <time>2015-12-11T14:45:56Z</time>
      </trkpt>
      <trkpt lat="44.46669" lon="2.68847">
        <ele>527.96</ele>
        <time>2015-12-11T14:46:03Z</time>
      </trkpt>
      <trkpt lat="44.46674" lon="2.6885">
        <ele>527.74</ele>
        <time>2015-12-11T14:46:06Z</time>
      </trkpt>
      <trkpt lat="44.46677" lon="2.68856">
        <ele>525.69</ele>
        <time>2015-12-11T14:46:10Z</time>
      </trkpt>
      <trkpt lat="44.46681" lon="2.68861">
        <ele>524.43</ele>
        <time>2015-12-11T14:46:14Z</time>
      </trkpt>
      <trkpt lat="44.46682" lon="2.68869">
        <ele>524.45</ele>
        <time>2015-12-11T14:46:18Z</time>
      </trkpt>
      <trkpt lat="44.46681" lon="2.68875">
        <ele>526.6</ele>
        <time>2015-12-11T14:46:22Z</time>
      </trkpt>
      <trkpt lat="44.46683" lon="2.68882">
        <ele>526.69</ele>
        <time>2015-12-11T14:46:25Z</time>
      </trkpt>
      <trkpt lat="44.46685" lon="2.68888">
        <ele>525.9</ele>
        <time>2015-12-11T14:46:29Z</time>
      </trkpt>
      <trkpt lat="44.46685" lon="2.68895">
        <ele>526.4</ele>
        <time>2015-12-11T14:46:33Z</time>
      </trkpt>
      <trkpt lat="44.46686" lon="2.68902">
        <ele>527.84</ele>
        <time>2015-12-11T14:46:37Z</time>
      </trkpt>
      <trkpt lat="44.46687" lon="2.68909">
        <ele>530.26</ele>
        <time>2015-12-11T14:46:42Z</time>
      </trkpt>
      <trkpt lat="44.46687" lon="2.68915">
        <ele>531.32</ele>
        <time>2015-12-11T14:46:46Z</time>
      </trkpt>
      <trkpt lat="44.4669" lon="2.68921">
        <ele>531.89</ele>
        <time>2015-12-11T14:46:50Z</time>
      </trkpt>
      <trkpt lat="44.46691" lon="2.68927">
        <ele>532.3</ele>
        <time>2015-12-11T14:46:54Z</time>
      </trkpt>
      <trkpt lat="44.46694" lon="2.68932">
        <ele>533.21</ele>
        <time>2015-12-11T14:47:01Z</time>
      </trkpt>
      <trkpt lat="44.46697" lon="2.68937">
        <ele>533.39</ele>
        <time>2015-12-11T14:47:06Z</time>
      </trkpt>
      <trkpt lat="44.46701" lon="2.68944">
        <ele>534.58</ele>
        <time>2015-12-11T14:47:10Z</time>
      </trkpt>
      <trkpt lat="44.46704" lon="2.6895">
        <ele>533.51</ele>
        <time>2015-12-11T14:47:13Z</time>
      </trkpt>
      <trkpt lat="44.46708" lon="2.68955">
        <ele>532.03</ele>
        <time>2015-12-11T14:47:17Z</time>
      </trkpt>
      <trkpt lat="44.46713" lon="2.6896">
        <ele>531.92</ele>
        <time>2015-12-11T14:47:21Z</time>
      </trkpt>
      <trkpt lat="44.46717" lon="2.68964">
        <ele>532.77</ele>
        <time>2015-12-11T14:47:26Z</time>
      </trkpt>
      <trkpt lat="44.46721" lon="2.68969">
        <ele>531.79</ele>
        <time>2015-12-11T14:47:29Z</time>
      </trkpt>
      <trkpt lat="44.46723" lon="2.68974">
        <ele>530.41</ele>
        <time>2015-12-11T14:47:34Z</time>
      </trkpt>
      <trkpt lat="44.46727" lon="2.6898">
        <ele>528.83</ele>
        <time>2015-12-11T14:47:37Z</time>
      </trkpt>
      <trkpt lat="44.46732" lon="2.68985">
        <ele>533.59</ele>
        <time>2015-12-11T14:47:45Z</time>
      </trkpt>
      <trkpt lat="44.46737" lon="2.68988">
        <ele>532.64</ele>
        <time>2015-12-11T14:47:50Z</time>
      </trkpt>
      <trkpt lat="44.46741" lon="2.68994">
        <ele>530.89</ele>
        <time>2015-12-11T14:47:53Z</time>
      </trkpt>
      <trkpt lat="44.46747" lon="2.68997">
        <ele>531.96</ele>
        <time>2015-12-11T14:47:58Z</time>
      </trkpt>
      <trkpt lat="44.46751" lon="2.69001">
        <ele>534.43</ele>
        <time>2015-12-11T14:48:02Z</time>
      </trkpt>
      <trkpt lat="44.46755" lon="2.69006">
        <ele>533.32</ele>
        <time>2015-12-11T14:48:06Z</time>
      </trkpt>
      <trkpt lat="44.46759" lon="2.69009">
        <ele>532.22</ele>
        <time>2015-12-11T14:48:10Z</time>
      </trkpt>
      <trkpt lat="44.46762" lon="2.69016">
        <ele>533.63</ele>
        <time>2015-12-11T14:48:13Z</time>
      </trkpt>
      <trkpt lat="44.46767" lon="2.69021">
        <ele>534.94</ele>
        <time>2015-12-11T14:48:17Z</time>
      </trkpt>
      <trkpt lat="44.4677" lon="2.69025">
        <ele>536.18</ele>
        <time>2015-12-11T14:48:23Z</time>
      </trkpt>
      <trkpt lat="44.46774" lon="2.69029">
        <ele>538.29</ele>
        <time>2015-12-11T14:48:27Z</time>
      </trkpt>
      <trkpt lat="44.468" lon="2.69041">
        <ele>532.97</ele>
        <time>2015-12-11T14:49:01Z</time>
      </trkpt>
      <trkpt lat="44.46794" lon="2.6904">
        <ele>535.52</ele>
        <time>2015-12-11T14:49:03Z</time>
      </trkpt>
      <trkpt lat="44.46798" lon="2.69045">
        <ele>545.81</ele>
        <time>2015-12-11T14:49:07Z</time>
      </trkpt>
      <trkpt lat="44.46805" lon="2.69042">
        <ele>542.48</ele>
        <time>2015-12-11T14:50:06Z</time>
      </trkpt>
      <trkpt lat="44.46796" lon="2.6904">
        <ele>535.61</ele>
        <time>2015-12-11T14:50:07Z</time>
      </trkpt>
      <trkpt lat="44.46798" lon="2.69033">
        <ele>528.68</ele>
        <time>2015-12-11T14:50:08Z</time>
      </trkpt>
      <trkpt lat="44.46801" lon="2.69039">
        <ele>524.99</ele>
        <time>2015-12-11T14:50:48Z</time>
      </trkpt>
      <trkpt lat="44.46805" lon="2.69043">
        <ele>528.18</ele>
        <time>2015-12-11T14:50:54Z</time>
      </trkpt>
      <trkpt lat="44.46809" lon="2.69047">
        <ele>532.24</ele>
        <time>2015-12-11T14:50:59Z</time>
      </trkpt>
      <trkpt lat="44.46812" lon="2.69052">
        <ele>532.67</ele>
        <time>2015-12-11T14:51:04Z</time>
      </trkpt>
      <trkpt lat="44.46816" lon="2.69057">
        <ele>534.78</ele>
        <time>2015-12-11T14:51:09Z</time>
      </trkpt>
      <trkpt lat="44.4682" lon="2.69061">
        <ele>535.63</ele>
        <time>2015-12-11T14:51:25Z</time>
      </trkpt>
      <trkpt lat="44.46824" lon="2.69063">
        <ele>538.14</ele>
        <time>2015-12-11T14:51:43Z</time>
      </trkpt>
      <trkpt lat="44.46829" lon="2.69066">
        <ele>539.92</ele>
        <time>2015-12-11T14:51:47Z</time>
      </trkpt>
      <trkpt lat="44.46833" lon="2.69072">
        <ele>541.56</ele>
        <time>2015-12-11T14:51:52Z</time>
      </trkpt>
      <trkpt lat="44.46836" lon="2.69078">
        <ele>544.09</ele>
        <time>2015-12-11T14:51:57Z</time>
      </trkpt>
      <trkpt lat="44.46839" lon="2.69082">
        <ele>545.65</ele>
        <time>2015-12-11T14:52:02Z</time>
      </trkpt>
      <trkpt lat="44.46844" lon="2.69086">
        <ele>545.35</ele>
        <time>2015-12-11T14:52:08Z</time>
      </trkpt>
      <trkpt lat="44.46847" lon="2.69092">
        <ele>547.5</ele>
        <time>2015-12-11T14:52:12Z</time>
      </trkpt>
      <trkpt lat="44.46852" lon="2.69094">
        <ele>546.94</ele>
        <time>2015-12-11T14:52:16Z</time>
      </trkpt>
      <trkpt lat="44.46857" lon="2.69098">
        <ele>546.47</ele>
        <time>2015-12-11T14:52:22Z</time>
      </trkpt>
      <trkpt lat="44.46859" lon="2.69103">
        <ele>546.46</ele>
        <time>2015-12-11T14:52:25Z</time>
      </trkpt>
      <trkpt lat="44.46864" lon="2.69109">
        <ele>546.2</ele>
        <time>2015-12-11T14:52:27Z</time>
      </trkpt>
      <trkpt lat="44.46871" lon="2.69109">
        <ele>544.54</ele>
        <time>2015-12-11T14:52:32Z</time>
      </trkpt>
      <trkpt lat="44.46875" lon="2.69115">
        <ele>542.68</ele>
        <time>2015-12-11T14:52:35Z</time>
      </trkpt>
      <trkpt lat="44.46879" lon="2.69116">
        <ele>543.08</ele>
        <time>2015-12-11T14:52:40Z</time>
      </trkpt>
      <trkpt lat="44.46884" lon="2.69119">
        <ele>544.01</ele>
        <time>2015-12-11T14:52:46Z</time>
      </trkpt>
      <trkpt lat="44.46886" lon="2.69125">
        <ele>542.86</ele>
        <time>2015-12-11T14:52:48Z</time>
      </trkpt>
      <trkpt lat="44.46892" lon="2.69126">
        <ele>542.39</ele>
        <time>2015-12-11T14:52:53Z</time>
      </trkpt>
      <trkpt lat="44.46896" lon="2.6913">
        <ele>541.9</ele>
        <time>2015-12-11T14:52:56Z</time>
      </trkpt>
      <trkpt lat="44.46902" lon="2.69135">
        <ele>542.64</ele>
        <time>2015-12-11T14:53:03Z</time>
      </trkpt>
      <trkpt lat="44.46905" lon="2.69139">
        <ele>537.39</ele>
        <time>2015-12-11T14:53:07Z</time>
      </trkpt>
      <trkpt lat="44.46909" lon="2.69143">
        <ele>537.98</ele>
        <time>2015-12-11T14:53:11Z</time>
      </trkpt>
      <trkpt lat="44.46915" lon="2.69145">
        <ele>535.78</ele>
        <time>2015-12-11T14:53:14Z</time>
      </trkpt>
      <trkpt lat="44.46919" lon="2.6915">
        <ele>531.66</ele>
        <time>2015-12-11T14:53:19Z</time>
      </trkpt>
      <trkpt lat="44.4692" lon="2.6916">
        <ele>532.67</ele>
        <time>2015-12-11T14:53:23Z</time>
      </trkpt>
      <trkpt lat="44.4692" lon="2.69167">
        <ele>533.14</ele>
        <time>2015-12-11T14:53:30Z</time>
      </trkpt>
      <trkpt lat="44.4693" lon="2.69172">
        <ele>535.74</ele>
        <time>2015-12-11T14:54:03Z</time>
      </trkpt>
      <trkpt lat="44.46927" lon="2.69179">
        <ele>551.93</ele>
        <time>2015-12-11T14:54:09Z</time>
      </trkpt>
      <trkpt lat="44.46921" lon="2.69183">
        <ele>555.44</ele>
        <time>2015-12-11T14:55:02Z</time>
      </trkpt>
      <trkpt lat="44.46925" lon="2.69185">
        <ele>550.41</ele>
        <time>2015-12-11T14:55:31Z</time>
      </trkpt>
      <trkpt lat="44.4693" lon="2.69179">
        <ele>545.23</ele>
        <time>2015-12-11T14:55:38Z</time>
      </trkpt>
      <trkpt lat="44.46934" lon="2.69172">
        <ele>542.22</ele>
        <time>2015-12-11T14:55:43Z</time>
      </trkpt>
      <trkpt lat="44.46939" lon="2.69166">
        <ele>539.6</ele>
        <time>2015-12-11T14:55:48Z</time>
      </trkpt>
      <trkpt lat="44.46944" lon="2.69165">
        <ele>537.44</ele>
        <time>2015-12-11T14:55:54Z</time>
      </trkpt>
      <trkpt lat="44.46947" lon="2.69159">
        <ele>535.04</ele>
        <time>2015-12-11T14:56:01Z</time>
      </trkpt>
      <trkpt lat="44.46951" lon="2.69155">
        <ele>535.46</ele>
        <time>2015-12-11T14:56:07Z</time>
      </trkpt>
      <trkpt lat="44.46954" lon="2.6915">
        <ele>534.25</ele>
        <time>2015-12-11T14:56:12Z</time>
      </trkpt>
      <trkpt lat="44.46957" lon="2.69143">
        <ele>533.54</ele>
        <time>2015-12-11T14:56:15Z</time>
      </trkpt>
      <trkpt lat="44.46961" lon="2.69142">
        <ele>531.44</ele>
        <time>2015-12-11T14:56:31Z</time>
      </trkpt>
      <trkpt lat="44.46964" lon="2.69147">
        <ele>530.36</ele>
        <time>2015-12-11T14:56:37Z</time>
      </trkpt>
      <trkpt lat="44.4697" lon="2.6915">
        <ele>531.43</ele>
        <time>2015-12-11T14:56:48Z</time>
      </trkpt>
      <trkpt lat="44.46976" lon="2.6915">
        <ele>525.34</ele>
        <time>2015-12-11T14:56:56Z</time>
      </trkpt>
      <trkpt lat="44.46981" lon="2.6915">
        <ele>526.67</ele>
        <time>2015-12-11T14:56:59Z</time>
      </trkpt>
      <trkpt lat="44.46986" lon="2.69152">
        <ele>524.46</ele>
        <time>2015-12-11T14:57:03Z</time>
      </trkpt>
      <trkpt lat="44.4699" lon="2.69155">
        <ele>524.1</ele>
        <time>2015-12-11T14:57:07Z</time>
      </trkpt>
      <trkpt lat="44.46994" lon="2.69159">
        <ele>521.55</ele>
        <time>2015-12-11T14:57:10Z</time>
      </trkpt>
      <trkpt lat="44.46999" lon="2.69159">
        <ele>522.49</ele>
        <time>2015-12-11T14:57:11Z</time>
      </trkpt>
      <trkpt lat="44.47003" lon="2.69159">
        <ele>522.58</ele>
        <time>2015-12-11T14:57:16Z</time>
      </trkpt>
      <trkpt lat="44.47007" lon="2.69163">
        <ele>521.37</ele>
        <time>2015-12-11T14:57:29Z</time>
      </trkpt>
      <trkpt lat="44.47011" lon="2.69166">
        <ele>521.65</ele>
        <time>2015-12-11T14:57:31Z</time>
      </trkpt>
      <trkpt lat="44.47013" lon="2.69176">
        <ele>521.64</ele>
        <time>2015-12-11T14:57:33Z</time>
      </trkpt>
      <trkpt lat="44.47015" lon="2.69182">
        <ele>521.64</ele>
        <time>2015-12-11T14:57:35Z</time>
      </trkpt>
      <trkpt lat="44.4702" lon="2.69179">
        <ele>523.32</ele>
        <time>2015-12-11T14:57:39Z</time>
      </trkpt>
      <trkpt lat="44.47025" lon="2.69179">
        <ele>522.39</ele>
        <time>2015-12-11T14:57:43Z</time>
      </trkpt>
      <trkpt lat="44.4703" lon="2.69185">
        <ele>520.2</ele>
        <time>2015-12-11T14:57:47Z</time>
      </trkpt>
      <trkpt lat="44.47035" lon="2.69187">
        <ele>517.3</ele>
        <time>2015-12-11T14:57:53Z</time>
      </trkpt>
      <trkpt lat="44.47039" lon="2.69191">
        <ele>517.24</ele>
        <time>2015-12-11T14:57:57Z</time>
      </trkpt>
      <trkpt lat="44.47042" lon="2.69196">
        <ele>519.36</ele>
        <time>2015-12-11T14:58:04Z</time>
      </trkpt>
      <trkpt lat="44.47048" lon="2.69198">
        <ele>518.91</ele>
        <time>2015-12-11T14:58:07Z</time>
      </trkpt>
      <trkpt lat="44.47051" lon="2.69203">
        <ele>521.3</ele>
        <time>2015-12-11T14:58:12Z</time>
      </trkpt>
      <trkpt lat="44.47057" lon="2.69208">
        <ele>522.39</ele>
        <time>2015-12-11T14:58:18Z</time>
      </trkpt>
      <trkpt lat="44.47061" lon="2.69212">
        <ele>520.37</ele>
        <time>2015-12-11T14:58:21Z</time>
      </trkpt>
      <trkpt lat="44.47065" lon="2.69215">
        <ele>519.87</ele>
        <time>2015-12-11T14:58:24Z</time>
      </trkpt>
      <trkpt lat="44.47068" lon="2.69221">
        <ele>519.32</ele>
        <time>2015-12-11T14:58:29Z</time>
      </trkpt>
      <trkpt lat="44.47073" lon="2.69222">
        <ele>518.11</ele>
        <time>2015-12-11T14:58:31Z</time>
      </trkpt>
      <trkpt lat="44.47108" lon="2.69247">
        <ele>512.38</ele>
        <time>2015-12-11T14:59:04Z</time>
      </trkpt>
      <trkpt lat="44.47112" lon="2.69251">
        <ele>496.1</ele>
        <time>2015-12-11T14:59:22Z</time>
      </trkpt>
      <trkpt lat="44.47116" lon="2.69254">
        <ele>495.17</ele>
        <time>2015-12-11T14:59:38Z</time>
      </trkpt>
      <trkpt lat="44.47117" lon="2.6926">
        <ele>492.34</ele>
        <time>2015-12-11T14:59:47Z</time>
      </trkpt>
      <trkpt lat="44.47118" lon="2.69267">
        <ele>496.99</ele>
        <time>2015-12-11T14:59:59Z</time>
      </trkpt>
      <trkpt lat="44.47118" lon="2.69274">
        <ele>496.19</ele>
        <time>2015-12-11T15:00:24Z</time>
      </trkpt>
      <trkpt lat="44.47119" lon="2.69281">
        <ele>493.96</ele>
        <time>2015-12-11T15:00:27Z</time>
      </trkpt>
      <trkpt lat="44.47119" lon="2.69288">
        <ele>492.03</ele>
        <time>2015-12-11T15:00:31Z</time>
      </trkpt>
      <trkpt lat="44.47119" lon="2.69295">
        <ele>494.02</ele>
        <time>2015-12-11T15:00:37Z</time>
      </trkpt>
      <trkpt lat="44.47117" lon="2.69301">
        <ele>494.65</ele>
        <time>2015-12-11T15:00:40Z</time>
      </trkpt>
      <trkpt lat="44.47113" lon="2.69298">
        <ele>495.72</ele>
        <time>2015-12-11T15:00:46Z</time>
      </trkpt>
      <trkpt lat="44.47108" lon="2.69301">
        <ele>495.83</ele>
        <time>2015-12-11T15:00:49Z</time>
      </trkpt>
      <trkpt lat="44.47104" lon="2.69306">
        <ele>493.59</ele>
        <time>2015-12-11T15:00:57Z</time>
      </trkpt>
      <trkpt lat="44.47099" lon="2.69306">
        <ele>492.72</ele>
        <time>2015-12-11T15:01:01Z</time>
      </trkpt>
      <trkpt lat="44.47095" lon="2.69311">
        <ele>493.49</ele>
        <time>2015-12-11T15:01:05Z</time>
      </trkpt>
      <trkpt lat="44.47096" lon="2.69318">
        <ele>495.69</ele>
        <time>2015-12-11T15:01:10Z</time>
      </trkpt>
      <trkpt lat="44.47095" lon="2.69326">
        <ele>497.38</ele>
        <time>2015-12-11T15:01:15Z</time>
      </trkpt>
      <trkpt lat="44.47091" lon="2.69334">
        <ele>498.67</ele>
        <time>2015-12-11T15:01:17Z</time>
      </trkpt>
      <trkpt lat="44.47089" lon="2.69339">
        <ele>498.49</ele>
        <time>2015-12-11T15:01:24Z</time>
      </trkpt>
      <trkpt lat="44.47085" lon="2.69344">
        <ele>502.07</ele>
        <time>2015-12-11T15:01:30Z</time>
      </trkpt>
      <trkpt lat="44.47081" lon="2.69349">
        <ele>500.66</ele>
        <time>2015-12-11T15:01:38Z</time>
      </trkpt>
      <trkpt lat="44.47077" lon="2.69353">
        <ele>503.04</ele>
        <time>2015-12-11T15:01:44Z</time>
      </trkpt>
      <trkpt lat="44.47072" lon="2.69355">
        <ele>503.82</ele>
        <time>2015-12-11T15:01:52Z</time>
      </trkpt>
      <trkpt lat="44.47071" lon="2.69361">
        <ele>500.88</ele>
        <time>2015-12-11T15:02:14Z</time>
      </trkpt>
      <trkpt lat="44.47065" lon="2.69364">
        <ele>497.97</ele>
        <time>2015-12-11T15:02:21Z</time>
      </trkpt>
      <trkpt lat="44.4706" lon="2.69369">
        <ele>497.63</ele>
        <time>2015-12-11T15:02:24Z</time>
      </trkpt>
      <trkpt lat="44.47055" lon="2.69371">
        <ele>496.77</ele>
        <time>2015-12-11T15:02:29Z</time>
      </trkpt>
      <trkpt lat="44.47053" lon="2.69377">
        <ele>496.53</ele>
        <time>2015-12-11T15:02:39Z</time>
      </trkpt>
      <trkpt lat="44.47049" lon="2.69381">
        <ele>497.43</ele>
        <time>2015-12-11T15:02:46Z</time>
      </trkpt>
      <trkpt lat="44.47044" lon="2.69383">
        <ele>501.74</ele>
        <time>2015-12-11T15:02:53Z</time>
      </trkpt>
      <trkpt lat="44.47039" lon="2.69383">
        <ele>500.85</ele>
        <time>2015-12-11T15:02:56Z</time>
      </trkpt>
      <trkpt lat="44.47034" lon="2.69382">
        <ele>501</ele>
        <time>2015-12-11T15:03:01Z</time>
      </trkpt>
      <trkpt lat="44.47029" lon="2.69384">
        <ele>500.16</ele>
        <time>2015-12-11T15:03:05Z</time>
      </trkpt>
      <trkpt lat="44.47024" lon="2.69386">
        <ele>504.97</ele>
        <time>2015-12-11T15:03:11Z</time>
      </trkpt>
      <trkpt lat="44.47018" lon="2.69389">
        <ele>504.19</ele>
        <time>2015-12-11T15:03:17Z</time>
      </trkpt>
      <trkpt lat="44.47014" lon="2.6939">
        <ele>503.91</ele>
        <time>2015-12-11T15:03:20Z</time>
      </trkpt>
      <trkpt lat="44.47008" lon="2.69394">
        <ele>503.46</ele>
        <time>2015-12-11T15:03:25Z</time>
      </trkpt>
      <trkpt lat="44.47001" lon="2.69391">
        <ele>500.19</ele>
        <time>2015-12-11T15:03:30Z</time>
      </trkpt>
      <trkpt lat="44.47001" lon="2.69399">
        <ele>499.57</ele>
        <time>2015-12-11T15:03:31Z</time>
      </trkpt>
      <trkpt lat="44.46962" lon="2.6942">
        <ele>497.7</ele>
        <time>2015-12-11T15:04:04Z</time>
      </trkpt>
      <trkpt lat="44.46959" lon="2.69425">
        <ele>499.73</ele>
        <time>2015-12-11T15:04:08Z</time>
      </trkpt>
      <trkpt lat="44.46955" lon="2.6943">
        <ele>503.01</ele>
        <time>2015-12-11T15:04:11Z</time>
      </trkpt>
      <trkpt lat="44.4695" lon="2.69434">
        <ele>507.43</ele>
        <time>2015-12-11T15:04:16Z</time>
      </trkpt>
      <trkpt lat="44.46946" lon="2.69435">
        <ele>509.81</ele>
        <time>2015-12-11T15:04:20Z</time>
      </trkpt>
      <trkpt lat="44.46941" lon="2.69437">
        <ele>510.44</ele>
        <time>2015-12-11T15:04:25Z</time>
      </trkpt>
      <trkpt lat="44.46937" lon="2.69442">
        <ele>509.4</ele>
        <time>2015-12-11T15:04:28Z</time>
      </trkpt>
      <trkpt lat="44.46935" lon="2.69448">
        <ele>504.42</ele>
        <time>2015-12-11T15:04:34Z</time>
      </trkpt>
      <trkpt lat="44.46932" lon="2.69454">
        <ele>501.93</ele>
        <time>2015-12-11T15:04:36Z</time>
      </trkpt>
      <trkpt lat="44.46929" lon="2.69461">
        <ele>501.26</ele>
        <time>2015-12-11T15:04:43Z</time>
      </trkpt>
      <trkpt lat="44.46927" lon="2.69467">
        <ele>502.99</ele>
        <time>2015-12-11T15:04:51Z</time>
      </trkpt>
      <trkpt lat="44.46927" lon="2.69473">
        <ele>507.18</ele>
        <time>2015-12-11T15:04:55Z</time>
      </trkpt>
      <trkpt lat="44.46925" lon="2.6948">
        <ele>509.87</ele>
        <time>2015-12-11T15:05:05Z</time>
      </trkpt>
      <trkpt lat="44.4692" lon="2.69486">
        <ele>509.18</ele>
        <time>2015-12-11T15:05:09Z</time>
      </trkpt>
      <trkpt lat="44.46918" lon="2.69491">
        <ele>508.47</ele>
        <time>2015-12-11T15:05:12Z</time>
      </trkpt>
      <trkpt lat="44.46914" lon="2.69497">
        <ele>505.46</ele>
        <time>2015-12-11T15:05:17Z</time>
      </trkpt>
      <trkpt lat="44.4691" lon="2.69502">
        <ele>504.58</ele>
        <time>2015-12-11T15:05:21Z</time>
      </trkpt>
      <trkpt lat="44.46908" lon="2.69509">
        <ele>509.73</ele>
        <time>2015-12-11T15:05:24Z</time>
      </trkpt>
      <trkpt lat="44.46907" lon="2.69516">
        <ele>514.68</ele>
        <time>2015-12-11T15:05:29Z</time>
      </trkpt>
      <trkpt lat="44.46905" lon="2.69523">
        <ele>521.81</ele>
        <time>2015-12-11T15:05:36Z</time>
      </trkpt>
      <trkpt lat="44.46903" lon="2.6953">
        <ele>521.54</ele>
        <time>2015-12-11T15:05:40Z</time>
      </trkpt>
      <trkpt lat="44.469" lon="2.69536">
        <ele>521.99</ele>
        <time>2015-12-11T15:05:42Z</time>
      </trkpt>
      <trkpt lat="44.46897" lon="2.69541">
        <ele>523.05</ele>
        <time>2015-12-11T15:05:44Z</time>
      </trkpt>
      <trkpt lat="44.46894" lon="2.69548">
        <ele>523.58</ele>
        <time>2015-12-11T15:05:47Z</time>
      </trkpt>
      <trkpt lat="44.4689" lon="2.69551">
        <ele>524.49</ele>
        <time>2015-12-11T15:05:51Z</time>
      </trkpt>
      <trkpt lat="44.46886" lon="2.69556">
        <ele>521.32</ele>
        <time>2015-12-11T15:05:56Z</time>
      </trkpt>
      <trkpt lat="44.46884" lon="2.69564">
        <ele>520.3</ele>
        <time>2015-12-11T15:06:00Z</time>
      </trkpt>
      <trkpt lat="44.46882" lon="2.69571">
        <ele>520.07</ele>
        <time>2015-12-11T15:06:03Z</time>
      </trkpt>
      <trkpt lat="44.46881" lon="2.69577">
        <ele>523.07</ele>
        <time>2015-12-11T15:06:07Z</time>
      </trkpt>
      <trkpt lat="44.4688" lon="2.69584">
        <ele>531.81</ele>
        <time>2015-12-11T15:06:12Z</time>
      </trkpt>
      <trkpt lat="44.46879" lon="2.69592">
        <ele>535.71</ele>
        <time>2015-12-11T15:06:15Z</time>
      </trkpt>
      <trkpt lat="44.46879" lon="2.69599">
        <ele>535.9</ele>
        <time>2015-12-11T15:06:19Z</time>
      </trkpt>
      <trkpt lat="44.46877" lon="2.69605">
        <ele>536.26</ele>
        <time>2015-12-11T15:06:24Z</time>
      </trkpt>
      <trkpt lat="44.46875" lon="2.69614">
        <ele>530.55</ele>
        <time>2015-12-11T15:06:28Z</time>
      </trkpt>
      <trkpt lat="44.46872" lon="2.69619">
        <ele>526.5</ele>
        <time>2015-12-11T15:06:32Z</time>
      </trkpt>
      <trkpt lat="44.46871" lon="2.69629">
        <ele>525.9</ele>
        <time>2015-12-11T15:06:36Z</time>
      </trkpt>
      <trkpt lat="44.4687" lon="2.69635">
        <ele>527.18</ele>
        <time>2015-12-11T15:06:42Z</time>
      </trkpt>
      <trkpt lat="44.46868" lon="2.69643">
        <ele>526.74</ele>
        <time>2015-12-11T15:06:49Z</time>
      </trkpt>
      <trkpt lat="44.46866" lon="2.69649">
        <ele>526.13</ele>
        <time>2015-12-11T15:06:53Z</time>
      </trkpt>
      <trkpt lat="44.46861" lon="2.69655">
        <ele>524.34</ele>
        <time>2015-12-11T15:06:57Z</time>
      </trkpt>
      <trkpt lat="44.46862" lon="2.69662">
        <ele>522.21</ele>
        <time>2015-12-11T15:07:02Z</time>
      </trkpt>
      <trkpt lat="44.46863" lon="2.69669">
        <ele>522.8</ele>
        <time>2015-12-11T15:07:05Z</time>
      </trkpt>
      <trkpt lat="44.46862" lon="2.69678">
        <ele>520.11</ele>
        <time>2015-12-11T15:07:10Z</time>
      </trkpt>
      <trkpt lat="44.4686" lon="2.69685">
        <ele>518.7</ele>
        <time>2015-12-11T15:07:13Z</time>
      </trkpt>
      <trkpt lat="44.46856" lon="2.6969">
        <ele>515.69</ele>
        <time>2015-12-11T15:07:16Z</time>
      </trkpt>
      <trkpt lat="44.46855" lon="2.69696">
        <ele>514.81</ele>
        <time>2015-12-11T15:07:20Z</time>
      </trkpt>
      <trkpt lat="44.46852" lon="2.69704">
        <ele>517.39</ele>
        <time>2015-12-11T15:07:27Z</time>
      </trkpt>
      <trkpt lat="44.46848" lon="2.69709">
        <ele>518.48</ele>
        <time>2015-12-11T15:07:30Z</time>
      </trkpt>
      <trkpt lat="44.46845" lon="2.69714">
        <ele>518.13</ele>
        <time>2015-12-11T15:07:32Z</time>
      </trkpt>
      <trkpt lat="44.46842" lon="2.69721">
        <ele>519.47</ele>
        <time>2015-12-11T15:07:39Z</time>
      </trkpt>
      <trkpt lat="44.4684" lon="2.69727">
        <ele>520.7</ele>
        <time>2015-12-11T15:07:43Z</time>
      </trkpt>
      <trkpt lat="44.46835" lon="2.69731">
        <ele>517.25</ele>
        <time>2015-12-11T15:07:47Z</time>
      </trkpt>
      <trkpt lat="44.4683" lon="2.69736">
        <ele>515.78</ele>
        <time>2015-12-11T15:07:50Z</time>
      </trkpt>
      <trkpt lat="44.46826" lon="2.6974">
        <ele>516.24</ele>
        <time>2015-12-11T15:07:54Z</time>
      </trkpt>
      <trkpt lat="44.46822" lon="2.69743">
        <ele>514.82</ele>
        <time>2015-12-11T15:07:59Z</time>
      </trkpt>
      <trkpt lat="44.46817" lon="2.69744">
        <ele>515.49</ele>
        <time>2015-12-11T15:08:01Z</time>
      </trkpt>
      <trkpt lat="44.46813" lon="2.69749">
        <ele>514.37</ele>
        <time>2015-12-11T15:08:05Z</time>
      </trkpt>
      <trkpt lat="44.46809" lon="2.69751">
        <ele>513.02</ele>
        <time>2015-12-11T15:08:09Z</time>
      </trkpt>
      <trkpt lat="44.46803" lon="2.69757">
        <ele>511.36</ele>
        <time>2015-12-11T15:08:12Z</time>
      </trkpt>
      <trkpt lat="44.46797" lon="2.69763">
        <ele>508.21</ele>
        <time>2015-12-11T15:08:20Z</time>
      </trkpt>
      <trkpt lat="44.46795" lon="2.69769">
        <ele>508.19</ele>
        <time>2015-12-11T15:08:23Z</time>
      </trkpt>
      <trkpt lat="44.4679" lon="2.69775">
        <ele>509.64</ele>
        <time>2015-12-11T15:08:27Z</time>
      </trkpt>
      <trkpt lat="44.46785" lon="2.6978">
        <ele>510.27</ele>
        <time>2015-12-11T15:08:30Z</time>
      </trkpt>
      <trkpt lat="44.46749" lon="2.69822">
        <ele>504.54</ele>
        <time>2015-12-11T15:09:04Z</time>
      </trkpt>
      <trkpt lat="44.46745" lon="2.69826">
        <ele>496.95</ele>
        <time>2015-12-11T15:09:12Z</time>
      </trkpt>
      <trkpt lat="44.46743" lon="2.69834">
        <ele>501.1</ele>
        <time>2015-12-11T15:09:17Z</time>
      </trkpt>
      <trkpt lat="44.4674" lon="2.6984">
        <ele>501.26</ele>
        <time>2015-12-11T15:09:20Z</time>
      </trkpt>
      <trkpt lat="44.46736" lon="2.69844">
        <ele>504.3</ele>
        <time>2015-12-11T15:09:28Z</time>
      </trkpt>
      <trkpt lat="44.46732" lon="2.69848">
        <ele>503.23</ele>
        <time>2015-12-11T15:09:33Z</time>
      </trkpt>
      <trkpt lat="44.46727" lon="2.69855">
        <ele>499.02</ele>
        <time>2015-12-11T15:09:37Z</time>
      </trkpt>
      <trkpt lat="44.46724" lon="2.69859">
        <ele>496.84</ele>
        <time>2015-12-11T15:09:39Z</time>
      </trkpt>
      <trkpt lat="44.4672" lon="2.69864">
        <ele>492.03</ele>
        <time>2015-12-11T15:09:46Z</time>
      </trkpt>
      <trkpt lat="44.46716" lon="2.69868">
        <ele>493.5</ele>
        <time>2015-12-11T15:09:49Z</time>
      </trkpt>
      <trkpt lat="44.46711" lon="2.69873">
        <ele>495.32</ele>
        <time>2015-12-11T15:09:54Z</time>
      </trkpt>
      <trkpt lat="44.46708" lon="2.69879">
        <ele>494.96</ele>
        <time>2015-12-11T15:09:57Z</time>
      </trkpt>
      <trkpt lat="44.46703" lon="2.69884">
        <ele>496.75</ele>
        <time>2015-12-11T15:10:01Z</time>
      </trkpt>
      <trkpt lat="44.46701" lon="2.69889">
        <ele>497.15</ele>
        <time>2015-12-11T15:10:04Z</time>
      </trkpt>
      <trkpt lat="44.46699" lon="2.69896">
        <ele>493.72</ele>
        <time>2015-12-11T15:10:10Z</time>
      </trkpt>
      <trkpt lat="44.46696" lon="2.69903">
        <ele>492.96</ele>
        <time>2015-12-11T15:10:13Z</time>
      </trkpt>
      <trkpt lat="44.46693" lon="2.69908">
        <ele>494.37</ele>
        <time>2015-12-11T15:10:17Z</time>
      </trkpt>
      <trkpt lat="44.4669" lon="2.69915">
        <ele>493.9</ele>
        <time>2015-12-11T15:10:21Z</time>
      </trkpt>
      <trkpt lat="44.46686" lon="2.6992">
        <ele>490.32</ele>
        <time>2015-12-11T15:10:27Z</time>
      </trkpt>
      <trkpt lat="44.46683" lon="2.69926">
        <ele>488.51</ele>
        <time>2015-12-11T15:10:30Z</time>
      </trkpt>
      <trkpt lat="44.4668" lon="2.69931">
        <ele>487.05</ele>
        <time>2015-12-11T15:10:35Z</time>
      </trkpt>
      <trkpt lat="44.46675" lon="2.69934">
        <ele>484.39</ele>
        <time>2015-12-11T15:10:38Z</time>
      </trkpt>
      <trkpt lat="44.46671" lon="2.6994">
        <ele>479.99</ele>
        <time>2015-12-11T15:10:43Z</time>
      </trkpt>
      <trkpt lat="44.46669" lon="2.69945">
        <ele>480.51</ele>
        <time>2015-12-11T15:10:45Z</time>
      </trkpt>
      <trkpt lat="44.46667" lon="2.69952">
        <ele>485.07</ele>
        <time>2015-12-11T15:10:51Z</time>
      </trkpt>
      <trkpt lat="44.46663" lon="2.69955">
        <ele>486.7</ele>
        <time>2015-12-11T15:10:54Z</time>
      </trkpt>
      <trkpt lat="44.46661" lon="2.69963">
        <ele>488.69</ele>
        <time>2015-12-11T15:10:57Z</time>
      </trkpt>
      <trkpt lat="44.46661" lon="2.69971">
        <ele>489.52</ele>
        <time>2015-12-11T15:11:03Z</time>
      </trkpt>
      <trkpt lat="44.46658" lon="2.69976">
        <ele>489.96</ele>
        <time>2015-12-11T15:11:06Z</time>
      </trkpt>
      <trkpt lat="44.46655" lon="2.69984">
        <ele>488.13</ele>
        <time>2015-12-11T15:11:11Z</time>
      </trkpt>
      <trkpt lat="44.46653" lon="2.69991">
        <ele>488.41</ele>
        <time>2015-12-11T15:11:17Z</time>
      </trkpt>
      <trkpt lat="44.46649" lon="2.69997">
        <ele>487.16</ele>
        <time>2015-12-11T15:11:22Z</time>
      </trkpt>
      <trkpt lat="44.46648" lon="2.70004">
        <ele>487.05</ele>
        <time>2015-12-11T15:11:26Z</time>
      </trkpt>
      <trkpt lat="44.46646" lon="2.70012">
        <ele>489.14</ele>
        <time>2015-12-11T15:11:31Z</time>
      </trkpt>
      <trkpt lat="44.46644" lon="2.7002">
        <ele>488.65</ele>
        <time>2015-12-11T15:11:35Z</time>
      </trkpt>
      <trkpt lat="44.46642" lon="2.70028">
        <ele>487.79</ele>
        <time>2015-12-11T15:11:41Z</time>
      </trkpt>
      <trkpt lat="44.46639" lon="2.70034">
        <ele>487.61</ele>
        <time>2015-12-11T15:11:44Z</time>
      </trkpt>
      <trkpt lat="44.46638" lon="2.70041">
        <ele>486.52</ele>
        <time>2015-12-11T15:11:48Z</time>
      </trkpt>
      <trkpt lat="44.46634" lon="2.70047">
        <ele>488.08</ele>
        <time>2015-12-11T15:11:52Z</time>
      </trkpt>
      <trkpt lat="44.4663" lon="2.70051">
        <ele>488.39</ele>
        <time>2015-12-11T15:11:56Z</time>
      </trkpt>
      <trkpt lat="44.46627" lon="2.70056">
        <ele>489.71</ele>
        <time>2015-12-11T15:12:00Z</time>
      </trkpt>
      <trkpt lat="44.46623" lon="2.70061">
        <ele>491.83</ele>
        <time>2015-12-11T15:12:04Z</time>
      </trkpt>
      <trkpt lat="44.46621" lon="2.70067">
        <ele>491.37</ele>
        <time>2015-12-11T15:12:08Z</time>
      </trkpt>
      <trkpt lat="44.46618" lon="2.70073">
        <ele>492.97</ele>
        <time>2015-12-11T15:12:12Z</time>
      </trkpt>
      <trkpt lat="44.46615" lon="2.70079">
        <ele>495.09</ele>
        <time>2015-12-11T15:12:16Z</time>
      </trkpt>
      <trkpt lat="44.46611" lon="2.70085">
        <ele>496.37</ele>
        <time>2015-12-11T15:12:22Z</time>
      </trkpt>
      <trkpt lat="44.46607" lon="2.70089">
        <ele>497.19</ele>
        <time>2015-12-11T15:12:28Z</time>
      </trkpt>
      <trkpt lat="44.46602" lon="2.70092">
        <ele>496.02</ele>
        <time>2015-12-11T15:12:33Z</time>
      </trkpt>
      <trkpt lat="44.46599" lon="2.70098">
        <ele>493.2</ele>
        <time>2015-12-11T15:12:37Z</time>
      </trkpt>
      <trkpt lat="44.46595" lon="2.70101">
        <ele>491.2</ele>
        <time>2015-12-11T15:12:42Z</time>
      </trkpt>
      <trkpt lat="44.4659" lon="2.70105">
        <ele>492.37</ele>
        <time>2015-12-11T15:12:45Z</time>
      </trkpt>
      <trkpt lat="44.46586" lon="2.70109">
        <ele>493.54</ele>
        <time>2015-12-11T15:12:49Z</time>
      </trkpt>
      <trkpt lat="44.46581" lon="2.70115">
        <ele>495.69</ele>
        <time>2015-12-11T15:12:52Z</time>
      </trkpt>
      <trkpt lat="44.46578" lon="2.70119">
        <ele>496.97</ele>
        <time>2015-12-11T15:12:57Z</time>
      </trkpt>
      <trkpt lat="44.46574" lon="2.70123">
        <ele>499.38</ele>
        <time>2015-12-11T15:13:01Z</time>
      </trkpt>
      <trkpt lat="44.4657" lon="2.7013">
        <ele>500.26</ele>
        <time>2015-12-11T15:13:05Z</time>
      </trkpt>
      <trkpt lat="44.46567" lon="2.70136">
        <ele>499.37</ele>
        <time>2015-12-11T15:13:10Z</time>
      </trkpt>
      <trkpt lat="44.46564" lon="2.70143">
        <ele>496.93</ele>
        <time>2015-12-11T15:13:13Z</time>
      </trkpt>
      <trkpt lat="44.4656" lon="2.7015">
        <ele>495.5</ele>
        <time>2015-12-11T15:13:19Z</time>
      </trkpt>
      <trkpt lat="44.46558" lon="2.70156">
        <ele>494.52</ele>
        <time>2015-12-11T15:13:24Z</time>
      </trkpt>
      <trkpt lat="44.46554" lon="2.70163">
        <ele>491.84</ele>
        <time>2015-12-11T15:13:28Z</time>
      </trkpt>
      <trkpt lat="44.46523" lon="2.70209">
        <ele>498.28</ele>
        <time>2015-12-11T15:14:05Z</time>
      </trkpt>
      <trkpt lat="44.46521" lon="2.70216">
        <ele>497.2</ele>
        <time>2015-12-11T15:14:08Z</time>
      </trkpt>
      <trkpt lat="44.4652" lon="2.70223">
        <ele>495.21</ele>
        <time>2015-12-11T15:14:12Z</time>
      </trkpt>
      <trkpt lat="44.46517" lon="2.7023">
        <ele>494.18</ele>
        <time>2015-12-11T15:14:18Z</time>
      </trkpt>
      <trkpt lat="44.46516" lon="2.70236">
        <ele>497.28</ele>
        <time>2015-12-11T15:14:22Z</time>
      </trkpt>
      <trkpt lat="44.46515" lon="2.70243">
        <ele>500.91</ele>
        <time>2015-12-11T15:14:25Z</time>
      </trkpt>
      <trkpt lat="44.46514" lon="2.7025">
        <ele>500.23</ele>
        <time>2015-12-11T15:14:32Z</time>
      </trkpt>
      <trkpt lat="44.46515" lon="2.70258">
        <ele>498.6</ele>
        <time>2015-12-11T15:14:35Z</time>
      </trkpt>
      <trkpt lat="44.46515" lon="2.70265">
        <ele>497.08</ele>
        <time>2015-12-11T15:14:39Z</time>
      </trkpt>
      <trkpt lat="44.46513" lon="2.70272">
        <ele>497.46</ele>
        <time>2015-12-11T15:14:44Z</time>
      </trkpt>
      <trkpt lat="44.46512" lon="2.70279">
        <ele>497.27</ele>
        <time>2015-12-11T15:14:47Z</time>
      </trkpt>
      <trkpt lat="44.46512" lon="2.70287">
        <ele>501.32</ele>
        <time>2015-12-11T15:14:53Z</time>
      </trkpt>
      <trkpt lat="44.4651" lon="2.70293">
        <ele>501.76</ele>
        <time>2015-12-11T15:14:56Z</time>
      </trkpt>
      <trkpt lat="44.46509" lon="2.70301">
        <ele>503.6</ele>
        <time>2015-12-11T15:15:01Z</time>
      </trkpt>
      <trkpt lat="44.46509" lon="2.70308">
        <ele>500.68</ele>
        <time>2015-12-11T15:15:06Z</time>
      </trkpt>
      <trkpt lat="44.46509" lon="2.70316">
        <ele>498.62</ele>
        <time>2015-12-11T15:15:10Z</time>
      </trkpt>
      <trkpt lat="44.46507" lon="2.70322">
        <ele>497.88</ele>
        <time>2015-12-11T15:15:13Z</time>
      </trkpt>
      <trkpt lat="44.46506" lon="2.70328">
        <ele>498.61</ele>
        <time>2015-12-11T15:15:17Z</time>
      </trkpt>
      <trkpt lat="44.46507" lon="2.70336">
        <ele>497.76</ele>
        <time>2015-12-11T15:15:20Z</time>
      </trkpt>
      <trkpt lat="44.46509" lon="2.70343">
        <ele>495.29</ele>
        <time>2015-12-11T15:15:26Z</time>
      </trkpt>
      <trkpt lat="44.4651" lon="2.70351">
        <ele>494.19</ele>
        <time>2015-12-11T15:15:31Z</time>
      </trkpt>
      <trkpt lat="44.46513" lon="2.70357">
        <ele>493.76</ele>
        <time>2015-12-11T15:15:40Z</time>
      </trkpt>
      <trkpt lat="44.46516" lon="2.70361">
        <ele>494.29</ele>
        <time>2015-12-11T15:16:31Z</time>
      </trkpt>
      <trkpt lat="44.46515" lon="2.70368">
        <ele>495.82</ele>
        <time>2015-12-11T15:16:34Z</time>
      </trkpt>
      <trkpt lat="44.46515" lon="2.70376">
        <ele>496.81</ele>
        <time>2015-12-11T15:16:37Z</time>
      </trkpt>
      <trkpt lat="44.46516" lon="2.70383">
        <ele>496.63</ele>
        <time>2015-12-11T15:16:42Z</time>
      </trkpt>
      <trkpt lat="44.46522" lon="2.70387">
        <ele>498.32</ele>
        <time>2015-12-11T15:16:50Z</time>
      </trkpt>
      <trkpt lat="44.46519" lon="2.70393">
        <ele>496.96</ele>
        <time>2015-12-11T15:16:59Z</time>
      </trkpt>
      <trkpt lat="44.46518" lon="2.704">
        <ele>499.39</ele>
        <time>2015-12-11T15:17:04Z</time>
      </trkpt>
      <trkpt lat="44.46517" lon="2.70406">
        <ele>500.35</ele>
        <time>2015-12-11T15:17:07Z</time>
      </trkpt>
      <trkpt lat="44.46515" lon="2.70415">
        <ele>497.61</ele>
        <time>2015-12-11T15:17:12Z</time>
      </trkpt>
      <trkpt lat="44.46519" lon="2.70418">
        <ele>496.07</ele>
        <time>2015-12-11T15:17:16Z</time>
      </trkpt>
      <trkpt lat="44.46515" lon="2.70422">
        <ele>499.39</ele>
        <time>2015-12-11T15:18:18Z</time>
      </trkpt>
      <trkpt lat="44.46511" lon="2.70427">
        <ele>499.8</ele>
        <time>2015-12-11T15:18:24Z</time>
      </trkpt>
      <trkpt lat="44.46508" lon="2.70432">
        <ele>502.04</ele>
        <time>2015-12-11T15:18:28Z</time>
      </trkpt>
      <trkpt lat="44.46505" lon="2.70438">
        <ele>502.92</ele>
        <time>2015-12-11T15:18:32Z</time>
      </trkpt>
      <trkpt lat="44.46478" lon="2.70471">
        <ele>503.68</ele>
        <time>2015-12-11T15:19:04Z</time>
      </trkpt>
      <trkpt lat="44.46477" lon="2.70481">
        <ele>498.5</ele>
        <time>2015-12-11T15:19:06Z</time>
      </trkpt>
      <trkpt lat="44.46472" lon="2.70484">
        <ele>502.36</ele>
        <time>2015-12-11T15:19:10Z</time>
      </trkpt>
      <trkpt lat="44.46467" lon="2.70488">
        <ele>500.57</ele>
        <time>2015-12-11T15:19:16Z</time>
      </trkpt>
      <trkpt lat="44.46464" lon="2.70494">
        <ele>498.85</ele>
        <time>2015-12-11T15:19:18Z</time>
      </trkpt>
      <trkpt lat="44.46462" lon="2.70501">
        <ele>498.17</ele>
        <time>2015-12-11T15:19:22Z</time>
      </trkpt>
      <trkpt lat="44.4646" lon="2.70507">
        <ele>496.46</ele>
        <time>2015-12-11T15:19:25Z</time>
      </trkpt>
      <trkpt lat="44.46457" lon="2.70513">
        <ele>499.03</ele>
        <time>2015-12-11T15:19:28Z</time>
      </trkpt>
      <trkpt lat="44.46456" lon="2.70519">
        <ele>497.72</ele>
        <time>2015-12-11T15:19:32Z</time>
      </trkpt>
      <trkpt lat="44.46453" lon="2.70525">
        <ele>499.75</ele>
        <time>2015-12-11T15:19:35Z</time>
      </trkpt>
      <trkpt lat="44.46449" lon="2.7053">
        <ele>500.48</ele>
        <time>2015-12-11T15:19:40Z</time>
      </trkpt>
      <trkpt lat="44.46446" lon="2.70536">
        <ele>501.32</ele>
        <time>2015-12-11T15:19:43Z</time>
      </trkpt>
      <trkpt lat="44.46443" lon="2.70543">
        <ele>501.97</ele>
        <time>2015-12-11T15:19:48Z</time>
      </trkpt>
      <trkpt lat="44.46441" lon="2.70549">
        <ele>505.3</ele>
        <time>2015-12-11T15:19:53Z</time>
      </trkpt>
      <trkpt lat="44.46438" lon="2.70554">
        <ele>506.35</ele>
        <time>2015-12-11T15:19:56Z</time>
      </trkpt>
      <trkpt lat="44.46436" lon="2.70561">
        <ele>506.74</ele>
        <time>2015-12-11T15:20:00Z</time>
      </trkpt>
      <trkpt lat="44.46432" lon="2.70566">
        <ele>506.55</ele>
        <time>2015-12-11T15:20:05Z</time>
      </trkpt>
      <trkpt lat="44.4643" lon="2.70572">
        <ele>511.15</ele>
        <time>2015-12-11T15:20:11Z</time>
      </trkpt>
      <trkpt lat="44.46429" lon="2.7058">
        <ele>512.55</ele>
        <time>2015-12-11T15:20:15Z</time>
      </trkpt>
      <trkpt lat="44.46427" lon="2.70586">
        <ele>512.32</ele>
        <time>2015-12-11T15:20:18Z</time>
      </trkpt>
      <trkpt lat="44.46428" lon="2.70592">
        <ele>513.27</ele>
        <time>2015-12-11T15:20:22Z</time>
      </trkpt>
      <trkpt lat="44.46429" lon="2.70602">
        <ele>512.43</ele>
        <time>2015-12-11T15:20:27Z</time>
      </trkpt>
      <trkpt lat="44.46431" lon="2.7061">
        <ele>510.26</ele>
        <time>2015-12-11T15:20:31Z</time>
      </trkpt>
      <trkpt lat="44.46431" lon="2.70616">
        <ele>509.32</ele>
        <time>2015-12-11T15:20:33Z</time>
      </trkpt>
      <trkpt lat="44.46434" lon="2.70622">
        <ele>509.73</ele>
        <time>2015-12-11T15:20:37Z</time>
      </trkpt>
      <trkpt lat="44.46437" lon="2.70628">
        <ele>509.14</ele>
        <time>2015-12-11T15:20:41Z</time>
      </trkpt>
      <trkpt lat="44.46439" lon="2.70633">
        <ele>508.49</ele>
        <time>2015-12-11T15:20:45Z</time>
      </trkpt>
      <trkpt lat="44.46442" lon="2.70639">
        <ele>508.91</ele>
        <time>2015-12-11T15:20:49Z</time>
      </trkpt>
      <trkpt lat="44.46445" lon="2.70644">
        <ele>510.82</ele>
        <time>2015-12-11T15:20:53Z</time>
      </trkpt>
      <trkpt lat="44.46449" lon="2.70648">
        <ele>511.76</ele>
        <time>2015-12-11T15:20:56Z</time>
      </trkpt>
      <trkpt lat="44.46452" lon="2.70654">
        <ele>511.62</ele>
        <time>2015-12-11T15:21:00Z</time>
      </trkpt>
      <trkpt lat="44.46455" lon="2.70658">
        <ele>512.68</ele>
        <time>2015-12-11T15:21:04Z</time>
      </trkpt>
      <trkpt lat="44.46459" lon="2.70662">
        <ele>513.26</ele>
        <time>2015-12-11T15:21:08Z</time>
      </trkpt>
      <trkpt lat="44.46463" lon="2.70665">
        <ele>513.39</ele>
        <time>2015-12-11T15:21:12Z</time>
      </trkpt>
      <trkpt lat="44.46466" lon="2.70669">
        <ele>514.2</ele>
        <time>2015-12-11T15:21:15Z</time>
      </trkpt>
      <trkpt lat="44.4647" lon="2.70672">
        <ele>515.04</ele>
        <time>2015-12-11T15:21:19Z</time>
      </trkpt>
      <trkpt lat="44.46475" lon="2.70674">
        <ele>514.95</ele>
        <time>2015-12-11T15:21:23Z</time>
      </trkpt>
      <trkpt lat="44.4648" lon="2.70678">
        <ele>516.01</ele>
        <time>2015-12-11T15:21:28Z</time>
      </trkpt>
      <trkpt lat="44.46483" lon="2.70682">
        <ele>516.86</ele>
        <time>2015-12-11T15:21:32Z</time>
      </trkpt>
      <trkpt lat="44.46487" lon="2.70686">
        <ele>517.99</ele>
        <time>2015-12-11T15:21:37Z</time>
      </trkpt>
      <trkpt lat="44.46492" lon="2.70688">
        <ele>518.14</ele>
        <time>2015-12-11T15:21:42Z</time>
      </trkpt>
      <trkpt lat="44.46497" lon="2.7069">
        <ele>518.52</ele>
        <time>2015-12-11T15:21:46Z</time>
      </trkpt>
      <trkpt lat="44.465" lon="2.70695">
        <ele>519.86</ele>
        <time>2015-12-11T15:21:50Z</time>
      </trkpt>
      <trkpt lat="44.46503" lon="2.707">
        <ele>520.24</ele>
        <time>2015-12-11T15:21:55Z</time>
      </trkpt>
      <trkpt lat="44.46507" lon="2.70706">
        <ele>519.53</ele>
        <time>2015-12-11T15:22:00Z</time>
      </trkpt>
      <trkpt lat="44.4651" lon="2.70711">
        <ele>519.77</ele>
        <time>2015-12-11T15:22:06Z</time>
      </trkpt>
      <trkpt lat="44.46512" lon="2.70718">
        <ele>520.39</ele>
        <time>2015-12-11T15:22:10Z</time>
      </trkpt>
      <trkpt lat="44.46513" lon="2.70725">
        <ele>522.07</ele>
        <time>2015-12-11T15:22:15Z</time>
      </trkpt>
      <trkpt lat="44.46515" lon="2.70732">
        <ele>524.89</ele>
        <time>2015-12-11T15:22:20Z</time>
      </trkpt>
      <trkpt lat="44.46519" lon="2.70737">
        <ele>525.73</ele>
        <time>2015-12-11T15:22:25Z</time>
      </trkpt>
      <trkpt lat="44.46522" lon="2.70742">
        <ele>525.47</ele>
        <time>2015-12-11T15:22:31Z</time>
      </trkpt>
      <trkpt lat="44.46527" lon="2.70743">
        <ele>532.54</ele>
        <time>2015-12-11T15:22:41Z</time>
      </trkpt>
      <trkpt lat="44.46531" lon="2.70745">
        <ele>534.42</ele>
        <time>2015-12-11T15:22:46Z</time>
      </trkpt>
      <trkpt lat="44.46536" lon="2.70747">
        <ele>535.61</ele>
        <time>2015-12-11T15:22:49Z</time>
      </trkpt>
      <trkpt lat="44.46541" lon="2.70748">
        <ele>537.76</ele>
        <time>2015-12-11T15:22:55Z</time>
      </trkpt>
      <trkpt lat="44.46545" lon="2.70752">
        <ele>536.41</ele>
        <time>2015-12-11T15:23:00Z</time>
      </trkpt>
      <trkpt lat="44.46549" lon="2.70756">
        <ele>537.09</ele>
        <time>2015-12-11T15:23:08Z</time>
      </trkpt>
      <trkpt lat="44.46552" lon="2.7076">
        <ele>536</ele>
        <time>2015-12-11T15:23:13Z</time>
      </trkpt>
      <trkpt lat="44.46555" lon="2.70765">
        <ele>532.51</ele>
        <time>2015-12-11T15:23:18Z</time>
      </trkpt>
      <trkpt lat="44.46559" lon="2.70769">
        <ele>532.31</ele>
        <time>2015-12-11T15:23:29Z</time>
      </trkpt>
      <trkpt lat="44.46584" lon="2.70802">
        <ele>537.06</ele>
        <time>2015-12-11T15:24:05Z</time>
      </trkpt>
      <trkpt lat="44.46583" lon="2.70809">
        <ele>540.12</ele>
        <time>2015-12-11T15:24:07Z</time>
      </trkpt>
      <trkpt lat="44.46587" lon="2.70813">
        <ele>543.19</ele>
        <time>2015-12-11T15:24:13Z</time>
      </trkpt>
      <trkpt lat="44.46588" lon="2.70821">
        <ele>542.98</ele>
        <time>2015-12-11T15:24:15Z</time>
      </trkpt>
      <trkpt lat="44.4659" lon="2.70826">
        <ele>545.9</ele>
        <time>2015-12-11T15:24:21Z</time>
      </trkpt>
      <trkpt lat="44.46593" lon="2.70832">
        <ele>545.43</ele>
        <time>2015-12-11T15:24:25Z</time>
      </trkpt>
      <trkpt lat="44.46594" lon="2.70838">
        <ele>543.88</ele>
        <time>2015-12-11T15:24:30Z</time>
      </trkpt>
      <trkpt lat="44.46596" lon="2.70845">
        <ele>543.7</ele>
        <time>2015-12-11T15:24:34Z</time>
      </trkpt>
      <trkpt lat="44.46598" lon="2.70852">
        <ele>544.87</ele>
        <time>2015-12-11T15:24:38Z</time>
      </trkpt>
      <trkpt lat="44.46601" lon="2.70858">
        <ele>545.22</ele>
        <time>2015-12-11T15:24:42Z</time>
      </trkpt>
      <trkpt lat="44.46603" lon="2.70864">
        <ele>545.06</ele>
        <time>2015-12-11T15:24:46Z</time>
      </trkpt>
      <trkpt lat="44.46606" lon="2.70871">
        <ele>546.05</ele>
        <time>2015-12-11T15:24:51Z</time>
      </trkpt>
      <trkpt lat="44.46608" lon="2.70877">
        <ele>546.6</ele>
        <time>2015-12-11T15:24:55Z</time>
      </trkpt>
      <trkpt lat="44.46609" lon="2.70885">
        <ele>546.79</ele>
        <time>2015-12-11T15:24:59Z</time>
      </trkpt>
      <trkpt lat="44.46611" lon="2.70892">
        <ele>546.37</ele>
        <time>2015-12-11T15:25:03Z</time>
      </trkpt>
      <trkpt lat="44.46612" lon="2.70899">
        <ele>546.37</ele>
        <time>2015-12-11T15:25:06Z</time>
      </trkpt>
      <trkpt lat="44.46613" lon="2.70906">
        <ele>547.16</ele>
        <time>2015-12-11T15:25:10Z</time>
      </trkpt>
      <trkpt lat="44.46615" lon="2.70912">
        <ele>547.1</ele>
        <time>2015-12-11T15:25:14Z</time>
      </trkpt>
      <trkpt lat="44.46617" lon="2.70919">
        <ele>546.36</ele>
        <time>2015-12-11T15:25:19Z</time>
      </trkpt>
      <trkpt lat="44.46619" lon="2.70926">
        <ele>545.06</ele>
        <time>2015-12-11T15:25:22Z</time>
      </trkpt>
      <trkpt lat="44.4662" lon="2.70932">
        <ele>545.13</ele>
        <time>2015-12-11T15:25:26Z</time>
      </trkpt>
      <trkpt lat="44.46622" lon="2.70941">
        <ele>542.87</ele>
        <time>2015-12-11T15:25:30Z</time>
      </trkpt>
      <trkpt lat="44.46623" lon="2.70948">
        <ele>542.4</ele>
        <time>2015-12-11T15:25:35Z</time>
      </trkpt>
      <trkpt lat="44.46624" lon="2.70955">
        <ele>542.27</ele>
        <time>2015-12-11T15:25:38Z</time>
      </trkpt>
      <trkpt lat="44.46625" lon="2.70962">
        <ele>544.44</ele>
        <time>2015-12-11T15:25:44Z</time>
      </trkpt>
      <trkpt lat="44.46626" lon="2.70969">
        <ele>544.59</ele>
        <time>2015-12-11T15:25:46Z</time>
      </trkpt>
      <trkpt lat="44.46629" lon="2.70975">
        <ele>541.62</ele>
        <time>2015-12-11T15:25:52Z</time>
      </trkpt>
      <trkpt lat="44.46631" lon="2.70981">
        <ele>541.86</ele>
        <time>2015-12-11T15:25:55Z</time>
      </trkpt>
      <trkpt lat="44.46634" lon="2.70987">
        <ele>541.87</ele>
        <time>2015-12-11T15:26:00Z</time>
      </trkpt>
      <trkpt lat="44.46634" lon="2.70994">
        <ele>541.24</ele>
        <time>2015-12-11T15:26:03Z</time>
      </trkpt>
      <trkpt lat="44.46637" lon="2.71002">
        <ele>542.41</ele>
        <time>2015-12-11T15:26:08Z</time>
      </trkpt>
      <trkpt lat="44.46638" lon="2.71009">
        <ele>542.46</ele>
        <time>2015-12-11T15:26:12Z</time>
      </trkpt>
      <trkpt lat="44.46639" lon="2.71015">
        <ele>541.91</ele>
        <time>2015-12-11T15:26:15Z</time>
      </trkpt>
      <trkpt lat="44.46641" lon="2.71022">
        <ele>542.8</ele>
        <time>2015-12-11T15:26:20Z</time>
      </trkpt>
      <trkpt lat="44.46643" lon="2.71028">
        <ele>542.7</ele>
        <time>2015-12-11T15:26:23Z</time>
      </trkpt>
      <trkpt lat="44.46645" lon="2.71034">
        <ele>542.29</ele>
        <time>2015-12-11T15:26:28Z</time>
      </trkpt>
      <trkpt lat="44.46647" lon="2.71041">
        <ele>542.67</ele>
        <time>2015-12-11T15:26:31Z</time>
      </trkpt>
      <trkpt lat="44.46648" lon="2.7105">
        <ele>544.5</ele>
        <time>2015-12-11T15:26:36Z</time>
      </trkpt>
      <trkpt lat="44.46647" lon="2.71057">
        <ele>543.71</ele>
        <time>2015-12-11T15:26:40Z</time>
      </trkpt>
      <trkpt lat="44.46647" lon="2.71066">
        <ele>543.06</ele>
        <time>2015-12-11T15:26:44Z</time>
      </trkpt>
      <trkpt lat="44.46647" lon="2.71073">
        <ele>542.58</ele>
        <time>2015-12-11T15:26:49Z</time>
      </trkpt>
      <trkpt lat="44.46647" lon="2.7108">
        <ele>543.77</ele>
        <time>2015-12-11T15:26:52Z</time>
      </trkpt>
      <trkpt lat="44.46646" lon="2.71092">
        <ele>545</ele>
        <time>2015-12-11T15:26:59Z</time>
      </trkpt>
      <trkpt lat="44.46646" lon="2.71099">
        <ele>545.28</ele>
        <time>2015-12-11T15:27:04Z</time>
      </trkpt>
      <trkpt lat="44.46644" lon="2.71105">
        <ele>549.2</ele>
        <time>2015-12-11T15:27:07Z</time>
      </trkpt>
      <trkpt lat="44.46644" lon="2.71112">
        <ele>548.13</ele>
        <time>2015-12-11T15:27:11Z</time>
      </trkpt>
      <trkpt lat="44.46643" lon="2.71119">
        <ele>547.63</ele>
        <time>2015-12-11T15:27:14Z</time>
      </trkpt>
      <trkpt lat="44.46643" lon="2.71125">
        <ele>545.71</ele>
        <time>2015-12-11T15:27:52Z</time>
      </trkpt>
      <trkpt lat="44.46642" lon="2.71132">
        <ele>538.76</ele>
        <time>2015-12-11T15:27:58Z</time>
      </trkpt>
      <trkpt lat="44.46639" lon="2.71139">
        <ele>537.2</ele>
        <time>2015-12-11T15:28:02Z</time>
      </trkpt>
      <trkpt lat="44.4664" lon="2.71146">
        <ele>536.29</ele>
        <time>2015-12-11T15:28:07Z</time>
      </trkpt>
      <trkpt lat="44.46641" lon="2.71153">
        <ele>534.58</ele>
        <time>2015-12-11T15:28:12Z</time>
      </trkpt>
      <trkpt lat="44.46643" lon="2.71161">
        <ele>536.08</ele>
        <time>2015-12-11T15:28:15Z</time>
      </trkpt>
      <trkpt lat="44.46644" lon="2.71167">
        <ele>535.95</ele>
        <time>2015-12-11T15:28:19Z</time>
      </trkpt>
      <trkpt lat="44.46647" lon="2.71172">
        <ele>536.42</ele>
        <time>2015-12-11T15:28:22Z</time>
      </trkpt>
      <trkpt lat="44.4665" lon="2.71176">
        <ele>535.88</ele>
        <time>2015-12-11T15:28:26Z</time>
      </trkpt>
      <trkpt lat="44.46654" lon="2.71182">
        <ele>536.07</ele>
        <time>2015-12-11T15:28:30Z</time>
      </trkpt>
      <trkpt lat="44.46676" lon="2.7124">
        <ele>535.07</ele>
        <time>2015-12-11T15:29:06Z</time>
      </trkpt>
      <trkpt lat="44.4668" lon="2.71245">
        <ele>535.71</ele>
        <time>2015-12-11T15:29:12Z</time>
      </trkpt>
      <trkpt lat="44.46684" lon="2.7125">
        <ele>535.39</ele>
        <time>2015-12-11T15:29:15Z</time>
      </trkpt>
      <trkpt lat="44.46687" lon="2.71254">
        <ele>532.34</ele>
        <time>2015-12-11T15:29:20Z</time>
      </trkpt>
      <trkpt lat="44.46691" lon="2.71258">
        <ele>532.07</ele>
        <time>2015-12-11T15:29:23Z</time>
      </trkpt>
      <trkpt lat="44.46695" lon="2.71264">
        <ele>534.08</ele>
        <time>2015-12-11T15:29:28Z</time>
      </trkpt>
      <trkpt lat="44.46698" lon="2.71269">
        <ele>533.85</ele>
        <time>2015-12-11T15:29:31Z</time>
      </trkpt>
      <trkpt lat="44.46703" lon="2.7127">
        <ele>533.02</ele>
        <time>2015-12-11T15:29:35Z</time>
      </trkpt>
      <trkpt lat="44.46706" lon="2.71274">
        <ele>532.5</ele>
        <time>2015-12-11T15:29:39Z</time>
      </trkpt>
      <trkpt lat="44.46709" lon="2.7128">
        <ele>533.69</ele>
        <time>2015-12-11T15:29:48Z</time>
      </trkpt>
      <trkpt lat="44.46711" lon="2.71287">
        <ele>532.78</ele>
        <time>2015-12-11T15:29:51Z</time>
      </trkpt>
      <trkpt lat="44.46716" lon="2.7129">
        <ele>534.87</ele>
        <time>2015-12-11T15:29:55Z</time>
      </trkpt>
      <trkpt lat="44.46719" lon="2.71294">
        <ele>535.17</ele>
        <time>2015-12-11T15:29:57Z</time>
      </trkpt>
      <trkpt lat="44.46724" lon="2.71297">
        <ele>533.7</ele>
        <time>2015-12-11T15:30:01Z</time>
      </trkpt>
      <trkpt lat="44.46725" lon="2.71304">
        <ele>530.5</ele>
        <time>2015-12-11T15:30:07Z</time>
      </trkpt>
      <trkpt lat="44.46727" lon="2.71311">
        <ele>529.42</ele>
        <time>2015-12-11T15:30:11Z</time>
      </trkpt>
      <trkpt lat="44.46731" lon="2.71316">
        <ele>532.53</ele>
        <time>2015-12-11T15:30:14Z</time>
      </trkpt>
      <trkpt lat="44.46734" lon="2.71322">
        <ele>532.18</ele>
        <time>2015-12-11T15:30:17Z</time>
      </trkpt>
      <trkpt lat="44.46737" lon="2.71328">
        <ele>532.24</ele>
        <time>2015-12-11T15:30:21Z</time>
      </trkpt>
      <trkpt lat="44.46739" lon="2.71335">
        <ele>531.55</ele>
        <time>2015-12-11T15:30:26Z</time>
      </trkpt>
      <trkpt lat="44.46742" lon="2.7134">
        <ele>532.04</ele>
        <time>2015-12-11T15:30:29Z</time>
      </trkpt>
      <trkpt lat="44.46745" lon="2.71345">
        <ele>531.95</ele>
        <time>2015-12-11T15:30:33Z</time>
      </trkpt>
      <trkpt lat="44.46747" lon="2.71351">
        <ele>533.57</ele>
        <time>2015-12-11T15:30:36Z</time>
      </trkpt>
      <trkpt lat="44.46749" lon="2.71358">
        <ele>533.51</ele>
        <time>2015-12-11T15:30:41Z</time>
      </trkpt>
      <trkpt lat="44.4675" lon="2.71365">
        <ele>533.46</ele>
        <time>2015-12-11T15:30:43Z</time>
      </trkpt>
      <trkpt lat="44.46753" lon="2.7137">
        <ele>533.97</ele>
        <time>2015-12-11T15:30:47Z</time>
      </trkpt>
      <trkpt lat="44.46756" lon="2.71378">
        <ele>534.27</ele>
        <time>2015-12-11T15:30:51Z</time>
      </trkpt>
      <trkpt lat="44.46759" lon="2.71385">
        <ele>533.38</ele>
        <time>2015-12-11T15:30:56Z</time>
      </trkpt>
      <trkpt lat="44.46758" lon="2.71392">
        <ele>532.78</ele>
        <time>2015-12-11T15:30:58Z</time>
      </trkpt>
      <trkpt lat="44.46757" lon="2.71402">
        <ele>533.05</ele>
        <time>2015-12-11T15:31:00Z</time>
      </trkpt>
      <trkpt lat="44.46762" lon="2.714">
        <ele>536.47</ele>
        <time>2015-12-11T15:31:06Z</time>
      </trkpt>
      <trkpt lat="44.46768" lon="2.71402">
        <ele>537.51</ele>
        <time>2015-12-11T15:31:11Z</time>
      </trkpt>
      <trkpt lat="44.46773" lon="2.71406">
        <ele>537.35</ele>
        <time>2015-12-11T15:31:14Z</time>
      </trkpt>
      <trkpt lat="44.46778" lon="2.71405">
        <ele>536.43</ele>
        <time>2015-12-11T15:31:17Z</time>
      </trkpt>
      <trkpt lat="44.46782" lon="2.71409">
        <ele>536.12</ele>
        <time>2015-12-11T15:31:21Z</time>
      </trkpt>
      <trkpt lat="44.46783" lon="2.71418">
        <ele>537.34</ele>
        <time>2015-12-11T15:31:25Z</time>
      </trkpt>
      <trkpt lat="44.46788" lon="2.7142">
        <ele>537.88</ele>
        <time>2015-12-11T15:31:28Z</time>
      </trkpt>
      <trkpt lat="44.46792" lon="2.71425">
        <ele>538.38</ele>
        <time>2015-12-11T15:31:33Z</time>
      </trkpt>
      <trkpt lat="44.46796" lon="2.71429">
        <ele>538.04</ele>
        <time>2015-12-11T15:31:37Z</time>
      </trkpt>
      <trkpt lat="44.468" lon="2.71433">
        <ele>537.53</ele>
        <time>2015-12-11T15:31:41Z</time>
      </trkpt>
      <trkpt lat="44.46804" lon="2.71438">
        <ele>538.61</ele>
        <time>2015-12-11T15:31:46Z</time>
      </trkpt>
      <trkpt lat="44.46807" lon="2.71442">
        <ele>539.24</ele>
        <time>2015-12-11T15:31:50Z</time>
      </trkpt>
      <trkpt lat="44.46811" lon="2.71449">
        <ele>538.26</ele>
        <time>2015-12-11T15:31:55Z</time>
      </trkpt>
      <trkpt lat="44.46814" lon="2.71455">
        <ele>539.45</ele>
        <time>2015-12-11T15:32:00Z</time>
      </trkpt>
      <trkpt lat="44.46817" lon="2.71459">
        <ele>540.47</ele>
        <time>2015-12-11T15:32:04Z</time>
      </trkpt>
      <trkpt lat="44.46821" lon="2.71464">
        <ele>542.71</ele>
        <time>2015-12-11T15:32:09Z</time>
      </trkpt>
      <trkpt lat="44.46824" lon="2.71469">
        <ele>544.18</ele>
        <time>2015-12-11T15:32:13Z</time>
      </trkpt>
      <trkpt lat="44.46827" lon="2.71477">
        <ele>543.29</ele>
        <time>2015-12-11T15:32:17Z</time>
      </trkpt>
      <trkpt lat="44.46831" lon="2.71482">
        <ele>541.38</ele>
        <time>2015-12-11T15:32:22Z</time>
      </trkpt>
      <trkpt lat="44.46834" lon="2.71488">
        <ele>538.17</ele>
        <time>2015-12-11T15:32:27Z</time>
      </trkpt>
      <trkpt lat="44.46838" lon="2.71494">
        <ele>537.58</ele>
        <time>2015-12-11T15:32:32Z</time>
      </trkpt>
      <trkpt lat="44.46842" lon="2.71499">
        <ele>538.6</ele>
        <time>2015-12-11T15:32:35Z</time>
      </trkpt>
      <trkpt lat="44.46842" lon="2.71506">
        <ele>538.29</ele>
        <time>2015-12-11T15:32:44Z</time>
      </trkpt>
      <trkpt lat="44.46841" lon="2.71512">
        <ele>537.83</ele>
        <time>2015-12-11T15:32:46Z</time>
      </trkpt>
      <trkpt lat="44.46838" lon="2.71517">
        <ele>536.08</ele>
        <time>2015-12-11T15:32:50Z</time>
      </trkpt>
      <trkpt lat="44.46834" lon="2.71522">
        <ele>536.91</ele>
        <time>2015-12-11T15:32:56Z</time>
      </trkpt>
      <trkpt lat="44.46831" lon="2.7153">
        <ele>537.78</ele>
        <time>2015-12-11T15:33:00Z</time>
      </trkpt>
      <trkpt lat="44.46828" lon="2.71536">
        <ele>538.32</ele>
        <time>2015-12-11T15:33:06Z</time>
      </trkpt>
      <trkpt lat="44.46824" lon="2.71542">
        <ele>538.49</ele>
        <time>2015-12-11T15:33:12Z</time>
      </trkpt>
      <trkpt lat="44.46821" lon="2.71547">
        <ele>539.48</ele>
        <time>2015-12-11T15:33:14Z</time>
      </trkpt>
      <trkpt lat="44.46818" lon="2.71554">
        <ele>542.19</ele>
        <time>2015-12-11T15:33:20Z</time>
      </trkpt>
      <trkpt lat="44.46814" lon="2.71558">
        <ele>542.53</ele>
        <time>2015-12-11T15:33:24Z</time>
      </trkpt>
      <trkpt lat="44.46813" lon="2.71564">
        <ele>541.69</ele>
        <time>2015-12-11T15:33:27Z</time>
      </trkpt>
      <trkpt lat="44.4681" lon="2.71572">
        <ele>541.12</ele>
        <time>2015-12-11T15:33:33Z</time>
      </trkpt>
      <trkpt lat="44.46785" lon="2.71605">
        <ele>539.33</ele>
        <time>2015-12-11T15:34:07Z</time>
      </trkpt>
      <trkpt lat="44.46781" lon="2.71608">
        <ele>534.7</ele>
        <time>2015-12-11T15:34:11Z</time>
      </trkpt>
      <trkpt lat="44.46776" lon="2.71611">
        <ele>529.75</ele>
        <time>2015-12-11T15:34:15Z</time>
      </trkpt>
      <trkpt lat="44.46772" lon="2.71616">
        <ele>530.82</ele>
        <time>2015-12-11T15:34:19Z</time>
      </trkpt>
      <trkpt lat="44.46765" lon="2.71619">
        <ele>532.23</ele>
        <time>2015-12-11T15:34:26Z</time>
      </trkpt>
      <trkpt lat="44.46763" lon="2.71625">
        <ele>537.36</ele>
        <time>2015-12-11T15:34:38Z</time>
      </trkpt>
      <trkpt lat="44.4676" lon="2.7163">
        <ele>533.87</ele>
        <time>2015-12-11T15:34:41Z</time>
      </trkpt>
      <trkpt lat="44.46756" lon="2.71635">
        <ele>529</ele>
        <time>2015-12-11T15:34:51Z</time>
      </trkpt>
      <trkpt lat="44.46751" lon="2.71639">
        <ele>529.61</ele>
        <time>2015-12-11T15:34:55Z</time>
      </trkpt>
      <trkpt lat="44.46748" lon="2.71644">
        <ele>527.45</ele>
        <time>2015-12-11T15:34:58Z</time>
      </trkpt>
      <trkpt lat="44.46744" lon="2.71651">
        <ele>524.97</ele>
        <time>2015-12-11T15:35:01Z</time>
      </trkpt>
      <trkpt lat="44.46739" lon="2.71655">
        <ele>521.89</ele>
        <time>2015-12-11T15:35:06Z</time>
      </trkpt>
      <trkpt lat="44.46735" lon="2.71659">
        <ele>522.2</ele>
        <time>2015-12-11T15:35:12Z</time>
      </trkpt>
      <trkpt lat="44.46736" lon="2.71666">
        <ele>524.81</ele>
        <time>2015-12-11T15:35:16Z</time>
      </trkpt>
      <trkpt lat="44.46742" lon="2.71663">
        <ele>521.45</ele>
        <time>2015-12-11T15:35:28Z</time>
      </trkpt>
      <trkpt lat="44.46746" lon="2.71661">
        <ele>520.52</ele>
        <time>2015-12-11T15:35:31Z</time>
      </trkpt>
      <trkpt lat="44.46751" lon="2.71659">
        <ele>521.45</ele>
        <time>2015-12-11T15:35:35Z</time>
      </trkpt>
      <trkpt lat="44.46755" lon="2.71655">
        <ele>520.53</ele>
        <time>2015-12-11T15:35:45Z</time>
      </trkpt>
      <trkpt lat="44.4676" lon="2.71653">
        <ele>518.13</ele>
        <time>2015-12-11T15:35:53Z</time>
      </trkpt>
      <trkpt lat="44.46755" lon="2.71654">
        <ele>517.19</ele>
        <time>2015-12-11T15:36:01Z</time>
      </trkpt>
      <trkpt lat="44.46753" lon="2.7166">
        <ele>516</ele>
        <time>2015-12-11T15:36:06Z</time>
      </trkpt>
      <trkpt lat="44.46751" lon="2.71667">
        <ele>514.76</ele>
        <time>2015-12-11T15:36:09Z</time>
      </trkpt>
      <trkpt lat="44.46749" lon="2.71673">
        <ele>513.3</ele>
        <time>2015-12-11T15:36:14Z</time>
      </trkpt>
      <trkpt lat="44.46746" lon="2.7168">
        <ele>512.22</ele>
        <time>2015-12-11T15:36:20Z</time>
      </trkpt>
      <trkpt lat="44.46743" lon="2.71685">
        <ele>514.08</ele>
        <time>2015-12-11T15:36:23Z</time>
      </trkpt>
      <trkpt lat="44.46741" lon="2.71691">
        <ele>516.84</ele>
        <time>2015-12-11T15:36:29Z</time>
      </trkpt>
      <trkpt lat="44.46739" lon="2.71698">
        <ele>515.13</ele>
        <time>2015-12-11T15:36:34Z</time>
      </trkpt>
      <trkpt lat="44.46744" lon="2.71698">
        <ele>510.95</ele>
        <time>2015-12-11T15:36:45Z</time>
      </trkpt>
      <trkpt lat="44.46745" lon="2.71691">
        <ele>510.6</ele>
        <time>2015-12-11T15:36:59Z</time>
      </trkpt>
      <trkpt lat="44.46748" lon="2.71683">
        <ele>507.49</ele>
        <time>2015-12-11T15:37:02Z</time>
      </trkpt>
      <trkpt lat="44.46752" lon="2.71678">
        <ele>504.76</ele>
        <time>2015-12-11T15:37:06Z</time>
      </trkpt>
      <trkpt lat="44.46756" lon="2.71673">
        <ele>504.59</ele>
        <time>2015-12-11T15:37:09Z</time>
      </trkpt>
      <trkpt lat="44.46762" lon="2.71672">
        <ele>506.05</ele>
        <time>2015-12-11T15:37:12Z</time>
      </trkpt>
      <trkpt lat="44.46766" lon="2.71667">
        <ele>506.67</ele>
        <time>2015-12-11T15:37:16Z</time>
      </trkpt>
      <trkpt lat="44.46772" lon="2.71666">
        <ele>507.38</ele>
        <time>2015-12-11T15:37:19Z</time>
      </trkpt>
      <trkpt lat="44.46778" lon="2.71665">
        <ele>510.91</ele>
        <time>2015-12-11T15:37:23Z</time>
      </trkpt>
      <trkpt lat="44.46783" lon="2.71666">
        <ele>511.56</ele>
        <time>2015-12-11T15:37:28Z</time>
      </trkpt>
      <trkpt lat="44.46788" lon="2.71668">
        <ele>512.41</ele>
        <time>2015-12-11T15:37:32Z</time>
      </trkpt>
      <trkpt lat="44.46794" lon="2.7167">
        <ele>512.36</ele>
        <time>2015-12-11T15:37:37Z</time>
      </trkpt>
      <trkpt lat="44.46798" lon="2.71673">
        <ele>512.06</ele>
        <time>2015-12-11T15:37:48Z</time>
      </trkpt>
      <trkpt lat="44.46803" lon="2.71672">
        <ele>511.69</ele>
        <time>2015-12-11T15:37:52Z</time>
      </trkpt>
      <trkpt lat="44.46806" lon="2.71666">
        <ele>515.18</ele>
        <time>2015-12-11T15:37:55Z</time>
      </trkpt>
      <trkpt lat="44.46812" lon="2.71665">
        <ele>514.12</ele>
        <time>2015-12-11T15:37:59Z</time>
      </trkpt>
      <trkpt lat="44.46817" lon="2.71661">
        <ele>513.87</ele>
        <time>2015-12-11T15:38:04Z</time>
      </trkpt>
      <trkpt lat="44.46822" lon="2.71661">
        <ele>511.72</ele>
        <time>2015-12-11T15:38:09Z</time>
      </trkpt>
      <trkpt lat="44.46827" lon="2.71661">
        <ele>511.04</ele>
        <time>2015-12-11T15:38:12Z</time>
      </trkpt>
      <trkpt lat="44.46832" lon="2.71665">
        <ele>509.52</ele>
        <time>2015-12-11T15:38:15Z</time>
      </trkpt>
      <trkpt lat="44.46839" lon="2.71664">
        <ele>512.54</ele>
        <time>2015-12-11T15:38:20Z</time>
      </trkpt>
      <trkpt lat="44.46845" lon="2.71664">
        <ele>512.61</ele>
        <time>2015-12-11T15:38:22Z</time>
      </trkpt>
      <trkpt lat="44.46847" lon="2.7167">
        <ele>508.73</ele>
        <time>2015-12-11T15:38:28Z</time>
      </trkpt>
      <trkpt lat="44.46852" lon="2.71674">
        <ele>506.98</ele>
        <time>2015-12-11T15:38:34Z</time>
      </trkpt>
      <trkpt lat="44.46877" lon="2.71707">
        <ele>506.36</ele>
        <time>2015-12-11T15:39:07Z</time>
      </trkpt>
      <trkpt lat="44.46881" lon="2.71715">
        <ele>509.71</ele>
        <time>2015-12-11T15:39:11Z</time>
      </trkpt>
      <trkpt lat="44.46884" lon="2.71721">
        <ele>509.69</ele>
        <time>2015-12-11T15:39:16Z</time>
      </trkpt>
      <trkpt lat="44.46889" lon="2.71724">
        <ele>507.39</ele>
        <time>2015-12-11T15:39:22Z</time>
      </trkpt>
      <trkpt lat="44.46893" lon="2.71729">
        <ele>504.72</ele>
        <time>2015-12-11T15:39:26Z</time>
      </trkpt>
      <trkpt lat="44.46895" lon="2.71735">
        <ele>507.32</ele>
        <time>2015-12-11T15:39:32Z</time>
      </trkpt>
      <trkpt lat="44.46899" lon="2.71739">
        <ele>505.27</ele>
        <time>2015-12-11T15:39:36Z</time>
      </trkpt>
      <trkpt lat="44.46901" lon="2.71747">
        <ele>503.06</ele>
        <time>2015-12-11T15:39:41Z</time>
      </trkpt>
      <trkpt lat="44.46901" lon="2.71753">
        <ele>501.29</ele>
        <time>2015-12-11T15:39:45Z</time>
      </trkpt>
      <trkpt lat="44.46902" lon="2.7176">
        <ele>501.96</ele>
        <time>2015-12-11T15:39:49Z</time>
      </trkpt>
      <trkpt lat="44.46903" lon="2.71766">
        <ele>503.47</ele>
        <time>2015-12-11T15:39:54Z</time>
      </trkpt>
      <trkpt lat="44.46905" lon="2.71773">
        <ele>502.89</ele>
        <time>2015-12-11T15:39:57Z</time>
      </trkpt>
      <trkpt lat="44.46908" lon="2.71777">
        <ele>501.2</ele>
        <time>2015-12-11T15:40:03Z</time>
      </trkpt>
      <trkpt lat="44.46912" lon="2.7178">
        <ele>507.83</ele>
        <time>2015-12-11T15:40:08Z</time>
      </trkpt>
      <trkpt lat="44.46916" lon="2.71784">
        <ele>514.05</ele>
        <time>2015-12-11T15:40:13Z</time>
      </trkpt>
      <trkpt lat="44.4692" lon="2.71789">
        <ele>516.19</ele>
        <time>2015-12-11T15:40:20Z</time>
      </trkpt>
      <trkpt lat="44.4692" lon="2.71795">
        <ele>516.22</ele>
        <time>2015-12-11T15:40:23Z</time>
      </trkpt>
      <trkpt lat="44.46922" lon="2.71802">
        <ele>516.54</ele>
        <time>2015-12-11T15:40:25Z</time>
      </trkpt>
      <trkpt lat="44.46926" lon="2.71797">
        <ele>519</ele>
        <time>2015-12-11T15:40:28Z</time>
      </trkpt>
      <trkpt lat="44.4693" lon="2.71797">
        <ele>526.45</ele>
        <time>2015-12-11T15:40:35Z</time>
      </trkpt>
      <trkpt lat="44.46935" lon="2.71802">
        <ele>530.44</ele>
        <time>2015-12-11T15:40:43Z</time>
      </trkpt>
      <trkpt lat="44.46937" lon="2.71807">
        <ele>528.92</ele>
        <time>2015-12-11T15:40:50Z</time>
      </trkpt>
      <trkpt lat="44.46942" lon="2.71812">
        <ele>531.51</ele>
        <time>2015-12-11T15:40:55Z</time>
      </trkpt>
      <trkpt lat="44.46946" lon="2.71816">
        <ele>530.87</ele>
        <time>2015-12-11T15:40:59Z</time>
      </trkpt>
      <trkpt lat="44.46949" lon="2.71822">
        <ele>531.66</ele>
        <time>2015-12-11T15:41:05Z</time>
      </trkpt>
      <trkpt lat="44.46953" lon="2.71826">
        <ele>530.22</ele>
        <time>2015-12-11T15:41:11Z</time>
      </trkpt>
      <trkpt lat="44.46957" lon="2.71831">
        <ele>528.41</ele>
        <time>2015-12-11T15:41:16Z</time>
      </trkpt>
      <trkpt lat="44.46958" lon="2.71837">
        <ele>526.82</ele>
        <time>2015-12-11T15:41:21Z</time>
      </trkpt>
      <trkpt lat="44.46959" lon="2.71844">
        <ele>522.56</ele>
        <time>2015-12-11T15:41:24Z</time>
      </trkpt>
      <trkpt lat="44.46956" lon="2.71849">
        <ele>518.68</ele>
        <time>2015-12-11T15:41:29Z</time>
      </trkpt>
      <trkpt lat="44.46951" lon="2.71847">
        <ele>516.24</ele>
        <time>2015-12-11T15:41:37Z</time>
      </trkpt>
      <trkpt lat="44.46946" lon="2.71848">
        <ele>507.36</ele>
        <time>2015-12-11T15:41:43Z</time>
      </trkpt>
      <trkpt lat="44.46942" lon="2.71845">
        <ele>508.15</ele>
        <time>2015-12-11T15:41:47Z</time>
      </trkpt>
      <trkpt lat="44.46938" lon="2.71841">
        <ele>509.4</ele>
        <time>2015-12-11T15:41:52Z</time>
      </trkpt>
      <trkpt lat="44.46934" lon="2.71837">
        <ele>513.04</ele>
        <time>2015-12-11T15:42:10Z</time>
      </trkpt>
      <trkpt lat="44.4693" lon="2.71833">
        <ele>513.31</ele>
        <time>2015-12-11T15:42:14Z</time>
      </trkpt>
      <trkpt lat="44.46926" lon="2.71839">
        <ele>515.54</ele>
        <time>2015-12-11T15:42:19Z</time>
      </trkpt>
      <trkpt lat="44.46926" lon="2.71846">
        <ele>515.37</ele>
        <time>2015-12-11T15:42:33Z</time>
      </trkpt>
      <trkpt lat="44.46929" lon="2.71852">
        <ele>521.19</ele>
        <time>2015-12-11T15:42:39Z</time>
      </trkpt>
      <trkpt lat="44.46927" lon="2.71858">
        <ele>523.78</ele>
        <time>2015-12-11T15:42:49Z</time>
      </trkpt>
      <trkpt lat="44.4693" lon="2.71863">
        <ele>522.92</ele>
        <time>2015-12-11T15:42:52Z</time>
      </trkpt>
      <trkpt lat="44.46932" lon="2.71871">
        <ele>523.68</ele>
        <time>2015-12-11T15:42:59Z</time>
      </trkpt>
      <trkpt lat="44.46931" lon="2.71878">
        <ele>523.13</ele>
        <time>2015-12-11T15:43:01Z</time>
      </trkpt>
      <trkpt lat="44.46938" lon="2.7188">
        <ele>522.25</ele>
        <time>2015-12-11T15:43:07Z</time>
      </trkpt>
      <trkpt lat="44.46942" lon="2.71884">
        <ele>520.89</ele>
        <time>2015-12-11T15:43:09Z</time>
      </trkpt>
      <trkpt lat="44.46947" lon="2.71888">
        <ele>523.61</ele>
        <time>2015-12-11T15:43:12Z</time>
      </trkpt>
      <trkpt lat="44.4695" lon="2.71893">
        <ele>524.43</ele>
        <time>2015-12-11T15:43:16Z</time>
      </trkpt>
      <trkpt lat="44.46953" lon="2.71898">
        <ele>526.76</ele>
        <time>2015-12-11T15:43:23Z</time>
      </trkpt>
      <trkpt lat="44.46957" lon="2.71905">
        <ele>529.64</ele>
        <time>2015-12-11T15:43:27Z</time>
      </trkpt>
      <trkpt lat="44.46959" lon="2.7191">
        <ele>531.1</ele>
        <time>2015-12-11T15:43:34Z</time>
      </trkpt>
      <trkpt lat="44.46951" lon="2.71936">
        <ele>532.06</ele>
        <time>2015-12-11T15:44:04Z</time>
      </trkpt>
      <trkpt lat="44.4695" lon="2.71943">
        <ele>534.67</ele>
        <time>2015-12-11T15:44:09Z</time>
      </trkpt>
      <trkpt lat="44.46945" lon="2.71947">
        <ele>540.5</ele>
        <time>2015-12-11T15:44:13Z</time>
      </trkpt>
      <trkpt lat="44.46945" lon="2.71954">
        <ele>539.99</ele>
        <time>2015-12-11T15:44:16Z</time>
      </trkpt>
      <trkpt lat="44.46944" lon="2.71961">
        <ele>542.19</ele>
        <time>2015-12-11T15:44:20Z</time>
      </trkpt>
      <trkpt lat="44.46945" lon="2.71967">
        <ele>543.03</ele>
        <time>2015-12-11T15:44:23Z</time>
      </trkpt>
      <trkpt lat="44.46947" lon="2.71974">
        <ele>541.01</ele>
        <time>2015-12-11T15:44:28Z</time>
      </trkpt>
      <trkpt lat="44.46949" lon="2.71981">
        <ele>540.03</ele>
        <time>2015-12-11T15:44:34Z</time>
      </trkpt>
      <trkpt lat="44.4695" lon="2.71988">
        <ele>539.51</ele>
        <time>2015-12-11T15:44:38Z</time>
      </trkpt>
      <trkpt lat="44.46951" lon="2.71994">
        <ele>539.58</ele>
        <time>2015-12-11T15:44:42Z</time>
      </trkpt>
      <trkpt lat="44.46954" lon="2.72002">
        <ele>539.72</ele>
        <time>2015-12-11T15:44:47Z</time>
      </trkpt>
      <trkpt lat="44.46956" lon="2.72009">
        <ele>538.97</ele>
        <time>2015-12-11T15:44:52Z</time>
      </trkpt>
      <trkpt lat="44.46959" lon="2.72014">
        <ele>539.8</ele>
        <time>2015-12-11T15:44:57Z</time>
      </trkpt>
      <trkpt lat="44.46963" lon="2.72018">
        <ele>540.48</ele>
        <time>2015-12-11T15:45:02Z</time>
      </trkpt>
      <trkpt lat="44.46967" lon="2.72023">
        <ele>540.03</ele>
        <time>2015-12-11T15:45:05Z</time>
      </trkpt>
      <trkpt lat="44.4697" lon="2.72028">
        <ele>539.7</ele>
        <time>2015-12-11T15:45:08Z</time>
      </trkpt>
      <trkpt lat="44.46972" lon="2.72034">
        <ele>539.54</ele>
        <time>2015-12-11T15:45:13Z</time>
      </trkpt>
      <trkpt lat="44.46974" lon="2.72039">
        <ele>538.63</ele>
        <time>2015-12-11T15:45:17Z</time>
      </trkpt>
      <trkpt lat="44.46978" lon="2.72044">
        <ele>539.38</ele>
        <time>2015-12-11T15:45:21Z</time>
      </trkpt>
      <trkpt lat="44.46981" lon="2.7205">
        <ele>538.84</ele>
        <time>2015-12-11T15:45:28Z</time>
      </trkpt>
      <trkpt lat="44.46985" lon="2.72054">
        <ele>539.38</ele>
        <time>2015-12-11T15:45:31Z</time>
      </trkpt>
      <trkpt lat="44.46988" lon="2.72059">
        <ele>540.23</ele>
        <time>2015-12-11T15:45:35Z</time>
      </trkpt>
      <trkpt lat="44.46993" lon="2.72064">
        <ele>539.48</ele>
        <time>2015-12-11T15:45:40Z</time>
      </trkpt>
      <trkpt lat="44.46997" lon="2.72068">
        <ele>540.36</ele>
        <time>2015-12-11T15:45:45Z</time>
      </trkpt>
      <trkpt lat="44.47001" lon="2.72073">
        <ele>541.34</ele>
        <time>2015-12-11T15:45:54Z</time>
      </trkpt>
      <trkpt lat="44.47004" lon="2.72078">
        <ele>541.62</ele>
        <time>2015-12-11T15:45:58Z</time>
      </trkpt>
      <trkpt lat="44.47008" lon="2.72085">
        <ele>541.6</ele>
        <time>2015-12-11T15:46:02Z</time>
      </trkpt>
      <trkpt lat="44.47009" lon="2.72092">
        <ele>538.96</ele>
        <time>2015-12-11T15:46:06Z</time>
      </trkpt>
      <trkpt lat="44.47012" lon="2.72097">
        <ele>537.7</ele>
        <time>2015-12-11T15:46:08Z</time>
      </trkpt>
      <trkpt lat="44.47016" lon="2.72104">
        <ele>537.68</ele>
        <time>2015-12-11T15:46:14Z</time>
      </trkpt>
      <trkpt lat="44.47017" lon="2.7211">
        <ele>539</ele>
        <time>2015-12-11T15:46:19Z</time>
      </trkpt>
      <trkpt lat="44.47017" lon="2.72118">
        <ele>539.56</ele>
        <time>2015-12-11T15:46:22Z</time>
      </trkpt>
      <trkpt lat="44.47019" lon="2.72123">
        <ele>540.54</ele>
        <time>2015-12-11T15:46:27Z</time>
      </trkpt>
      <trkpt lat="44.47024" lon="2.72127">
        <ele>540.68</ele>
        <time>2015-12-11T15:46:30Z</time>
      </trkpt>
      <trkpt lat="44.47027" lon="2.72134">
        <ele>540.52</ele>
        <time>2015-12-11T15:46:34Z</time>
      </trkpt>
      <trkpt lat="44.4703" lon="2.72141">
        <ele>539.17</ele>
        <time>2015-12-11T15:46:39Z</time>
      </trkpt>
      <trkpt lat="44.47034" lon="2.72144">
        <ele>540.67</ele>
        <time>2015-12-11T15:46:42Z</time>
      </trkpt>
      <trkpt lat="44.47039" lon="2.7215">
        <ele>540.73</ele>
        <time>2015-12-11T15:46:47Z</time>
      </trkpt>
      <trkpt lat="44.47041" lon="2.72156">
        <ele>544.06</ele>
        <time>2015-12-11T15:46:52Z</time>
      </trkpt>
      <trkpt lat="44.47044" lon="2.72162">
        <ele>543.97</ele>
        <time>2015-12-11T15:46:56Z</time>
      </trkpt>
      <trkpt lat="44.47049" lon="2.72164">
        <ele>544.15</ele>
        <time>2015-12-11T15:46:59Z</time>
      </trkpt>
      <trkpt lat="44.47052" lon="2.7217">
        <ele>543.9</ele>
        <time>2015-12-11T15:47:04Z</time>
      </trkpt>
      <trkpt lat="44.47056" lon="2.72176">
        <ele>543.65</ele>
        <time>2015-12-11T15:47:07Z</time>
      </trkpt>
      <trkpt lat="44.4706" lon="2.72182">
        <ele>546.49</ele>
        <time>2015-12-11T15:47:13Z</time>
      </trkpt>
      <trkpt lat="44.47063" lon="2.7219">
        <ele>547.35</ele>
        <time>2015-12-11T15:47:19Z</time>
      </trkpt>
      <trkpt lat="44.47066" lon="2.72196">
        <ele>548.01</ele>
        <time>2015-12-11T15:47:23Z</time>
      </trkpt>
      <trkpt lat="44.47071" lon="2.72199">
        <ele>549.74</ele>
        <time>2015-12-11T15:47:28Z</time>
      </trkpt>
      <trkpt lat="44.47074" lon="2.72204">
        <ele>549.64</ele>
        <time>2015-12-11T15:47:31Z</time>
      </trkpt>
      <trkpt lat="44.47077" lon="2.72209">
        <ele>548.35</ele>
        <time>2015-12-11T15:47:35Z</time>
      </trkpt>
      <trkpt lat="44.47081" lon="2.72214">
        <ele>549.47</ele>
        <time>2015-12-11T15:47:38Z</time>
      </trkpt>
      <trkpt lat="44.47083" lon="2.7222">
        <ele>552.29</ele>
        <time>2015-12-11T15:47:45Z</time>
      </trkpt>
      <trkpt lat="44.47084" lon="2.72227">
        <ele>553.94</ele>
        <time>2015-12-11T15:47:50Z</time>
      </trkpt>
      <trkpt lat="44.47086" lon="2.72234">
        <ele>553.93</ele>
        <time>2015-12-11T15:47:54Z</time>
      </trkpt>
      <trkpt lat="44.47089" lon="2.72241">
        <ele>553.16</ele>
        <time>2015-12-11T15:47:59Z</time>
      </trkpt>
    </trkseg>
  </trk>
</gpx>